Wetterdaten: Dienstag, 15.08.2017
Datum Zeit Temp. A. Temp. A. max Feuchte A. Luftdruck Regen Wind Richtung Richtung Sonnenschein ET UV Solar Taupunkt Windchill Windböen
15.08.2017 00:00 14,9 °C 14,9 °C 91 % 1017,2 hPa 0,0 mm 0,6 km/h (0 Bft) N-NO 26 ° 0 min 0,000 mm 0,0 UV-I 0 W/m² 13,4 °C 14,9 °C 3,2 km/h (1 Bft)
15.08.2017 00:01 14,9 °C 14,9 °C 91 % 1017,2 hPa 0,0 mm 1,2 km/h (1 Bft) N-NO 17 ° 0 min 0,000 mm 0,0 UV-I 0 W/m² 13,4 °C 14,9 °C 3,2 km/h (1 Bft)
15.08.2017 00:02 14,9 °C 14,9 °C 91 % 1017,2 hPa 0,0 mm 0,9 km/h (0 Bft) N-NO 16 ° 0 min 0,000 mm 0,0 UV-I 0 W/m² 13,4 °C 14,9 °C 3,2 km/h (1 Bft)
15.08.2017 00:03 14,9 °C 14,9 °C 91 % 1017,2 hPa 0,0 mm 0,1 km/h (0 Bft) N-NO 17 ° 0 min 0,000 mm 0,0 UV-I 0 W/m² 13,4 °C 14,9 °C 1,6 km/h (1 Bft)
15.08.2017 00:04 14,9 °C 14,9 °C 91 % 1017,2 hPa 0,0 mm 0,0 km/h (0 Bft) N-NO 16 ° 0 min 0,000 mm 0,0 UV-I 0 W/m² 13,4 °C 14,9 °C 0,0 km/h (0 Bft)
15.08.2017 00:05 14,9 °C 14,9 °C 91 % 1017,2 hPa 0,0 mm 1,9 km/h (1 Bft) NW 314 ° 0 min 0,000 mm 0,0 UV-I 0 W/m² 13,4 °C 14,9 °C 3,2 km/h (1 Bft)
15.08.2017 00:06 14,9 °C 14,9 °C 91 % 1017,2 hPa 0,0 mm 1,6 km/h (1 Bft) N-NO 17 ° 0 min 0,000 mm 0,0 UV-I 0 W/m² 13,4 °C 14,9 °C 4,8 km/h (1 Bft)
15.08.2017 00:07 14,9 °C 14,9 °C 91 % 1017,2 hPa 0,0 mm 1,1 km/h (1 Bft) N-NO 27 ° 0 min 0,000 mm 0,0 UV-I 0 W/m² 13,4 °C 14,9 °C 4,8 km/h (1 Bft)
15.08.2017 00:08 14,9 °C 14,9 °C 91 % 1017,3 hPa 0,0 mm 1,2 km/h (1 Bft) N-NO 14 ° 0 min 0,000 mm 0,0 UV-I 0 W/m² 13,4 °C 14,9 °C 3,2 km/h (1 Bft)
15.08.2017 00:09 15,0 °C 15,0 °C 91 % 1017,2 hPa 0,0 mm 0,2 km/h (0 Bft) N-NO 14 ° 0 min 0,000 mm 0,0 UV-I 0 W/m² 13,5 °C 15,0 °C 1,6 km/h (1 Bft)
15.08.2017 00:10 15,1 °C 15,1 °C 91 % 1017,2 hPa 0,0 mm 1,0 km/h (0 Bft) N 5 ° 0 min 0,000 mm 0,0 UV-I 0 W/m² 13,6 °C 15,1 °C 4,8 km/h (1 Bft)
15.08.2017 00:11 15,1 °C 15,1 °C 91 % 1017,2 hPa 0,0 mm 2,7 km/h (1 Bft) SW 217 ° 0 min 0,000 mm 0,0 UV-I 0 W/m² 13,6 °C 15,1 °C 6,4 km/h (2 Bft)
15.08.2017 00:12 15,2 °C 15,2 °C 91 % 1017,2 hPa 0,0 mm 2,1 km/h (1 Bft) S 185 ° 0 min 0,000 mm 0,0 UV-I 0 W/m² 13,7 °C 15,2 °C 4,8 km/h (1 Bft)
15.08.2017 00:13 15,2 °C 15,2 °C 91 % 1017,2 hPa 0,0 mm 0,0 km/h (0 Bft) S 185 ° 0 min 0,000 mm 0,0 UV-I 0 W/m² 13,7 °C 15,2 °C 0,0 km/h (0 Bft)
15.08.2017 00:14 15,2 °C 15,2 °C 91 % 1017,2 hPa 0,0 mm 0,0 km/h (0 Bft) S 185 ° 0 min 0,000 mm 0,0 UV-I 0 W/m² 13,7 °C 15,2 °C 0,0 km/h (0 Bft)
15.08.2017 00:15 15,2 °C 15,2 °C 91 % 1017,2 hPa 0,0 mm 0,1 km/h (0 Bft) S 186 ° 0 min 0,000 mm 0,0 UV-I 0 W/m² 13,7 °C 15,2 °C 1,6 km/h (1 Bft)
15.08.2017 00:16 15,2 °C 15,2 °C 91 % 1017,2 hPa 0,0 mm 3,8 km/h (1 Bft) NW 319 ° 0 min 0,000 mm 0,0 UV-I 0 W/m² 13,7 °C 15,2 °C 6,4 km/h (2 Bft)
15.08.2017 00:17 15,3 °C 15,3 °C 91 % 1017,3 hPa 0,0 mm 1,0 km/h (0 Bft) NW 319 ° 0 min 0,000 mm 0,0 UV-I 0 W/m² 13,8 °C 15,3 °C 3,2 km/h (1 Bft)
15.08.2017 00:18 15,3 °C 15,3 °C 90 % 1017,3 hPa 0,0 mm 1,8 km/h (1 Bft) NW 311 ° 0 min 0,000 mm 0,0 UV-I 0 W/m² 13,7 °C 15,3 °C 3,2 km/h (1 Bft)
15.08.2017 00:19 15,3 °C 15,3 °C 90 % 1017,3 hPa 0,0 mm 2,1 km/h (1 Bft) NW 311 ° 0 min 0,000 mm 0,0 UV-I 0 W/m² 13,7 °C 15,3 °C 3,2 km/h (1 Bft)
15.08.2017 00:20 15,3 °C 15,3 °C 90 % 1017,3 hPa 0,0 mm 1,6 km/h (1 Bft) NW 311 ° 0 min 0,000 mm 0,0 UV-I 0 W/m² 13,7 °C 15,3 °C 1,6 km/h (1 Bft)
15.08.2017 00:21 15,3 °C 15,3 °C 90 % 1017,3 hPa 0,0 mm 0,1 km/h (0 Bft) NW 311 ° 0 min 0,000 mm 0,0 UV-I 0 W/m² 13,7 °C 15,3 °C 1,6 km/h (1 Bft)
15.08.2017 00:22 15,4 °C 15,4 °C 90 % 1017,3 hPa 0,0 mm 0,3 km/h (0 Bft) NW 311 ° 0 min 0,000 mm 0,0 UV-I 0 W/m² 13,8 °C 15,4 °C 1,6 km/h (1 Bft)
15.08.2017 00:23 15,3 °C 15,4 °C 89 % 1017,3 hPa 0,0 mm 1,3 km/h (1 Bft) NW 311 ° 0 min 0,000 mm 0,0 UV-I 0 W/m² 13,5 °C 15,3 °C 3,2 km/h (1 Bft)
15.08.2017 00:24 15,3 °C 15,3 °C 90 % 1017,3 hPa 0,0 mm 1,1 km/h (1 Bft) NW 311 ° 0 min 0,000 mm 0,0 UV-I 0 W/m² 13,7 °C 15,3 °C 3,2 km/h (1 Bft)
15.08.2017 00:25 15,3 °C 15,3 °C 90 % 1017,3 hPa 0,0 mm 0,0 km/h (0 Bft) NW 311 ° 0 min 0,000 mm 0,0 UV-I 0 W/m² 13,7 °C 15,3 °C 0,0 km/h (0 Bft)
15.08.2017 00:26 15,3 °C 15,3 °C 90 % 1017,3 hPa 0,0 mm 0,0 km/h (0 Bft) NW 311 ° 0 min 0,000 mm 0,0 UV-I 0 W/m² 13,7 °C 15,3 °C 0,0 km/h (0 Bft)
15.08.2017 00:27 15,3 °C 15,4 °C 90 % 1017,3 hPa 0,0 mm 1,5 km/h (1 Bft) NW 322 ° 0 min 0,000 mm 0,0 UV-I 0 W/m² 13,7 °C 15,3 °C 3,2 km/h (1 Bft)
15.08.2017 00:28 15,3 °C 15,4 °C 90 % 1017,3 hPa 0,0 mm 0,2 km/h (0 Bft) NW 322 ° 0 min 0,000 mm 0,0 UV-I 0 W/m² 13,7 °C 15,3 °C 1,6 km/h (1 Bft)
15.08.2017 00:29 15,4 °C 15,4 °C 90 % 1017,3 hPa 0,0 mm 0,0 km/h (0 Bft) NW 322 ° 0 min 0,000 mm 0,0 UV-I 0 W/m² 13,8 °C 15,4 °C 0,0 km/h (0 Bft)
15.08.2017 00:30 15,4 °C 15,4 °C 89 % 1017,3 hPa 0,0 mm 1,2 km/h (1 Bft) N-NW 340 ° 0 min 0,000 mm 0,0 UV-I 0 W/m² 13,6 °C 15,4 °C 4,8 km/h (1 Bft)
15.08.2017 00:31 15,4 °C 15,4 °C 89 % 1017,3 hPa 0,0 mm 0,0 km/h (0 Bft) N-NW 340 ° 0 min 0,000 mm 0,0 UV-I 0 W/m² 13,6 °C 15,4 °C 0,0 km/h (0 Bft)
15.08.2017 00:32 15,4 °C 15,4 °C 89 % 1017,3 hPa 0,0 mm 0,1 km/h (0 Bft) N-NW 341 ° 0 min 0,000 mm 0,0 UV-I 0 W/m² 13,6 °C 15,4 °C 1,6 km/h (1 Bft)
15.08.2017 00:33 15,4 °C 15,4 °C 89 % 1017,3 hPa 0,0 mm 0,1 km/h (0 Bft) N-NW 341 ° 0 min 0,000 mm 0,0 UV-I 0 W/m² 13,6 °C 15,4 °C 1,6 km/h (1 Bft)
15.08.2017 00:34 15,4 °C 15,4 °C 89 % 1017,3 hPa 0,0 mm 1,8 km/h (1 Bft) N-NW 340 ° 0 min 0,000 mm 0,0 UV-I 0 W/m² 13,6 °C 15,4 °C 4,8 km/h (1 Bft)
15.08.2017 00:35 15,4 °C 15,4 °C 89 % 1017,3 hPa 0,0 mm 1,8 km/h (1 Bft) N-NW 340 ° 0 min 0,000 mm 0,0 UV-I 0 W/m² 13,6 °C 15,4 °C 3,2 km/h (1 Bft)
15.08.2017 00:36 15,3 °C 15,4 °C 89 % 1017,3 hPa 0,0 mm 0,3 km/h (0 Bft) N-NW 340 ° 0 min 0,000 mm 0,0 UV-I 0 W/m² 13,5 °C 15,3 °C 3,2 km/h (1 Bft)
15.08.2017 00:37 15,3 °C 15,3 °C 89 % 1017,4 hPa 0,0 mm 0,0 km/h (0 Bft) N-NW 340 ° 0 min 0,000 mm 0,0 UV-I 0 W/m² 13,5 °C 15,3 °C 0,0 km/h (0 Bft)
15.08.2017 00:38 15,3 °C 15,3 °C 89 % 1017,4 hPa 0,0 mm 0,0 km/h (0 Bft) N-NW 340 ° 0 min 0,000 mm 0,0 UV-I 0 W/m² 13,5 °C 15,3 °C 0,0 km/h (0 Bft)
15.08.2017 00:39 15,3 °C 15,3 °C 89 % 1017,4 hPa 0,0 mm 0,0 km/h (0 Bft) N-NW 340 ° 0 min 0,000 mm 0,0 UV-I 0 W/m² 13,5 °C 15,3 °C 0,0 km/h (0 Bft)
15.08.2017 00:40 15,4 °C 15,4 °C 89 % 1017,4 hPa 0,0 mm 0,0 km/h (0 Bft) N-NW 340 ° 0 min 0,000 mm 0,0 UV-I 0 W/m² 13,6 °C 15,4 °C 0,0 km/h (0 Bft)
15.08.2017 00:41 15,4 °C 15,4 °C 89 % 1017,4 hPa 0,0 mm 0,0 km/h (0 Bft) N-NW 340 ° 0 min 0,000 mm 0,0 UV-I 0 W/m² 13,6 °C 15,4 °C 0,0 km/h (0 Bft)
15.08.2017 00:42 15,4 °C 15,4 °C 89 % 1017,4 hPa 0,0 mm 0,5 km/h (0 Bft) N-NW 340 ° 0 min 0,000 mm 0,0 UV-I 0 W/m² 13,6 °C 15,4 °C 1,6 km/h (1 Bft)
15.08.2017 00:43 15,5 °C 15,6 °C 88 % 1017,4 hPa 0,0 mm 0,0 km/h (0 Bft) N-NW 340 ° 0 min 0,000 mm 0,0 UV-I 0 W/m² 13,5 °C 15,5 °C 0,0 km/h (0 Bft)
15.08.2017 00:44 15,4 °C 15,5 °C 88 % 1017,4 hPa 0,0 mm 0,0 km/h (0 Bft) N-NW 340 ° 0 min 0,000 mm 0,0 UV-I 0 W/m² 13,4 °C 15,4 °C 0,0 km/h (0 Bft)
15.08.2017 00:45 15,4 °C 15,4 °C 88 % 1017,4 hPa 0,0 mm 0,0 km/h (0 Bft) N-NW 340 ° 0 min 0,000 mm 0,0 UV-I 0 W/m² 13,4 °C 15,4 °C 0,0 km/h (0 Bft)
15.08.2017 00:46 15,4 °C 15,4 °C 88 % 1017,4 hPa 0,0 mm 0,6 km/h (0 Bft) N-NW 340 ° 0 min 0,000 mm 0,0 UV-I 0 W/m² 13,4 °C 15,4 °C 1,6 km/h (1 Bft)
15.08.2017 00:47 15,3 °C 15,4 °C 89 % 1017,4 hPa 0,0 mm 0,1 km/h (0 Bft) N-NW 340 ° 0 min 0,000 mm 0,0 UV-I 0 W/m² 13,5 °C 15,3 °C 1,6 km/h (1 Bft)
15.08.2017 00:48 15,3 °C 15,3 °C 89 % 1017,4 hPa 0,0 mm 0,0 km/h (0 Bft) N-NW 340 ° 0 min 0,000 mm 0,0 UV-I 0 W/m² 13,5 °C 15,3 °C 0,0 km/h (0 Bft)
15.08.2017 00:49 15,3 °C 15,3 °C 89 % 1017,4 hPa 0,0 mm 0,0 km/h (0 Bft) N-NW 340 ° 0 min 0,000 mm 0,0 UV-I 0 W/m² 13,5 °C 15,3 °C 0,0 km/h (0 Bft)
15.08.2017 00:50 15,3 °C 15,3 °C 89 % 1017,4 hPa 0,0 mm 0,0 km/h (0 Bft) N-NW 340 ° 0 min 0,000 mm 0,0 UV-I 0 W/m² 13,5 °C 15,3 °C 0,0 km/h (0 Bft)
15.08.2017 00:51 15,2 °C 15,3 °C 89 % 1017,4 hPa 0,0 mm 0,0 km/h (0 Bft) N-NW 340 ° 0 min 0,000 mm 0,0 UV-I 0 W/m² 13,4 °C 15,2 °C 0,0 km/h (0 Bft)
15.08.2017 00:52 15,1 °C 15,2 °C 88 % 1017,4 hPa 0,0 mm 0,0 km/h (0 Bft) N-NW 340 ° 0 min 0,000 mm 0,0 UV-I 0 W/m² 13,1 °C 15,1 °C 0,0 km/h (0 Bft)
15.08.2017 00:53 15,0 °C 15,1 °C 89 % 1017,4 hPa 0,0 mm 0,0 km/h (0 Bft) N-NW 340 ° 0 min 0,000 mm 0,0 UV-I 0 W/m² 13,2 °C 15,0 °C 0,0 km/h (0 Bft)
15.08.2017 00:54 15,0 °C 15,0 °C 89 % 1017,4 hPa 0,0 mm 0,0 km/h (0 Bft) N-NW 340 ° 0 min 0,000 mm 0,0 UV-I 0 W/m² 13,2 °C 15,0 °C 0,0 km/h (0 Bft)
15.08.2017 00:55 14,9 °C 15,0 °C 90 % 1017,3 hPa 0,0 mm 0,0 km/h (0 Bft) N-NW 340 ° 0 min 0,000 mm 0,0 UV-I 0 W/m² 13,3 °C 14,9 °C 0,0 km/h (0 Bft)
15.08.2017 00:56 14,8 °C 14,9 °C 89 % 1017,3 hPa 0,0 mm 0,0 km/h (0 Bft) N-NW 340 ° 0 min 0,000 mm 0,0 UV-I 0 W/m² 13,0 °C 14,8 °C 0,0 km/h (0 Bft)
15.08.2017 00:57 14,8 °C 14,8 °C 90 % 1017,4 hPa 0,0 mm 0,0 km/h (0 Bft) N-NW 340 ° 0 min 0,000 mm 0,0 UV-I 0 W/m² 13,2 °C 14,8 °C 0,0 km/h (0 Bft)
15.08.2017 00:58 14,8 °C 14,8 °C 90 % 1017,4 hPa 0,0 mm 0,0 km/h (0 Bft) N-NW 340 ° 0 min 0,000 mm 0,0 UV-I 0 W/m² 13,2 °C 14,8 °C 0,0 km/h (0 Bft)
15.08.2017 00:59 14,7 °C 14,8 °C 90 % 1017,4 hPa 0,0 mm 0,0 km/h (0 Bft) N-NW 340 ° 0 min 0,000 mm 0,0 UV-I 0 W/m² 13,1 °C 14,7 °C 0,0 km/h (0 Bft)
15.08.2017 01:00 14,7 °C 14,7 °C 90 % 1017,4 hPa 0,0 mm 0,0 km/h (0 Bft) N-NW 340 ° 0 min 0,000 mm 0,0 UV-I 0 W/m² 13,1 °C 14,7 °C 0,0 km/h (0 Bft)
15.08.2017 01:01 14,6 °C 14,7 °C 90 % 1017,5 hPa 0,0 mm 0,0 km/h (0 Bft) N-NW 340 ° 0 min 0,000 mm 0,0 UV-I 0 W/m² 13,0 °C 14,6 °C 0,0 km/h (0 Bft)
15.08.2017 01:02 14,6 °C 14,6 °C 90 % 1017,4 hPa 0,0 mm 0,0 km/h (0 Bft) N-NW 340 ° 0 min 0,000 mm 0,0 UV-I 0 W/m² 13,0 °C 14,6 °C 0,0 km/h (0 Bft)
15.08.2017 01:03 14,6 °C 14,6 °C 91 % 1017,4 hPa 0,0 mm 0,0 km/h (0 Bft) N-NW 340 ° 0 min 0,000 mm 0,0 UV-I 0 W/m² 13,1 °C 14,6 °C 0,0 km/h (0 Bft)
15.08.2017 01:04 14,6 °C 14,6 °C 91 % 1017,4 hPa 0,0 mm 1,0 km/h (0 Bft) S-SW 197 ° 0 min 0,000 mm 0,0 UV-I 0 W/m² 13,1 °C 14,6 °C 4,8 km/h (1 Bft)
15.08.2017 01:05 14,6 °C 14,6 °C 91 % 1017,4 hPa 0,0 mm 2,7 km/h (1 Bft) S-SW 196 ° 0 min 0,000 mm 0,0 UV-I 0 W/m² 13,1 °C 14,6 °C 4,8 km/h (1 Bft)
15.08.2017 01:06 14,7 °C 14,7 °C 90 % 1017,4 hPa 0,0 mm 0,6 km/h (0 Bft) S-SW 196 ° 0 min 0,000 mm 0,0 UV-I 0 W/m² 13,1 °C 14,7 °C 1,6 km/h (1 Bft)
15.08.2017 01:07 14,6 °C 14,7 °C 91 % 1017,4 hPa 0,0 mm 0,1 km/h (0 Bft) S-SW 196 ° 0 min 0,000 mm 0,0 UV-I 0 W/m² 13,1 °C 14,6 °C 1,6 km/h (1 Bft)
15.08.2017 01:08 14,7 °C 14,7 °C 90 % 1017,4 hPa 0,0 mm 0,9 km/h (0 Bft) S-SW 196 ° 0 min 0,000 mm 0,0 UV-I 0 W/m² 13,1 °C 14,7 °C 3,2 km/h (1 Bft)
15.08.2017 01:09 14,8 °C 14,8 °C 90 % 1017,4 hPa 0,0 mm 2,5 km/h (1 Bft) S-SW 196 ° 0 min 0,000 mm 0,0 UV-I 0 W/m² 13,2 °C 14,8 °C 6,4 km/h (2 Bft)
15.08.2017 01:10 14,9 °C 14,9 °C 90 % 1017,4 hPa 0,0 mm 3,1 km/h (1 Bft) S-SW 196 ° 0 min 0,000 mm 0,0 UV-I 0 W/m² 13,3 °C 14,9 °C 6,4 km/h (2 Bft)
15.08.2017 01:11 14,9 °C 14,9 °C 90 % 1017,4 hPa 0,0 mm 2,0 km/h (1 Bft) S-SW 196 ° 0 min 0,000 mm 0,0 UV-I 0 W/m² 13,3 °C 14,9 °C 3,2 km/h (1 Bft)
15.08.2017 01:12 15,0 °C 15,0 °C 90 % 1017,4 hPa 0,0 mm 3,9 km/h (1 Bft) S 181 ° 0 min 0,000 mm 0,0 UV-I 0 W/m² 13,4 °C 15,0 °C 4,8 km/h (1 Bft)
15.08.2017 01:13 15,1 °C 15,1 °C 89 % 1017,4 hPa 0,0 mm 4,8 km/h (1 Bft) S-SO 159 ° 0 min 0,000 mm 0,0 UV-I 0 W/m² 13,3 °C 15,1 °C 8,0 km/h (2 Bft)
15.08.2017 01:14 15,2 °C 15,2 °C 89 % 1017,4 hPa 0,0 mm 7,0 km/h (2 Bft) S-SO 165 ° 0 min 0,000 mm 0,0 UV-I 0 W/m² 13,4 °C 15,2 °C 9,7 km/h (2 Bft)
15.08.2017 01:15 15,3 °C 15,3 °C 89 % 1017,4 hPa 0,0 mm 6,4 km/h (2 Bft) S-SO 160 ° 0 min 0,000 mm 0,0 UV-I 0 W/m² 13,5 °C 15,3 °C 8,0 km/h (2 Bft)
15.08.2017 01:16 15,4 °C 15,4 °C 88 % 1017,4 hPa 0,0 mm 4,2 km/h (1 Bft) S-SO 160 ° 0 min 0,000 mm 0,0 UV-I 0 W/m² 13,4 °C 15,4 °C 6,4 km/h (2 Bft)
15.08.2017 01:17 15,4 °C 15,4 °C 87 % 1017,3 hPa 0,0 mm 6,5 km/h (2 Bft) S-SO 160 ° 0 min 0,000 mm 0,0 UV-I 0 W/m² 13,2 °C 15,4 °C 8,0 km/h (2 Bft)
15.08.2017 01:18 15,6 °C 15,6 °C 87 % 1017,3 hPa 0,0 mm 5,5 km/h (1 Bft) S-SO 160 ° 0 min 0,000 mm 0,0 UV-I 0 W/m² 13,4 °C 15,6 °C 8,0 km/h (2 Bft)
15.08.2017 01:19 15,7 °C 15,7 °C 86 % 1017,3 hPa 0,0 mm 4,5 km/h (1 Bft) S-SO 160 ° 0 min 0,000 mm 0,0 UV-I 0 W/m² 13,4 °C 15,7 °C 6,4 km/h (2 Bft)
15.08.2017 01:20 15,7 °C 15,7 °C 86 % 1017,3 hPa 0,0 mm 4,0 km/h (1 Bft) S-SO 160 ° 0 min 0,000 mm 0,0 UV-I 0 W/m² 13,4 °C 15,7 °C 6,4 km/h (2 Bft)
15.08.2017 01:21 15,7 °C 15,7 °C 86 % 1017,2 hPa 0,0 mm 3,3 km/h (1 Bft) S-SO 160 ° 0 min 0,000 mm 0,0 UV-I 0 W/m² 13,4 °C 15,7 °C 6,4 km/h (2 Bft)
15.08.2017 01:22 15,7 °C 15,7 °C 86 % 1017,2 hPa 0,0 mm 3,2 km/h (1 Bft) S-SO 160 ° 0 min 0,000 mm 0,0 UV-I 0 W/m² 13,4 °C 15,7 °C 6,4 km/h (2 Bft)
15.08.2017 01:23 15,7 °C 15,7 °C 86 % 1017,2 hPa 0,0 mm 2,8 km/h (1 Bft) S-SO 160 ° 0 min 0,000 mm 0,0 UV-I 0 W/m² 13,4 °C 15,7 °C 6,4 km/h (2 Bft)
15.08.2017 01:24 15,7 °C 15,7 °C 86 % 1017,2 hPa 0,0 mm 2,0 km/h (1 Bft) S 173 ° 0 min 0,000 mm 0,0 UV-I 0 W/m² 13,4 °C 15,7 °C 4,8 km/h (1 Bft)
15.08.2017 01:25 15,6 °C 15,7 °C 85 % 1017,2 hPa 0,0 mm 3,2 km/h (1 Bft) S 173 ° 0 min 0,000 mm 0,0 UV-I 0 W/m² 13,1 °C 15,6 °C 4,8 km/h (1 Bft)
15.08.2017 01:26 15,4 °C 15,6 °C 86 % 1017,2 hPa 0,0 mm 2,3 km/h (1 Bft) S 173 ° 0 min 0,000 mm 0,0 UV-I 0 W/m² 13,1 °C 15,4 °C 3,2 km/h (1 Bft)
15.08.2017 01:27 15,4 °C 15,4 °C 86 % 1017,2 hPa 0,0 mm 1,3 km/h (1 Bft) S 173 ° 0 min 0,000 mm 0,0 UV-I 0 W/m² 13,1 °C 15,4 °C 3,2 km/h (1 Bft)
15.08.2017 01:28 15,3 °C 15,4 °C 87 % 1017,2 hPa 0,0 mm 0,3 km/h (0 Bft) S 173 ° 0 min 0,000 mm 0,0 UV-I 0 W/m² 13,1 °C 15,3 °C 1,6 km/h (1 Bft)
15.08.2017 01:29 15,2 °C 15,3 °C 87 % 1017,2 hPa 0,0 mm 0,0 km/h (0 Bft) S 173 ° 0 min 0,000 mm 0,0 UV-I 0 W/m² 13,0 °C 15,2 °C 0,0 km/h (0 Bft)
15.08.2017 01:30 15,1 °C 15,2 °C 87 % 1017,2 hPa 0,0 mm 0,0 km/h (0 Bft) S 173 ° 0 min 0,000 mm 0,0 UV-I 0 W/m² 13,0 °C 15,1 °C 0,0 km/h (0 Bft)
15.08.2017 01:31 15,0 °C 15,1 °C 88 % 1017,2 hPa 0,0 mm 0,0 km/h (0 Bft) S 173 ° 0 min 0,000 mm 0,0 UV-I 0 W/m² 13,0 °C 15,0 °C 0,0 km/h (0 Bft)
15.08.2017 01:32 14,8 °C 15,0 °C 87 % 1017,3 hPa 0,0 mm 0,0 km/h (0 Bft) S 173 ° 0 min 0,000 mm 0,0 UV-I 0 W/m² 12,7 °C 14,8 °C 0,0 km/h (0 Bft)
15.08.2017 01:33 14,7 °C 14,8 °C 88 % 1017,2 hPa 0,0 mm 0,0 km/h (0 Bft) S 173 ° 0 min 0,000 mm 0,0 UV-I 0 W/m² 12,7 °C 14,7 °C 0,0 km/h (0 Bft)
15.08.2017 01:34 14,6 °C 14,7 °C 89 % 1017,2 hPa 0,0 mm 0,0 km/h (0 Bft) S 173 ° 0 min 0,000 mm 0,0 UV-I 0 W/m² 12,8 °C 14,6 °C 0,0 km/h (0 Bft)
15.08.2017 01:35 14,6 °C 14,6 °C 89 % 1017,2 hPa 0,0 mm 0,0 km/h (0 Bft) S 173 ° 0 min 0,000 mm 0,0 UV-I 0 W/m² 12,8 °C 14,6 °C 0,0 km/h (0 Bft)
15.08.2017 01:36 14,6 °C 14,6 °C 89 % 1017,2 hPa 0,0 mm 0,0 km/h (0 Bft) S 173 ° 0 min 0,000 mm 0,0 UV-I 0 W/m² 12,8 °C 14,6 °C 0,0 km/h (0 Bft)
15.08.2017 01:37 14,6 °C 14,6 °C 89 % 1017,2 hPa 0,0 mm 0,5 km/h (0 Bft) S 173 ° 0 min 0,000 mm 0,0 UV-I 0 W/m² 12,8 °C 14,6 °C 1,6 km/h (1 Bft)
15.08.2017 01:38 14,6 °C 14,6 °C 89 % 1017,2 hPa 0,0 mm 2,1 km/h (1 Bft) S 173 ° 0 min 0,000 mm 0,0 UV-I 0 W/m² 12,8 °C 14,6 °C 4,8 km/h (1 Bft)
15.08.2017 01:39 14,6 °C 14,6 °C 89 % 1017,3 hPa 0,0 mm 0,9 km/h (0 Bft) S 173 ° 0 min 0,000 mm 0,0 UV-I 0 W/m² 12,8 °C 14,6 °C 3,2 km/h (1 Bft)
15.08.2017 01:40 14,5 °C 14,6 °C 89 % 1017,3 hPa 0,0 mm 0,0 km/h (0 Bft) S 173 ° 0 min 0,000 mm 0,0 UV-I 0 W/m² 12,7 °C 14,5 °C 0,0 km/h (0 Bft)
15.08.2017 01:41 14,4 °C 14,5 °C 89 % 1017,2 hPa 0,0 mm 0,0 km/h (0 Bft) S 173 ° 0 min 0,000 mm 0,0 UV-I 0 W/m² 12,6 °C 14,4 °C 0,0 km/h (0 Bft)
15.08.2017 01:42 14,4 °C 14,5 °C 89 % 1017,1 hPa 0,0 mm 0,0 km/h (0 Bft) S 173 ° 0 min 0,000 mm 0,0 UV-I 0 W/m² 12,6 °C 14,4 °C 0,0 km/h (0 Bft)
15.08.2017 01:43 14,4 °C 14,4 °C 89 % 1017,1 hPa 0,0 mm 0,0 km/h (0 Bft) S 173 ° 0 min 0,000 mm 0,0 UV-I 0 W/m² 12,6 °C 14,4 °C 0,0 km/h (0 Bft)
15.08.2017 01:44 14,4 °C 14,4 °C 90 % 1017,1 hPa 0,0 mm 0,0 km/h (0 Bft) S 173 ° 0 min 0,000 mm 0,0 UV-I 0 W/m² 12,8 °C 14,4 °C 0,0 km/h (0 Bft)
15.08.2017 01:45 14,4 °C 14,4 °C 90 % 1017,2 hPa 0,0 mm 0,0 km/h (0 Bft) S 173 ° 0 min 0,000 mm 0,0 UV-I 0 W/m² 12,8 °C 14,4 °C 0,0 km/h (0 Bft)
15.08.2017 01:46 14,4 °C 14,4 °C 90 % 1017,2 hPa 0,0 mm 0,0 km/h (0 Bft) S 173 ° 0 min 0,000 mm 0,0 UV-I 0 W/m² 12,8 °C 14,4 °C 0,0 km/h (0 Bft)
15.08.2017 01:47 14,4 °C 14,4 °C 89 % 1017,2 hPa 0,0 mm 0,0 km/h (0 Bft) S 173 ° 0 min 0,000 mm 0,0 UV-I 0 W/m² 12,6 °C 14,4 °C 0,0 km/h (0 Bft)
15.08.2017 01:48 14,3 °C 14,4 °C 89 % 1017,2 hPa 0,0 mm 0,0 km/h (0 Bft) S 173 ° 0 min 0,000 mm 0,0 UV-I 0 W/m² 12,5 °C 14,3 °C 0,0 km/h (0 Bft)
15.08.2017 01:49 14,3 °C 14,3 °C 89 % 1017,2 hPa 0,0 mm 0,0 km/h (0 Bft) S 173 ° 0 min 0,000 mm 0,0 UV-I 0 W/m² 12,5 °C 14,3 °C 0,0 km/h (0 Bft)
15.08.2017 01:50 14,2 °C 14,3 °C 89 % 1017,3 hPa 0,0 mm 0,0 km/h (0 Bft) S 173 ° 0 min 0,000 mm 0,0 UV-I 0 W/m² 12,4 °C 14,2 °C 0,0 km/h (0 Bft)
15.08.2017 01:51 14,1 °C 14,2 °C 89 % 1017,2 hPa 0,0 mm 0,0 km/h (0 Bft) S 173 ° 0 min 0,000 mm 0,0 UV-I 0 W/m² 12,3 °C 14,1 °C 0,0 km/h (0 Bft)
15.08.2017 01:52 14,1 °C 14,1 °C 90 % 1017,3 hPa 0,0 mm 0,0 km/h (0 Bft) S 173 ° 0 min 0,000 mm 0,0 UV-I 0 W/m² 12,5 °C 14,1 °C 0,0 km/h (0 Bft)
15.08.2017 01:53 14,1 °C 14,1 °C 90 % 1017,3 hPa 0,0 mm 0,0 km/h (0 Bft) S 173 ° 0 min 0,000 mm 0,0 UV-I 0 W/m² 12,5 °C 14,1 °C 0,0 km/h (0 Bft)
15.08.2017 01:54 14,0 °C 14,1 °C 90 % 1017,2 hPa 0,0 mm 0,0 km/h (0 Bft) S 173 ° 0 min 0,000 mm 0,0 UV-I 0 W/m² 12,4 °C 14,0 °C 0,0 km/h (0 Bft)
15.08.2017 01:55 14,0 °C 14,0 °C 90 % 1017,2 hPa 0,0 mm 0,0 km/h (0 Bft) S 173 ° 0 min 0,000 mm 0,0 UV-I 0 W/m² 12,4 °C 14,0 °C 0,0 km/h (0 Bft)
15.08.2017 01:56 14,0 °C 14,0 °C 90 % 1017,2 hPa 0,0 mm 0,0 km/h (0 Bft) S 173 ° 0 min 0,000 mm 0,0 UV-I 0 W/m² 12,4 °C 14,0 °C 0,0 km/h (0 Bft)
15.08.2017 01:57 13,9 °C 14,0 °C 90 % 1017,2 hPa 0,0 mm 0,0 km/h (0 Bft) S 173 ° 0 min 0,000 mm 0,0 UV-I 0 W/m² 12,3 °C 13,9 °C 0,0 km/h (0 Bft)
15.08.2017 01:58 13,9 °C 13,9 °C 91 % 1017,2 hPa 0,0 mm 0,0 km/h (0 Bft) S 173 ° 0 min 0,000 mm 0,0 UV-I 0 W/m² 12,5 °C 13,9 °C 0,0 km/h (0 Bft)
15.08.2017 01:59 13,9 °C 13,9 °C 91 % 1017,2 hPa 0,0 mm 0,0 km/h (0 Bft) S 173 ° 0 min 0,000 mm 0,0 UV-I 0 W/m² 12,5 °C 13,9 °C 0,0 km/h (0 Bft)
15.08.2017 02:00 14,0 °C 14,0 °C 91 % 1017,2 hPa 0,0 mm 0,0 km/h (0 Bft) S 173 ° 0 min 0,000 mm 0,0 UV-I 0 W/m² 12,6 °C 14,0 °C 0,0 km/h (0 Bft)
15.08.2017 02:01 14,0 °C 14,0 °C 91 % 1017,2 hPa 0,0 mm 0,0 km/h (0 Bft) S 173 ° 0 min 0,000 mm 0,0 UV-I 0 W/m² 12,6 °C 14,0 °C 0,0 km/h (0 Bft)
15.08.2017 02:02 14,0 °C 14,0 °C 91 % 1017,2 hPa 0,0 mm 0,0 km/h (0 Bft) S 173 ° 0 min 0,000 mm 0,0 UV-I 0 W/m² 12,6 °C 14,0 °C 0,0 km/h (0 Bft)
15.08.2017 02:03 14,0 °C 14,0 °C 91 % 1017,1 hPa 0,0 mm 0,0 km/h (0 Bft) S 173 ° 0 min 0,000 mm 0,0 UV-I 0 W/m² 12,6 °C 14,0 °C 0,0 km/h (0 Bft)
15.08.2017 02:04 14,1 °C 14,1 °C 91 % 1017,2 hPa 0,0 mm 0,0 km/h (0 Bft) S 173 ° 0 min 0,000 mm 0,0 UV-I 0 W/m² 12,7 °C 14,1 °C 0,0 km/h (0 Bft)
15.08.2017 02:05 14,0 °C 14,1 °C 90 % 1017,2 hPa 0,0 mm 0,0 km/h (0 Bft) S 173 ° 0 min 0,000 mm 0,0 UV-I 0 W/m² 12,4 °C 14,0 °C 0,0 km/h (0 Bft)
15.08.2017 02:06 13,9 °C 14,0 °C 90 % 1017,1 hPa 0,0 mm 0,0 km/h (0 Bft) S 173 ° 0 min 0,000 mm 0,0 UV-I 0 W/m² 12,3 °C 13,9 °C 0,0 km/h (0 Bft)
15.08.2017 02:07 13,9 °C 13,9 °C 91 % 1017,2 hPa 0,0 mm 0,0 km/h (0 Bft) S 173 ° 0 min 0,000 mm 0,0 UV-I 0 W/m² 12,5 °C 13,9 °C 0,0 km/h (0 Bft)
15.08.2017 02:08 14,0 °C 14,0 °C 91 % 1017,1 hPa 0,0 mm 0,0 km/h (0 Bft) S 173 ° 0 min 0,000 mm 0,0 UV-I 0 W/m² 12,6 °C 14,0 °C 0,0 km/h (0 Bft)
15.08.2017 02:09 14,0 °C 14,0 °C 91 % 1017,1 hPa 0,0 mm 0,0 km/h (0 Bft) S 173 ° 0 min 0,000 mm 0,0 UV-I 0 W/m² 12,6 °C 14,0 °C 0,0 km/h (0 Bft)
15.08.2017 02:10 14,0 °C 14,0 °C 91 % 1017,1 hPa 0,0 mm 0,0 km/h (0 Bft) S 173 ° 0 min 0,000 mm 0,0 UV-I 0 W/m² 12,6 °C 14,0 °C 0,0 km/h (0 Bft)
15.08.2017 02:11 14,0 °C 14,0 °C 91 % 1017,0 hPa 0,0 mm 0,0 km/h (0 Bft) S 173 ° 0 min 0,000 mm 0,0 UV-I 0 W/m² 12,6 °C 14,0 °C 0,0 km/h (0 Bft)
15.08.2017 02:12 14,0 °C 14,0 °C 91 % 1017,1 hPa 0,0 mm 0,0 km/h (0 Bft) S 173 ° 0 min 0,000 mm 0,0 UV-I 0 W/m² 12,6 °C 14,0 °C 0,0 km/h (0 Bft)
15.08.2017 02:13 14,0 °C 14,0 °C 91 % 1017,0 hPa 0,0 mm 0,0 km/h (0 Bft) S 173 ° 0 min 0,000 mm 0,0 UV-I 0 W/m² 12,6 °C 14,0 °C 0,0 km/h (0 Bft)
15.08.2017 02:14 14,0 °C 14,0 °C 91 % 1017,0 hPa 0,0 mm 0,0 km/h (0 Bft) S 173 ° 0 min 0,000 mm 0,0 UV-I 0 W/m² 12,6 °C 14,0 °C 0,0 km/h (0 Bft)
15.08.2017 02:15 14,0 °C 14,0 °C 91 % 1017,0 hPa 0,0 mm 0,1 km/h (0 Bft) S 173 ° 0 min 0,000 mm 0,0 UV-I 0 W/m² 12,6 °C 14,0 °C 1,6 km/h (1 Bft)
15.08.2017 02:16 13,9 °C 14,0 °C 91 % 1017,0 hPa 0,0 mm 0,0 km/h (0 Bft) S 173 ° 0 min 0,000 mm 0,0 UV-I 0 W/m² 12,5 °C 13,9 °C 0,0 km/h (0 Bft)
15.08.2017 02:17 13,9 °C 13,9 °C 91 % 1017,0 hPa 0,0 mm 0,0 km/h (0 Bft) S 173 ° 0 min 0,000 mm 0,0 UV-I 0 W/m² 12,5 °C 13,9 °C 0,0 km/h (0 Bft)
15.08.2017 02:18 13,9 °C 13,9 °C 91 % 1017,1 hPa 0,0 mm 0,0 km/h (0 Bft) S 173 ° 0 min 0,000 mm 0,0 UV-I 0 W/m² 12,5 °C 13,9 °C 0,0 km/h (0 Bft)
15.08.2017 02:19 13,9 °C 13,9 °C 91 % 1017,1 hPa 0,0 mm 0,0 km/h (0 Bft) S 173 ° 0 min 0,000 mm 0,0 UV-I 0 W/m² 12,5 °C 13,9 °C 0,0 km/h (0 Bft)
15.08.2017 02:20 14,0 °C 14,0 °C 91 % 1017,1 hPa 0,0 mm 0,0 km/h (0 Bft) S 173 ° 0 min 0,000 mm 0,0 UV-I 0 W/m² 12,6 °C 14,0 °C 0,0 km/h (0 Bft)
15.08.2017 02:21 14,0 °C 14,0 °C 91 % 1017,0 hPa 0,0 mm 0,0 km/h (0 Bft) S 173 ° 0 min 0,000 mm 0,0 UV-I 0 W/m² 12,6 °C 14,0 °C 0,0 km/h (0 Bft)
15.08.2017 02:22 14,0 °C 14,1 °C 91 % 1017,0 hPa 0,0 mm 0,0 km/h (0 Bft) S 173 ° 0 min 0,000 mm 0,0 UV-I 0 W/m² 12,6 °C 14,0 °C 0,0 km/h (0 Bft)
15.08.2017 02:23 14,0 °C 14,0 °C 90 % 1017,1 hPa 0,0 mm 0,0 km/h (0 Bft) S 173 ° 0 min 0,000 mm 0,0 UV-I 0 W/m² 12,4 °C 14,0 °C 0,0 km/h (0 Bft)
15.08.2017 02:24 14,0 °C 14,0 °C 90 % 1017,1 hPa 0,0 mm 0,0 km/h (0 Bft) S 173 ° 0 min 0,000 mm 0,0 UV-I 0 W/m² 12,4 °C 14,0 °C 0,0 km/h (0 Bft)
15.08.2017 02:25 14,0 °C 14,0 °C 90 % 1017,1 hPa 0,0 mm 0,0 km/h (0 Bft) S 173 ° 0 min 0,000 mm 0,0 UV-I 0 W/m² 12,4 °C 14,0 °C 0,0 km/h (0 Bft)
15.08.2017 02:26 14,1 °C 14,1 °C 90 % 1017,1 hPa 0,0 mm 0,0 km/h (0 Bft) S 173 ° 0 min 0,000 mm 0,0 UV-I 0 W/m² 12,5 °C 14,1 °C 0,0 km/h (0 Bft)
15.08.2017 02:27 14,1 °C 14,1 °C 91 % 1017,1 hPa 0,0 mm 0,0 km/h (0 Bft) S 173 ° 0 min 0,000 mm 0,0 UV-I 0 W/m² 12,7 °C 14,1 °C 0,0 km/h (0 Bft)
15.08.2017 02:28 14,1 °C 14,1 °C 91 % 1017,1 hPa 0,0 mm 0,0 km/h (0 Bft) S 173 ° 0 min 0,000 mm 0,0 UV-I 0 W/m² 12,7 °C 14,1 °C 0,0 km/h (0 Bft)
15.08.2017 02:29 14,1 °C 14,1 °C 90 % 1017,1 hPa 0,0 mm 0,0 km/h (0 Bft) S 173 ° 0 min 0,000 mm 0,0 UV-I 0 W/m² 12,5 °C 14,1 °C 0,0 km/h (0 Bft)
15.08.2017 02:30 14,1 °C 14,1 °C 91 % 1017,1 hPa 0,0 mm 0,0 km/h (0 Bft) S 173 ° 0 min 0,000 mm 0,0 UV-I 0 W/m² 12,7 °C 14,1 °C 0,0 km/h (0 Bft)
15.08.2017 02:31 14,1 °C 14,1 °C 91 % 1017,1 hPa 0,0 mm 0,0 km/h (0 Bft) S 173 ° 0 min 0,000 mm 0,0 UV-I 0 W/m² 12,7 °C 14,1 °C 0,0 km/h (0 Bft)
15.08.2017 02:32 14,0 °C 14,1 °C 91 % 1017,1 hPa 0,0 mm 0,0 km/h (0 Bft) S 173 ° 0 min 0,000 mm 0,0 UV-I 0 W/m² 12,6 °C 14,0 °C 0,0 km/h (0 Bft)
15.08.2017 02:33 14,0 °C 14,0 °C 91 % 1017,1 hPa 0,0 mm 0,0 km/h (0 Bft) S 173 ° 0 min 0,000 mm 0,0 UV-I 0 W/m² 12,6 °C 14,0 °C 0,0 km/h (0 Bft)
15.08.2017 02:34 13,9 °C 14,0 °C 91 % 1017,2 hPa 0,0 mm 0,0 km/h (0 Bft) S 173 ° 0 min 0,000 mm 0,0 UV-I 0 W/m² 12,5 °C 13,9 °C 0,0 km/h (0 Bft)
15.08.2017 02:35 13,8 °C 13,9 °C 90 % 1017,2 hPa 0,0 mm 0,0 km/h (0 Bft) S 173 ° 0 min 0,000 mm 0,0 UV-I 0 W/m² 12,2 °C 13,8 °C 0,0 km/h (0 Bft)
15.08.2017 02:36 13,8 °C 13,8 °C 90 % 1017,2 hPa 0,0 mm 0,0 km/h (0 Bft) S 173 ° 0 min 0,000 mm 0,0 UV-I 0 W/m² 12,2 °C 13,8 °C 0,0 km/h (0 Bft)
15.08.2017 02:37 13,7 °C 13,8 °C 91 % 1017,2 hPa 0,0 mm 0,0 km/h (0 Bft) S 173 ° 0 min 0,000 mm 0,0 UV-I 0 W/m² 12,3 °C 13,7 °C 0,0 km/h (0 Bft)
15.08.2017 02:38 13,7 °C 13,7 °C 91 % 1017,2 hPa 0,0 mm 0,0 km/h (0 Bft) S 173 ° 0 min 0,000 mm 0,0 UV-I 0 W/m² 12,3 °C 13,7 °C 0,0 km/h (0 Bft)
15.08.2017 02:39 13,7 °C 13,7 °C 91 % 1017,2 hPa 0,0 mm 0,0 km/h (0 Bft) S 173 ° 0 min 0,000 mm 0,0 UV-I 0 W/m² 12,3 °C 13,7 °C 0,0 km/h (0 Bft)
15.08.2017 02:40 13,6 °C 13,7 °C 91 % 1017,1 hPa 0,0 mm 0,0 km/h (0 Bft) S 173 ° 0 min 0,000 mm 0,0 UV-I 0 W/m² 12,2 °C 13,6 °C 0,0 km/h (0 Bft)
15.08.2017 02:41 13,6 °C 13,6 °C 91 % 1017,2 hPa 0,0 mm 0,0 km/h (0 Bft) S 173 ° 0 min 0,000 mm 0,0 UV-I 0 W/m² 12,2 °C 13,6 °C 0,0 km/h (0 Bft)
15.08.2017 02:42 13,6 °C 13,6 °C 91 % 1017,2 hPa 0,0 mm 0,0 km/h (0 Bft) S 173 ° 0 min 0,000 mm 0,0 UV-I 0 W/m² 12,2 °C 13,6 °C 0,0 km/h (0 Bft)
15.08.2017 02:43 13,6 °C 13,6 °C 91 % 1017,2 hPa 0,0 mm 0,0 km/h (0 Bft) S 173 ° 0 min 0,000 mm 0,0 UV-I 0 W/m² 12,2 °C 13,6 °C 0,0 km/h (0 Bft)
15.08.2017 02:44 13,6 °C 13,7 °C 91 % 1017,1 hPa 0,0 mm 0,0 km/h (0 Bft) S 173 ° 0 min 0,000 mm 0,0 UV-I 0 W/m² 12,2 °C 13,6 °C 0,0 km/h (0 Bft)
15.08.2017 02:45 13,6 °C 13,6 °C 91 % 1017,1 hPa 0,0 mm 0,0 km/h (0 Bft) S 173 ° 0 min 0,000 mm 0,0 UV-I 0 W/m² 12,2 °C 13,6 °C 0,0 km/h (0 Bft)
15.08.2017 02:46 13,6 °C 13,6 °C 91 % 1017,2 hPa 0,0 mm 0,0 km/h (0 Bft) S 173 ° 0 min 0,000 mm 0,0 UV-I 0 W/m² 12,2 °C 13,6 °C 0,0 km/h (0 Bft)
15.08.2017 02:47 13,6 °C 13,6 °C 91 % 1017,1 hPa 0,0 mm 0,0 km/h (0 Bft) S 173 ° 0 min 0,000 mm 0,0 UV-I 0 W/m² 12,2 °C 13,6 °C 0,0 km/h (0 Bft)
15.08.2017 02:48 13,6 °C 13,6 °C 91 % 1017,1 hPa 0,0 mm 0,0 km/h (0 Bft) S 173 ° 0 min 0,000 mm 0,0 UV-I 0 W/m² 12,2 °C 13,6 °C 0,0 km/h (0 Bft)
15.08.2017 02:49 13,6 °C 13,6 °C 91 % 1017,1 hPa 0,0 mm 0,0 km/h (0 Bft) S 173 ° 0 min 0,000 mm 0,0 UV-I 0 W/m² 12,2 °C 13,6 °C 0,0 km/h (0 Bft)
15.08.2017 02:50 13,5 °C 13,6 °C 91 % 1017,2 hPa 0,0 mm 0,0 km/h (0 Bft) S 173 ° 0 min 0,000 mm 0,0 UV-I 0 W/m² 12,1 °C 13,5 °C 0,0 km/h (0 Bft)
15.08.2017 02:51 13,4 °C 13,5 °C 91 % 1017,2 hPa 0,0 mm 0,0 km/h (0 Bft) S 173 ° 0 min 0,000 mm 0,0 UV-I 0 W/m² 12,0 °C 13,4 °C 0,0 km/h (0 Bft)
15.08.2017 02:52 13,4 °C 13,4 °C 91 % 1017,2 hPa 0,0 mm 0,0 km/h (0 Bft) S 173 ° 0 min 0,000 mm 0,0 UV-I 0 W/m² 12,0 °C 13,4 °C 0,0 km/h (0 Bft)
15.08.2017 02:53 13,4 °C 13,4 °C 91 % 1017,2 hPa 0,0 mm 0,0 km/h (0 Bft) S 173 ° 0 min 0,000 mm 0,0 UV-I 0 W/m² 12,0 °C 13,4 °C 0,0 km/h (0 Bft)
15.08.2017 02:54 13,4 °C 13,4 °C 92 % 1017,2 hPa 0,0 mm 0,0 km/h (0 Bft) S 173 ° 0 min 0,000 mm 0,0 UV-I 0 W/m² 12,1 °C 13,4 °C 0,0 km/h (0 Bft)
15.08.2017 02:55 13,4 °C 13,4 °C 92 % 1017,2 hPa 0,0 mm 0,0 km/h (0 Bft) S 173 ° 0 min 0,000 mm 0,0 UV-I 0 W/m² 12,1 °C 13,4 °C 0,0 km/h (0 Bft)
15.08.2017 02:56 13,4 °C 13,4 °C 91 % 1017,2 hPa 0,0 mm 0,0 km/h (0 Bft) S 173 ° 0 min 0,000 mm 0,0 UV-I 0 W/m² 12,0 °C 13,4 °C 0,0 km/h (0 Bft)
15.08.2017 02:57 13,4 °C 13,4 °C 91 % 1017,2 hPa 0,0 mm 0,1 km/h (0 Bft) S 173 ° 0 min 0,000 mm 0,0 UV-I 0 W/m² 12,0 °C 13,4 °C 1,6 km/h (1 Bft)
15.08.2017 02:58 13,5 °C 13,5 °C 91 % 1017,3 hPa 0,0 mm 1,1 km/h (1 Bft) W 272 ° 0 min 0,000 mm 0,0 UV-I 0 W/m² 12,1 °C 13,5 °C 3,2 km/h (1 Bft)
15.08.2017 02:59 13,4 °C 13,5 °C 91 % 1017,3 hPa 0,0 mm 0,5 km/h (0 Bft) W 272 ° 0 min 0,000 mm 0,0 UV-I 0 W/m² 12,0 °C 13,4 °C 1,6 km/h (1 Bft)
15.08.2017 03:00 13,3 °C 13,4 °C 91 % 1017,3 hPa 0,0 mm 0,0 km/h (0 Bft) W 272 ° 0 min 0,000 mm 0,0 UV-I 0 W/m² 11,9 °C 13,3 °C 0,0 km/h (0 Bft)
15.08.2017 03:01 13,3 °C 13,3 °C 91 % 1017,3 hPa 0,0 mm 0,0 km/h (0 Bft) W 272 ° 0 min 0,000 mm 0,0 UV-I 0 W/m² 11,9 °C 13,3 °C 0,0 km/h (0 Bft)
15.08.2017 03:02 13,3 °C 13,3 °C 91 % 1017,2 hPa 0,0 mm 0,0 km/h (0 Bft) W 272 ° 0 min 0,000 mm 0,0 UV-I 0 W/m² 11,9 °C 13,3 °C 0,0 km/h (0 Bft)
15.08.2017 03:03 13,3 °C 13,3 °C 91 % 1017,3 hPa 0,0 mm 0,0 km/h (0 Bft) W 272 ° 0 min 0,000 mm 0,0 UV-I 0 W/m² 11,9 °C 13,3 °C 0,0 km/h (0 Bft)
15.08.2017 03:04 13,3 °C 13,3 °C 91 % 1017,3 hPa 0,0 mm 0,0 km/h (0 Bft) W 272 ° 0 min 0,000 mm 0,0 UV-I 0 W/m² 11,9 °C 13,3 °C 0,0 km/h (0 Bft)
15.08.2017 03:05 13,3 °C 13,3 °C 91 % 1017,3 hPa 0,0 mm 0,0 km/h (0 Bft) W 272 ° 0 min 0,000 mm 0,0 UV-I 0 W/m² 11,9 °C 13,3 °C 0,0 km/h (0 Bft)
15.08.2017 03:06 13,4 °C 13,4 °C 92 % 1017,3 hPa 0,0 mm 0,0 km/h (0 Bft) W 272 ° 0 min 0,000 mm 0,0 UV-I 0 W/m² 12,1 °C 13,4 °C 0,0 km/h (0 Bft)
15.08.2017 03:07 13,3 °C 13,4 °C 92 % 1017,3 hPa 0,0 mm 0,0 km/h (0 Bft) W 272 ° 0 min 0,000 mm 0,0 UV-I 0 W/m² 12,0 °C 13,3 °C 0,0 km/h (0 Bft)
15.08.2017 03:08 13,3 °C 13,3 °C 92 % 1017,3 hPa 0,0 mm 0,0 km/h (0 Bft) W 272 ° 0 min 0,000 mm 0,0 UV-I 0 W/m² 12,0 °C 13,3 °C 0,0 km/h (0 Bft)
15.08.2017 03:09 13,3 °C 13,3 °C 91 % 1017,3 hPa 0,0 mm 0,0 km/h (0 Bft) W 272 ° 0 min 0,000 mm 0,0 UV-I 0 W/m² 11,9 °C 13,3 °C 0,0 km/h (0 Bft)
15.08.2017 03:10 13,3 °C 13,3 °C 91 % 1017,3 hPa 0,0 mm 0,0 km/h (0 Bft) W 272 ° 0 min 0,000 mm 0,0 UV-I 0 W/m² 11,9 °C 13,3 °C 0,0 km/h (0 Bft)
15.08.2017 03:11 13,3 °C 13,4 °C 91 % 1017,3 hPa 0,0 mm 0,0 km/h (0 Bft) W 272 ° 0 min 0,000 mm 0,0 UV-I 0 W/m² 11,9 °C 13,3 °C 0,0 km/h (0 Bft)
15.08.2017 03:12 13,3 °C 13,3 °C 92 % 1017,3 hPa 0,0 mm 0,0 km/h (0 Bft) W 272 ° 0 min 0,000 mm 0,0 UV-I 0 W/m² 12,0 °C 13,3 °C 0,0 km/h (0 Bft)
15.08.2017 03:13 13,3 °C 13,4 °C 92 % 1017,3 hPa 0,0 mm 0,0 km/h (0 Bft) W 272 ° 0 min 0,000 mm 0,0 UV-I 0 W/m² 12,0 °C 13,3 °C 0,0 km/h (0 Bft)
15.08.2017 03:14 13,3 °C 13,4 °C 91 % 1017,3 hPa 0,0 mm 0,0 km/h (0 Bft) W 272 ° 0 min 0,000 mm 0,0 UV-I 0 W/m² 11,9 °C 13,3 °C 0,0 km/h (0 Bft)
15.08.2017 03:15 13,3 °C 13,3 °C 91 % 1017,3 hPa 0,0 mm 0,0 km/h (0 Bft) W 272 ° 0 min 0,000 mm 0,0 UV-I 0 W/m² 11,9 °C 13,3 °C 0,0 km/h (0 Bft)
15.08.2017 03:16 13,3 °C 13,3 °C 91 % 1017,3 hPa 0,0 mm 0,0 km/h (0 Bft) W 272 ° 0 min 0,000 mm 0,0 UV-I 0 W/m² 11,9 °C 13,3 °C 0,0 km/h (0 Bft)
15.08.2017 03:17 13,3 °C 13,3 °C 91 % 1017,3 hPa 0,0 mm 0,0 km/h (0 Bft) W 272 ° 0 min 0,000 mm 0,0 UV-I 0 W/m² 11,9 °C 13,3 °C 0,0 km/h (0 Bft)
15.08.2017 03:18 13,4 °C 13,4 °C 92 % 1017,3 hPa 0,0 mm 0,0 km/h (0 Bft) W 272 ° 0 min 0,000 mm 0,0 UV-I 0 W/m² 12,1 °C 13,4 °C 0,0 km/h (0 Bft)
15.08.2017 03:19 13,4 °C 13,4 °C 92 % 1017,3 hPa 0,0 mm 0,0 km/h (0 Bft) W 272 ° 0 min 0,000 mm 0,0 UV-I 0 W/m² 12,1 °C 13,4 °C 0,0 km/h (0 Bft)
15.08.2017 03:20 13,4 °C 13,4 °C 91 % 1017,3 hPa 0,0 mm 1,1 km/h (1 Bft) W 272 ° 0 min 0,000 mm 0,0 UV-I 0 W/m² 12,0 °C 13,4 °C 3,2 km/h (1 Bft)
15.08.2017 03:21 13,6 °C 13,6 °C 91 % 1017,3 hPa 0,0 mm 1,9 km/h (1 Bft) W 272 ° 0 min 0,000 mm 0,0 UV-I 0 W/m² 12,2 °C 13,6 °C 3,2 km/h (1 Bft)
15.08.2017 03:22 13,7 °C 13,7 °C 91 % 1017,3 hPa 0,0 mm 0,8 km/h (0 Bft) W 272 ° 0 min 0,000 mm 0,0 UV-I 0 W/m² 12,3 °C 13,7 °C 1,6 km/h (1 Bft)
15.08.2017 03:23 13,7 °C 13,7 °C 91 % 1017,3 hPa 0,0 mm 0,1 km/h (0 Bft) W 272 ° 0 min 0,000 mm 0,0 UV-I 0 W/m² 12,3 °C 13,7 °C 1,6 km/h (1 Bft)
15.08.2017 03:24 13,7 °C 13,7 °C 91 % 1017,3 hPa 0,0 mm 0,0 km/h (0 Bft) W 272 ° 0 min 0,000 mm 0,0 UV-I 0 W/m² 12,3 °C 13,7 °C 0,0 km/h (0 Bft)
15.08.2017 03:25 13,7 °C 13,7 °C 90 % 1017,3 hPa 0,0 mm 0,0 km/h (0 Bft) W 272 ° 0 min 0,000 mm 0,0 UV-I 0 W/m² 12,1 °C 13,7 °C 0,0 km/h (0 Bft)
15.08.2017 03:26 13,7 °C 13,7 °C 90 % 1017,4 hPa 0,0 mm 0,0 km/h (0 Bft) W 272 ° 0 min 0,000 mm 0,0 UV-I 0 W/m² 12,1 °C 13,7 °C 0,0 km/h (0 Bft)
15.08.2017 03:27 13,7 °C 13,7 °C 90 % 1017,4 hPa 0,0 mm 0,5 km/h (0 Bft) W 272 ° 0 min 0,000 mm 0,0 UV-I 0 W/m² 12,1 °C 13,7 °C 1,6 km/h (1 Bft)
15.08.2017 03:28 13,7 °C 13,7 °C 90 % 1017,4 hPa 0,0 mm 0,4 km/h (0 Bft) W 272 ° 0 min 0,000 mm 0,0 UV-I 0 W/m² 12,1 °C 13,7 °C 1,6 km/h (1 Bft)
15.08.2017 03:29 13,6 °C 13,7 °C 90 % 1017,5 hPa 0,0 mm 0,0 km/h (0 Bft) W 272 ° 0 min 0,000 mm 0,0 UV-I 0 W/m² 12,0 °C 13,6 °C 0,0 km/h (0 Bft)
15.08.2017 03:30 13,6 °C 13,6 °C 90 % 1017,5 hPa 0,0 mm 0,0 km/h (0 Bft) W 272 ° 0 min 0,000 mm 0,0 UV-I 0 W/m² 12,0 °C 13,6 °C 0,0 km/h (0 Bft)
15.08.2017 03:31 13,5 °C 13,6 °C 90 % 1017,5 hPa 0,0 mm 0,0 km/h (0 Bft) W 272 ° 0 min 0,000 mm 0,0 UV-I 0 W/m² 11,9 °C 13,5 °C 0,0 km/h (0 Bft)
15.08.2017 03:32 13,4 °C 13,5 °C 90 % 1017,5 hPa 0,0 mm 2,2 km/h (1 Bft) W 272 ° 0 min 0,000 mm 0,0 UV-I 0 W/m² 11,8 °C 13,4 °C 3,2 km/h (1 Bft)
15.08.2017 03:33 13,4 °C 13,4 °C 90 % 1017,5 hPa 0,0 mm 1,1 km/h (1 Bft) W 272 ° 0 min 0,000 mm 0,0 UV-I 0 W/m² 11,8 °C 13,4 °C 1,6 km/h (1 Bft)
15.08.2017 03:34 13,4 °C 13,4 °C 91 % 1017,4 hPa 0,0 mm 0,1 km/h (0 Bft) W 272 ° 0 min 0,000 mm 0,0 UV-I 0 W/m² 12,0 °C 13,4 °C 1,6 km/h (1 Bft)
15.08.2017 03:35 13,4 °C 13,4 °C 91 % 1017,4 hPa 0,0 mm 0,4 km/h (0 Bft) W 272 ° 0 min 0,000 mm 0,0 UV-I 0 W/m² 12,0 °C 13,4 °C 1,6 km/h (1 Bft)
15.08.2017 03:36 13,6 °C 13,6 °C 91 % 1017,5 hPa 0,0 mm 4,4 km/h (1 Bft) S 186 ° 0 min 0,000 mm 0,0 UV-I 0 W/m² 12,2 °C 13,6 °C 6,4 km/h (2 Bft)
15.08.2017 03:37 13,7 °C 13,7 °C 91 % 1017,4 hPa 0,0 mm 2,7 km/h (1 Bft) S 188 ° 0 min 0,000 mm 0,0 UV-I 0 W/m² 12,3 °C 13,7 °C 4,8 km/h (1 Bft)
15.08.2017 03:38 13,8 °C 13,8 °C 90 % 1017,4 hPa 0,0 mm 5,1 km/h (1 Bft) S-SW 198 ° 0 min 0,000 mm 0,0 UV-I 0 W/m² 12,2 °C 13,8 °C 8,0 km/h (2 Bft)
15.08.2017 03:39 13,8 °C 13,8 °C 90 % 1017,4 hPa 0,0 mm 3,4 km/h (1 Bft) S-SW 198 ° 0 min 0,000 mm 0,0 UV-I 0 W/m² 12,2 °C 13,8 °C 4,8 km/h (1 Bft)
15.08.2017 03:40 14,0 °C 14,0 °C 90 % 1017,4 hPa 0,0 mm 2,2 km/h (1 Bft) S-SW 196 ° 0 min 0,000 mm 0,0 UV-I 0 W/m² 12,4 °C 14,0 °C 4,8 km/h (1 Bft)
15.08.2017 03:41 14,0 °C 14,0 °C 90 % 1017,4 hPa 0,0 mm 3,2 km/h (1 Bft) S-SW 195 ° 0 min 0,000 mm 0,0 UV-I 0 W/m² 12,4 °C 14,0 °C 6,4 km/h (2 Bft)
15.08.2017 03:42 14,1 °C 14,1 °C 89 % 1017,4 hPa 0,0 mm 2,7 km/h (1 Bft) S-SW 203 ° 0 min 0,000 mm 0,0 UV-I 0 W/m² 12,3 °C 14,1 °C 6,4 km/h (2 Bft)
15.08.2017 03:43 14,1 °C 14,1 °C 89 % 1017,4 hPa 0,0 mm 2,2 km/h (1 Bft) S-SW 207 ° 0 min 0,000 mm 0,0 UV-I 0 W/m² 12,3 °C 14,1 °C 4,8 km/h (1 Bft)
15.08.2017 03:44 14,1 °C 14,1 °C 89 % 1017,3 hPa 0,0 mm 1,6 km/h (1 Bft) SW 215 ° 0 min 0,000 mm 0,0 UV-I 0 W/m² 12,3 °C 14,1 °C 4,8 km/h (1 Bft)
15.08.2017 03:45 14,2 °C 14,2 °C 89 % 1017,3 hPa 0,0 mm 3,3 km/h (1 Bft) SW 232 ° 0 min 0,000 mm 0,0 UV-I 0 W/m² 12,4 °C 14,2 °C 4,8 km/h (1 Bft)
15.08.2017 03:46 14,1 °C 14,2 °C 89 % 1017,4 hPa 0,0 mm 2,8 km/h (1 Bft) SW 232 ° 0 min 0,000 mm 0,0 UV-I 0 W/m² 12,3 °C 14,1 °C 3,2 km/h (1 Bft)
15.08.2017 03:47 14,1 °C 14,1 °C 89 % 1017,4 hPa 0,0 mm 2,7 km/h (1 Bft) SW 232 ° 0 min 0,000 mm 0,0 UV-I 0 W/m² 12,3 °C 14,1 °C 4,8 km/h (1 Bft)
15.08.2017 03:48 14,1 °C 14,1 °C 89 % 1017,4 hPa 0,0 mm 1,3 km/h (1 Bft) SW 232 ° 0 min 0,000 mm 0,0 UV-I 0 W/m² 12,3 °C 14,1 °C 3,2 km/h (1 Bft)
15.08.2017 03:49 14,0 °C 14,1 °C 89 % 1017,3 hPa 0,0 mm 0,3 km/h (0 Bft) SW 233 ° 0 min 0,000 mm 0,0 UV-I 0 W/m² 12,2 °C 14,0 °C 1,6 km/h (1 Bft)
15.08.2017 03:50 13,9 °C 14,0 °C 89 % 1017,4 hPa 0,0 mm 0,0 km/h (0 Bft) SW 233 ° 0 min 0,000 mm 0,0 UV-I 0 W/m² 12,1 °C 13,9 °C 0,0 km/h (0 Bft)
15.08.2017 03:51 13,8 °C 13,9 °C 89 % 1017,4 hPa 0,0 mm 0,0 km/h (0 Bft) SW 233 ° 0 min 0,000 mm 0,0 UV-I 0 W/m² 12,0 °C 13,8 °C 0,0 km/h (0 Bft)
15.08.2017 03:52 13,7 °C 13,8 °C 90 % 1017,4 hPa 0,0 mm 0,0 km/h (0 Bft) SW 232 ° 0 min 0,000 mm 0,0 UV-I 0 W/m² 12,1 °C 13,7 °C 0,0 km/h (0 Bft)
15.08.2017 03:53 13,6 °C 13,7 °C 90 % 1017,4 hPa 0,0 mm 0,0 km/h (0 Bft) SW 233 ° 0 min 0,000 mm 0,0 UV-I 0 W/m² 12,0 °C 13,6 °C 0,0 km/h (0 Bft)
15.08.2017 03:54 13,4 °C 13,6 °C 90 % 1017,4 hPa 0,0 mm 0,0 km/h (0 Bft) SW 233 ° 0 min 0,000 mm 0,0 UV-I 0 W/m² 11,8 °C 13,4 °C 0,0 km/h (0 Bft)
15.08.2017 03:55 13,3 °C 13,4 °C 91 % 1017,4 hPa 0,0 mm 0,0 km/h (0 Bft) SW 233 ° 0 min 0,000 mm 0,0 UV-I 0 W/m² 11,9 °C 13,3 °C 0,0 km/h (0 Bft)
15.08.2017 03:56 13,2 °C 13,3 °C 91 % 1017,4 hPa 0,0 mm 0,8 km/h (0 Bft) SW 233 ° 0 min 0,000 mm 0,0 UV-I 0 W/m² 11,8 °C 13,2 °C 1,6 km/h (1 Bft)
15.08.2017 03:57 13,2 °C 13,2 °C 91 % 1017,5 hPa 0,0 mm 0,7 km/h (0 Bft) SW 233 ° 0 min 0,000 mm 0,0 UV-I 0 W/m² 11,8 °C 13,2 °C 1,6 km/h (1 Bft)
15.08.2017 03:58 13,2 °C 13,2 °C 91 % 1017,5 hPa 0,0 mm 1,3 km/h (1 Bft) SW 233 ° 0 min 0,000 mm 0,0 UV-I 0 W/m² 11,8 °C 13,2 °C 1,6 km/h (1 Bft)
15.08.2017 03:59 13,2 °C 13,2 °C 91 % 1017,5 hPa 0,0 mm 0,0 km/h (0 Bft) SW 233 ° 0 min 0,000 mm 0,0 UV-I 0 W/m² 11,8 °C 13,2 °C 0,0 km/h (0 Bft)
15.08.2017 04:00 13,2 °C 13,2 °C 92 % 1017,5 hPa 0,0 mm 0,0 km/h (0 Bft) SW 233 ° 0 min 0,000 mm 0,0 UV-I 0 W/m² 11,9 °C 13,2 °C 0,0 km/h (0 Bft)
15.08.2017 04:01 13,2 °C 13,2 °C 92 % 1017,5 hPa 0,0 mm 0,0 km/h (0 Bft) SW 233 ° 0 min 0,000 mm 0,0 UV-I 0 W/m² 11,9 °C 13,2 °C 0,0 km/h (0 Bft)
15.08.2017 04:02 13,2 °C 13,2 °C 91 % 1017,4 hPa 0,0 mm 0,0 km/h (0 Bft) SW 233 ° 0 min 0,000 mm 0,0 UV-I 0 W/m² 11,8 °C 13,2 °C 0,0 km/h (0 Bft)
15.08.2017 04:03 13,1 °C 13,2 °C 91 % 1017,4 hPa 0,0 mm 0,0 km/h (0 Bft) SW 233 ° 0 min 0,000 mm 0,0 UV-I 0 W/m² 11,7 °C 13,1 °C 0,0 km/h (0 Bft)
15.08.2017 04:04 13,2 °C 13,2 °C 91 % 1017,4 hPa 0,0 mm 0,0 km/h (0 Bft) SW 232 ° 0 min 0,000 mm 0,0 UV-I 0 W/m² 11,8 °C 13,2 °C 0,0 km/h (0 Bft)
15.08.2017 04:05 13,1 °C 13,2 °C 92 % 1017,4 hPa 0,0 mm 0,0 km/h (0 Bft) SW 233 ° 0 min 0,000 mm 0,0 UV-I 0 W/m² 11,8 °C 13,1 °C 0,0 km/h (0 Bft)
15.08.2017 04:06 13,2 °C 13,2 °C 92 % 1017,4 hPa 0,0 mm 0,0 km/h (0 Bft) SW 233 ° 0 min 0,000 mm 0,0 UV-I 0 W/m² 11,9 °C 13,2 °C 0,0 km/h (0 Bft)
15.08.2017 04:07 13,2 °C 13,2 °C 92 % 1017,4 hPa 0,0 mm 0,0 km/h (0 Bft) SW 233 ° 0 min 0,000 mm 0,0 UV-I 0 W/m² 11,9 °C 13,2 °C 0,0 km/h (0 Bft)
15.08.2017 04:08 13,3 °C 13,3 °C 92 % 1017,4 hPa 0,0 mm 0,0 km/h (0 Bft) SW 233 ° 0 min 0,000 mm 0,0 UV-I 0 W/m² 12,0 °C 13,3 °C 0,0 km/h (0 Bft)
15.08.2017 04:09 13,3 °C 13,3 °C 91 % 1017,4 hPa 0,0 mm 0,0 km/h (0 Bft) SW 232 ° 0 min 0,000 mm 0,0 UV-I 0 W/m² 11,9 °C 13,3 °C 0,0 km/h (0 Bft)
15.08.2017 04:10 13,3 °C 13,3 °C 91 % 1017,5 hPa 0,0 mm 0,0 km/h (0 Bft) SW 233 ° 0 min 0,000 mm 0,0 UV-I 0 W/m² 11,9 °C 13,3 °C 0,0 km/h (0 Bft)
15.08.2017 04:11 13,4 °C 13,4 °C 92 % 1017,4 hPa 0,0 mm 0,3 km/h (0 Bft) SW 232 ° 0 min 0,000 mm 0,0 UV-I 0 W/m² 12,1 °C 13,4 °C 1,6 km/h (1 Bft)
15.08.2017 04:12 13,4 °C 13,4 °C 91 % 1017,4 hPa 0,0 mm 0,6 km/h (0 Bft) SW 232 ° 0 min 0,000 mm 0,0 UV-I 0 W/m² 12,0 °C 13,4 °C 3,2 km/h (1 Bft)
15.08.2017 04:13 13,3 °C 13,4 °C 91 % 1017,4 hPa 0,0 mm 0,0 km/h (0 Bft) SW 232 ° 0 min 0,000 mm 0,0 UV-I 0 W/m² 11,9 °C 13,3 °C 0,0 km/h (0 Bft)
15.08.2017 04:14 13,3 °C 13,4 °C 91 % 1017,5 hPa 0,0 mm 0,3 km/h (0 Bft) SW 232 ° 0 min 0,000 mm 0,0 UV-I 0 W/m² 11,9 °C 13,3 °C 3,2 km/h (1 Bft)
15.08.2017 04:15 13,4 °C 13,4 °C 92 % 1017,5 hPa 0,0 mm 1,2 km/h (1 Bft) SW 232 ° 0 min 0,000 mm 0,0 UV-I 0 W/m² 12,1 °C 13,4 °C 3,2 km/h (1 Bft)
15.08.2017 04:16 13,4 °C 13,4 °C 92 % 1017,4 hPa 0,0 mm 0,7 km/h (0 Bft) SW 232 ° 0 min 0,000 mm 0,0 UV-I 0 W/m² 12,1 °C 13,4 °C 3,2 km/h (1 Bft)
15.08.2017 04:17 13,4 °C 13,4 °C 92 % 1017,4 hPa 0,0 mm 0,0 km/h (0 Bft) SW 232 ° 0 min 0,000 mm 0,0 UV-I 0 W/m² 12,1 °C 13,4 °C 0,0 km/h (0 Bft)
15.08.2017 04:18 13,4 °C 13,4 °C 92 % 1017,4 hPa 0,0 mm 0,0 km/h (0 Bft) SW 232 ° 0 min 0,000 mm 0,0 UV-I 0 W/m² 12,1 °C 13,4 °C 0,0 km/h (0 Bft)
15.08.2017 04:19 13,4 °C 13,4 °C 91 % 1017,4 hPa 0,0 mm 0,1 km/h (0 Bft) SW 232 ° 0 min 0,000 mm 0,0 UV-I 0 W/m² 12,0 °C 13,4 °C 1,6 km/h (1 Bft)
15.08.2017 04:20 13,4 °C 13,5 °C 91 % 1017,4 hPa 0,0 mm 2,4 km/h (1 Bft) SW 232 ° 0 min 0,000 mm 0,0 UV-I 0 W/m² 12,0 °C 13,4 °C 3,2 km/h (1 Bft)
15.08.2017 04:21 13,4 °C 13,5 °C 91 % 1017,4 hPa 0,0 mm 0,0 km/h (0 Bft) SW 232 ° 0 min 0,000 mm 0,0 UV-I 0 W/m² 12,0 °C 13,4 °C 0,0 km/h (0 Bft)
15.08.2017 04:22 13,4 °C 13,4 °C 91 % 1017,4 hPa 0,0 mm 1,4 km/h (1 Bft) SW 232 ° 0 min 0,000 mm 0,0 UV-I 0 W/m² 12,0 °C 13,4 °C 3,2 km/h (1 Bft)
15.08.2017 04:23 13,4 °C 13,5 °C 91 % 1017,4 hPa 0,0 mm 0,3 km/h (0 Bft) SW 232 ° 0 min 0,000 mm 0,0 UV-I 0 W/m² 12,0 °C 13,4 °C 3,2 km/h (1 Bft)
15.08.2017 04:24 13,4 °C 13,4 °C 91 % 1017,4 hPa 0,0 mm 0,9 km/h (0 Bft) SW 232 ° 0 min 0,000 mm 0,0 UV-I 0 W/m² 12,0 °C 13,4 °C 3,2 km/h (1 Bft)
15.08.2017 04:25 13,5 °C 13,5 °C 91 % 1017,4 hPa 0,0 mm 0,0 km/h (0 Bft) SW 232 ° 0 min 0,000 mm 0,0 UV-I 0 W/m² 12,1 °C 13,5 °C 0,0 km/h (0 Bft)
15.08.2017 04:26 13,5 °C 13,5 °C 91 % 1017,3 hPa 0,0 mm 0,5 km/h (0 Bft) SW 232 ° 0 min 0,000 mm 0,0 UV-I 0 W/m² 12,1 °C 13,5 °C 1,6 km/h (1 Bft)
15.08.2017 04:27 13,5 °C 13,5 °C 91 % 1017,3 hPa 0,0 mm 0,0 km/h (0 Bft) SW 232 ° 0 min 0,000 mm 0,0 UV-I 0 W/m² 12,1 °C 13,5 °C 0,0 km/h (0 Bft)
15.08.2017 04:28 13,6 °C 13,6 °C 91 % 1017,4 hPa 0,0 mm 0,0 km/h (0 Bft) SW 232 ° 0 min 0,000 mm 0,0 UV-I 0 W/m² 12,2 °C 13,6 °C 0,0 km/h (0 Bft)
15.08.2017 04:29 13,6 °C 13,6 °C 91 % 1017,3 hPa 0,0 mm 0,0 km/h (0 Bft) SW 232 ° 0 min 0,000 mm 0,0 UV-I 0 W/m² 12,2 °C 13,6 °C 0,0 km/h (0 Bft)
15.08.2017 04:30 13,6 °C 13,6 °C 91 % 1017,3 hPa 0,0 mm 0,0 km/h (0 Bft) SW 232 ° 0 min 0,000 mm 0,0 UV-I 0 W/m² 12,2 °C 13,6 °C 0,0 km/h (0 Bft)
15.08.2017 04:31 13,6 °C 13,6 °C 91 % 1017,3 hPa 0,0 mm 0,1 km/h (0 Bft) SW 232 ° 0 min 0,000 mm 0,0 UV-I 0 W/m² 12,2 °C 13,6 °C 1,6 km/h (1 Bft)
15.08.2017 04:32 13,6 °C 13,6 °C 91 % 1017,3 hPa 0,0 mm 0,6 km/h (0 Bft) SW 232 ° 0 min 0,000 mm 0,0 UV-I 0 W/m² 12,2 °C 13,6 °C 1,6 km/h (1 Bft)
15.08.2017 04:33 13,6 °C 13,7 °C 91 % 1017,3 hPa 0,0 mm 0,1 km/h (0 Bft) SW 232 ° 0 min 0,000 mm 0,0 UV-I 0 W/m² 12,2 °C 13,6 °C 1,6 km/h (1 Bft)
15.08.2017 04:34 13,7 °C 13,7 °C 91 % 1017,3 hPa 0,0 mm 0,6 km/h (0 Bft) W 269 ° 0 min 0,000 mm 0,0 UV-I 0 W/m² 12,3 °C 13,7 °C 3,2 km/h (1 Bft)
15.08.2017 04:35 13,6 °C 13,7 °C 91 % 1017,3 hPa 0,0 mm 0,9 km/h (0 Bft) W 271 ° 0 min 0,000 mm 0,0 UV-I 0 W/m² 12,2 °C 13,6 °C 3,2 km/h (1 Bft)
15.08.2017 04:36 13,6 °C 13,6 °C 91 % 1017,3 hPa 0,0 mm 1,1 km/h (1 Bft) W 271 ° 0 min 0,000 mm 0,0 UV-I 0 W/m² 12,2 °C 13,6 °C 3,2 km/h (1 Bft)
15.08.2017 04:37 13,6 °C 13,6 °C 91 % 1017,3 hPa 0,0 mm 1,0 km/h (0 Bft) W 271 ° 0 min 0,000 mm 0,0 UV-I 0 W/m² 12,2 °C 13,6 °C 1,6 km/h (1 Bft)
15.08.2017 04:38 13,6 °C 13,6 °C 91 % 1017,4 hPa 0,0 mm 1,7 km/h (1 Bft) W 271 ° 0 min 0,000 mm 0,0 UV-I 0 W/m² 12,2 °C 13,6 °C 4,8 km/h (1 Bft)
15.08.2017 04:39 13,6 °C 13,7 °C 91 % 1017,4 hPa 0,0 mm 2,0 km/h (1 Bft) W 271 ° 0 min 0,000 mm 0,0 UV-I 0 W/m² 12,2 °C 13,6 °C 4,8 km/h (1 Bft)
15.08.2017 04:40 13,7 °C 13,7 °C 91 % 1017,3 hPa 0,0 mm 1,2 km/h (1 Bft) W 271 ° 0 min 0,000 mm 0,0 UV-I 0 W/m² 12,3 °C 13,7 °C 1,6 km/h (1 Bft)
15.08.2017 04:41 13,8 °C 13,8 °C 91 % 1017,3 hPa 0,0 mm 0,0 km/h (0 Bft) W 271 ° 0 min 0,000 mm 0,0 UV-I 0 W/m² 12,4 °C 13,8 °C 0,0 km/h (0 Bft)
15.08.2017 04:42 13,8 °C 13,8 °C 91 % 1017,3 hPa 0,0 mm 0,0 km/h (0 Bft) W 271 ° 0 min 0,000 mm 0,0 UV-I 0 W/m² 12,4 °C 13,8 °C 0,0 km/h (0 Bft)
15.08.2017 04:43 13,8 °C 13,8 °C 91 % 1017,3 hPa 0,0 mm 0,0 km/h (0 Bft) W 271 ° 0 min 0,000 mm 0,0 UV-I 0 W/m² 12,4 °C 13,8 °C 0,0 km/h (0 Bft)
15.08.2017 04:44 13,8 °C 13,8 °C 91 % 1017,3 hPa 0,0 mm 0,4 km/h (0 Bft) W 271 ° 0 min 0,000 mm 0,0 UV-I 0 W/m² 12,4 °C 13,8 °C 1,6 km/h (1 Bft)
15.08.2017 04:45 13,9 °C 13,9 °C 91 % 1017,3 hPa 0,0 mm 0,0 km/h (0 Bft) W 271 ° 0 min 0,000 mm 0,0 UV-I 0 W/m² 12,5 °C 13,9 °C 0,0 km/h (0 Bft)
15.08.2017 04:46 13,9 °C 13,9 °C 91 % 1017,3 hPa 0,0 mm 0,3 km/h (0 Bft) W 271 ° 0 min 0,000 mm 0,0 UV-I 0 W/m² 12,5 °C 13,9 °C 1,6 km/h (1 Bft)
15.08.2017 04:47 14,0 °C 14,0 °C 91 % 1017,2 hPa 0,0 mm 0,2 km/h (0 Bft) W 271 ° 0 min 0,000 mm 0,0 UV-I 0 W/m² 12,6 °C 14,0 °C 1,6 km/h (1 Bft)
15.08.2017 04:48 14,0 °C 14,0 °C 90 % 1017,2 hPa 0,0 mm 0,0 km/h (0 Bft) W 271 ° 0 min 0,000 mm 0,0 UV-I 0 W/m² 12,4 °C 14,0 °C 0,0 km/h (0 Bft)
15.08.2017 04:49 14,1 °C 14,1 °C 90 % 1017,2 hPa 0,0 mm 0,0 km/h (0 Bft) W 271 ° 0 min 0,000 mm 0,0 UV-I 0 W/m² 12,5 °C 14,1 °C 0,0 km/h (0 Bft)
15.08.2017 04:50 14,1 °C 14,1 °C 90 % 1017,2 hPa 0,0 mm 0,0 km/h (0 Bft) W 271 ° 0 min 0,000 mm 0,0 UV-I 0 W/m² 12,5 °C 14,1 °C 0,0 km/h (0 Bft)
15.08.2017 04:51 14,1 °C 14,1 °C 90 % 1017,2 hPa 0,0 mm 0,0 km/h (0 Bft) W 271 ° 0 min 0,000 mm 0,0 UV-I 0 W/m² 12,5 °C 14,1 °C 0,0 km/h (0 Bft)
15.08.2017 04:52 14,1 °C 14,1 °C 90 % 1017,2 hPa 0,0 mm 0,6 km/h (0 Bft) W 271 ° 0 min 0,000 mm 0,0 UV-I 0 W/m² 12,5 °C 14,1 °C 1,6 km/h (1 Bft)
15.08.2017 04:53 14,1 °C 14,1 °C 90 % 1017,3 hPa 0,0 mm 0,3 km/h (0 Bft) W 271 ° 0 min 0,000 mm 0,0 UV-I 0 W/m² 12,5 °C 14,1 °C 1,6 km/h (1 Bft)
15.08.2017 04:54 14,1 °C 14,1 °C 90 % 1017,2 hPa 0,0 mm 0,1 km/h (0 Bft) W 271 ° 0 min 0,000 mm 0,0 UV-I 0 W/m² 12,5 °C 14,1 °C 1,6 km/h (1 Bft)
15.08.2017 04:55 13,9 °C 14,1 °C 90 % 1017,2 hPa 0,0 mm 0,1 km/h (0 Bft) W 271 ° 0 min 0,000 mm 0,0 UV-I 0 W/m² 12,3 °C 13,9 °C 1,6 km/h (1 Bft)
15.08.2017 04:56 13,9 °C 14,0 °C 91 % 1017,2 hPa 0,0 mm 0,0 km/h (0 Bft) W 271 ° 0 min 0,000 mm 0,0 UV-I 0 W/m² 12,5 °C 13,9 °C 0,0 km/h (0 Bft)
15.08.2017 04:57 13,9 °C 13,9 °C 91 % 1017,2 hPa 0,0 mm 0,0 km/h (0 Bft) W 271 ° 0 min 0,000 mm 0,0 UV-I 0 W/m² 12,5 °C 13,9 °C 0,0 km/h (0 Bft)
15.08.2017 04:58 13,8 °C 13,9 °C 91 % 1017,2 hPa 0,0 mm 0,0 km/h (0 Bft) W 271 ° 0 min 0,000 mm 0,0 UV-I 0 W/m² 12,4 °C 13,8 °C 0,0 km/h (0 Bft)
15.08.2017 04:59 13,8 °C 13,8 °C 91 % 1017,3 hPa 0,0 mm 0,0 km/h (0 Bft) W 271 ° 0 min 0,000 mm 0,0 UV-I 0 W/m² 12,4 °C 13,8 °C 0,0 km/h (0 Bft)
15.08.2017 05:00 13,8 °C 13,8 °C 92 % 1017,2 hPa 0,0 mm 0,0 km/h (0 Bft) W 271 ° 0 min 0,000 mm 0,0 UV-I 0 W/m² 12,5 °C 13,8 °C 0,0 km/h (0 Bft)
15.08.2017 05:01 13,7 °C 13,8 °C 91 % 1017,2 hPa 0,0 mm 0,0 km/h (0 Bft) W 271 ° 0 min 0,000 mm 0,0 UV-I 0 W/m² 12,3 °C 13,7 °C 0,0 km/h (0 Bft)
15.08.2017 05:02 13,7 °C 13,7 °C 91 % 1017,2 hPa 0,0 mm 0,0 km/h (0 Bft) W 271 ° 0 min 0,000 mm 0,0 UV-I 0 W/m² 12,3 °C 13,7 °C 0,0 km/h (0 Bft)
15.08.2017 05:03 13,7 °C 13,7 °C 92 % 1017,2 hPa 0,0 mm 0,0 km/h (0 Bft) W 271 ° 0 min 0,000 mm 0,0 UV-I 0 W/m² 12,4 °C 13,7 °C 0,0 km/h (0 Bft)
15.08.2017 05:04 13,7 °C 13,7 °C 92 % 1017,2 hPa 0,0 mm 0,0 km/h (0 Bft) W 271 ° 0 min 0,000 mm 0,0 UV-I 0 W/m² 12,4 °C 13,7 °C 0,0 km/h (0 Bft)
15.08.2017 05:05 13,7 °C 13,7 °C 92 % 1017,2 hPa 0,0 mm 0,0 km/h (0 Bft) W 271 ° 0 min 0,000 mm 0,0 UV-I 0 W/m² 12,4 °C 13,7 °C 0,0 km/h (0 Bft)
15.08.2017 05:06 13,7 °C 13,7 °C 91 % 1017,2 hPa 0,0 mm 0,0 km/h (0 Bft) W 271 ° 0 min 0,000 mm 0,0 UV-I 0 W/m² 12,3 °C 13,7 °C 0,0 km/h (0 Bft)
15.08.2017 05:07 13,7 °C 13,7 °C 91 % 1017,2 hPa 0,0 mm 0,0 km/h (0 Bft) W 271 ° 0 min 0,000 mm 0,0 UV-I 0 W/m² 12,3 °C 13,7 °C 0,0 km/h (0 Bft)
15.08.2017 05:08 13,7 °C 13,7 °C 91 % 1017,2 hPa 0,0 mm 0,0 km/h (0 Bft) W 271 ° 0 min 0,000 mm 0,0 UV-I 0 W/m² 12,3 °C 13,7 °C 0,0 km/h (0 Bft)
15.08.2017 05:09 13,7 °C 13,7 °C 91 % 1017,2 hPa 0,0 mm 1,3 km/h (1 Bft) W 271 ° 0 min 0,000 mm 0,0 UV-I 0 W/m² 12,3 °C 13,7 °C 4,8 km/h (1 Bft)
15.08.2017 05:10 13,7 °C 13,7 °C 91 % 1017,3 hPa 0,0 mm 0,0 km/h (0 Bft) W 271 ° 0 min 0,000 mm 0,0 UV-I 0 W/m² 12,3 °C 13,7 °C 0,0 km/h (0 Bft)
15.08.2017 05:11 13,7 °C 13,7 °C 92 % 1017,3 hPa 0,0 mm 0,0 km/h (0 Bft) W 271 ° 0 min 0,000 mm 0,0 UV-I 0 W/m² 12,4 °C 13,7 °C 0,0 km/h (0 Bft)
15.08.2017 05:12 13,7 °C 13,7 °C 92 % 1017,3 hPa 0,0 mm 0,0 km/h (0 Bft) W 271 ° 0 min 0,000 mm 0,0 UV-I 0 W/m² 12,4 °C 13,7 °C 0,0 km/h (0 Bft)
15.08.2017 05:13 13,7 °C 13,7 °C 91 % 1017,3 hPa 0,0 mm 0,0 km/h (0 Bft) W 271 ° 0 min 0,000 mm 0,0 UV-I 0 W/m² 12,3 °C 13,7 °C 0,0 km/h (0 Bft)
15.08.2017 05:14 13,6 °C 13,7 °C 91 % 1017,3 hPa 0,0 mm 0,0 km/h (0 Bft) W 271 ° 0 min 0,000 mm 0,0 UV-I 0 W/m² 12,2 °C 13,6 °C 0,0 km/h (0 Bft)
15.08.2017 05:15 13,6 °C 13,6 °C 92 % 1017,3 hPa 0,0 mm 0,0 km/h (0 Bft) W 271 ° 0 min 0,000 mm 0,0 UV-I 0 W/m² 12,3 °C 13,6 °C 0,0 km/h (0 Bft)
15.08.2017 05:16 13,6 °C 13,6 °C 92 % 1017,3 hPa 0,0 mm 0,0 km/h (0 Bft) W 271 ° 0 min 0,000 mm 0,0 UV-I 0 W/m² 12,3 °C 13,6 °C 0,0 km/h (0 Bft)
15.08.2017 05:17 13,6 °C 13,6 °C 92 % 1017,3 hPa 0,0 mm 0,0 km/h (0 Bft) W 271 ° 0 min 0,000 mm 0,0 UV-I 0 W/m² 12,3 °C 13,6 °C 0,0 km/h (0 Bft)
15.08.2017 05:18 13,6 °C 13,6 °C 92 % 1017,4 hPa 0,0 mm 0,0 km/h (0 Bft) W 271 ° 0 min 0,000 mm 0,0 UV-I 0 W/m² 12,3 °C 13,6 °C 0,0 km/h (0 Bft)
15.08.2017 05:19 13,6 °C 13,6 °C 92 % 1017,3 hPa 0,0 mm 0,0 km/h (0 Bft) W 271 ° 0 min 0,000 mm 0,0 UV-I 0 W/m² 12,3 °C 13,6 °C 0,0 km/h (0 Bft)
15.08.2017 05:20 13,6 °C 13,6 °C 92 % 1017,4 hPa 0,0 mm 0,0 km/h (0 Bft) W 271 ° 0 min 0,000 mm 0,0 UV-I 0 W/m² 12,3 °C 13,6 °C 0,0 km/h (0 Bft)
15.08.2017 05:21 13,6 °C 13,6 °C 91 % 1017,4 hPa 0,0 mm 0,0 km/h (0 Bft) W 271 ° 0 min 0,000 mm 0,0 UV-I 0 W/m² 12,2 °C 13,6 °C 0,0 km/h (0 Bft)
15.08.2017 05:22 13,7 °C 13,7 °C 91 % 1017,3 hPa 0,0 mm 0,0 km/h (0 Bft) W 271 ° 0 min 0,000 mm 0,0 UV-I 0 W/m² 12,3 °C 13,7 °C 0,0 km/h (0 Bft)
15.08.2017 05:23 13,6 °C 13,7 °C 91 % 1017,4 hPa 0,0 mm 0,0 km/h (0 Bft) W 271 ° 0 min 0,000 mm 0,0 UV-I 0 W/m² 12,2 °C 13,6 °C 0,0 km/h (0 Bft)
15.08.2017 05:24 13,7 °C 13,7 °C 91 % 1017,4 hPa 0,0 mm 0,0 km/h (0 Bft) W 271 ° 0 min 0,000 mm 0,0 UV-I 0 W/m² 12,3 °C 13,7 °C 0,0 km/h (0 Bft)
15.08.2017 05:25 13,7 °C 13,7 °C 91 % 1017,3 hPa 0,0 mm 0,7 km/h (0 Bft) W 271 ° 0 min 0,000 mm 0,0 UV-I 0 W/m² 12,3 °C 13,7 °C 3,2 km/h (1 Bft)
15.08.2017 05:26 13,7 °C 13,7 °C 91 % 1017,3 hPa 0,0 mm 0,1 km/h (0 Bft) W 271 ° 0 min 0,000 mm 0,0 UV-I 0 W/m² 12,3 °C 13,7 °C 1,6 km/h (1 Bft)
15.08.2017 05:27 13,7 °C 13,7 °C 91 % 1017,3 hPa 0,0 mm 0,0 km/h (0 Bft) W 271 ° 0 min 0,000 mm 0,0 UV-I 0 W/m² 12,3 °C 13,7 °C 0,0 km/h (0 Bft)
15.08.2017 05:28 13,7 °C 13,7 °C 91 % 1017,3 hPa 0,0 mm 0,4 km/h (0 Bft) W 271 ° 0 min 0,000 mm 0,0 UV-I 0 W/m² 12,3 °C 13,7 °C 1,6 km/h (1 Bft)
15.08.2017 05:29 13,7 °C 13,7 °C 91 % 1017,3 hPa 0,0 mm 0,3 km/h (0 Bft) W 271 ° 0 min 0,000 mm 0,0 UV-I 0 W/m² 12,3 °C 13,7 °C 1,6 km/h (1 Bft)
15.08.2017 05:30 13,7 °C 13,7 °C 91 % 1017,3 hPa 0,0 mm 0,0 km/h (0 Bft) W 271 ° 0 min 0,000 mm 0,0 UV-I 0 W/m² 12,3 °C 13,7 °C 0,0 km/h (0 Bft)
15.08.2017 05:31 13,7 °C 13,7 °C 91 % 1017,3 hPa 0,0 mm 0,0 km/h (0 Bft) W 271 ° 0 min 0,000 mm 0,0 UV-I 0 W/m² 12,3 °C 13,7 °C 0,0 km/h (0 Bft)
15.08.2017 05:32 13,7 °C 13,7 °C 91 % 1017,3 hPa 0,0 mm 0,1 km/h (0 Bft) W 271 ° 0 min 0,000 mm 0,0 UV-I 0 W/m² 12,3 °C 13,7 °C 1,6 km/h (1 Bft)
15.08.2017 05:33 13,7 °C 13,7 °C 91 % 1017,3 hPa 0,0 mm 1,3 km/h (1 Bft) W 276 ° 0 min 0,000 mm 0,0 UV-I 0 W/m² 12,3 °C 13,7 °C 4,8 km/h (1 Bft)
15.08.2017 05:34 13,7 °C 13,7 °C 91 % 1017,3 hPa 0,0 mm 0,0 km/h (0 Bft) W 276 ° 0 min 0,000 mm 0,0 UV-I 0 W/m² 12,3 °C 13,7 °C 0,0 km/h (0 Bft)
15.08.2017 05:35 13,7 °C 13,7 °C 91 % 1017,3 hPa 0,0 mm 0,5 km/h (0 Bft) W 276 ° 0 min 0,000 mm 0,0 UV-I 0 W/m² 12,3 °C 13,7 °C 1,6 km/h (1 Bft)
15.08.2017 05:36 13,8 °C 13,8 °C 91 % 1017,3 hPa 0,0 mm 0,0 km/h (0 Bft) W 276 ° 0 min 0,000 mm 0,0 UV-I 0 W/m² 12,4 °C 13,8 °C 0,0 km/h (0 Bft)
15.08.2017 05:37 13,8 °C 13,8 °C 91 % 1017,4 hPa 0,0 mm 0,0 km/h (0 Bft) W 276 ° 0 min 0,000 mm 0,0 UV-I 0 W/m² 12,4 °C 13,8 °C 0,0 km/h (0 Bft)
15.08.2017 05:38 13,8 °C 13,8 °C 91 % 1017,3 hPa 0,0 mm 0,0 km/h (0 Bft) W 276 ° 0 min 0,000 mm 0,0 UV-I 0 W/m² 12,4 °C 13,8 °C 0,0 km/h (0 Bft)
15.08.2017 05:39 13,8 °C 13,8 °C 90 % 1017,3 hPa 0,0 mm 0,0 km/h (0 Bft) W 276 ° 0 min 0,000 mm 0,0 UV-I 0 W/m² 12,2 °C 13,8 °C 0,0 km/h (0 Bft)
15.08.2017 05:40 13,8 °C 13,8 °C 90 % 1017,5 hPa 0,0 mm 0,0 km/h (0 Bft) W 276 ° 0 min 0,000 mm 0,0 UV-I 0 W/m² 12,2 °C 13,8 °C 0,0 km/h (0 Bft)
15.08.2017 05:41 13,7 °C 13,8 °C 91 % 1017,5 hPa 0,0 mm 0,0 km/h (0 Bft) W 276 ° 0 min 0,000 mm 0,0 UV-I 0 W/m² 12,3 °C 13,7 °C 0,0 km/h (0 Bft)
15.08.2017 05:42 13,7 °C 13,7 °C 91 % 1017,4 hPa 0,0 mm 0,0 km/h (0 Bft) W 276 ° 0 min 0,000 mm 0,0 UV-I 0 W/m² 12,3 °C 13,7 °C 0,0 km/h (0 Bft)
15.08.2017 05:43 13,7 °C 13,7 °C 91 % 1017,4 hPa 0,0 mm 1,0 km/h (0 Bft) W 276 ° 0 min 0,000 mm 0,0 UV-I 0 W/m² 12,3 °C 13,7 °C 3,2 km/h (1 Bft)
15.08.2017 05:44 13,7 °C 13,7 °C 91 % 1017,4 hPa 0,0 mm 0,0 km/h (0 Bft) W 276 ° 0 min 0,000 mm 0,0 UV-I 0 W/m² 12,3 °C 13,7 °C 0,0 km/h (0 Bft)
15.08.2017 05:45 13,7 °C 13,7 °C 91 % 1017,5 hPa 0,0 mm 0,0 km/h (0 Bft) W 276 ° 0 min 0,000 mm 0,0 UV-I 0 W/m² 12,3 °C 13,7 °C 0,0 km/h (0 Bft)
15.08.2017 05:46 13,7 °C 13,8 °C 91 % 1017,4 hPa 0,0 mm 0,0 km/h (0 Bft) W 276 ° 0 min 0,000 mm 0,0 UV-I 0 W/m² 12,3 °C 13,7 °C 0,0 km/h (0 Bft)
15.08.2017 05:47 13,7 °C 13,7 °C 91 % 1017,5 hPa 0,0 mm 0,0 km/h (0 Bft) W 276 ° 0 min 0,000 mm 0,0 UV-I 0 W/m² 12,3 °C 13,7 °C 0,0 km/h (0 Bft)
15.08.2017 05:48 13,7 °C 13,7 °C 91 % 1017,5 hPa 0,0 mm 0,0 km/h (0 Bft) W 276 ° 0 min 0,000 mm 0,0 UV-I 0 W/m² 12,3 °C 13,7 °C 0,0 km/h (0 Bft)
15.08.2017 05:49 13,7 °C 13,7 °C 91 % 1017,4 hPa 0,0 mm 0,0 km/h (0 Bft) W 276 ° 0 min 0,000 mm 0,0 UV-I 0 W/m² 12,3 °C 13,7 °C 0,0 km/h (0 Bft)
15.08.2017 05:50 13,6 °C 13,7 °C 91 % 1017,4 hPa 0,0 mm 0,0 km/h (0 Bft) W 276 ° 0 min 0,000 mm 0,0 UV-I 0 W/m² 12,2 °C 13,6 °C 0,0 km/h (0 Bft)
15.08.2017 05:51 13,6 °C 13,7 °C 91 % 1017,5 hPa 0,0 mm 0,0 km/h (0 Bft) W 276 ° 0 min 0,000 mm 0,0 UV-I 0 W/m² 12,2 °C 13,6 °C 0,0 km/h (0 Bft)
15.08.2017 05:52 13,6 °C 13,7 °C 91 % 1017,4 hPa 0,0 mm 0,0 km/h (0 Bft) W 276 ° 0 min 0,000 mm 0,0 UV-I 0 W/m² 12,2 °C 13,6 °C 0,0 km/h (0 Bft)
15.08.2017 05:53 13,7 °C 13,7 °C 91 % 1017,5 hPa 0,0 mm 0,0 km/h (0 Bft) W 276 ° 0 min 0,000 mm 0,0 UV-I 0 W/m² 12,3 °C 13,7 °C 0,0 km/h (0 Bft)
15.08.2017 05:54 13,7 °C 13,7 °C 91 % 1017,5 hPa 0,0 mm 0,0 km/h (0 Bft) W 276 ° 0 min 0,000 mm 0,0 UV-I 0 W/m² 12,3 °C 13,7 °C 0,0 km/h (0 Bft)
15.08.2017 05:55 13,7 °C 13,7 °C 91 % 1017,5 hPa 0,0 mm 0,0 km/h (0 Bft) W 276 ° 0 min 0,000 mm 0,0 UV-I 0 W/m² 12,3 °C 13,7 °C 0,0 km/h (0 Bft)
15.08.2017 05:56 13,7 °C 13,7 °C 91 % 1017,4 hPa 0,0 mm 0,0 km/h (0 Bft) W 276 ° 0 min 0,000 mm 0,0 UV-I 0 W/m² 12,3 °C 13,7 °C 0,0 km/h (0 Bft)
15.08.2017 05:57 13,6 °C 13,7 °C 91 % 1017,5 hPa 0,0 mm 0,0 km/h (0 Bft) W 276 ° 0 min 0,000 mm 0,0 UV-I 0 W/m² 12,2 °C 13,6 °C 0,0 km/h (0 Bft)
15.08.2017 05:58 13,6 °C 13,7 °C 91 % 1017,5 hPa 0,0 mm 0,0 km/h (0 Bft) W 276 ° 0 min 0,000 mm 0,0 UV-I 0 W/m² 12,2 °C 13,6 °C 0,0 km/h (0 Bft)
15.08.2017 05:59 13,6 °C 13,6 °C 91 % 1017,5 hPa 0,0 mm 0,0 km/h (0 Bft) W 276 ° 0 min 0,000 mm 0,0 UV-I 0 W/m² 12,2 °C 13,6 °C 0,0 km/h (0 Bft)
15.08.2017 06:00 13,6 °C 13,6 °C 91 % 1017,5 hPa 0,0 mm 0,0 km/h (0 Bft) W 276 ° 0 min 0,000 mm 0,0 UV-I 0 W/m² 12,2 °C 13,6 °C 0,0 km/h (0 Bft)
15.08.2017 06:01 13,6 °C 13,6 °C 91 % 1017,5 hPa 0,0 mm 0,0 km/h (0 Bft) W 276 ° 0 min 0,000 mm 0,0 UV-I 0 W/m² 12,2 °C 13,6 °C 0,0 km/h (0 Bft)
15.08.2017 06:02 13,6 °C 13,6 °C 91 % 1017,5 hPa 0,0 mm 0,0 km/h (0 Bft) W 276 ° 0 min 0,000 mm 0,0 UV-I 0 W/m² 12,2 °C 13,6 °C 0,0 km/h (0 Bft)
15.08.2017 06:03 13,5 °C 13,6 °C 91 % 1017,5 hPa 0,0 mm 0,0 km/h (0 Bft) W 276 ° 0 min 0,000 mm 0,0 UV-I 0 W/m² 12,1 °C 13,5 °C 0,0 km/h (0 Bft)
15.08.2017 06:04 13,5 °C 13,5 °C 91 % 1017,6 hPa 0,0 mm 0,0 km/h (0 Bft) W 276 ° 0 min 0,000 mm 0,0 UV-I 0 W/m² 12,1 °C 13,5 °C 0,0 km/h (0 Bft)
15.08.2017 06:05 13,4 °C 13,5 °C 91 % 1017,5 hPa 0,0 mm 0,0 km/h (0 Bft) W 276 ° 0 min 0,000 mm 0,0 UV-I 0 W/m² 12,0 °C 13,4 °C 0,0 km/h (0 Bft)
15.08.2017 06:06 13,4 °C 13,5 °C 91 % 1017,5 hPa 0,0 mm 0,0 km/h (0 Bft) W 276 ° 0 min 0,000 mm 0,0 UV-I 0 W/m² 12,0 °C 13,4 °C 0,0 km/h (0 Bft)
15.08.2017 06:07 13,3 °C 13,4 °C 90 % 1017,5 hPa 0,0 mm 0,0 km/h (0 Bft) W 276 ° 0 min 0,000 mm 0,0 UV-I 0 W/m² 11,7 °C 13,3 °C 0,0 km/h (0 Bft)
15.08.2017 06:08 13,3 °C 13,3 °C 90 % 1017,5 hPa 0,0 mm 0,0 km/h (0 Bft) W 276 ° 0 min 0,000 mm 0,0 UV-I 0 W/m² 11,7 °C 13,3 °C 0,0 km/h (0 Bft)
15.08.2017 06:09 13,2 °C 13,3 °C 91 % 1017,5 hPa 0,0 mm 0,0 km/h (0 Bft) W 276 ° 0 min 0,000 mm 0,0 UV-I 0 W/m² 11,8 °C 13,2 °C 0,0 km/h (0 Bft)
15.08.2017 06:10 13,2 °C 13,2 °C 91 % 1017,5 hPa 0,0 mm 0,0 km/h (0 Bft) W 276 ° 0 min 0,000 mm 0,0 UV-I 0 W/m² 11,8 °C 13,2 °C 0,0 km/h (0 Bft)
15.08.2017 06:11 13,2 °C 13,3 °C 91 % 1017,6 hPa 0,0 mm 0,0 km/h (0 Bft) W 276 ° 0 min 0,000 mm 0,0 UV-I 0 W/m² 11,8 °C 13,2 °C 0,0 km/h (0 Bft)
15.08.2017 06:12 13,3 °C 13,3 °C 91 % 1017,6 hPa 0,0 mm 0,0 km/h (0 Bft) W 276 ° 0 min 0,000 mm 0,0 UV-I 0 W/m² 11,9 °C 13,3 °C 0,0 km/h (0 Bft)
15.08.2017 06:13 13,3 °C 13,3 °C 91 % 1017,5 hPa 0,0 mm 0,0 km/h (0 Bft) W 276 ° 0 min 0,000 mm 0,0 UV-I 0 W/m² 11,9 °C 13,3 °C 0,0 km/h (0 Bft)
15.08.2017 06:14 13,3 °C 13,3 °C 91 % 1017,5 hPa 0,0 mm 0,0 km/h (0 Bft) W 276 ° 0 min 0,000 mm 0,0 UV-I 0 W/m² 11,9 °C 13,3 °C 0,0 km/h (0 Bft)
15.08.2017 06:15 13,3 °C 13,3 °C 90 % 1017,5 hPa 0,0 mm 0,0 km/h (0 Bft) W 276 ° 0 min 0,000 mm 0,0 UV-I 5 W/m² 11,7 °C 13,3 °C 0,0 km/h (0 Bft)
15.08.2017 06:16 13,3 °C 13,4 °C 90 % 1017,5 hPa 0,0 mm 0,0 km/h (0 Bft) W 276 ° 0 min 0,000 mm 0,0 UV-I 5 W/m² 11,7 °C 13,3 °C 0,0 km/h (0 Bft)
15.08.2017 06:17 13,3 °C 13,3 °C 91 % 1017,6 hPa 0,0 mm 0,0 km/h (0 Bft) W 276 ° 0 min 0,000 mm 0,0 UV-I 5 W/m² 11,9 °C 13,3 °C 0,0 km/h (0 Bft)
15.08.2017 06:18 13,3 °C 13,3 °C 91 % 1017,6 hPa 0,0 mm 0,0 km/h (0 Bft) W 276 ° 0 min 0,000 mm 0,0 UV-I 5 W/m² 11,9 °C 13,3 °C 0,0 km/h (0 Bft)
15.08.2017 06:19 13,3 °C 13,3 °C 90 % 1017,6 hPa 0,0 mm 0,0 km/h (0 Bft) W 276 ° 0 min 0,000 mm 0,0 UV-I 5 W/m² 11,7 °C 13,3 °C 0,0 km/h (0 Bft)
15.08.2017 06:20 13,3 °C 13,4 °C 90 % 1017,6 hPa 0,0 mm 1,1 km/h (1 Bft) W 276 ° 0 min 0,000 mm 0,0 UV-I 7 W/m² 11,7 °C 13,3 °C 3,2 km/h (1 Bft)
15.08.2017 06:21 13,3 °C 13,3 °C 90 % 1017,6 hPa 0,0 mm 0,1 km/h (0 Bft) W 276 ° 0 min 0,000 mm 0,0 UV-I 7 W/m² 11,7 °C 13,3 °C 1,6 km/h (1 Bft)
15.08.2017 06:22 13,3 °C 13,3 °C 90 % 1017,6 hPa 0,0 mm 0,0 km/h (0 Bft) W 276 ° 0 min 0,000 mm 0,0 UV-I 7 W/m² 11,7 °C 13,3 °C 0,0 km/h (0 Bft)
15.08.2017 06:23 13,3 °C 13,3 °C 90 % 1017,6 hPa 0,0 mm 0,0 km/h (0 Bft) W 276 ° 0 min 0,000 mm 0,0 UV-I 7 W/m² 11,7 °C 13,3 °C 0,0 km/h (0 Bft)
15.08.2017 06:24 13,3 °C 13,3 °C 91 % 1017,6 hPa 0,0 mm 0,0 km/h (0 Bft) W 276 ° 0 min 0,000 mm 0,0 UV-I 9 W/m² 11,9 °C 13,3 °C 0,0 km/h (0 Bft)
15.08.2017 06:25 13,3 °C 13,4 °C 91 % 1017,6 hPa 0,0 mm 0,0 km/h (0 Bft) W 276 ° 0 min 0,000 mm 0,0 UV-I 9 W/m² 11,9 °C 13,3 °C 0,0 km/h (0 Bft)
15.08.2017 06:26 13,4 °C 13,4 °C 91 % 1017,7 hPa 0,0 mm 0,0 km/h (0 Bft) W 276 ° 0 min 0,000 mm 0,0 UV-I 9 W/m² 12,0 °C 13,4 °C 0,0 km/h (0 Bft)
15.08.2017 06:27 13,4 °C 13,4 °C 90 % 1017,6 hPa 0,0 mm 0,8 km/h (0 Bft) W 276 ° 0 min 0,000 mm 0,0 UV-I 9 W/m² 11,8 °C 13,4 °C 1,6 km/h (1 Bft)
15.08.2017 06:28 13,4 °C 13,4 °C 90 % 1017,6 hPa 0,0 mm 0,0 km/h (0 Bft) W 276 ° 0 min 0,000 mm 0,0 UV-I 11 W/m² 11,8 °C 13,4 °C 0,0 km/h (0 Bft)
15.08.2017 06:29 13,4 °C 13,4 °C 90 % 1017,6 hPa 0,0 mm 0,0 km/h (0 Bft) W 276 ° 0 min 0,000 mm 0,0 UV-I 11 W/m² 11,8 °C 13,4 °C 0,0 km/h (0 Bft)
15.08.2017 06:30 13,4 °C 13,4 °C 90 % 1017,6 hPa 0,0 mm 0,0 km/h (0 Bft) W 276 ° 0 min 0,000 mm 0,0 UV-I 11 W/m² 11,8 °C 13,4 °C 0,0 km/h (0 Bft)
15.08.2017 06:31 13,4 °C 13,4 °C 90 % 1017,6 hPa 0,0 mm 0,3 km/h (0 Bft) W 276 ° 0 min 0,000 mm 0,0 UV-I 11 W/m² 11,8 °C 13,4 °C 1,6 km/h (1 Bft)
15.08.2017 06:32 13,4 °C 13,4 °C 90 % 1017,5 hPa 0,0 mm 0,0 km/h (0 Bft) W 276 ° 0 min 0,000 mm 0,0 UV-I 12 W/m² 11,8 °C 13,4 °C 0,0 km/h (0 Bft)
15.08.2017 06:33 13,4 °C 13,4 °C 90 % 1017,6 hPa 0,0 mm 0,0 km/h (0 Bft) W 276 ° 0 min 0,000 mm 0,0 UV-I 12 W/m² 11,8 °C 13,4 °C 0,0 km/h (0 Bft)
15.08.2017 06:34 13,4 °C 13,4 °C 90 % 1017,6 hPa 0,0 mm 0,0 km/h (0 Bft) W 276 ° 0 min 0,000 mm 0,0 UV-I 12 W/m² 11,8 °C 13,4 °C 0,0 km/h (0 Bft)
15.08.2017 06:35 13,4 °C 13,4 °C 90 % 1017,5 hPa 0,0 mm 0,0 km/h (0 Bft) W 276 ° 0 min 0,000 mm 0,0 UV-I 14 W/m² 11,8 °C 13,4 °C 0,0 km/h (0 Bft)
15.08.2017 06:36 13,4 °C 13,4 °C 90 % 1017,5 hPa 0,0 mm 0,0 km/h (0 Bft) W 276 ° 0 min 0,000 mm 0,0 UV-I 14 W/m² 11,8 °C 13,4 °C 0,0 km/h (0 Bft)
15.08.2017 06:37 13,4 °C 13,4 °C 90 % 1017,5 hPa 0,0 mm 0,0 km/h (0 Bft) W 276 ° 0 min 0,000 mm 0,0 UV-I 14 W/m² 11,8 °C 13,4 °C 0,0 km/h (0 Bft)
15.08.2017 06:38 13,5 °C 13,5 °C 90 % 1017,5 hPa 0,0 mm 0,0 km/h (0 Bft) W 276 ° 0 min 0,000 mm 0,0 UV-I 14 W/m² 11,9 °C 13,5 °C 0,0 km/h (0 Bft)
15.08.2017 06:39 13,5 °C 13,5 °C 90 % 1017,5 hPa 0,0 mm 0,0 km/h (0 Bft) W 276 ° 0 min 0,000 mm 0,0 UV-I 16 W/m² 11,9 °C 13,5 °C 0,0 km/h (0 Bft)
15.08.2017 06:40 13,4 °C 13,5 °C 89 % 1017,5 hPa 0,0 mm 0,0 km/h (0 Bft) W 276 ° 0 min 0,000 mm 0,0 UV-I 16 W/m² 11,6 °C 13,4 °C 0,0 km/h (0 Bft)
15.08.2017 06:41 13,4 °C 13,4 °C 90 % 1017,5 hPa 0,0 mm 0,0 km/h (0 Bft) W 276 ° 0 min 0,000 mm 0,0 UV-I 16 W/m² 11,8 °C 13,4 °C 0,0 km/h (0 Bft)
15.08.2017 06:42 13,4 °C 13,4 °C 90 % 1017,5 hPa 0,0 mm 0,0 km/h (0 Bft) W 276 ° 0 min 0,000 mm 0,0 UV-I 18 W/m² 11,8 °C 13,4 °C 0,0 km/h (0 Bft)
15.08.2017 06:43 13,4 °C 13,4 °C 90 % 1017,5 hPa 0,0 mm 0,0 km/h (0 Bft) W 276 ° 0 min 0,000 mm 0,0 UV-I 18 W/m² 11,8 °C 13,4 °C 0,0 km/h (0 Bft)
15.08.2017 06:44 13,5 °C 13,5 °C 90 % 1017,6 hPa 0,0 mm 0,0 km/h (0 Bft) W 276 ° 0 min 0,000 mm 0,0 UV-I 18 W/m² 11,9 °C 13,5 °C 0,0 km/h (0 Bft)
15.08.2017 06:45 13,5 °C 13,5 °C 90 % 1017,5 hPa 0,0 mm 0,0 km/h (0 Bft) W 276 ° 0 min 0,000 mm 0,0 UV-I 18 W/m² 11,9 °C 13,5 °C 0,0 km/h (0 Bft)
15.08.2017 06:46 13,6 °C 13,6 °C 90 % 1017,5 hPa 0,0 mm 0,0 km/h (0 Bft) W 276 ° 0 min 0,000 mm 0,0 UV-I 18 W/m² 12,0 °C 13,6 °C 0,0 km/h (0 Bft)
15.08.2017 06:47 13,6 °C 13,6 °C 90 % 1017,6 hPa 0,0 mm 0,0 km/h (0 Bft) W 276 ° 0 min 0,000 mm 0,0 UV-I 19 W/m² 12,0 °C 13,6 °C 0,0 km/h (0 Bft)
15.08.2017 06:48 13,7 °C 13,7 °C 90 % 1017,6 hPa 0,0 mm 0,0 km/h (0 Bft) W 276 ° 0 min 0,000 mm 0,0 UV-I 19 W/m² 12,1 °C 13,7 °C 0,0 km/h (0 Bft)
15.08.2017 06:49 13,7 °C 13,7 °C 90 % 1017,6 hPa 0,0 mm 0,0 km/h (0 Bft) W 276 ° 0 min 0,000 mm 0,0 UV-I 19 W/m² 12,1 °C 13,7 °C 0,0 km/h (0 Bft)
15.08.2017 06:50 13,7 °C 13,7 °C 90 % 1017,6 hPa 0,0 mm 0,0 km/h (0 Bft) W 276 ° 0 min 0,000 mm 0,0 UV-I 19 W/m² 12,1 °C 13,7 °C 0,0 km/h (0 Bft)
15.08.2017 06:51 13,8 °C 13,8 °C 89 % 1017,6 hPa 0,0 mm 0,0 km/h (0 Bft) W 276 ° 0 min 0,000 mm 0,0 UV-I 19 W/m² 12,0 °C 13,8 °C 0,0 km/h (0 Bft)
15.08.2017 06:52 13,8 °C 13,8 °C 89 % 1017,6 hPa 0,0 mm 0,0 km/h (0 Bft) W 276 ° 0 min 0,000 mm 0,0 UV-I 21 W/m² 12,0 °C 13,8 °C 0,0 km/h (0 Bft)
15.08.2017 06:53 13,9 °C 13,9 °C 89 % 1017,6 hPa 0,0 mm 0,0 km/h (0 Bft) W 276 ° 0 min 0,000 mm 0,0 UV-I 21 W/m² 12,1 °C 13,9 °C 0,0 km/h (0 Bft)
15.08.2017 06:54 13,9 °C 13,9 °C 89 % 1017,7 hPa 0,0 mm 0,0 km/h (0 Bft) W 276 ° 0 min 0,000 mm 0,0 UV-I 21 W/m² 12,1 °C 13,9 °C 0,0 km/h (0 Bft)
15.08.2017 06:55 13,9 °C 13,9 °C 89 % 1017,6 hPa 0,0 mm 0,0 km/h (0 Bft) W 276 ° 0 min 0,000 mm 0,0 UV-I 23 W/m² 12,1 °C 13,9 °C 0,0 km/h (0 Bft)
15.08.2017 06:56 14,0 °C 14,0 °C 89 % 1017,6 hPa 0,0 mm 0,0 km/h (0 Bft) W 276 ° 0 min 0,000 mm 0,0 UV-I 23 W/m² 12,2 °C 14,0 °C 0,0 km/h (0 Bft)
15.08.2017 06:57 14,1 °C 14,1 °C 89 % 1017,6 hPa 0,0 mm 0,0 km/h (0 Bft) W 276 ° 0 min 0,000 mm 0,0 UV-I 25 W/m² 12,3 °C 14,1 °C 0,0 km/h (0 Bft)
15.08.2017 06:58 14,1 °C 14,1 °C 89 % 1017,6 hPa 0,0 mm 0,0 km/h (0 Bft) W 276 ° 0 min 0,000 mm 0,0 UV-I 25 W/m² 12,3 °C 14,1 °C 0,0 km/h (0 Bft)
15.08.2017 06:59 14,1 °C 14,1 °C 89 % 1017,6 hPa 0,0 mm 0,0 km/h (0 Bft) W 276 ° 0 min 0,000 mm 0,0 UV-I 23 W/m² 12,3 °C 14,1 °C 0,0 km/h (0 Bft)
15.08.2017 07:00 14,1 °C 14,2 °C 89 % 1017,6 hPa 0,0 mm 0,0 km/h (0 Bft) W 276 ° 0 min 0,000 mm 0,0 UV-I 25 W/m² 12,3 °C 14,1 °C 0,0 km/h (0 Bft)
15.08.2017 07:01 14,1 °C 14,2 °C 89 % 1017,6 hPa 0,0 mm 0,0 km/h (0 Bft) W 276 ° 0 min 0,000 mm 0,0 UV-I 25 W/m² 12,3 °C 14,1 °C 0,0 km/h (0 Bft)
15.08.2017 07:02 14,2 °C 14,2 °C 89 % 1017,6 hPa 0,0 mm 0,5 km/h (0 Bft) W 276 ° 0 min 0,000 mm 0,0 UV-I 25 W/m² 12,4 °C 14,2 °C 1,6 km/h (1 Bft)
15.08.2017 07:03 14,2 °C 14,2 °C 89 % 1017,6 hPa 0,0 mm 0,0 km/h (0 Bft) W 276 ° 0 min 0,000 mm 0,0 UV-I 25 W/m² 12,4 °C 14,2 °C 0,0 km/h (0 Bft)
15.08.2017 07:04 14,2 °C 14,2 °C 89 % 1017,6 hPa 0,0 mm 0,0 km/h (0 Bft) W 276 ° 0 min 0,000 mm 0,0 UV-I 25 W/m² 12,4 °C 14,2 °C 0,0 km/h (0 Bft)
15.08.2017 07:05 14,3 °C 14,3 °C 89 % 1017,6 hPa 0,0 mm 0,0 km/h (0 Bft) W 276 ° 0 min 0,000 mm 0,0 UV-I 25 W/m² 12,5 °C 14,3 °C 0,0 km/h (0 Bft)
15.08.2017 07:06 14,3 °C 14,3 °C 88 % 1017,6 hPa 0,0 mm 0,0 km/h (0 Bft) W 276 ° 0 min 0,000 mm 0,0 UV-I 25 W/m² 12,3 °C 14,3 °C 0,0 km/h (0 Bft)
15.08.2017 07:07 14,3 °C 14,3 °C 88 % 1017,6 hPa 0,0 mm 0,0 km/h (0 Bft) W 276 ° 0 min 0,000 mm 0,0 UV-I 25 W/m² 12,3 °C 14,3 °C 0,0 km/h (0 Bft)
15.08.2017 07:08 14,3 °C 14,3 °C 88 % 1017,6 hPa 0,0 mm 0,0 km/h (0 Bft) W 276 ° 0 min 0,000 mm 0,0 UV-I 25 W/m² 12,3 °C 14,3 °C 0,0 km/h (0 Bft)
15.08.2017 07:09 14,3 °C 14,3 °C 88 % 1017,6 hPa 0,0 mm 0,0 km/h (0 Bft) W 276 ° 0 min 0,000 mm 0,0 UV-I 25 W/m² 12,3 °C 14,3 °C 0,0 km/h (0 Bft)
15.08.2017 07:10 14,3 °C 14,4 °C 88 % 1017,6 hPa 0,0 mm 0,0 km/h (0 Bft) W 276 ° 0 min 0,000 mm 0,0 UV-I 26 W/m² 12,3 °C 14,3 °C 0,0 km/h (0 Bft)
15.08.2017 07:11 14,4 °C 14,4 °C 88 % 1017,5 hPa 0,0 mm 0,0 km/h (0 Bft) W 276 ° 0 min 0,000 mm 0,0 UV-I 26 W/m² 12,4 °C 14,4 °C 0,0 km/h (0 Bft)
15.08.2017 07:12 14,4 °C 14,4 °C 88 % 1017,6 hPa 0,0 mm 0,0 km/h (0 Bft) W 276 ° 0 min 0,000 mm 0,0 UV-I 26 W/m² 12,4 °C 14,4 °C 0,0 km/h (0 Bft)
15.08.2017 07:13 14,6 °C 14,6 °C 88 % 1017,5 hPa 0,0 mm 0,0 km/h (0 Bft) W 276 ° 0 min 0,000 mm 0,0 UV-I 26 W/m² 12,6 °C 14,6 °C 0,0 km/h (0 Bft)
15.08.2017 07:14 14,6 °C 14,6 °C 88 % 1017,5 hPa 0,0 mm 0,0 km/h (0 Bft) W 276 ° 0 min 0,000 mm 0,0 UV-I 26 W/m² 12,6 °C 14,6 °C 0,0 km/h (0 Bft)
15.08.2017 07:15 14,6 °C 14,6 °C 88 % 1017,5 hPa 0,0 mm 0,0 km/h (0 Bft) W 276 ° 0 min 0,000 mm 0,0 UV-I 26 W/m² 12,6 °C 14,6 °C 0,0 km/h (0 Bft)
15.08.2017 07:16 14,6 °C 14,6 °C 88 % 1017,5 hPa 0,0 mm 0,0 km/h (0 Bft) W 276 ° 0 min 0,000 mm 0,0 UV-I 28 W/m² 12,6 °C 14,6 °C 0,0 km/h (0 Bft)
15.08.2017 07:17 14,6 °C 14,6 °C 88 % 1017,5 hPa 0,0 mm 0,1 km/h (0 Bft) W 276 ° 0 min 0,000 mm 0,0 UV-I 30 W/m² 12,6 °C 14,6 °C 1,6 km/h (1 Bft)
15.08.2017 07:18 14,7 °C 14,7 °C 88 % 1017,6 hPa 0,0 mm 0,1 km/h (0 Bft) W 276 ° 0 min 0,000 mm 0,0 UV-I 30 W/m² 12,7 °C 14,7 °C 1,6 km/h (1 Bft)
15.08.2017 07:19 14,7 °C 14,7 °C 88 % 1017,6 hPa 0,0 mm 0,0 km/h (0 Bft) W 276 ° 0 min 0,000 mm 0,0 UV-I 28 W/m² 12,7 °C 14,7 °C 0,0 km/h (0 Bft)
15.08.2017 07:20 14,8 °C 14,8 °C 88 % 1017,6 hPa 0,0 mm 0,0 km/h (0 Bft) W 276 ° 0 min 0,000 mm 0,0 UV-I 28 W/m² 12,8 °C 14,8 °C 0,0 km/h (0 Bft)
15.08.2017 07:21 14,8 °C 14,9 °C 88 % 1017,6 hPa 0,0 mm 0,0 km/h (0 Bft) W 276 ° 0 min 0,000 mm 0,0 UV-I 30 W/m² 12,8 °C 14,8 °C 0,0 km/h (0 Bft)
15.08.2017 07:22 14,9 °C 14,9 °C 88 % 1017,5 hPa 0,0 mm 0,1 km/h (0 Bft) W 276 ° 0 min 0,000 mm 0,0 UV-I 30 W/m² 12,9 °C 14,9 °C 1,6 km/h (1 Bft)
15.08.2017 07:23 15,0 °C 15,0 °C 87 % 1017,5 hPa 0,0 mm 0,0 km/h (0 Bft) W 276 ° 0 min 0,000 mm 0,0 UV-I 30 W/m² 12,9 °C 15,0 °C 0,0 km/h (0 Bft)
15.08.2017 07:24 15,1 °C 15,1 °C 87 % 1017,5 hPa 0,0 mm 0,0 km/h (0 Bft) W 276 ° 0 min 0,000 mm 0,0 UV-I 30 W/m² 13,0 °C 15,1 °C 0,0 km/h (0 Bft)
15.08.2017 07:25 15,2 °C 15,2 °C 87 % 1017,5 hPa 0,0 mm 0,0 km/h (0 Bft) W 276 ° 0 min 0,000 mm 0,0 UV-I 32 W/m² 13,0 °C 15,2 °C 0,0 km/h (0 Bft)
15.08.2017 07:26 15,3 °C 15,3 °C 86 % 1017,5 hPa 0,0 mm 0,0 km/h (0 Bft) W 276 ° 0 min 0,000 mm 0,0 UV-I 33 W/m² 13,0 °C 15,3 °C 0,0 km/h (0 Bft)
15.08.2017 07:27 15,3 °C 15,3 °C 86 % 1017,5 hPa 0,0 mm 0,0 km/h (0 Bft) W 276 ° 0 min 0,000 mm 0,0 UV-I 33 W/m² 13,0 °C 15,3 °C 0,0 km/h (0 Bft)
15.08.2017 07:28 15,4 °C 15,4 °C 86 % 1017,6 hPa 0,0 mm 0,0 km/h (0 Bft) W 276 ° 0 min 0,000 mm 0,0 UV-I 32 W/m² 13,1 °C 15,4 °C 0,0 km/h (0 Bft)
15.08.2017 07:29 15,5 °C 15,5 °C 86 % 1017,6 hPa 0,0 mm 0,0 km/h (0 Bft) W 276 ° 0 min 0,000 mm 0,0 UV-I 33 W/m² 13,2 °C 15,5 °C 0,0 km/h (0 Bft)
15.08.2017 07:30 15,6 °C 15,6 °C 86 % 1017,6 hPa 0,0 mm 0,3 km/h (0 Bft) W 276 ° 0 min 0,000 mm 0,0 UV-I 37 W/m² 13,3 °C 15,6 °C 3,2 km/h (1 Bft)
15.08.2017 07:31 15,6 °C 15,6 °C 85 % 1017,6 hPa 0,0 mm 0,7 km/h (0 Bft) W 276 ° 0 min 0,000 mm 0,0 UV-I 37 W/m² 13,1 °C 15,6 °C 3,2 km/h (1 Bft)
15.08.2017 07:32 15,8 °C 15,8 °C 85 % 1017,6 hPa 0,0 mm 0,0 km/h (0 Bft) W 276 ° 0 min 0,000 mm 0,0 UV-I 37 W/m² 13,3 °C 15,8 °C 0,0 km/h (0 Bft)
15.08.2017 07:33 15,8 °C 15,8 °C 85 % 1017,6 hPa 0,0 mm 0,0 km/h (0 Bft) W 276 ° 0 min 0,000 mm 0,0 UV-I 35 W/m² 13,3 °C 15,8 °C 0,0 km/h (0 Bft)
15.08.2017 07:34 15,9 °C 15,9 °C 85 % 1017,6 hPa 0,0 mm 0,0 km/h (0 Bft) W 276 ° 0 min 0,000 mm 0,0 UV-I 37 W/m² 13,4 °C 15,9 °C 0,0 km/h (0 Bft)
15.08.2017 07:35 15,9 °C 16,0 °C 85 % 1017,5 hPa 0,0 mm 0,0 km/h (0 Bft) W 276 ° 0 min 0,000 mm 0,0 UV-I 37 W/m² 13,4 °C 15,9 °C 0,0 km/h (0 Bft)
15.08.2017 07:36 16,0 °C 16,0 °C 85 % 1017,5 hPa 0,0 mm 0,0 km/h (0 Bft) W 276 ° 0 min 0,000 mm 0,0 UV-I 42 W/m² 13,5 °C 16,0 °C 0,0 km/h (0 Bft)
15.08.2017 07:37 16,1 °C 16,1 °C 84 % 1017,5 hPa 0,0 mm 0,0 km/h (0 Bft) W 276 ° 0 min 0,000 mm 0,0 UV-I 49 W/m² 13,4 °C 16,1 °C 0,0 km/h (0 Bft)
15.08.2017 07:38 16,1 °C 16,1 °C 84 % 1017,5 hPa 0,0 mm 0,0 km/h (0 Bft) W 276 ° 0 min 0,000 mm 0,0 UV-I 44 W/m² 13,4 °C 16,1 °C 0,0 km/h (0 Bft)
15.08.2017 07:39 16,2 °C 16,2 °C 84 % 1017,5 hPa 0,0 mm 0,0 km/h (0 Bft) W 276 ° 0 min 0,000 mm 0,0 UV-I 53 W/m² 13,5 °C 16,2 °C 0,0 km/h (0 Bft)
15.08.2017 07:40 16,2 °C 16,2 °C 85 % 1017,5 hPa 0,0 mm 0,0 km/h (0 Bft) W 276 ° 0 min 0,000 mm 0,6 UV-I 116 W/m² 13,7 °C 16,2 °C 0,0 km/h (0 Bft)
15.08.2017 07:41 16,2 °C 16,2 °C 85 % 1017,5 hPa 0,0 mm 0,0 km/h (0 Bft) W 276 ° 0 min 0,000 mm 0,6 UV-I 134 W/m² 13,7 °C 16,2 °C 0,0 km/h (0 Bft)
15.08.2017 07:42 16,2 °C 16,2 °C 85 % 1017,5 hPa 0,0 mm 0,0 km/h (0 Bft) W 276 ° 0 min 0,000 mm 0,6 UV-I 137 W/m² 13,7 °C 16,2 °C 0,0 km/h (0 Bft)
15.08.2017 07:43 16,3 °C 16,3 °C 85 % 1017,5 hPa 0,0 mm 0,0 km/h (0 Bft) W 276 ° 0 min 0,000 mm 0,7 UV-I 141 W/m² 13,8 °C 16,3 °C 0,0 km/h (0 Bft)
15.08.2017 07:44 16,3 °C 16,3 °C 85 % 1017,5 hPa 0,0 mm 0,0 km/h (0 Bft) W 276 ° 0 min 0,000 mm 0,7 UV-I 142 W/m² 13,8 °C 16,3 °C 0,0 km/h (0 Bft)
15.08.2017 07:45 16,3 °C 16,3 °C 85 % 1017,5 hPa 0,0 mm 0,0 km/h (0 Bft) W 276 ° 0 min 0,000 mm 0,7 UV-I 149 W/m² 13,8 °C 16,3 °C 0,0 km/h (0 Bft)
15.08.2017 07:46 16,4 °C 16,4 °C 85 % 1017,5 hPa 0,0 mm 0,0 km/h (0 Bft) W 276 ° 0 min 0,000 mm 0,7 UV-I 151 W/m² 13,9 °C 16,4 °C 0,0 km/h (0 Bft)
15.08.2017 07:47 16,4 °C 16,4 °C 85 % 1017,5 hPa 0,0 mm 0,8 km/h (0 Bft) W 276 ° 0 min 0,000 mm 0,7 UV-I 155 W/m² 13,9 °C 16,4 °C 1,6 km/h (1 Bft)
15.08.2017 07:48 16,4 °C 16,5 °C 85 % 1017,5 hPa 0,0 mm 0,1 km/h (0 Bft) W 276 ° 0 min 0,000 mm 0,7 UV-I 160 W/m² 13,9 °C 16,4 °C 1,6 km/h (1 Bft)
15.08.2017 07:49 16,4 °C 16,4 °C 85 % 1017,5 hPa 0,0 mm 0,7 km/h (0 Bft) W 276 ° 0 min 0,000 mm 0,7 UV-I 162 W/m² 13,9 °C 16,4 °C 1,6 km/h (1 Bft)
15.08.2017 07:50 16,4 °C 16,4 °C 86 % 1017,5 hPa 0,0 mm 1,3 km/h (1 Bft) W-NW 282 ° 0 min 0,000 mm 0,8 UV-I 162 W/m² 14,1 °C 16,4 °C 3,2 km/h (1 Bft)
15.08.2017 07:51 16,6 °C 16,6 °C 85 % 1017,5 hPa 0,0 mm 0,4 km/h (0 Bft) W-NW 282 ° 0 min 0,000 mm 0,8 UV-I 172 W/m² 14,1 °C 16,6 °C 1,6 km/h (1 Bft)
15.08.2017 07:52 16,8 °C 16,8 °C 84 % 1017,5 hPa 0,0 mm 1,2 km/h (1 Bft) W-NW 282 ° 0 min 0,000 mm 0,8 UV-I 174 W/m² 14,1 °C 16,8 °C 3,2 km/h (1 Bft)
15.08.2017 07:53 16,9 °C 16,9 °C 86 % 1017,5 hPa 0,0 mm 0,7 km/h (0 Bft) W-NW 282 ° 0 min 0,000 mm 0,8 UV-I 178 W/m² 14,5 °C 16,9 °C 3,2 km/h (1 Bft)
15.08.2017 07:54 17,1 °C 17,1 °C 85 % 1017,5 hPa 0,0 mm 0,0 km/h (0 Bft) W-NW 282 ° 0 min 0,000 mm 0,8 UV-I 181 W/m² 14,6 °C 17,1 °C 0,0 km/h (0 Bft)
15.08.2017 07:55 17,2 °C 17,2 °C 84 % 1017,5 hPa 0,0 mm 1,0 km/h (0 Bft) W-NW 287 ° 0 min 0,000 mm 0,8 UV-I 183 W/m² 14,5 °C 17,2 °C 3,2 km/h (1 Bft)
15.08.2017 07:56 17,2 °C 17,2 °C 82 % 1017,5 hPa 0,0 mm 0,7 km/h (0 Bft) W-NW 287 ° 0 min 0,000 mm 0,9 UV-I 186 W/m² 14,1 °C 17,2 °C 3,2 km/h (1 Bft)
15.08.2017 07:57 17,2 °C 17,2 °C 82 % 1017,5 hPa 0,0 mm 0,2 km/h (0 Bft) W-NW 287 ° 0 min 0,000 mm 0,9 UV-I 192 W/m² 14,1 °C 17,2 °C 1,6 km/h (1 Bft)
15.08.2017 07:58 17,3 °C 17,3 °C 82 % 1017,5 hPa 0,0 mm 0,0 km/h (0 Bft) W-NW 287 ° 0 min 0,000 mm 0,9 UV-I 192 W/m² 14,2 °C 17,3 °C 0,0 km/h (0 Bft)
15.08.2017 07:59 17,3 °C 17,3 °C 85 % 1017,5 hPa 0,0 mm 0,0 km/h (0 Bft) W-NW 287 ° 0 min 0,000 mm 0,9 UV-I 197 W/m² 14,8 °C 17,3 °C 0,0 km/h (0 Bft)
15.08.2017 08:00 17,3 °C 17,3 °C 82 % 1017,4 hPa 0,0 mm 0,0 km/h (0 Bft) W-NW 287 ° 0 min 0,000 mm 0,9 UV-I 200 W/m² 14,2 °C 17,3 °C 0,0 km/h (0 Bft)
15.08.2017 08:01 17,4 °C 17,4 °C 83 % 1017,4 hPa 0,0 mm 0,0 km/h (0 Bft) W-NW 287 ° 0 min 0,051 mm 1,0 UV-I 204 W/m² 14,5 °C 17,4 °C 0,0 km/h (0 Bft)
15.08.2017 08:02 17,4 °C 17,4 °C 83 % 1017,4 hPa 0,0 mm 0,0 km/h (0 Bft) W-NW 287 ° 0 min 0,000 mm 1,0 UV-I 206 W/m² 14,5 °C 17,4 °C 0,0 km/h (0 Bft)
15.08.2017 08:03 17,5 °C 17,5 °C 83 % 1017,4 hPa 0,0 mm 0,0 km/h (0 Bft) W-NW 287 ° 0 min 0,000 mm 1,0 UV-I 211 W/m² 14,6 °C 17,5 °C 0,0 km/h (0 Bft)
15.08.2017 08:04 17,6 °C 17,6 °C 84 % 1017,4 hPa 0,0 mm 0,0 km/h (0 Bft) W-NW 287 ° 0 min 0,000 mm 1,0 UV-I 214 W/m² 14,9 °C 17,6 °C 0,0 km/h (0 Bft)
15.08.2017 08:05 17,6 °C 17,6 °C 85 % 1017,5 hPa 0,0 mm 0,3 km/h (0 Bft) W-NW 287 ° 0 min 0,000 mm 1,1 UV-I 216 W/m² 15,0 °C 17,6 °C 1,6 km/h (1 Bft)
15.08.2017 08:06 17,7 °C 17,7 °C 84 % 1017,5 hPa 0,0 mm 0,0 km/h (0 Bft) W-NW 287 ° 0 min 0,000 mm 1,1 UV-I 209 W/m² 15,0 °C 17,7 °C 0,0 km/h (0 Bft)
15.08.2017 08:07 17,8 °C 17,8 °C 83 % 1017,5 hPa 0,0 mm 0,0 km/h (0 Bft) W-NW 287 ° 0 min 0,000 mm 1,1 UV-I 220 W/m² 14,9 °C 17,8 °C 0,0 km/h (0 Bft)
15.08.2017 08:08 17,9 °C 17,9 °C 84 % 1017,4 hPa 0,0 mm 0,0 km/h (0 Bft) W-NW 287 ° 0 min 0,000 mm 1,1 UV-I 223 W/m² 15,2 °C 17,9 °C 0,0 km/h (0 Bft)
15.08.2017 08:09 17,8 °C 17,9 °C 85 % 1017,4 hPa 0,0 mm 0,0 km/h (0 Bft) W-NW 287 ° 0 min 0,000 mm 1,1 UV-I 229 W/m² 15,2 °C 17,8 °C 0,0 km/h (0 Bft)
15.08.2017 08:10 17,9 °C 17,9 °C 84 % 1017,5 hPa 0,0 mm 0,0 km/h (0 Bft) W-NW 287 ° 0 min 0,000 mm 1,2 UV-I 230 W/m² 15,2 °C 17,9 °C 0,0 km/h (0 Bft)
15.08.2017 08:11 17,9 °C 17,9 °C 84 % 1017,4 hPa 0,0 mm 0,3 km/h (0 Bft) W-NW 287 ° 0 min 0,000 mm 1,2 UV-I 232 W/m² 15,2 °C 17,9 °C 1,6 km/h (1 Bft)
15.08.2017 08:12 17,9 °C 17,9 °C 85 % 1017,4 hPa 0,0 mm 1,8 km/h (1 Bft) NW 304 ° 0 min 0,000 mm 1,2 UV-I 236 W/m² 15,3 °C 17,9 °C 3,2 km/h (1 Bft)
15.08.2017 08:13 17,8 °C 17,9 °C 83 % 1017,4 hPa 0,0 mm 0,7 km/h (0 Bft) NW 304 ° 0 min 0,000 mm 1,2 UV-I 237 W/m² 14,9 °C 17,8 °C 3,2 km/h (1 Bft)
15.08.2017 08:14 17,8 °C 17,8 °C 84 % 1017,4 hPa 0,0 mm 0,0 km/h (0 Bft) NW 304 ° 0 min 0,000 mm 1,2 UV-I 241 W/m² 15,1 °C 17,8 °C 0,0 km/h (0 Bft)
15.08.2017 08:15 17,8 °C 17,8 °C 85 % 1017,4 hPa 0,0 mm 0,0 km/h (0 Bft) NW 304 ° 0 min 0,000 mm 1,3 UV-I 246 W/m² 15,2 °C 17,8 °C 0,0 km/h (0 Bft)
15.08.2017 08:16 17,8 °C 17,8 °C 85 % 1017,5 hPa 0,0 mm 0,5 km/h (0 Bft) NW 304 ° 0 min 0,000 mm 1,3 UV-I 250 W/m² 15,2 °C 17,8 °C 1,6 km/h (1 Bft)
15.08.2017 08:17 18,1 °C 18,1 °C 86 % 1017,4 hPa 0,0 mm 1,1 km/h (1 Bft) NW 304 ° 0 min 0,000 mm 1,3 UV-I 251 W/m² 15,7 °C 18,1 °C 3,2 km/h (1 Bft)
15.08.2017 08:18 18,2 °C 18,2 °C 82 % 1017,5 hPa 0,0 mm 1,5 km/h (1 Bft) NW 304 ° 0 min 0,000 mm 1,3 UV-I 255 W/m² 15,1 °C 18,2 °C 4,8 km/h (1 Bft)
15.08.2017 08:19 18,3 °C 18,3 °C 81 % 1017,5 hPa 0,0 mm 0,0 km/h (0 Bft) NW 304 ° 0 min 0,000 mm 1,3 UV-I 258 W/m² 15,0 °C 18,3 °C 0,0 km/h (0 Bft)
15.08.2017 08:20 18,3 °C 18,3 °C 80 % 1017,5 hPa 0,0 mm 0,0 km/h (0 Bft) NW 304 ° 0 min 0,000 mm 1,3 UV-I 262 W/m² 14,8 °C 18,3 °C 0,0 km/h (0 Bft)
15.08.2017 08:21 18,4 °C 18,4 °C 81 % 1017,5 hPa 0,0 mm 0,0 km/h (0 Bft) NW 304 ° 0 min 0,000 mm 1,4 UV-I 269 W/m² 15,1 °C 18,4 °C 0,0 km/h (0 Bft)
15.08.2017 08:22 18,4 °C 18,4 °C 83 % 1017,4 hPa 0,0 mm 0,0 km/h (0 Bft) NW 304 ° 0 min 0,000 mm 1,4 UV-I 272 W/m² 15,5 °C 18,4 °C 0,0 km/h (0 Bft)
15.08.2017 08:23 18,4 °C 18,4 °C 81 % 1017,4 hPa 0,0 mm 0,0 km/h (0 Bft) NW 304 ° 0 min 0,000 mm 1,4 UV-I 276 W/m² 15,1 °C 18,4 °C 0,0 km/h (0 Bft)
15.08.2017 08:24 18,6 °C 18,6 °C 83 % 1017,4 hPa 0,0 mm 0,3 km/h (0 Bft) NW 304 ° 0 min 0,000 mm 1,4 UV-I 278 W/m² 15,7 °C 18,6 °C 1,6 km/h (1 Bft)
15.08.2017 08:25 18,7 °C 18,7 °C 79 % 1017,4 hPa 0,0 mm 0,0 km/h (0 Bft) NW 304 ° 0 min 0,000 mm 1,4 UV-I 279 W/m² 15,0 °C 18,7 °C 0,0 km/h (0 Bft)
15.08.2017 08:26 18,8 °C 18,8 °C 77 % 1017,4 hPa 0,0 mm 0,0 km/h (0 Bft) NW 304 ° 0 min 0,000 mm 1,5 UV-I 281 W/m² 14,7 °C 18,8 °C 0,0 km/h (0 Bft)
15.08.2017 08:27 18,9 °C 18,9 °C 80 % 1017,4 hPa 0,0 mm 0,0 km/h (0 Bft) NW 304 ° 0 min 0,000 mm 1,5 UV-I 287 W/m² 15,4 °C 18,9 °C 0,0 km/h (0 Bft)
15.08.2017 08:28 18,9 °C 18,9 °C 82 % 1017,4 hPa 0,0 mm 0,0 km/h (0 Bft) NW 304 ° 1 min 0,000 mm 1,5 UV-I 290 W/m² 15,8 °C 18,9 °C 0,0 km/h (0 Bft)
15.08.2017 08:29 18,8 °C 18,9 °C 78 % 1017,4 hPa 0,0 mm 0,3 km/h (0 Bft) NW 304 ° 1 min 0,000 mm 1,5 UV-I 292 W/m² 14,9 °C 18,8 °C 1,6 km/h (1 Bft)
15.08.2017 08:30 18,8 °C 18,8 °C 79 % 1017,3 hPa 0,0 mm 1,4 km/h (1 Bft) NW 305 ° 1 min 0,000 mm 1,6 UV-I 294 W/m² 15,1 °C 18,8 °C 3,2 km/h (1 Bft)
15.08.2017 08:31 18,8 °C 18,8 °C 79 % 1017,3 hPa 0,0 mm 0,4 km/h (0 Bft) NW 305 ° 1 min 0,000 mm 1,6 UV-I 297 W/m² 15,1 °C 18,8 °C 1,6 km/h (1 Bft)
15.08.2017 08:32 18,9 °C 18,9 °C 82 % 1017,3 hPa 0,0 mm 0,0 km/h (0 Bft) NW 305 ° 1 min 0,000 mm 1,6 UV-I 301 W/m² 15,8 °C 18,9 °C 0,0 km/h (0 Bft)
15.08.2017 08:33 18,9 °C 18,9 °C 79 % 1017,3 hPa 0,0 mm 0,0 km/h (0 Bft) NW 305 ° 1 min 0,000 mm 1,6 UV-I 304 W/m² 15,2 °C 18,9 °C 0,0 km/h (0 Bft)
15.08.2017 08:34 18,9 °C 18,9 °C 80 % 1017,3 hPa 0,0 mm 0,0 km/h (0 Bft) NW 305 ° 1 min 0,000 mm 1,6 UV-I 308 W/m² 15,4 °C 18,9 °C 0,0 km/h (0 Bft)
15.08.2017 08:35 19,1 °C 19,1 °C 81 % 1017,3 hPa 0,0 mm 0,1 km/h (0 Bft) NW 305 ° 1 min 0,000 mm 1,7 UV-I 309 W/m² 15,8 °C 19,1 °C 1,6 km/h (1 Bft)
15.08.2017 08:36 19,1 °C 19,1 °C 79 % 1017,3 hPa 0,0 mm 0,1 km/h (0 Bft) W-NW 298 ° 1 min 0,000 mm 1,7 UV-I 313 W/m² 15,4 °C 19,1 °C 3,2 km/h (1 Bft)
15.08.2017 08:37 19,2 °C 19,2 °C 80 % 1017,3 hPa 0,0 mm 1,7 km/h (1 Bft) W 278 ° 1 min 0,000 mm 1,7 UV-I 315 W/m² 15,7 °C 19,2 °C 4,8 km/h (1 Bft)
15.08.2017 08:38 19,2 °C 19,2 °C 78 % 1017,3 hPa 0,0 mm 0,5 km/h (0 Bft) W 278 ° 1 min 0,000 mm 1,7 UV-I 320 W/m² 15,3 °C 19,2 °C 1,6 km/h (1 Bft)
15.08.2017 08:39 19,2 °C 19,3 °C 78 % 1017,3 hPa 0,0 mm 0,5 km/h (0 Bft) W 278 ° 1 min 0,000 mm 1,7 UV-I 322 W/m² 15,3 °C 19,2 °C 1,6 km/h (1 Bft)
15.08.2017 08:40 19,2 °C 19,2 °C 79 % 1017,4 hPa 0,0 mm 0,0 km/h (0 Bft) W 278 ° 1 min 0,000 mm 1,8 UV-I 323 W/m² 15,5 °C 19,2 °C 0,0 km/h (0 Bft)
15.08.2017 08:41 19,3 °C 19,3 °C 80 % 1017,3 hPa 0,0 mm 0,0 km/h (0 Bft) W 278 ° 1 min 0,000 mm 1,8 UV-I 329 W/m² 15,8 °C 19,3 °C 0,0 km/h (0 Bft)
15.08.2017 08:42 19,4 °C 19,4 °C 82 % 1017,3 hPa 0,0 mm 0,0 km/h (0 Bft) W 278 ° 1 min 0,000 mm 1,8 UV-I 329 W/m² 16,2 °C 19,4 °C 0,0 km/h (0 Bft)
15.08.2017 08:43 19,3 °C 19,4 °C 80 % 1017,3 hPa 0,0 mm 0,1 km/h (0 Bft) W 278 ° 1 min 0,000 mm 1,8 UV-I 332 W/m² 15,8 °C 19,3 °C 1,6 km/h (1 Bft)
15.08.2017 08:44 19,4 °C 19,4 °C 82 % 1017,3 hPa 0,0 mm 0,0 km/h (0 Bft) W 278 ° 1 min 0,000 mm 1,8 UV-I 338 W/m² 16,2 °C 19,4 °C 0,0 km/h (0 Bft)
15.08.2017 08:45 19,5 °C 19,5 °C 81 % 1017,3 hPa 0,0 mm 0,0 km/h (0 Bft) W 279 ° 1 min 0,000 mm 1,9 UV-I 339 W/m² 16,1 °C 19,5 °C 0,0 km/h (0 Bft)
15.08.2017 08:46 19,6 °C 19,6 °C 83 % 1017,3 hPa 0,0 mm 0,1 km/h (0 Bft) W 279 ° 1 min 0,000 mm 1,9 UV-I 343 W/m² 16,6 °C 19,6 °C 1,6 km/h (1 Bft)
15.08.2017 08:47 19,6 °C 19,6 °C 76 % 1017,3 hPa 0,0 mm 0,0 km/h (0 Bft) W 279 ° 1 min 0,000 mm 1,9 UV-I 345 W/m² 15,2 °C 19,6 °C 0,0 km/h (0 Bft)
15.08.2017 08:48 19,6 °C 19,6 °C 76 % 1017,3 hPa 0,0 mm 0,0 km/h (0 Bft) W 279 ° 1 min 0,000 mm 1,9 UV-I 348 W/m² 15,2 °C 19,6 °C 0,0 km/h (0 Bft)
15.08.2017 08:49 19,7 °C 19,7 °C 77 % 1017,3 hPa 0,0 mm 0,0 km/h (0 Bft) W 278 ° 1 min 0,000 mm 2,0 UV-I 350 W/m² 15,5 °C 19,7 °C 0,0 km/h (0 Bft)
15.08.2017 08:50 19,7 °C 19,7 °C 78 % 1017,3 hPa 0,0 mm 0,0 km/h (0 Bft) W 278 ° 1 min 0,000 mm 2,0 UV-I 355 W/m² 15,8 °C 19,7 °C 0,0 km/h (0 Bft)
15.08.2017 08:51 19,7 °C 19,7 °C 79 % 1017,2 hPa 0,0 mm 0,0 km/h (0 Bft) W 278 ° 1 min 0,000 mm 2,0 UV-I 357 W/m² 16,0 °C 19,7 °C 0,0 km/h (0 Bft)
15.08.2017 08:52 19,8 °C 19,8 °C 77 % 1017,3 hPa 0,0 mm 0,0 km/h (0 Bft) W 279 ° 1 min 0,000 mm 2,0 UV-I 359 W/m² 15,6 °C 19,8 °C 0,0 km/h (0 Bft)
15.08.2017 08:53 19,8 °C 19,8 °C 78 % 1017,2 hPa 0,0 mm 0,0 km/h (0 Bft) W 278 ° 1 min 0,000 mm 2,0 UV-I 364 W/m² 15,8 °C 19,8 °C 0,0 km/h (0 Bft)
15.08.2017 08:54 19,8 °C 19,8 °C 81 % 1017,2 hPa 0,0 mm 0,0 km/h (0 Bft) W 278 ° 1 min 0,000 mm 2,1 UV-I 366 W/m² 16,4 °C 19,8 °C 0,0 km/h (0 Bft)
15.08.2017 08:55 19,9 °C 19,9 °C 81 % 1017,3 hPa 0,0 mm 0,0 km/h (0 Bft) W 278 ° 1 min 0,000 mm 2,1 UV-I 367 W/m² 16,5 °C 19,9 °C 0,0 km/h (0 Bft)
15.08.2017 08:56 19,9 °C 19,9 °C 78 % 1017,3 hPa 0,0 mm 0,0 km/h (0 Bft) W 278 ° 1 min 0,000 mm 2,1 UV-I 374 W/m² 15,9 °C 19,9 °C 0,0 km/h (0 Bft)
15.08.2017 08:57 20,0 °C 20,0 °C 79 % 1017,3 hPa 0,0 mm 0,0 km/h (0 Bft) W 278 ° 1 min 0,000 mm 2,2 UV-I 376 W/m² 16,2 °C 20,0 °C 0,0 km/h (0 Bft)
15.08.2017 08:58 20,1 °C 20,1 °C 78 % 1017,3 hPa 0,0 mm 0,0 km/h (0 Bft) W 278 ° 1 min 0,000 mm 2,2 UV-I 380 W/m² 16,1 °C 20,1 °C 0,0 km/h (0 Bft)
15.08.2017 08:59 20,1 °C 20,1 °C 77 % 1017,2 hPa 0,0 mm 0,0 km/h (0 Bft) W 278 ° 1 min 0,000 mm 2,2 UV-I 381 W/m² 15,9 °C 20,1 °C 0,0 km/h (0 Bft)
15.08.2017 09:00 20,2 °C 20,2 °C 76 % 1017,2 hPa 0,0 mm 0,0 km/h (0 Bft) W 278 ° 1 min 0,178 mm 2,2 UV-I 385 W/m² 15,8 °C 20,2 °C 0,0 km/h (0 Bft)
15.08.2017 09:01 20,3 °C 20,3 °C 78 % 1017,2 hPa 0,0 mm 0,0 km/h (0 Bft) W 278 ° 1 min 0,000 mm 2,2 UV-I 387 W/m² 16,3 °C 20,3 °C 0,0 km/h (0 Bft)
15.08.2017 09:02 20,3 °C 20,3 °C 76 % 1017,2 hPa 0,0 mm 0,0 km/h (0 Bft) W 278 ° 1 min 0,000 mm 2,2 UV-I 390 W/m² 15,9 °C 20,3 °C 0,0 km/h (0 Bft)
15.08.2017 09:03 20,3 °C 20,3 °C 78 % 1017,2 hPa 0,0 mm 0,0 km/h (0 Bft) W 279 ° 1 min 0,000 mm 2,3 UV-I 394 W/m² 16,3 °C 20,3 °C 0,0 km/h (0 Bft)
15.08.2017 09:04 20,3 °C 20,3 °C 76 % 1017,2 hPa 0,0 mm 0,0 km/h (0 Bft) W 279 ° 1 min 0,000 mm 2,3 UV-I 396 W/m² 15,9 °C 20,3 °C 0,0 km/h (0 Bft)
15.08.2017 09:05 20,3 °C 20,3 °C 73 % 1017,2 hPa 0,0 mm 0,0 km/h (0 Bft) W 279 ° 1 min 0,000 mm 2,3 UV-I 399 W/m² 15,3 °C 20,3 °C 0,0 km/h (0 Bft)
15.08.2017 09:06 20,4 °C 20,4 °C 73 % 1017,2 hPa 0,0 mm 0,0 km/h (0 Bft) W 279 ° 1 min 0,000 mm 2,3 UV-I 401 W/m² 15,4 °C 20,4 °C 0,0 km/h (0 Bft)
15.08.2017 09:07 20,4 °C 20,4 °C 73 % 1017,2 hPa 0,0 mm 0,0 km/h (0 Bft) W 279 ° 1 min 0,000 mm 2,3 UV-I 406 W/m² 15,4 °C 20,4 °C 0,0 km/h (0 Bft)
15.08.2017 09:08 20,4 °C 20,4 °C 72 % 1017,2 hPa 0,0 mm 0,0 km/h (0 Bft) W 279 ° 1 min 0,000 mm 2,3 UV-I 410 W/m² 15,2 °C 20,4 °C 0,0 km/h (0 Bft)
15.08.2017 09:09 20,4 °C 20,4 °C 74 % 1017,2 hPa 0,0 mm 0,1 km/h (0 Bft) W 279 ° 1 min 0,000 mm 2,4 UV-I 411 W/m² 15,6 °C 20,4 °C 1,6 km/h (1 Bft)
15.08.2017 09:10 20,6 °C 20,6 °C 71 % 1017,2 hPa 0,0 mm 0,0 km/h (0 Bft) W 279 ° 1 min 0,000 mm 2,4 UV-I 413 W/m² 15,2 °C 20,6 °C 0,0 km/h (0 Bft)
15.08.2017 09:11 20,6 °C 20,6 °C 73 % 1017,2 hPa 0,0 mm 0,0 km/h (0 Bft) W 279 ° 1 min 0,000 mm 2,4 UV-I 415 W/m² 15,6 °C 20,6 °C 0,0 km/h (0 Bft)
15.08.2017 09:12 20,7 °C 20,7 °C 73 % 1017,1 hPa 0,0 mm 0,0 km/h (0 Bft) W 279 ° 1 min 0,000 mm 2,4 UV-I 417 W/m² 15,7 °C 20,7 °C 0,0 km/h (0 Bft)
15.08.2017 09:13 20,7 °C 20,7 °C 72 % 1017,2 hPa 0,0 mm 0,0 km/h (0 Bft) SW 235 ° 1 min 0,000 mm 2,5 UV-I 422 W/m² 15,5 °C 20,7 °C 0,0 km/h (0 Bft)
15.08.2017 09:14 20,6 °C 20,7 °C 76 % 1017,2 hPa 0,0 mm 0,0 km/h (0 Bft) SW 231 ° 1 min 0,000 mm 2,5 UV-I 422 W/m² 16,2 °C 20,6 °C 0,0 km/h (0 Bft)
15.08.2017 09:15 20,7 °C 20,7 °C 76 % 1017,2 hPa 0,0 mm 0,0 km/h (0 Bft) SW 231 ° 1 min 0,000 mm 2,5 UV-I 425 W/m² 16,3 °C 20,7 °C 0,0 km/h (0 Bft)
15.08.2017 09:16 20,8 °C 20,8 °C 74 % 1017,1 hPa 0,0 mm 0,0 km/h (0 Bft) SW 231 ° 1 min 0,000 mm 2,5 UV-I 429 W/m² 16,0 °C 20,8 °C 0,0 km/h (0 Bft)
15.08.2017 09:17 20,8 °C 20,8 °C 76 % 1017,1 hPa 0,0 mm 0,0 km/h (0 Bft) SW 231 ° 1 min 0,000 mm 2,6 UV-I 431 W/m² 16,4 °C 20,8 °C 0,0 km/h (0 Bft)
15.08.2017 09:18 20,8 °C 20,8 °C 74 % 1017,1 hPa 0,0 mm 0,0 km/h (0 Bft) SW 231 ° 1 min 0,000 mm 2,6 UV-I 434 W/m² 16,0 °C 20,8 °C 0,0 km/h (0 Bft)
15.08.2017 09:19 20,8 °C 20,8 °C 75 % 1017,1 hPa 0,0 mm 0,0 km/h (0 Bft) SW 231 ° 1 min 0,000 mm 2,6 UV-I 436 W/m² 16,2 °C 20,8 °C 0,0 km/h (0 Bft)
15.08.2017 09:20 20,9 °C 20,9 °C 75 % 1017,1 hPa 0,0 mm 0,0 km/h (0 Bft) SW 231 ° 1 min 0,000 mm 2,6 UV-I 441 W/m² 16,3 °C 20,9 °C 0,0 km/h (0 Bft)
15.08.2017 09:21 21,0 °C 21,0 °C 73 % 1017,1 hPa 0,0 mm 0,0 km/h (0 Bft) NW 304 ° 1 min 0,000 mm 2,7 UV-I 445 W/m² 16,0 °C 21,0 °C 0,0 km/h (0 Bft)
15.08.2017 09:22 21,2 °C 21,2 °C 75 % 1017,1 hPa 0,0 mm 1,0 km/h (0 Bft) SW 232 ° 1 min 0,000 mm 2,7 UV-I 446 W/m² 16,6 °C 21,2 °C 3,2 km/h (1 Bft)
15.08.2017 09:23 21,3 °C 21,3 °C 71 % 1017,1 hPa 0,0 mm 0,0 km/h (0 Bft) SW 232 ° 1 min 0,000 mm 2,7 UV-I 448 W/m² 15,8 °C 21,3 °C 0,0 km/h (0 Bft)
15.08.2017 09:24 21,2 °C 21,3 °C 74 % 1017,1 hPa 0,0 mm 0,3 km/h (0 Bft) SW 232 ° 1 min 0,000 mm 2,7 UV-I 452 W/m² 16,4 °C 21,2 °C 1,6 km/h (1 Bft)
15.08.2017 09:25 21,2 °C 21,2 °C 74 % 1017,1 hPa 0,0 mm 0,0 km/h (0 Bft) SW 232 ° 1 min 0,000 mm 2,7 UV-I 459 W/m² 16,4 °C 21,2 °C 0,0 km/h (0 Bft)
15.08.2017 09:26 21,2 °C 21,2 °C 74 % 1017,1 hPa 0,0 mm 0,0 km/h (0 Bft) SW 232 ° 1 min 0,000 mm 2,8 UV-I 434 W/m² 16,4 °C 21,2 °C 0,0 km/h (0 Bft)
15.08.2017 09:27 21,3 °C 21,3 °C 74 % 1017,1 hPa 0,0 mm 0,0 km/h (0 Bft) SW 232 ° 1 min 0,000 mm 2,7 UV-I 450 W/m² 16,5 °C 21,3 °C 0,0 km/h (0 Bft)
15.08.2017 09:28 21,6 °C 21,6 °C 71 % 1017,0 hPa 0,0 mm 0,0 km/h (0 Bft) SW 232 ° 1 min 0,000 mm 2,8 UV-I 452 W/m² 16,1 °C 21,6 °C 0,0 km/h (0 Bft)
15.08.2017 09:29 21,7 °C 21,7 °C 75 % 1017,1 hPa 0,0 mm 0,0 km/h (0 Bft) SW 232 ° 1 min 0,000 mm 2,8 UV-I 454 W/m² 17,1 °C 21,7 °C 0,0 km/h (0 Bft)
15.08.2017 09:30 21,7 °C 21,7 °C 71 % 1017,0 hPa 0,0 mm 0,7 km/h (0 Bft) SW 232 ° 1 min 0,000 mm 2,8 UV-I 459 W/m² 16,2 °C 21,7 °C 1,6 km/h (1 Bft)
15.08.2017 09:31 21,6 °C 21,7 °C 73 % 1017,0 hPa 0,0 mm 0,1 km/h (0 Bft) SW 232 ° 1 min 0,000 mm 2,9 UV-I 459 W/m² 16,5 °C 21,6 °C 1,6 km/h (1 Bft)
15.08.2017 09:32 21,5 °C 21,6 °C 76 % 1017,1 hPa 0,0 mm 0,0 km/h (0 Bft) SW 232 ° 1 min 0,000 mm 2,9 UV-I 471 W/m² 17,1 °C 21,5 °C 0,0 km/h (0 Bft)
15.08.2017 09:33 21,4 °C 21,5 °C 72 % 1017,0 hPa 0,0 mm 0,0 km/h (0 Bft) SW 232 ° 1 min 0,000 mm 2,9 UV-I 475 W/m² 16,1 °C 21,4 °C 0,0 km/h (0 Bft)
15.08.2017 09:34 21,4 °C 21,4 °C 72 % 1017,0 hPa 0,0 mm 0,1 km/h (0 Bft) SW 232 ° 1 min 0,000 mm 3,0 UV-I 476 W/m² 16,1 °C 21,4 °C 1,6 km/h (1 Bft)
15.08.2017 09:35 21,3 °C 21,4 °C 71 % 1017,0 hPa 0,0 mm 0,0 km/h (0 Bft) SW 232 ° 1 min 0,000 mm 3,0 UV-I 478 W/m² 15,8 °C 21,3 °C 0,0 km/h (0 Bft)
15.08.2017 09:36 21,4 °C 21,4 °C 73 % 1017,1 hPa 0,0 mm 0,0 km/h (0 Bft) SW 232 ° 1 min 0,000 mm 3,0 UV-I 480 W/m² 16,4 °C 21,4 °C 0,0 km/h (0 Bft)
15.08.2017 09:37 21,6 °C 21,6 °C 73 % 1017,1 hPa 0,0 mm 0,0 km/h (0 Bft) SW 232 ° 1 min 0,000 mm 3,0 UV-I 485 W/m² 16,5 °C 21,6 °C 0,0 km/h (0 Bft)
15.08.2017 09:38 21,6 °C 21,6 °C 71 % 1017,0 hPa 0,0 mm 0,0 km/h (0 Bft) SW 232 ° 1 min 0,000 mm 3,1 UV-I 487 W/m² 16,1 °C 21,6 °C 0,0 km/h (0 Bft)
15.08.2017 09:39 21,6 °C 21,6 °C 70 % 1017,0 hPa 0,0 mm 0,0 km/h (0 Bft) SW 232 ° 1 min 0,000 mm 3,1 UV-I 490 W/m² 15,9 °C 21,6 °C 0,0 km/h (0 Bft)
15.08.2017 09:40 21,7 °C 21,7 °C 70 % 1017,0 hPa 0,0 mm 0,0 km/h (0 Bft) SW 232 ° 1 min 0,000 mm 3,1 UV-I 492 W/m² 16,0 °C 21,7 °C 0,0 km/h (0 Bft)
15.08.2017 09:41 21,8 °C 21,8 °C 70 % 1017,0 hPa 0,0 mm 0,0 km/h (0 Bft) SW 232 ° 1 min 0,000 mm 3,1 UV-I 496 W/m² 16,1 °C 21,8 °C 0,0 km/h (0 Bft)
15.08.2017 09:42 21,9 °C 21,9 °C 69 % 1017,0 hPa 0,0 mm 0,0 km/h (0 Bft) SW 232 ° 1 min 0,000 mm 3,1 UV-I 497 W/m² 15,9 °C 21,9 °C 0,0 km/h (0 Bft)
15.08.2017 09:43 22,0 °C 22,0 °C 70 % 1017,0 hPa 0,0 mm 0,0 km/h (0 Bft) SW 232 ° 1 min 0,000 mm 3,1 UV-I 501 W/m² 16,3 °C 22,0 °C 0,0 km/h (0 Bft)
15.08.2017 09:44 22,1 °C 22,1 °C 70 % 1017,0 hPa 0,0 mm 0,6 km/h (0 Bft) W-SW 242 ° 1 min 0,000 mm 3,2 UV-I 504 W/m² 16,4 °C 22,1 °C 1,6 km/h (1 Bft)
15.08.2017 09:45 22,2 °C 22,2 °C 72 % 1017,0 hPa 0,0 mm 0,4 km/h (0 Bft) W-SW 242 ° 1 min 0,000 mm 3,2 UV-I 506 W/m² 16,9 °C 22,2 °C 1,6 km/h (1 Bft)
15.08.2017 09:46 22,3 °C 22,3 °C 70 % 1017,0 hPa 0,0 mm 0,6 km/h (0 Bft) W-SW 242 ° 1 min 0,000 mm 3,2 UV-I 508 W/m² 16,6 °C 22,3 °C 1,6 km/h (1 Bft)
15.08.2017 09:47 22,3 °C 22,3 °C 74 % 1017,0 hPa 0,0 mm 0,2 km/h (0 Bft) W-SW 249 ° 1 min 0,000 mm 3,2 UV-I 510 W/m² 17,4 °C 22,3 °C 1,6 km/h (1 Bft)
15.08.2017 09:48 22,3 °C 22,3 °C 73 % 1017,0 hPa 0,0 mm 0,0 km/h (0 Bft) W-SW 248 ° 1 min 0,000 mm 3,3 UV-I 513 W/m² 17,2 °C 22,3 °C 0,0 km/h (0 Bft)
15.08.2017 09:49 22,3 °C 22,3 °C 70 % 1017,0 hPa 0,0 mm 0,8 km/h (0 Bft) W-SW 248 ° 1 min 0,000 mm 3,3 UV-I 515 W/m² 16,6 °C 22,3 °C 1,6 km/h (1 Bft)
15.08.2017 09:50 22,3 °C 22,3 °C 71 % 1017,0 hPa 0,0 mm 0,1 km/h (0 Bft) W-SW 248 ° 1 min 0,000 mm 3,3 UV-I 517 W/m² 16,8 °C 22,3 °C 1,6 km/h (1 Bft)
15.08.2017 09:51 22,4 °C 22,4 °C 74 % 1017,0 hPa 0,0 mm 0,4 km/h (0 Bft) W-SW 248 ° 1 min 0,000 mm 3,3 UV-I 519 W/m² 17,5 °C 22,4 °C 1,6 km/h (1 Bft)
15.08.2017 09:52 22,4 °C 22,4 °C 73 % 1017,1 hPa 0,0 mm 0,1 km/h (0 Bft) W-SW 248 ° 1 min 0,000 mm 3,3 UV-I 520 W/m² 17,3 °C 22,4 °C 1,6 km/h (1 Bft)
15.08.2017 09:53 22,3 °C 22,4 °C 72 % 1017,1 hPa 0,0 mm 0,0 km/h (0 Bft) W-SW 248 ° 1 min 0,000 mm 3,4 UV-I 522 W/m² 17,0 °C 22,3 °C 0,0 km/h (0 Bft)
15.08.2017 09:54 22,3 °C 22,3 °C 73 % 1017,1 hPa 0,0 mm 0,0 km/h (0 Bft) W-SW 248 ° 1 min 0,000 mm 3,4 UV-I 527 W/m² 17,2 °C 22,3 °C 0,0 km/h (0 Bft)
15.08.2017 09:55 22,3 °C 22,3 °C 72 % 1017,1 hPa 0,0 mm 0,0 km/h (0 Bft) W-SW 248 ° 1 min 0,000 mm 3,4 UV-I 529 W/m² 17,0 °C 22,3 °C 0,0 km/h (0 Bft)
15.08.2017 09:56 22,3 °C 22,3 °C 73 % 1017,1 hPa 0,0 mm 0,0 km/h (0 Bft) W-SW 248 ° 1 min 0,000 mm 3,5 UV-I 533 W/m² 17,2 °C 22,3 °C 0,0 km/h (0 Bft)
15.08.2017 09:57 22,4 °C 22,4 °C 70 % 1017,1 hPa 0,0 mm 0,0 km/h (0 Bft) W-SW 248 ° 1 min 0,000 mm 3,5 UV-I 534 W/m² 16,7 °C 22,4 °C 0,0 km/h (0 Bft)
15.08.2017 09:58 22,5 °C 22,5 °C 71 % 1017,1 hPa 0,0 mm 0,0 km/h (0 Bft) W-SW 248 ° 1 min 0,000 mm 3,5 UV-I 538 W/m² 17,0 °C 22,5 °C 0,0 km/h (0 Bft)
15.08.2017 09:59 22,6 °C 22,6 °C 72 % 1017,1 hPa 0,0 mm 0,0 km/h (0 Bft) W-SW 248 ° 1 min 0,000 mm 3,5 UV-I 540 W/m² 17,3 °C 22,6 °C 0,0 km/h (0 Bft)
15.08.2017 10:00 22,6 °C 22,6 °C 70 % 1017,1 hPa 0,0 mm 0,0 km/h (0 Bft) W-SW 248 ° 1 min 0,279 mm 3,6 UV-I 545 W/m² 16,8 °C 22,6 °C 0,0 km/h (0 Bft)
15.08.2017 10:01 22,6 °C 22,6 °C 71 % 1017,1 hPa 0,0 mm 0,0 km/h (0 Bft) W-SW 248 ° 1 min 0,000 mm 3,6 UV-I 547 W/m² 17,1 °C 22,6 °C 0,0 km/h (0 Bft)
15.08.2017 10:02 22,6 °C 22,6 °C 71 % 1017,1 hPa 0,0 mm 0,0 km/h (0 Bft) W-SW 248 ° 1 min 0,000 mm 3,6 UV-I 548 W/m² 17,1 °C 22,6 °C 0,0 km/h (0 Bft)
15.08.2017 10:03 22,7 °C 22,7 °C 69 % 1017,1 hPa 0,0 mm 0,0 km/h (0 Bft) W-SW 248 ° 1 min 0,000 mm 3,6 UV-I 550 W/m² 16,7 °C 22,7 °C 0,0 km/h (0 Bft)
15.08.2017 10:04 22,7 °C 22,7 °C 69 % 1017,1 hPa 0,0 mm 0,0 km/h (0 Bft) W-SW 248 ° 1 min 0,000 mm 3,7 UV-I 554 W/m² 16,7 °C 22,7 °C 0,0 km/h (0 Bft)
15.08.2017 10:05 22,7 °C 22,7 °C 67 % 1017,1 hPa 0,0 mm 0,0 km/h (0 Bft) W-SW 248 ° 1 min 0,000 mm 3,7 UV-I 555 W/m² 16,2 °C 22,7 °C 0,0 km/h (0 Bft)
15.08.2017 10:06 22,8 °C 22,8 °C 66 % 1017,2 hPa 0,0 mm 0,0 km/h (0 Bft) W-SW 248 ° 1 min 0,000 mm 3,7 UV-I 559 W/m² 16,1 °C 22,8 °C 0,0 km/h (0 Bft)
15.08.2017 10:07 22,8 °C 22,8 °C 68 % 1017,1 hPa 0,0 mm 1,5 km/h (1 Bft) W-SW 248 ° 1 min 0,000 mm 3,7 UV-I 563 W/m² 16,6 °C 22,8 °C 3,2 km/h (1 Bft)
15.08.2017 10:08 22,7 °C 22,8 °C 68 % 1017,1 hPa 0,0 mm 0,9 km/h (0 Bft) W-SW 248 ° 1 min 0,000 mm 3,8 UV-I 564 W/m² 16,5 °C 22,7 °C 1,6 km/h (1 Bft)
15.08.2017 10:09 22,7 °C 22,7 °C 70 % 1017,1 hPa 0,0 mm 0,0 km/h (0 Bft) W-SW 248 ° 1 min 0,000 mm 3,8 UV-I 566 W/m² 16,9 °C 22,7 °C 0,0 km/h (0 Bft)
15.08.2017 10:10 22,7 °C 22,7 °C 72 % 1017,1 hPa 0,0 mm 0,0 km/h (0 Bft) W-SW 248 ° 1 min 0,000 mm 3,8 UV-I 570 W/m² 17,4 °C 22,7 °C 0,0 km/h (0 Bft)
15.08.2017 10:11 22,7 °C 22,7 °C 73 % 1017,1 hPa 0,0 mm 0,1 km/h (0 Bft) W-SW 248 ° 1 min 0,000 mm 3,9 UV-I 571 W/m² 17,6 °C 22,7 °C 1,6 km/h (1 Bft)
15.08.2017 10:12 22,8 °C 22,8 °C 69 % 1017,1 hPa 0,0 mm 0,0 km/h (0 Bft) W-SW 248 ° 1 min 0,000 mm 3,9 UV-I 577 W/m² 16,8 °C 22,8 °C 0,0 km/h (0 Bft)
15.08.2017 10:13 22,8 °C 22,8 °C 70 % 1017,1 hPa 0,0 mm 0,0 km/h (0 Bft) W-SW 248 ° 1 min 0,000 mm 3,9 UV-I 578 W/m² 17,0 °C 22,8 °C 0,0 km/h (0 Bft)
15.08.2017 10:14 22,8 °C 22,8 °C 69 % 1017,1 hPa 0,0 mm 0,0 km/h (0 Bft) W-SW 248 ° 1 min 0,000 mm 3,9 UV-I 582 W/m² 16,8 °C 22,8 °C 0,0 km/h (0 Bft)
15.08.2017 10:15 22,9 °C 22,9 °C 71 % 1017,1 hPa 0,0 mm 0,2 km/h (0 Bft) W-SW 248 ° 1 min 0,000 mm 3,9 UV-I 582 W/m² 17,4 °C 22,9 °C 1,6 km/h (1 Bft)
15.08.2017 10:16 22,9 °C 23,0 °C 67 % 1017,1 hPa 0,0 mm 1,6 km/h (1 Bft) W-SW 248 ° 1 min 0,000 mm 3,9 UV-I 578 W/m² 16,4 °C 22,9 °C 3,2 km/h (1 Bft)
15.08.2017 10:17 23,1 °C 23,1 °C 70 % 1017,1 hPa 0,0 mm 0,7 km/h (0 Bft) W-SW 248 ° 1 min 0,000 mm 4,0 UV-I 589 W/m² 17,3 °C 23,1 °C 1,6 km/h (1 Bft)
15.08.2017 10:18 23,2 °C 23,2 °C 65 % 1017,1 hPa 0,0 mm 0,1 km/h (0 Bft) W-SW 248 ° 1 min 0,000 mm 4,0 UV-I 592 W/m² 16,2 °C 23,2 °C 1,6 km/h (1 Bft)
15.08.2017 10:19 23,4 °C 23,4 °C 66 % 1017,1 hPa 0,0 mm 0,1 km/h (0 Bft) W-SW 248 ° 1 min 0,000 mm 4,0 UV-I 592 W/m² 16,7 °C 23,4 °C 1,6 km/h (1 Bft)
15.08.2017 10:20 23,4 °C 23,4 °C 67 % 1017,1 hPa 0,0 mm 0,1 km/h (0 Bft) W-SW 250 ° 1 min 0,000 mm 4,0 UV-I 591 W/m² 16,9 °C 23,4 °C 1,6 km/h (1 Bft)
15.08.2017 10:21 23,6 °C 23,6 °C 65 % 1017,1 hPa 0,0 mm 0,2 km/h (0 Bft) W-SW 250 ° 1 min 0,000 mm 4,0 UV-I 592 W/m² 16,6 °C 23,6 °C 1,6 km/h (1 Bft)
15.08.2017 10:22 23,5 °C 23,6 °C 67 % 1017,1 hPa 0,0 mm 0,4 km/h (0 Bft) W-SW 250 ° 1 min 0,000 mm 4,1 UV-I 596 W/m² 17,0 °C 23,5 °C 1,6 km/h (1 Bft)
15.08.2017 10:23 23,4 °C 23,5 °C 67 % 1017,2 hPa 0,0 mm 0,6 km/h (0 Bft) W-NW 287 ° 1 min 0,000 mm 4,1 UV-I 596 W/m² 16,9 °C 23,4 °C 3,2 km/h (1 Bft)
15.08.2017 10:24 23,5 °C 23,5 °C 67 % 1017,1 hPa 0,0 mm 0,0 km/h (0 Bft) W-NW 293 ° 1 min 0,000 mm 4,1 UV-I 603 W/m² 17,0 °C 23,5 °C 0,0 km/h (0 Bft)
15.08.2017 10:25 23,4 °C 23,5 °C 65 % 1017,1 hPa 0,0 mm 0,0 km/h (0 Bft) W-NW 293 ° 1 min 0,000 mm 4,1 UV-I 601 W/m² 16,4 °C 23,4 °C 0,0 km/h (0 Bft)
15.08.2017 10:26 23,6 °C 23,6 °C 66 % 1017,1 hPa 0,0 mm 0,0 km/h (0 Bft) W-NW 293 ° 1 min 0,000 mm 4,1 UV-I 603 W/m² 16,9 °C 23,6 °C 0,0 km/h (0 Bft)
15.08.2017 10:27 23,6 °C 23,6 °C 63 % 1017,1 hPa 0,0 mm 0,2 km/h (0 Bft) W-NW 293 ° 1 min 0,000 mm 4,1 UV-I 603 W/m² 16,1 °C 23,6 °C 1,6 km/h (1 Bft)
15.08.2017 10:28 23,7 °C 23,7 °C 65 % 1017,1 hPa 0,0 mm 0,0 km/h (0 Bft) W-NW 293 ° 1 min 0,000 mm 4,2 UV-I 606 W/m² 16,7 °C 23,7 °C 0,0 km/h (0 Bft)
15.08.2017 10:29 23,7 °C 23,7 °C 64 % 1017,1 hPa 0,0 mm 1,6 km/h (1 Bft) W-NW 293 ° 1 min 0,000 mm 4,2 UV-I 605 W/m² 16,5 °C 23,7 °C 3,2 km/h (1 Bft)
15.08.2017 10:30 23,7 °C 23,7 °C 64 % 1017,1 hPa 0,0 mm 2,3 km/h (1 Bft) W-NW 292 ° 1 min 0,000 mm 4,2 UV-I 612 W/m² 16,5 °C 23,7 °C 3,2 km/h (1 Bft)
15.08.2017 10:31 23,7 °C 23,7 °C 61 % 1017,1 hPa 0,0 mm 0,4 km/h (0 Bft) W-NW 292 ° 1 min 0,000 mm 4,2 UV-I 613 W/m² 15,7 °C 23,7 °C 1,6 km/h (1 Bft)
15.08.2017 10:32 23,8 °C 23,8 °C 63 % 1017,1 hPa 0,0 mm 0,0 km/h (0 Bft) W-NW 292 ° 1 min 0,000 mm 4,3 UV-I 615 W/m² 16,3 °C 23,8 °C 0,0 km/h (0 Bft)
15.08.2017 10:33 23,9 °C 23,9 °C 61 % 1017,0 hPa 0,0 mm 0,0 km/h (0 Bft) W-NW 284 ° 1 min 0,000 mm 4,3 UV-I 622 W/m² 15,9 °C 23,9 °C 0,0 km/h (0 Bft)
15.08.2017 10:34 23,9 °C 23,9 °C 64 % 1017,1 hPa 0,0 mm 0,0 km/h (0 Bft) W-NW 284 ° 1 min 0,000 mm 4,3 UV-I 624 W/m² 16,7 °C 23,9 °C 0,0 km/h (0 Bft)
15.08.2017 10:35 23,9 °C 23,9 °C 65 % 1017,1 hPa 0,0 mm 0,9 km/h (0 Bft) W-NW 284 ° 1 min 0,000 mm 4,3 UV-I 592 W/m² 16,9 °C 23,9 °C 1,6 km/h (1 Bft)
15.08.2017 10:36 23,8 °C 23,9 °C 62 % 1017,1 hPa 0,0 mm 0,1 km/h (0 Bft) W-NW 284 ° 1 min 0,000 mm 4,2 UV-I 575 W/m² 16,1 °C 23,8 °C 1,6 km/h (1 Bft)
15.08.2017 10:37 23,8 °C 23,8 °C 61 % 1017,1 hPa 0,0 mm 0,9 km/h (0 Bft) W-NW 284 ° 1 min 0,000 mm 4,4 UV-I 615 W/m² 15,8 °C 23,8 °C 3,2 km/h (1 Bft)
15.08.2017 10:38 23,9 °C 23,9 °C 67 % 1017,1 hPa 0,0 mm 0,0 km/h (0 Bft) W-NW 284 ° 1 min 0,000 mm 4,4 UV-I 631 W/m² 17,4 °C 23,9 °C 0,0 km/h (0 Bft)
15.08.2017 10:39 23,9 °C 23,9 °C 62 % 1017,0 hPa 0,0 mm 0,0 km/h (0 Bft) W-NW 284 ° 1 min 0,000 mm 4,4 UV-I 633 W/m² 16,2 °C 23,9 °C 0,0 km/h (0 Bft)
15.08.2017 10:40 24,1 °C 24,1 °C 62 % 1017,1 hPa 0,0 mm 0,0 km/h (0 Bft) W-NW 284 ° 1 min 0,000 mm 4,5 UV-I 635 W/m² 16,4 °C 24,1 °C 0,0 km/h (0 Bft)
15.08.2017 10:41 24,2 °C 24,2 °C 58 % 1017,0 hPa 0,0 mm 0,0 km/h (0 Bft) W-NW 284 ° 1 min 0,000 mm 4,5 UV-I 642 W/m² 15,4 °C 24,2 °C 0,0 km/h (0 Bft)
15.08.2017 10:42 24,3 °C 24,3 °C 61 % 1017,0 hPa 0,0 mm 0,4 km/h (0 Bft) W 268 ° 1 min 0,000 mm 4,5 UV-I 645 W/m² 16,3 °C 24,3 °C 1,6 km/h (1 Bft)
15.08.2017 10:43 24,3 °C 24,3 °C 68 % 1017,0 hPa 0,0 mm 0,0 km/h (0 Bft) W 268 ° 1 min 0,000 mm 4,6 UV-I 649 W/m² 18,0 °C 24,3 °C 0,0 km/h (0 Bft)
15.08.2017 10:44 24,2 °C 24,3 °C 64 % 1017,0 hPa 0,0 mm 0,0 km/h (0 Bft) W 268 ° 1 min 0,000 mm 4,6 UV-I 652 W/m² 16,9 °C 24,2 °C 0,0 km/h (0 Bft)
15.08.2017 10:45 24,2 °C 24,2 °C 63 % 1017,0 hPa 0,0 mm 0,0 km/h (0 Bft) W 268 ° 1 min 0,000 mm 4,6 UV-I 657 W/m² 16,7 °C 24,2 °C 0,0 km/h (0 Bft)
15.08.2017 10:46 24,1 °C 24,2 °C 64 % 1017,0 hPa 0,0 mm 0,0 km/h (0 Bft) W 268 ° 1 min 0,000 mm 4,6 UV-I 659 W/m² 16,9 °C 24,1 °C 0,0 km/h (0 Bft)
15.08.2017 10:47 23,9 °C 24,1 °C 64 % 1017,0 hPa 0,0 mm 0,0 km/h (0 Bft) W 268 ° 1 min 0,000 mm 4,5 UV-I 624 W/m² 16,7 °C 23,9 °C 0,0 km/h (0 Bft)
15.08.2017 10:48 23,8 °C 23,9 °C 62 % 1017,0 hPa 0,0 mm 0,0 km/h (0 Bft) W 268 ° 1 min 0,000 mm 4,6 UV-I 649 W/m² 16,1 °C 23,8 °C 0,0 km/h (0 Bft)
15.08.2017 10:49 23,7 °C 23,8 °C 62 % 1017,0 hPa 0,0 mm 0,0 km/h (0 Bft) W 268 ° 1 min 0,000 mm 4,7 UV-I 649 W/m² 16,0 °C 23,7 °C 0,0 km/h (0 Bft)
15.08.2017 10:50 23,9 °C 23,9 °C 70 % 1017,0 hPa 0,0 mm 0,0 km/h (0 Bft) W 268 ° 1 min 0,000 mm 4,8 UV-I 668 W/m² 18,1 °C 23,9 °C 0,0 km/h (0 Bft)
15.08.2017 10:51 24,0 °C 24,0 °C 68 % 1017,0 hPa 0,0 mm 0,4 km/h (0 Bft) W 268 ° 1 min 0,000 mm 4,8 UV-I 677 W/m² 17,7 °C 24,0 °C 1,6 km/h (1 Bft)
15.08.2017 10:52 24,2 °C 24,2 °C 67 % 1016,9 hPa 0,0 mm 0,7 km/h (0 Bft) W 267 ° 1 min 0,000 mm 4,8 UV-I 679 W/m² 17,7 °C 24,2 °C 1,6 km/h (1 Bft)
15.08.2017 10:53 24,5 °C 24,5 °C 57 % 1016,9 hPa 0,0 mm 2,8 km/h (1 Bft) W 267 ° 1 min 0,000 mm 4,9 UV-I 680 W/m² 15,4 °C 24,5 °C 3,2 km/h (1 Bft)
15.08.2017 10:54 24,8 °C 24,8 °C 56 % 1017,0 hPa 0,0 mm 2,9 km/h (1 Bft) W 276 ° 1 min 0,000 mm 4,8 UV-I 675 W/m² 15,4 °C 24,8 °C 4,8 km/h (1 Bft)
15.08.2017 10:55 24,9 °C 24,9 °C 56 % 1017,0 hPa 0,0 mm 0,3 km/h (0 Bft) W 276 ° 1 min 0,000 mm 4,8 UV-I 664 W/m² 15,5 °C 24,9 °C 1,6 km/h (1 Bft)
15.08.2017 10:56 25,1 °C 25,1 °C 53 % 1016,9 hPa 0,0 mm 0,1 km/h (0 Bft) W 276 ° 1 min 0,000 mm 4,9 UV-I 673 W/m² 14,8 °C 25,1 °C 1,6 km/h (1 Bft)
15.08.2017 10:57 25,1 °C 25,1 °C 52 % 1016,9 hPa 0,0 mm 0,8 km/h (0 Bft) W-NW 282 ° 1 min 0,000 mm 4,9 UV-I 673 W/m² 14,5 °C 25,1 °C 3,2 km/h (1 Bft)
15.08.2017 10:58 25,1 °C 25,1 °C 60 % 1016,9 hPa 0,0 mm 1,4 km/h (1 Bft) W 269 ° 1 min 0,000 mm 4,9 UV-I 670 W/m² 16,8 °C 25,1 °C 3,2 km/h (1 Bft)
15.08.2017 10:59 24,9 °C 25,1 °C 59 % 1016,9 hPa 0,0 mm 0,1 km/h (0 Bft) W 269 ° 1 min 0,000 mm 4,9 UV-I 682 W/m² 16,3 °C 24,9 °C 1,6 km/h (1 Bft)
15.08.2017 11:00 24,9 °C 25,0 °C 62 % 1016,8 hPa 0,0 mm 3,5 km/h (1 Bft) W-NW 297 ° 1 min 0,000 mm 5,0 UV-I 689 W/m² 17,1 °C 24,9 °C 6,4 km/h (2 Bft)
15.08.2017 11:01 24,9 °C 25,0 °C 56 % 1016,9 hPa 0,0 mm 2,5 km/h (1 Bft) N-NW 337 ° 1 min 0,381 mm 5,0 UV-I 694 W/m² 15,5 °C 24,9 °C 6,4 km/h (2 Bft)
15.08.2017 11:02 24,9 °C 24,9 °C 62 % 1016,9 hPa 0,0 mm 3,7 km/h (1 Bft) N-NW 337 ° 1 min 0,000 mm 4,9 UV-I 659 W/m² 17,1 °C 24,9 °C 4,8 km/h (1 Bft)
15.08.2017 11:03 25,1 °C 25,1 °C 51 % 1016,9 hPa 0,0 mm 2,4 km/h (1 Bft) N 351 ° 1 min 0,000 mm 4,9 UV-I 659 W/m² 14,2 °C 25,1 °C 3,2 km/h (1 Bft)
15.08.2017 11:04 25,2 °C 25,2 °C 51 % 1016,8 hPa 0,0 mm 3,6 km/h (1 Bft) N 350 ° 1 min 0,000 mm 4,7 UV-I 619 W/m² 14,3 °C 25,2 °C 4,8 km/h (1 Bft)
15.08.2017 11:05 25,3 °C 25,4 °C 59 % 1016,8 hPa 0,0 mm 2,4 km/h (1 Bft) N 350 ° 1 min 0,000 mm 4,7 UV-I 603 W/m² 16,7 °C 25,3 °C 3,2 km/h (1 Bft)
15.08.2017 11:06 25,1 °C 25,3 °C 56 % 1016,8 hPa 0,0 mm 0,1 km/h (0 Bft) N 350 ° 1 min 0,000 mm 4,7 UV-I 613 W/m² 15,7 °C 25,1 °C 1,6 km/h (1 Bft)
15.08.2017 11:07 24,9 °C 25,1 °C 57 % 1016,8 hPa 0,0 mm 0,1 km/h (0 Bft) N 350 ° 1 min 0,000 mm 4,9 UV-I 654 W/m² 15,8 °C 24,9 °C 1,6 km/h (1 Bft)
15.08.2017 11:08 24,8 °C 24,9 °C 59 % 1016,8 hPa 0,0 mm 1,3 km/h (1 Bft) N 350 ° 1 min 0,000 mm 4,9 UV-I 671 W/m² 16,2 °C 24,8 °C 3,2 km/h (1 Bft)
15.08.2017 11:09 24,9 °C 24,9 °C 59 % 1016,9 hPa 0,0 mm 1,7 km/h (1 Bft) NO 46 ° 1 min 0,000 mm 4,9 UV-I 654 W/m² 16,3 °C 24,9 °C 3,2 km/h (1 Bft)
15.08.2017 11:10 24,9 °C 25,1 °C 62 % 1016,9 hPa 0,0 mm 2,3 km/h (1 Bft) NO 46 ° 1 min 0,000 mm 5,0 UV-I 666 W/m² 17,1 °C 24,9 °C 3,2 km/h (1 Bft)
15.08.2017 11:11 24,8 °C 24,9 °C 66 % 1016,9 hPa 0,0 mm 1,0 km/h (0 Bft) NO 46 ° 1 min 0,000 mm 5,1 UV-I 703 W/m² 18,0 °C 24,8 °C 3,2 km/h (1 Bft)
15.08.2017 11:12 24,7 °C 24,8 °C 57 % 1016,8 hPa 0,0 mm 1,6 km/h (1 Bft) NO 46 ° 1 min 0,000 mm 5,2 UV-I 705 W/m² 15,6 °C 24,7 °C 3,2 km/h (1 Bft)
15.08.2017 11:13 24,9 °C 24,9 °C 59 % 1016,9 hPa 0,0 mm 2,9 km/h (1 Bft) N-NW 337 ° 1 min 0,000 mm 5,2 UV-I 694 W/m² 16,3 °C 24,9 °C 4,8 km/h (1 Bft)
15.08.2017 11:14 25,2 °C 25,2 °C 58 % 1016,8 hPa 0,0 mm 3,5 km/h (1 Bft) N-NO 24 ° 1 min 0,000 mm 5,1 UV-I 680 W/m² 16,3 °C 25,2 °C 6,4 km/h (2 Bft)
15.08.2017 11:15 25,4 °C 25,4 °C 58 % 1016,9 hPa 0,0 mm 3,8 km/h (1 Bft) W 278 ° 1 min 0,000 mm 5,1 UV-I 668 W/m² 16,5 °C 25,4 °C 6,4 km/h (2 Bft)
15.08.2017 11:16 25,6 °C 25,6 °C 48 % 1016,8 hPa 0,0 mm 6,0 km/h (2 Bft) W-NW 283 ° 1 min 0,000 mm 5,3 UV-I 703 W/m² 13,8 °C 25,6 °C 11,3 km/h (2 Bft)
15.08.2017 11:17 25,6 °C 25,6 °C 48 % 1016,8 hPa 0,0 mm 3,4 km/h (1 Bft) W-NW 290 ° 1 min 0,000 mm 5,2 UV-I 694 W/m² 13,8 °C 25,6 °C 4,8 km/h (1 Bft)
15.08.2017 11:18 25,6 °C 25,6 °C 46 % 1016,8 hPa 0,0 mm 3,4 km/h (1 Bft) W-NW 286 ° 1 min 0,000 mm 5,3 UV-I 701 W/m² 13,1 °C 25,6 °C 6,4 km/h (2 Bft)
15.08.2017 11:19 25,6 °C 25,6 °C 53 % 1016,8 hPa 0,0 mm 5,2 km/h (1 Bft) W-NW 284 ° 1 min 0,000 mm 5,3 UV-I 707 W/m² 15,3 °C 25,6 °C 6,4 km/h (2 Bft)
15.08.2017 11:20 25,7 °C 25,7 °C 52 % 1016,8 hPa 0,0 mm 4,2 km/h (1 Bft) NW 309 ° 1 min 0,000 mm 5,3 UV-I 696 W/m² 15,1 °C 25,7 °C 9,7 km/h (2 Bft)
15.08.2017 11:21 25,7 °C 25,7 °C 48 % 1016,8 hPa 0,0 mm 0,3 km/h (0 Bft) NW 309 ° 1 min 0,000 mm 5,3 UV-I 705 W/m² 13,9 °C 25,7 °C 3,2 km/h (1 Bft)
15.08.2017 11:22 25,7 °C 25,7 °C 46 % 1016,7 hPa 0,0 mm 0,5 km/h (0 Bft) NW 309 ° 1 min 0,000 mm 5,4 UV-I 710 W/m² 13,2 °C 25,7 °C 1,6 km/h (1 Bft)
15.08.2017 11:23 25,7 °C 25,7 °C 50 % 1016,7 hPa 0,0 mm 0,1 km/h (0 Bft) NW 309 ° 1 min 0,000 mm 5,4 UV-I 719 W/m² 14,5 °C 25,7 °C 1,6 km/h (1 Bft)
15.08.2017 11:24 25,6 °C 25,8 °C 52 % 1016,7 hPa 0,0 mm 0,1 km/h (0 Bft) NW 308 ° 1 min 0,000 mm 5,5 UV-I 722 W/m² 15,0 °C 25,6 °C 1,6 km/h (1 Bft)
15.08.2017 11:25 25,2 °C 25,6 °C 51 % 1016,7 hPa 0,0 mm 0,4 km/h (0 Bft) NW 309 ° 1 min 0,000 mm 5,5 UV-I 729 W/m² 14,3 °C 25,2 °C 3,2 km/h (1 Bft)
15.08.2017 11:26 25,1 °C 25,2 °C 56 % 1016,7 hPa 0,0 mm 0,0 km/h (0 Bft) NW 308 ° 1 min 0,000 mm 5,5 UV-I 733 W/m² 15,7 °C 25,1 °C 0,0 km/h (0 Bft)
15.08.2017 11:27 24,9 °C 25,1 °C 55 % 1016,7 hPa 0,0 mm 0,3 km/h (0 Bft) NW 319 ° 1 min 0,000 mm 5,5 UV-I 729 W/m² 15,2 °C 24,9 °C 3,2 km/h (1 Bft)
15.08.2017 11:28 25,0 °C 25,0 °C 58 % 1016,7 hPa 0,0 mm 2,3 km/h (1 Bft) NW 322 ° 1 min 0,000 mm 5,5 UV-I 729 W/m² 16,1 °C 25,0 °C 3,2 km/h (1 Bft)
15.08.2017 11:29 25,2 °C 25,2 °C 60 % 1016,6 hPa 0,0 mm 3,2 km/h (1 Bft) NW 315 ° 1 min 0,000 mm 5,5 UV-I 717 W/m² 16,9 °C 25,2 °C 4,8 km/h (1 Bft)
15.08.2017 11:30 25,4 °C 25,4 °C 50 % 1016,6 hPa 0,0 mm 2,3 km/h (1 Bft) NW 315 ° 1 min 0,000 mm 5,4 UV-I 715 W/m² 14,2 °C 25,4 °C 3,2 km/h (1 Bft)
15.08.2017 11:31 25,7 °C 25,7 °C 47 % 1016,6 hPa 0,0 mm 0,6 km/h (0 Bft) NW 315 ° 1 min 0,000 mm 5,5 UV-I 726 W/m² 13,5 °C 25,7 °C 1,6 km/h (1 Bft)
15.08.2017 11:32 25,7 °C 25,8 °C 48 % 1016,6 hPa 0,0 mm 0,0 km/h (0 Bft) NW 315 ° 1 min 0,000 mm 5,5 UV-I 717 W/m² 13,9 °C 25,7 °C 0,0 km/h (0 Bft)
15.08.2017 11:33 25,6 °C 25,7 °C 49 % 1016,6 hPa 0,0 mm 0,1 km/h (0 Bft) NW 315 ° 1 min 0,000 mm 5,7 UV-I 766 W/m² 14,1 °C 25,6 °C 1,6 km/h (1 Bft)
15.08.2017 11:34 25,4 °C 25,6 °C 54 % 1016,6 hPa 0,0 mm 0,0 km/h (0 Bft) NW 315 ° 1 min 0,000 mm 5,8 UV-I 770 W/m² 15,4 °C 25,4 °C 0,0 km/h (0 Bft)
15.08.2017 11:35 25,2 °C 25,4 °C 53 % 1016,6 hPa 0,0 mm 0,0 km/h (0 Bft) NW 315 ° 1 min 0,000 mm 5,8 UV-I 786 W/m² 14,9 °C 25,2 °C 0,0 km/h (0 Bft)
15.08.2017 11:36 25,1 °C 25,2 °C 52 % 1016,6 hPa 0,0 mm 3,6 km/h (1 Bft) N-NW 327 ° 1 min 0,000 mm 5,8 UV-I 766 W/m² 14,5 °C 25,1 °C 6,4 km/h (2 Bft)
15.08.2017 11:37 25,2 °C 25,2 °C 61 % 1016,6 hPa 0,0 mm 0,5 km/h (0 Bft) N-NW 327 ° 1 min 0,000 mm 5,8 UV-I 780 W/m² 17,1 °C 25,2 °C 1,6 km/h (1 Bft)
15.08.2017 11:38 25,5 °C 25,5 °C 62 % 1016,6 hPa 0,0 mm 3,7 km/h (1 Bft) W-NW 285 ° 1 min 0,000 mm 5,9 UV-I 791 W/m² 17,7 °C 25,5 °C 6,4 km/h (2 Bft)
15.08.2017 11:39 25,7 °C 25,7 °C 51 % 1016,6 hPa 0,0 mm 3,9 km/h (1 Bft) NW 316 ° 1 min 0,000 mm 5,8 UV-I 773 W/m² 14,8 °C 25,7 °C 4,8 km/h (1 Bft)
15.08.2017 11:40 25,9 °C 25,9 °C 54 % 1016,7 hPa 0,0 mm 1,2 km/h (1 Bft) NW 316 ° 1 min 0,000 mm 5,9 UV-I 793 W/m² 15,9 °C 25,9 °C 3,2 km/h (1 Bft)
15.08.2017 11:41 26,0 °C 26,0 °C 50 % 1016,6 hPa 0,0 mm 3,6 km/h (1 Bft) NW 325 ° 1 min 0,000 mm 6,0 UV-I 791 W/m² 14,8 °C 26,0 °C 4,8 km/h (1 Bft)
15.08.2017 11:42 26,1 °C 26,1 °C 52 % 1016,6 hPa 0,0 mm 4,0 km/h (1 Bft) W-NW 284 ° 1 min 0,000 mm 6,0 UV-I 791 W/m² 15,5 °C 26,1 °C 6,4 km/h (2 Bft)
15.08.2017 11:43 26,1 °C 26,1 °C 49 % 1016,7 hPa 0,0 mm 1,1 km/h (1 Bft) W-NW 284 ° 1 min 0,000 mm 5,9 UV-I 786 W/m² 14,5 °C 26,1 °C 3,2 km/h (1 Bft)
15.08.2017 11:44 26,0 °C 26,1 °C 50 % 1016,6 hPa 0,0 mm 0,3 km/h (0 Bft) W-NW 284 ° 1 min 0,000 mm 5,9 UV-I 779 W/m² 14,8 °C 26,0 °C 1,6 km/h (1 Bft)
15.08.2017 11:45 25,9 °C 26,0 °C 51 % 1016,7 hPa 0,0 mm 1,2 km/h (1 Bft) W-NW 284 ° 1 min 0,000 mm 5,9 UV-I 772 W/m² 15,0 °C 25,9 °C 3,2 km/h (1 Bft)
15.08.2017 11:46 26,0 °C 26,0 °C 50 % 1016,6 hPa 0,0 mm 3,6 km/h (1 Bft) W 277 ° 1 min 0,000 mm 5,9 UV-I 766 W/m² 14,8 °C 26,0 °C 4,8 km/h (1 Bft)
15.08.2017 11:47 26,0 °C 26,0 °C 50 % 1016,6 hPa 0,0 mm 5,0 km/h (1 Bft) NW 323 ° 1 min 0,000 mm 5,9 UV-I 766 W/m² 14,8 °C 26,0 °C 6,4 km/h (2 Bft)
15.08.2017 11:48 26,1 °C 26,1 °C 51 % 1016,6 hPa 0,0 mm 5,6 km/h (1 Bft) N 355 ° 1 min 0,000 mm 5,9 UV-I 765 W/m² 15,2 °C 26,1 °C 8,0 km/h (2 Bft)
15.08.2017 11:49 26,3 °C 26,3 °C 51 % 1016,7 hPa 0,0 mm 5,6 km/h (1 Bft) N 350 ° 1 min 0,000 mm 5,9 UV-I 759 W/m² 15,3 °C 26,3 °C 8,0 km/h (2 Bft)
15.08.2017 11:50 26,4 °C 26,4 °C 52 % 1016,6 hPa 0,0 mm 2,8 km/h (1 Bft) N 11 ° 1 min 0,000 mm 5,9 UV-I 754 W/m² 15,7 °C 26,4 °C 4,8 km/h (1 Bft)
15.08.2017 11:51 26,5 °C 26,5 °C 58 % 1016,7 hPa 0,0 mm 1,8 km/h (1 Bft) N 11 ° 1 min 0,000 mm 5,9 UV-I 754 W/m² 17,5 °C 26,5 °C 3,2 km/h (1 Bft)
15.08.2017 11:52 26,6 °C 26,6 °C 54 % 1016,6 hPa 0,0 mm 1,9 km/h (1 Bft) N-NW 340 ° 1 min 0,000 mm 5,9 UV-I 752 W/m² 16,5 °C 26,6 °C 3,2 km/h (1 Bft)
15.08.2017 11:53 26,6 °C 26,6 °C 49 % 1016,7 hPa 0,0 mm 2,4 km/h (1 Bft) N 9 ° 1 min 0,000 mm 5,9 UV-I 752 W/m² 15,0 °C 26,6 °C 4,8 km/h (1 Bft)
15.08.2017 11:54 26,5 °C 26,6 °C 52 % 1016,7 hPa 0,0 mm 5,4 km/h (1 Bft) N 349 ° 1 min 0,000 mm 5,9 UV-I 744 W/m² 15,8 °C 26,5 °C 6,4 km/h (2 Bft)
15.08.2017 11:55 26,6 °C 26,6 °C 47 % 1016,6 hPa 0,0 mm 4,3 km/h (1 Bft) N 5 ° 1 min 0,000 mm 5,9 UV-I 751 W/m² 14,3 °C 26,6 °C 4,8 km/h (1 Bft)
15.08.2017 11:56 26,6 °C 26,6 °C 53 % 1016,7 hPa 0,0 mm 3,8 km/h (1 Bft) NW 307 ° 1 min 0,000 mm 5,9 UV-I 744 W/m² 16,2 °C 26,6 °C 6,4 km/h (2 Bft)
15.08.2017 11:57 26,7 °C 26,7 °C 52 % 1016,7 hPa 0,0 mm 7,0 km/h (2 Bft) NW 325 ° 1 min 0,000 mm 5,9 UV-I 751 W/m² 16,0 °C 26,7 °C 9,7 km/h (2 Bft)
15.08.2017 11:58 26,7 °C 26,7 °C 53 % 1016,7 hPa 0,0 mm 2,7 km/h (1 Bft) NW 325 ° 1 min 0,000 mm 6,0 UV-I 754 W/m² 16,3 °C 26,7 °C 4,8 km/h (1 Bft)
15.08.2017 11:59 26,7 °C 26,7 °C 45 % 1016,6 hPa 0,0 mm 2,7 km/h (1 Bft) NW 323 ° 1 min 0,000 mm 6,0 UV-I 765 W/m² 13,8 °C 26,7 °C 6,4 km/h (2 Bft)
15.08.2017 12:00 26,6 °C 26,7 °C 47 % 1016,6 hPa 0,0 mm 2,2 km/h (1 Bft) NW 323 ° 1 min 0,483 mm 6,1 UV-I 772 W/m² 14,3 °C 26,6 °C 3,2 km/h (1 Bft)
15.08.2017 12:01 26,6 °C 26,6 °C 53 % 1016,6 hPa 0,0 mm 3,6 km/h (1 Bft) N 355 ° 1 min 0,000 mm 6,1 UV-I 775 W/m² 16,2 °C 26,6 °C 4,8 km/h (1 Bft)
15.08.2017 12:02 26,7 °C 26,7 °C 49 % 1016,7 hPa 0,0 mm 3,1 km/h (1 Bft) N 360 ° 1 min 0,000 mm 6,2 UV-I 780 W/m² 15,1 °C 26,7 °C 4,8 km/h (1 Bft)
15.08.2017 12:03 26,7 °C 26,7 °C 44 % 1016,7 hPa 0,0 mm 5,0 km/h (1 Bft) NW 317 ° 1 min 0,000 mm 6,2 UV-I 782 W/m² 13,4 °C 26,7 °C 8,0 km/h (2 Bft)
15.08.2017 12:04 26,7 °C 26,7 °C 47 % 1016,7 hPa 0,0 mm 4,2 km/h (1 Bft) NW 305 ° 1 min 0,000 mm 6,2 UV-I 780 W/m² 14,4 °C 26,7 °C 8,0 km/h (2 Bft)
15.08.2017 12:05 26,6 °C 26,7 °C 46 % 1016,7 hPa 0,0 mm 5,8 km/h (2 Bft) NW 309 ° 1 min 0,000 mm 6,2 UV-I 782 W/m² 14,0 °C 26,6 °C 8,0 km/h (2 Bft)
15.08.2017 12:06 26,6 °C 26,6 °C 45 % 1016,7 hPa 0,0 mm 0,6 km/h (0 Bft) NW 309 ° 1 min 0,000 mm 6,2 UV-I 786 W/m² 13,7 °C 26,6 °C 1,6 km/h (1 Bft)
15.08.2017 12:07 26,6 °C 26,6 °C 47 % 1016,7 hPa 0,0 mm 0,4 km/h (0 Bft) NW 309 ° 1 min 0,000 mm 6,2 UV-I 788 W/m² 14,3 °C 26,6 °C 1,6 km/h (1 Bft)
15.08.2017 12:08 26,6 °C 26,6 °C 47 % 1016,7 hPa 0,0 mm 5,5 km/h (1 Bft) NW 316 ° 1 min 0,000 mm 6,2 UV-I 788 W/m² 14,3 °C 26,6 °C 8,0 km/h (2 Bft)
15.08.2017 12:09 26,6 °C 26,6 °C 47 % 1016,7 hPa 0,0 mm 5,9 km/h (2 Bft) W-NW 294 ° 1 min 0,000 mm 6,2 UV-I 793 W/m² 14,3 °C 26,6 °C 11,3 km/h (2 Bft)
15.08.2017 12:10 26,5 °C 26,6 °C 47 % 1016,7 hPa 0,0 mm 3,1 km/h (1 Bft) NW 315 ° 1 min 0,000 mm 6,3 UV-I 793 W/m² 14,3 °C 26,5 °C 6,4 km/h (2 Bft)
15.08.2017 12:11 26,6 °C 26,6 °C 50 % 1016,7 hPa 0,0 mm 6,8 km/h (2 Bft) N 9 ° 1 min 0,000 mm 6,3 UV-I 795 W/m² 15,3 °C 26,6 °C 12,9 km/h (3 Bft)
15.08.2017 12:12 26,8 °C 26,8 °C 49 % 1016,7 hPa 0,0 mm 3,7 km/h (1 Bft) N-NW 333 ° 1 min 0,000 mm 6,1 UV-I 777 W/m² 15,2 °C 26,8 °C 8,0 km/h (2 Bft)
15.08.2017 12:13 26,9 °C 26,9 °C 52 % 1016,7 hPa 0,0 mm 4,4 km/h (1 Bft) N-NW 342 ° 1 min 0,000 mm 6,2 UV-I 772 W/m² 16,2 °C 26,9 °C 9,7 km/h (2 Bft)
15.08.2017 12:14 26,9 °C 26,9 °C 51 % 1016,7 hPa 0,0 mm 4,2 km/h (1 Bft) N-NW 340 ° 1 min 0,000 mm 6,2 UV-I 772 W/m² 15,9 °C 26,9 °C 6,4 km/h (2 Bft)
15.08.2017 12:15 26,9 °C 26,9 °C 45 % 1016,7 hPa 0,0 mm 4,9 km/h (1 Bft) N-NW 327 ° 1 min 0,000 mm 6,2 UV-I 777 W/m² 13,9 °C 26,9 °C 9,7 km/h (2 Bft)
15.08.2017 12:16 26,9 °C 26,9 °C 50 % 1016,7 hPa 0,0 mm 6,2 km/h (2 Bft) NW 306 ° 1 min 0,000 mm 6,2 UV-I 779 W/m² 15,6 °C 26,9 °C 8,0 km/h (2 Bft)
15.08.2017 12:17 27,0 °C 27,0 °C 51 % 1016,7 hPa 0,0 mm 4,9 km/h (1 Bft) NW 319 ° 1 min 0,000 mm 6,2 UV-I 777 W/m² 16,0 °C 27,0 °C 6,4 km/h (2 Bft)
15.08.2017 12:18 26,9 °C 27,0 °C 48 % 1016,7 hPa 0,0 mm 6,4 km/h (2 Bft) W-NW 286 ° 1 min 0,000 mm 6,2 UV-I 777 W/m² 14,9 °C 26,9 °C 8,0 km/h (2 Bft)
15.08.2017 12:19 26,9 °C 26,9 °C 46 % 1016,8 hPa 0,0 mm 7,6 km/h (2 Bft) NW 321 ° 1 min 0,000 mm 6,3 UV-I 782 W/m² 14,3 °C 26,9 °C 12,9 km/h (3 Bft)
15.08.2017 12:20 26,9 °C 26,9 °C 49 % 1016,7 hPa 0,0 mm 3,8 km/h (1 Bft) W 265 ° 1 min 0,000 mm 6,3 UV-I 788 W/m² 15,3 °C 26,9 °C 4,8 km/h (1 Bft)
15.08.2017 12:21 26,9 °C 26,9 °C 49 % 1016,8 hPa 0,0 mm 7,0 km/h (2 Bft) W-NW 298 ° 1 min 0,000 mm 6,3 UV-I 798 W/m² 15,3 °C 26,9 °C 11,3 km/h (2 Bft)
15.08.2017 12:22 26,9 °C 26,9 °C 50 % 1016,7 hPa 0,0 mm 2,7 km/h (1 Bft) W-NW 297 ° 1 min 0,000 mm 6,3 UV-I 793 W/m² 15,6 °C 26,9 °C 4,8 km/h (1 Bft)
15.08.2017 12:23 26,8 °C 26,9 °C 50 % 1016,7 hPa 0,0 mm 4,0 km/h (1 Bft) N-NW 327 ° 1 min 0,000 mm 6,3 UV-I 800 W/m² 15,5 °C 26,8 °C 6,4 km/h (2 Bft)
15.08.2017 12:24 26,8 °C 26,8 °C 49 % 1016,7 hPa 0,0 mm 9,5 km/h (2 Bft) NW 324 ° 1 min 0,000 mm 6,3 UV-I 796 W/m² 15,2 °C 26,8 °C 14,5 km/h (3 Bft)
15.08.2017 12:25 26,8 °C 26,9 °C 50 % 1016,7 hPa 0,0 mm 6,3 km/h (2 Bft) N-NW 327 ° 1 min 0,000 mm 6,4 UV-I 798 W/m² 15,5 °C 26,8 °C 14,5 km/h (3 Bft)
15.08.2017 12:26 26,8 °C 26,8 °C 45 % 1016,7 hPa 0,0 mm 1,7 km/h (1 Bft) N-NW 327 ° 1 min 0,000 mm 6,4 UV-I 788 W/m² 13,9 °C 26,8 °C 4,8 km/h (1 Bft)
15.08.2017 12:27 26,8 °C 26,8 °C 44 % 1016,7 hPa 0,0 mm 5,5 km/h (1 Bft) NW 306 ° 1 min 0,000 mm 6,4 UV-I 777 W/m² 13,5 °C 26,8 °C 11,3 km/h (2 Bft)
15.08.2017 12:28 26,8 °C 26,8 °C 45 % 1016,6 hPa 0,0 mm 7,9 km/h (2 Bft) NO 53 ° 1 min 0,000 mm 6,3 UV-I 777 W/m² 13,9 °C 26,8 °C 11,3 km/h (2 Bft)
15.08.2017 12:29 26,9 °C 26,9 °C 44 % 1016,6 hPa 0,0 mm 9,3 km/h (2 Bft) NW 311 ° 1 min 0,000 mm 6,2 UV-I 772 W/m² 13,6 °C 26,9 °C 12,9 km/h (3 Bft)
15.08.2017 12:30 26,9 °C 26,9 °C 46 % 1016,6 hPa 0,0 mm 8,7 km/h (2 Bft) NW 311 ° 1 min 0,000 mm 6,2 UV-I 773 W/m² 14,3 °C 26,9 °C 12,9 km/h (3 Bft)
15.08.2017 12:31 26,8 °C 26,9 °C 46 % 1016,6 hPa 0,0 mm 6,4 km/h (2 Bft) W 272 ° 1 min 0,000 mm 6,2 UV-I 761 W/m² 14,2 °C 26,8 °C 9,7 km/h (2 Bft)
15.08.2017 12:32 26,8 °C 26,8 °C 42 % 1016,6 hPa 0,0 mm 5,9 km/h (2 Bft) NW 311 ° 1 min 0,000 mm 6,2 UV-I 747 W/m² 12,8 °C 26,8 °C 11,3 km/h (2 Bft)
15.08.2017 12:33 26,8 °C 26,8 °C 45 % 1016,6 hPa 0,0 mm 5,6 km/h (1 Bft) N-NW 331 ° 1 min 0,000 mm 6,2 UV-I 766 W/m² 13,9 °C 26,8 °C 9,7 km/h (2 Bft)
15.08.2017 12:34 26,8 °C 26,8 °C 47 % 1016,6 hPa 0,0 mm 8,3 km/h (2 Bft) NW 313 ° 1 min 0,000 mm 6,2 UV-I 768 W/m² 14,5 °C 26,8 °C 12,9 km/h (3 Bft)
15.08.2017 12:35 26,8 °C 26,8 °C 46 % 1016,5 hPa 0,0 mm 8,0 km/h (2 Bft) NW 307 ° 1 min 0,000 mm 6,2 UV-I 768 W/m² 14,2 °C 26,8 °C 14,5 km/h (3 Bft)
15.08.2017 12:36 26,8 °C 26,8 °C 45 % 1016,6 hPa 0,0 mm 7,9 km/h (2 Bft) W-NW 291 ° 1 min 0,000 mm 6,1 UV-I 737 W/m² 13,9 °C 26,8 °C 12,9 km/h (3 Bft)
15.08.2017 12:37 26,8 °C 26,8 °C 47 % 1016,6 hPa 0,0 mm 7,5 km/h (2 Bft) NW 314 ° 1 min 0,000 mm 6,2 UV-I 754 W/m² 14,5 °C 26,8 °C 11,3 km/h (2 Bft)
15.08.2017 12:38 26,8 °C 26,8 °C 46 % 1016,6 hPa 0,0 mm 8,6 km/h (2 Bft) NW 308 ° 1 min 0,000 mm 6,3 UV-I 784 W/m² 14,2 °C 26,8 °C 12,9 km/h (3 Bft)
15.08.2017 12:39 26,8 °C 26,8 °C 46 % 1016,6 hPa 0,0 mm 13,3 km/h (3 Bft) NW 320 ° 1 min 0,000 mm 6,2 UV-I 759 W/m² 14,2 °C 26,8 °C 19,3 km/h (3 Bft)
15.08.2017 12:40 26,9 °C 26,9 °C 49 % 1016,6 hPa 0,0 mm 12,2 km/h (2 Bft) W-NW 291 ° 1 min 0,000 mm 5,9 UV-I 715 W/m² 15,3 °C 26,9 °C 16,1 km/h (3 Bft)
15.08.2017 12:41 26,9 °C 26,9 °C 49 % 1016,7 hPa 0,0 mm 8,4 km/h (2 Bft) N-NW 333 ° 1 min 0,000 mm 5,9 UV-I 717 W/m² 15,3 °C 26,9 °C 14,5 km/h (3 Bft)
15.08.2017 12:42 26,9 °C 26,9 °C 46 % 1016,6 hPa 0,0 mm 4,7 km/h (1 Bft) NW 319 ° 1 min 0,000 mm 5,9 UV-I 721 W/m² 14,3 °C 26,9 °C 8,0 km/h (2 Bft)
15.08.2017 12:43 26,8 °C 26,9 °C 44 % 1016,6 hPa 0,0 mm 5,6 km/h (1 Bft) NW 316 ° 1 min 0,000 mm 5,9 UV-I 731 W/m² 13,5 °C 26,8 °C 8,0 km/h (2 Bft)
15.08.2017 12:44 26,8 °C 26,8 °C 45 % 1016,6 hPa 0,0 mm 6,1 km/h (2 Bft) W 265 ° 1 min 0,000 mm 6,0 UV-I 714 W/m² 13,9 °C 26,8 °C 9,7 km/h (2 Bft)
15.08.2017 12:45 26,7 °C 26,8 °C 48 % 1016,6 hPa 0,0 mm 6,6 km/h (2 Bft) NW 315 ° 1 min 0,000 mm 6,0 UV-I 731 W/m² 14,8 °C 26,7 °C 11,3 km/h (2 Bft)
15.08.2017 12:46 26,7 °C 26,7 °C 51 % 1016,6 hPa 0,0 mm 6,7 km/h (2 Bft) N-NW 344 ° 1 min 0,000 mm 6,0 UV-I 729 W/m² 15,7 °C 26,7 °C 9,7 km/h (2 Bft)
15.08.2017 12:47 26,7 °C 26,7 °C 49 % 1016,6 hPa 0,0 mm 4,5 km/h (1 Bft) NW 317 ° 1 min 0,000 mm 6,2 UV-I 742 W/m² 15,1 °C 26,7 °C 8,0 km/h (2 Bft)
15.08.2017 12:48 26,8 °C 26,8 °C 53 % 1016,6 hPa 0,0 mm 5,5 km/h (1 Bft) NW 309 ° 1 min 0,000 mm 6,2 UV-I 770 W/m² 16,4 °C 26,8 °C 9,7 km/h (2 Bft)
15.08.2017 12:49 26,8 °C 26,8 °C 44 % 1016,5 hPa 0,0 mm 4,4 km/h (1 Bft) W-NW 302 ° 1 min 0,000 mm 6,1 UV-I 742 W/m² 13,5 °C 26,8 °C 6,4 km/h (2 Bft)
15.08.2017 12:50 26,8 °C 26,8 °C 43 % 1016,5 hPa 0,0 mm 3,5 km/h (1 Bft) W 265 ° 1 min 0,000 mm 6,1 UV-I 744 W/m² 13,2 °C 26,8 °C 6,4 km/h (2 Bft)
15.08.2017 12:51 26,8 °C 26,8 °C 46 % 1016,5 hPa 0,0 mm 5,6 km/h (1 Bft) W-NW 300 ° 1 min 0,000 mm 6,1 UV-I 751 W/m² 14,2 °C 26,8 °C 9,7 km/h (2 Bft)
15.08.2017 12:52 26,8 °C 26,8 °C 49 % 1016,5 hPa 0,0 mm 5,4 km/h (1 Bft) NW 315 ° 1 min 0,000 mm 6,1 UV-I 763 W/m² 15,2 °C 26,8 °C 11,3 km/h (2 Bft)
15.08.2017 12:53 26,8 °C 26,8 °C 48 % 1016,5 hPa 0,0 mm 7,5 km/h (2 Bft) NW 311 ° 1 min 0,000 mm 6,3 UV-I 791 W/m² 14,9 °C 26,8 °C 11,3 km/h (2 Bft)
15.08.2017 12:54 26,9 °C 26,9 °C 44 % 1016,4 hPa 0,0 mm 5,5 km/h (1 Bft) NW 313 ° 1 min 0,000 mm 6,4 UV-I 800 W/m² 13,6 °C 26,9 °C 8,0 km/h (2 Bft)
15.08.2017 12:55 26,9 °C 26,9 °C 47 % 1016,5 hPa 0,0 mm 3,5 km/h (1 Bft) W-NW 293 ° 1 min 0,000 mm 6,2 UV-I 752 W/m² 14,6 °C 26,9 °C 4,8 km/h (1 Bft)
15.08.2017 12:56 26,9 °C 26,9 °C 47 % 1016,4 hPa 0,0 mm 4,8 km/h (1 Bft) W 274 ° 1 min 0,000 mm 6,2 UV-I 758 W/m² 14,6 °C 26,9 °C 6,4 km/h (2 Bft)
15.08.2017 12:57 26,9 °C 27,0 °C 46 % 1016,4 hPa 0,0 mm 6,2 km/h (2 Bft) NW 319 ° 1 min 0,000 mm 6,1 UV-I 728 W/m² 14,3 °C 26,9 °C 9,7 km/h (2 Bft)
15.08.2017 12:58 26,9 °C 26,9 °C 48 % 1016,4 hPa 0,0 mm 8,9 km/h (2 Bft) N-NW 334 ° 1 min 0,000 mm 6,2 UV-I 710 W/m² 14,9 °C 26,9 °C 16,1 km/h (3 Bft)
15.08.2017 12:59 26,9 °C 26,9 °C 43 % 1016,4 hPa 0,0 mm 8,8 km/h (2 Bft) NW 319 ° 1 min 0,000 mm 6,5 UV-I 768 W/m² 13,2 °C 26,9 °C 14,5 km/h (3 Bft)
15.08.2017 13:00 26,9 °C 26,9 °C 44 % 1016,5 hPa 0,0 mm 3,2 km/h (1 Bft) NW 315 ° 1 min 0,000 mm 6,6 UV-I 816 W/m² 13,6 °C 26,9 °C 4,8 km/h (1 Bft)
15.08.2017 13:01 26,8 °C 26,9 °C 46 % 1016,5 hPa 0,0 mm 3,4 km/h (1 Bft) N 9 ° 1 min 0,533 mm 6,5 UV-I 812 W/m² 14,2 °C 26,8 °C 4,8 km/h (1 Bft)
15.08.2017 13:02 26,9 °C 26,9 °C 47 % 1016,5 hPa 0,0 mm 2,8 km/h (1 Bft) NW 307 ° 1 min 0,000 mm 6,2 UV-I 707 W/m² 14,6 °C 26,9 °C 6,4 km/h (2 Bft)
15.08.2017 13:03 26,8 °C 26,9 °C 44 % 1016,5 hPa 0,0 mm 6,2 km/h (2 Bft) NW 310 ° 1 min 0,000 mm 3,0 UV-I 712 W/m² 13,5 °C 26,8 °C 11,3 km/h (2 Bft)
15.08.2017 13:04 26,8 °C 26,8 °C 46 % 1016,5 hPa 0,0 mm 6,2 km/h (2 Bft) N-NW 329 ° 1 min 0,000 mm 6,1 UV-I 740 W/m² 14,2 °C 26,8 °C 11,3 km/h (2 Bft)
15.08.2017 13:05 26,7 °C 26,8 °C 46 % 1016,5 hPa 0,0 mm 4,2 km/h (1 Bft) W 271 ° 1 min 0,000 mm 6,1 UV-I 744 W/m² 14,1 °C 26,7 °C 6,4 km/h (2 Bft)
15.08.2017 13:06 26,7 °C 26,7 °C 52 % 1016,5 hPa 0,0 mm 3,0 km/h (1 Bft) N-NW 332 ° 1 min 0,000 mm 6,0 UV-I 719 W/m² 16,0 °C 26,7 °C 6,4 km/h (2 Bft)
15.08.2017 13:07 26,8 °C 26,8 °C 46 % 1016,5 hPa 0,0 mm 8,2 km/h (2 Bft) N-NW 344 ° 1 min 0,000 mm 5,9 UV-I 691 W/m² 14,2 °C 26,8 °C 12,9 km/h (3 Bft)
15.08.2017 13:08 26,9 °C 26,9 °C 47 % 1016,5 hPa 0,0 mm 5,5 km/h (1 Bft) N-NW 340 ° 1 min 0,000 mm 6,0 UV-I 722 W/m² 14,6 °C 26,9 °C 8,0 km/h (2 Bft)
15.08.2017 13:09 26,9 °C 26,9 °C 48 % 1016,4 hPa 0,0 mm 4,5 km/h (1 Bft) NW 309 ° 1 min 0,000 mm 6,0 UV-I 728 W/m² 14,9 °C 26,9 °C 8,0 km/h (2 Bft)
15.08.2017 13:10 27,0 °C 27,0 °C 45 % 1016,5 hPa 0,0 mm 6,0 km/h (2 Bft) N 360 ° 1 min 0,000 mm 6,1 UV-I 737 W/m² 14,0 °C 27,0 °C 8,0 km/h (2 Bft)
15.08.2017 13:11 27,1 °C 27,1 °C 43 % 1016,5 hPa 0,0 mm 6,6 km/h (2 Bft) N-NW 345 ° 1 min 0,000 mm 6,2 UV-I 740 W/m² 13,4 °C 27,1 °C 16,1 km/h (3 Bft)
15.08.2017 13:12 27,2 °C 27,2 °C 46 % 1016,4 hPa 0,0 mm 3,2 km/h (1 Bft) N 360 ° 1 min 0,000 mm 6,3 UV-I 765 W/m² 14,6 °C 27,2 °C 4,8 km/h (1 Bft)
15.08.2017 13:13 27,2 °C 27,2 °C 46 % 1016,5 hPa 0,0 mm 4,8 km/h (1 Bft) W-NW 299 ° 1 min 0,000 mm 6,7 UV-I 861 W/m² 14,6 °C 27,2 °C 9,7 km/h (2 Bft)
15.08.2017 13:14 27,1 °C 27,2 °C 47 % 1016,4 hPa 0,0 mm 7,8 km/h (2 Bft) NW 317 ° 1 min 0,000 mm 6,6 UV-I 782 W/m² 14,8 °C 27,1 °C 9,7 km/h (2 Bft)
15.08.2017 13:15 27,0 °C 27,1 °C 47 % 1016,4 hPa 0,0 mm 7,5 km/h (2 Bft) N-NO 19 ° 1 min 0,000 mm 6,7 UV-I 826 W/m² 14,7 °C 27,0 °C 11,3 km/h (2 Bft)
15.08.2017 13:16 26,9 °C 27,0 °C 45 % 1016,4 hPa 0,0 mm 3,5 km/h (1 Bft) W-NW 295 ° 1 min 0,000 mm 6,7 UV-I 842 W/m² 13,9 °C 26,9 °C 8,0 km/h (2 Bft)
15.08.2017 13:17 26,9 °C 26,9 °C 49 % 1016,4 hPa 0,0 mm 0,9 km/h (0 Bft) NW 315 ° 1 min 0,000 mm 6,5 UV-I 809 W/m² 15,3 °C 26,9 °C 3,2 km/h (1 Bft)
15.08.2017 13:18 26,8 °C 26,9 °C 45 % 1016,4 hPa 0,0 mm 2,8 km/h (1 Bft) N-NW 346 ° 1 min 0,000 mm 6,7 UV-I 809 W/m² 13,9 °C 26,8 °C 6,4 km/h (2 Bft)
15.08.2017 13:19 26,8 °C 26,8 °C 46 % 1016,4 hPa 0,0 mm 2,2 km/h (1 Bft) W-NW 301 ° 1 min 0,000 mm 6,5 UV-I 796 W/m² 14,2 °C 26,8 °C 6,4 km/h (2 Bft)
15.08.2017 13:20 26,9 °C 26,9 °C 46 % 1016,4 hPa 0,0 mm 7,4 km/h (2 Bft) W-NW 287 ° 1 min 0,000 mm 6,5 UV-I 826 W/m² 14,3 °C 26,9 °C 12,9 km/h (3 Bft)
15.08.2017 13:21 26,8 °C 26,9 °C 45 % 1016,4 hPa 0,0 mm 8,6 km/h (2 Bft) NW 321 ° 1 min 0,000 mm 6,8 UV-I 835 W/m² 13,9 °C 26,8 °C 12,9 km/h (3 Bft)
15.08.2017 13:22 26,8 °C 26,8 °C 47 % 1016,5 hPa 0,0 mm 7,2 km/h (2 Bft) W-NW 294 ° 1 min 0,000 mm 6,9 UV-I 868 W/m² 14,5 °C 26,8 °C 11,3 km/h (2 Bft)
15.08.2017 13:23 26,8 °C 26,8 °C 47 % 1016,4 hPa 0,0 mm 3,1 km/h (1 Bft) NW 323 ° 1 min 0,000 mm 6,8 UV-I 844 W/m² 14,5 °C 26,8 °C 4,8 km/h (1 Bft)
15.08.2017 13:24 26,8 °C 26,8 °C 47 % 1016,4 hPa 0,0 mm 8,9 km/h (2 Bft) W-SW 256 ° 1 min 0,000 mm 6,8 UV-I 874 W/m² 14,5 °C 26,8 °C 11,3 km/h (2 Bft)
15.08.2017 13:25 26,9 °C 26,9 °C 44 % 1016,4 hPa 0,0 mm 6,1 km/h (2 Bft) NW 308 ° 1 min 0,000 mm 6,7 UV-I 803 W/m² 13,6 °C 26,9 °C 12,9 km/h (3 Bft)
15.08.2017 13:26 26,8 °C 26,9 °C 44 % 1016,4 hPa 0,0 mm 4,7 km/h (1 Bft) NW 307 ° 1 min 0,000 mm 6,1 UV-I 765 W/m² 13,5 °C 26,8 °C 8,0 km/h (2 Bft)
15.08.2017 13:27 26,9 °C 26,9 °C 48 % 1016,4 hPa 0,0 mm 4,7 km/h (1 Bft) W-NW 294 ° 1 min 0,000 mm 5,8 UV-I 765 W/m² 14,9 °C 26,9 °C 8,0 km/h (2 Bft)
15.08.2017 13:28 27,1 °C 27,1 °C 49 % 1016,4 hPa 0,0 mm 4,4 km/h (1 Bft) W-NW 300 ° 1 min 0,000 mm 6,3 UV-I 765 W/m² 15,4 °C 27,1 °C 6,4 km/h (2 Bft)
15.08.2017 13:29 27,1 °C 27,2 °C 45 % 1016,4 hPa 0,0 mm 5,8 km/h (2 Bft) NW 316 ° 1 min 0,000 mm 6,5 UV-I 765 W/m² 14,1 °C 27,1 °C 8,0 km/h (2 Bft)
15.08.2017 13:30 27,1 °C 27,1 °C 46 % 1016,4 hPa 0,0 mm 3,7 km/h (1 Bft) N-NW 331 ° 1 min 0,000 mm 6,7 UV-I 823 W/m² 14,5 °C 27,1 °C 8,0 km/h (2 Bft)
15.08.2017 13:31 27,1 °C 27,1 °C 46 % 1016,3 hPa 0,0 mm 5,5 km/h (1 Bft) W-NW 287 ° 1 min 0,000 mm 6,7 UV-I 747 W/m² 14,5 °C 27,1 °C 9,7 km/h (2 Bft)
15.08.2017 13:32 27,0 °C 27,1 °C 44 % 1016,4 hPa 0,0 mm 6,4 km/h (2 Bft) W-NW 298 ° 1 min 0,000 mm 6,7 UV-I 805 W/m² 13,7 °C 27,0 °C 9,7 km/h (2 Bft)
15.08.2017 13:33 26,9 °C 27,0 °C 47 % 1016,4 hPa 0,0 mm 3,6 km/h (1 Bft) NW 316 ° 1 min 0,000 mm 6,7 UV-I 812 W/m² 14,6 °C 26,9 °C 6,4 km/h (2 Bft)
15.08.2017 13:34 26,9 °C 27,0 °C 45 % 1016,3 hPa 0,0 mm 2,6 km/h (1 Bft) W 273 ° 1 min 0,000 mm 6,8 UV-I 898 W/m² 13,9 °C 26,9 °C 4,8 km/h (1 Bft)
15.08.2017 13:35 26,9 °C 26,9 °C 45 % 1016,3 hPa 0,0 mm 5,7 km/h (1 Bft) NW 313 ° 1 min 0,000 mm 6,8 UV-I 863 W/m² 13,9 °C 26,9 °C 11,3 km/h (2 Bft)
15.08.2017 13:36 26,9 °C 26,9 °C 48 % 1016,3 hPa 0,0 mm 5,2 km/h (1 Bft) W-NW 282 ° 1 min 0,000 mm 7,1 UV-I 914 W/m² 14,9 °C 26,9 °C 8,0 km/h (2 Bft)
15.08.2017 13:37 27,0 °C 27,0 °C 45 % 1016,3 hPa 0,0 mm 5,2 km/h (1 Bft) N-NW 335 ° 1 min 0,000 mm 7,2 UV-I 875 W/m² 14,0 °C 27,0 °C 11,3 km/h (2 Bft)
15.08.2017 13:38 27,2 °C 27,2 °C 47 % 1016,3 hPa 0,0 mm 10,6 km/h (2 Bft) NW 322 ° 1 min 0,000 mm 6,7 UV-I 867 W/m² 14,9 °C 27,2 °C 16,1 km/h (3 Bft)
15.08.2017 13:39 27,3 °C 27,3 °C 48 % 1016,3 hPa 0,0 mm 8,2 km/h (2 Bft) NW 312 ° 1 min 0,000 mm 5,8 UV-I 867 W/m² 15,3 °C 27,3 °C 12,9 km/h (3 Bft)
15.08.2017 13:40 27,2 °C 27,3 °C 45 % 1016,3 hPa 0,0 mm 7,4 km/h (2 Bft) N-NW 329 ° 1 min 0,000 mm 5,7 UV-I 606 W/m² 14,2 °C 27,2 °C 14,5 km/h (3 Bft)
15.08.2017 13:41 27,3 °C 27,3 °C 48 % 1016,3 hPa 0,0 mm 6,4 km/h (2 Bft) N 11 ° 1 min 0,000 mm 6,6 UV-I 606 W/m² 15,3 °C 27,3 °C 9,7 km/h (2 Bft)
15.08.2017 13:42 27,3 °C 27,3 °C 53 % 1016,3 hPa 0,0 mm 7,0 km/h (2 Bft) NW 317 ° 1 min 0,000 mm 6,6 UV-I 744 W/m² 16,9 °C 27,3 °C 12,9 km/h (3 Bft)
15.08.2017 13:43 27,3 °C 27,3 °C 50 % 1016,3 hPa 0,0 mm 7,3 km/h (2 Bft) N-NW 327 ° 1 min 0,000 mm 5,4 UV-I 559 W/m² 15,9 °C 27,3 °C 12,9 km/h (3 Bft)
15.08.2017 13:44 27,3 °C 27,3 °C 47 % 1016,3 hPa 0,0 mm 5,8 km/h (2 Bft) N-NW 327 ° 1 min 0,000 mm 5,7 UV-I 559 W/m² 15,0 °C 27,3 °C 8,0 km/h (2 Bft)
15.08.2017 13:45 27,3 °C 27,3 °C 49 % 1016,3 hPa 0,0 mm 4,7 km/h (1 Bft) NW 309 ° 1 min 0,000 mm 6,2 UV-I 559 W/m² 15,6 °C 27,3 °C 6,4 km/h (2 Bft)
15.08.2017 13:46 27,2 °C 27,3 °C 45 % 1016,3 hPa 0,0 mm 4,2 km/h (1 Bft) W-NW 297 ° 1 min 0,000 mm 6,1 UV-I 559 W/m² 14,2 °C 27,2 °C 6,4 km/h (2 Bft)
15.08.2017 13:47 27,1 °C 27,2 °C 49 % 1016,3 hPa 0,0 mm 5,2 km/h (1 Bft) NW 323 ° 1 min 0,000 mm 6,5 UV-I 819 W/m² 15,4 °C 27,1 °C 8,0 km/h (2 Bft)
15.08.2017 13:48 26,9 °C 27,1 °C 47 % 1016,3 hPa 0,0 mm 4,2 km/h (1 Bft) W-NW 297 ° 1 min 0,000 mm 6,3 UV-I 782 W/m² 14,6 °C 26,9 °C 8,0 km/h (2 Bft)
15.08.2017 13:49 26,9 °C 26,9 °C 47 % 1016,3 hPa 0,0 mm 5,8 km/h (2 Bft) W 270 ° 1 min 0,000 mm 5,9 UV-I 717 W/m² 14,6 °C 26,9 °C 8,0 km/h (2 Bft)
15.08.2017 13:50 26,8 °C 26,9 °C 48 % 1016,3 hPa 0,0 mm 9,4 km/h (2 Bft) W-NW 290 ° 1 min 0,000 mm 6,1 UV-I 772 W/m² 14,9 °C 26,8 °C 12,9 km/h (3 Bft)
15.08.2017 13:51 26,8 °C 26,8 °C 48 % 1016,3 hPa 0,0 mm 6,3 km/h (2 Bft) W 269 ° 1 min 0,000 mm 6,4 UV-I 823 W/m² 14,9 °C 26,8 °C 12,9 km/h (3 Bft)
15.08.2017 13:52 26,8 °C 26,8 °C 49 % 1016,3 hPa 0,0 mm 6,5 km/h (2 Bft) NW 313 ° 1 min 0,000 mm 3,5 UV-I 807 W/m² 15,2 °C 26,8 °C 9,7 km/h (2 Bft)
15.08.2017 13:53 26,8 °C 26,8 °C 48 % 1016,3 hPa 0,0 mm 7,8 km/h (2 Bft) NW 320 ° 1 min 0,000 mm 6,2 UV-I 779 W/m² 14,9 °C 26,8 °C 12,9 km/h (3 Bft)
15.08.2017 13:54 26,8 °C 26,8 °C 47 % 1016,3 hPa 0,0 mm 7,8 km/h (2 Bft) NW 314 ° 1 min 0,000 mm 4,7 UV-I 833 W/m² 14,5 °C 26,8 °C 9,7 km/h (2 Bft)
15.08.2017 13:55 26,9 °C 26,9 °C 47 % 1016,3 hPa 0,0 mm 7,2 km/h (2 Bft) N-NO 17 ° 1 min 0,000 mm 6,3 UV-I 780 W/m² 14,6 °C 26,9 °C 11,3 km/h (2 Bft)
15.08.2017 13:56 27,1 °C 27,1 °C 46 % 1016,4 hPa 0,0 mm 6,9 km/h (2 Bft) NO 53 ° 1 min 0,000 mm 6,1 UV-I 782 W/m² 14,5 °C 27,1 °C 11,3 km/h (2 Bft)
15.08.2017 13:57 27,2 °C 27,2 °C 50 % 1016,3 hPa 0,0 mm 5,1 km/h (1 Bft) N-NW 344 ° 1 min 0,000 mm 5,9 UV-I 782 W/m² 15,9 °C 27,2 °C 8,0 km/h (2 Bft)
15.08.2017 13:58 27,2 °C 27,2 °C 48 % 1016,3 hPa 0,0 mm 3,6 km/h (1 Bft) N 360 ° 1 min 0,000 mm 4,8 UV-I 782 W/m² 15,2 °C 27,2 °C 4,8 km/h (1 Bft)
15.08.2017 13:59 27,2 °C 27,2 °C 46 % 1016,3 hPa 0,0 mm 7,3 km/h (2 Bft) N-NW 337 ° 1 min 0,000 mm 6,2 UV-I 777 W/m² 14,6 °C 27,2 °C 12,9 km/h (3 Bft)
15.08.2017 14:00 27,1 °C 27,2 °C 46 % 1016,3 hPa 0,0 mm 5,8 km/h (2 Bft) N-NW 338 ° 1 min 0,559 mm 6,4 UV-I 821 W/m² 14,5 °C 27,1 °C 6,4 km/h (2 Bft)
15.08.2017 14:01 27,1 °C 27,1 °C 47 % 1016,3 hPa 0,0 mm 6,4 km/h (2 Bft) N 355 ° 1 min 0,000 mm 6,4 UV-I 814 W/m² 14,8 °C 27,1 °C 9,7 km/h (2 Bft)
15.08.2017 14:02 27,1 °C 27,2 °C 50 % 1016,3 hPa 0,0 mm 6,8 km/h (2 Bft) NW 321 ° 1 min 0,000 mm 6,2 UV-I 812 W/m² 15,8 °C 27,1 °C 9,7 km/h (2 Bft)
15.08.2017 14:03 27,2 °C 27,2 °C 47 % 1016,3 hPa 0,0 mm 5,1 km/h (1 Bft) N-NO 33 ° 1 min 0,000 mm 5,9 UV-I 717 W/m² 14,9 °C 27,2 °C 8,0 km/h (2 Bft)
15.08.2017 14:04 27,2 °C 27,2 °C 46 % 1016,3 hPa 0,0 mm 5,6 km/h (1 Bft) N-NW 338 ° 1 min 0,000 mm 6,3 UV-I 805 W/m² 14,6 °C 27,2 °C 6,4 km/h (2 Bft)
15.08.2017 14:05 27,2 °C 27,2 °C 46 % 1016,3 hPa 0,0 mm 5,6 km/h (1 Bft) N 360 ° 1 min 0,000 mm 5,7 UV-I 805 W/m² 14,6 °C 27,2 °C 8,0 km/h (2 Bft)
15.08.2017 14:06 27,2 °C 27,2 °C 50 % 1016,3 hPa 0,0 mm 5,8 km/h (2 Bft) N-NW 348 ° 1 min 0,000 mm 5,9 UV-I 744 W/m² 15,9 °C 27,2 °C 8,0 km/h (2 Bft)
15.08.2017 14:07 27,3 °C 27,3 °C 46 % 1016,3 hPa 0,0 mm 5,0 km/h (1 Bft) N-NO 18 ° 1 min 0,000 mm 5,9 UV-I 754 W/m² 14,6 °C 27,3 °C 8,0 km/h (2 Bft)
15.08.2017 14:08 27,3 °C 27,3 °C 49 % 1016,3 hPa 0,0 mm 9,5 km/h (2 Bft) N-NW 333 ° 1 min 0,000 mm 5,5 UV-I 714 W/m² 15,6 °C 27,3 °C 12,9 km/h (3 Bft)
15.08.2017 14:09 27,3 °C 27,3 °C 46 % 1016,3 hPa 0,0 mm 6,2 km/h (2 Bft) N-NW 327 ° 1 min 0,000 mm 5,2 UV-I 647 W/m² 14,6 °C 27,3 °C 12,9 km/h (3 Bft)
15.08.2017 14:10 27,3 °C 27,4 °C 47 % 1016,3 hPa 0,0 mm 4,3 km/h (1 Bft) NW 304 ° 1 min 0,000 mm 5,0 UV-I 601 W/m² 15,0 °C 27,3 °C 11,3 km/h (2 Bft)
15.08.2017 14:11 27,2 °C 27,3 °C 49 % 1016,3 hPa 0,0 mm 6,9 km/h (2 Bft) W 272 ° 1 min 0,000 mm 4,8 UV-I 566 W/m² 15,5 °C 27,2 °C 11,3 km/h (2 Bft)
15.08.2017 14:12 27,1 °C 27,2 °C 47 % 1016,3 hPa 0,0 mm 8,3 km/h (2 Bft) N 5 ° 1 min 0,000 mm 4,8 UV-I 561 W/m² 14,8 °C 27,1 °C 16,1 km/h (3 Bft)
15.08.2017 14:13 27,1 °C 27,1 °C 48 % 1016,3 hPa 0,0 mm 6,0 km/h (2 Bft) NW 322 ° 1 min 0,000 mm 4,2 UV-I 561 W/m² 15,1 °C 27,1 °C 14,5 km/h (3 Bft)
15.08.2017 14:14 27,0 °C 27,1 °C 47 % 1016,3 hPa 0,0 mm 7,9 km/h (2 Bft) N-NO 22 ° 1 min 0,000 mm 4,1 UV-I 431 W/m² 14,7 °C 27,0 °C 12,9 km/h (3 Bft)
15.08.2017 14:15 26,9 °C 27,0 °C 47 % 1016,3 hPa 0,0 mm 6,5 km/h (2 Bft) NW 317 ° 1 min 0,000 mm 4,0 UV-I 424 W/m² 14,6 °C 26,9 °C 9,7 km/h (2 Bft)
15.08.2017 14:16 26,9 °C 26,9 °C 49 % 1016,3 hPa 0,0 mm 6,5 km/h (2 Bft) N-NW 336 ° 1 min 0,000 mm 4,0 UV-I 427 W/m² 15,3 °C 26,9 °C 8,0 km/h (2 Bft)
15.08.2017 14:17 26,8 °C 26,9 °C 48 % 1016,3 hPa 0,0 mm 6,2 km/h (2 Bft) N-NW 338 ° 1 min 0,000 mm 4,0 UV-I 427 W/m² 14,9 °C 26,8 °C 8,0 km/h (2 Bft)
15.08.2017 14:18 26,7 °C 26,8 °C 48 % 1016,3 hPa 0,0 mm 5,3 km/h (1 Bft) N-NW 347 ° 1 min 0,000 mm 4,0 UV-I 448 W/m² 14,8 °C 26,7 °C 8,0 km/h (2 Bft)
15.08.2017 14:19 26,6 °C 26,7 °C 50 % 1016,3 hPa 0,0 mm 2,8 km/h (1 Bft) N-NW 330 ° 1 min 0,000 mm 3,9 UV-I 417 W/m² 15,3 °C 26,6 °C 6,4 km/h (2 Bft)
15.08.2017 14:20 26,6 °C 26,7 °C 49 % 1016,4 hPa 0,0 mm 5,5 km/h (1 Bft) N 355 ° 1 min 0,000 mm 3,8 UV-I 427 W/m² 15,0 °C 26,6 °C 12,9 km/h (3 Bft)
15.08.2017 14:21 26,6 °C 26,6 °C 51 % 1016,4 hPa 0,0 mm 5,6 km/h (1 Bft) NW 309 ° 1 min 0,000 mm 3,7 UV-I 387 W/m² 15,6 °C 26,6 °C 8,0 km/h (2 Bft)
15.08.2017 14:22 26,6 °C 26,7 °C 50 % 1016,4 hPa 0,0 mm 6,9 km/h (2 Bft) N 355 ° 1 min 0,000 mm 3,8 UV-I 417 W/m² 15,3 °C 26,6 °C 11,3 km/h (2 Bft)
15.08.2017 14:23 26,6 °C 26,6 °C 49 % 1016,4 hPa 0,0 mm 5,2 km/h (1 Bft) W-NW 294 ° 1 min 0,000 mm 3,4 UV-I 364 W/m² 15,0 °C 26,6 °C 11,3 km/h (2 Bft)
15.08.2017 14:24 26,4 °C 26,6 °C 48 % 1016,4 hPa 0,0 mm 8,3 km/h (2 Bft) N 355 ° 1 min 0,000 mm 3,4 UV-I 348 W/m² 14,5 °C 26,4 °C 14,5 km/h (3 Bft)
15.08.2017 14:25 26,4 °C 26,4 °C 49 % 1016,4 hPa 0,0 mm 7,4 km/h (2 Bft) N 5 ° 1 min 0,000 mm 3,3 UV-I 334 W/m² 14,8 °C 26,4 °C 14,5 km/h (3 Bft)
15.08.2017 14:26 26,4 °C 26,4 °C 50 % 1016,4 hPa 0,0 mm 5,6 km/h (1 Bft) N-NO 17 ° 1 min 0,000 mm 3,5 UV-I 360 W/m² 15,1 °C 26,4 °C 8,0 km/h (2 Bft)
15.08.2017 14:27 26,4 °C 26,4 °C 53 % 1016,5 hPa 0,0 mm 5,8 km/h (2 Bft) W-NW 296 ° 1 min 0,000 mm 3,3 UV-I 343 W/m² 16,0 °C 26,4 °C 8,0 km/h (2 Bft)
15.08.2017 14:28 26,3 °C 26,4 °C 52 % 1016,5 hPa 0,0 mm 4,6 km/h (1 Bft) W-NW 288 ° 1 min 0,000 mm 3,3 UV-I 338 W/m² 15,6 °C 26,3 °C 8,0 km/h (2 Bft)
15.08.2017 14:29 26,2 °C 26,3 °C 48 % 1016,4 hPa 0,0 mm 4,4 km/h (1 Bft) W-NW 294 ° 1 min 0,000 mm 3,3 UV-I 343 W/m² 14,3 °C 26,2 °C 6,4 km/h (2 Bft)
15.08.2017 14:30 26,2 °C 26,2 °C 48 % 1016,4 hPa 0,0 mm 3,4 km/h (1 Bft) NW 315 ° 1 min 0,000 mm 3,3 UV-I 373 W/m² 14,3 °C 26,2 °C 4,8 km/h (1 Bft)
15.08.2017 14:31 26,1 °C 26,2 °C 49 % 1016,4 hPa 0,0 mm 4,2 km/h (1 Bft) NW 323 ° 1 min 0,000 mm 3,4 UV-I 362 W/m² 14,5 °C 26,1 °C 6,4 km/h (2 Bft)
15.08.2017 14:32 26,1 °C 26,1 °C 50 % 1016,4 hPa 0,0 mm 3,6 km/h (1 Bft) NW 317 ° 1 min 0,000 mm 3,3 UV-I 339 W/m² 14,8 °C 26,1 °C 6,4 km/h (2 Bft)
15.08.2017 14:33 26,1 °C 26,2 °C 51 % 1016,4 hPa 0,0 mm 0,1 km/h (0 Bft) NW 317 ° 1 min 0,000 mm 3,2 UV-I 338 W/m² 15,2 °C 26,1 °C 1,6 km/h (1 Bft)
15.08.2017 14:34 26,1 °C 26,1 °C 52 % 1016,4 hPa 0,0 mm 4,8 km/h (1 Bft) N-NW 346 ° 1 min 0,000 mm 3,2 UV-I 334 W/m² 15,5 °C 26,1 °C 9,7 km/h (2 Bft)
15.08.2017 14:35 26,1 °C 26,1 °C 52 % 1016,5 hPa 0,0 mm 5,5 km/h (1 Bft) N-NW 348 ° 1 min 0,000 mm 3,2 UV-I 334 W/m² 15,5 °C 26,1 °C 8,0 km/h (2 Bft)
15.08.2017 14:36 26,2 °C 26,2 °C 54 % 1016,5 hPa 0,0 mm 5,1 km/h (1 Bft) NW 321 ° 1 min 0,000 mm 3,2 UV-I 339 W/m² 16,1 °C 26,2 °C 12,9 km/h (3 Bft)
15.08.2017 14:37 26,2 °C 26,2 °C 50 % 1016,5 hPa 0,0 mm 1,9 km/h (1 Bft) N-NW 338 ° 1 min 0,000 mm 3,2 UV-I 341 W/m² 14,9 °C 26,2 °C 4,8 km/h (1 Bft)
15.08.2017 14:38 26,2 °C 26,2 °C 52 % 1016,5 hPa 0,0 mm 1,9 km/h (1 Bft) N-NW 336 ° 1 min 0,000 mm 3,2 UV-I 330 W/m² 15,6 °C 26,2 °C 3,2 km/h (1 Bft)
15.08.2017 14:39 26,1 °C 26,2 °C 51 % 1016,5 hPa 0,0 mm 2,5 km/h (1 Bft) N-NW 329 ° 1 min 0,000 mm 3,1 UV-I 327 W/m² 15,2 °C 26,1 °C 3,2 km/h (1 Bft)
15.08.2017 14:40 26,1 °C 26,1 °C 50 % 1016,5 hPa 0,0 mm 1,9 km/h (1 Bft) N-NW 329 ° 1 min 0,000 mm 3,1 UV-I 330 W/m² 14,8 °C 26,1 °C 3,2 km/h (1 Bft)
15.08.2017 14:41 26,1 °C 26,1 °C 52 % 1016,5 hPa 0,0 mm 5,2 km/h (1 Bft) N-NO 23 ° 1 min 0,000 mm 3,3 UV-I 348 W/m² 15,5 °C 26,1 °C 8,0 km/h (2 Bft)
15.08.2017 14:42 26,1 °C 26,2 °C 49 % 1016,5 hPa 0,0 mm 4,8 km/h (1 Bft) N 355 ° 1 min 0,000 mm 3,3 UV-I 360 W/m² 14,5 °C 26,1 °C 6,4 km/h (2 Bft)
15.08.2017 14:43 26,2 °C 26,2 °C 49 % 1016,5 hPa 0,0 mm 4,2 km/h (1 Bft) N-NW 345 ° 1 min 0,000 mm 3,2 UV-I 345 W/m² 14,6 °C 26,2 °C 6,4 km/h (2 Bft)
15.08.2017 14:44 26,3 °C 26,3 °C 48 % 1016,5 hPa 0,0 mm 2,8 km/h (1 Bft) N-NO 26 ° 1 min 0,000 mm 3,2 UV-I 332 W/m² 14,4 °C 26,3 °C 4,8 km/h (1 Bft)
15.08.2017 14:45 26,3 °C 26,3 °C 51 % 1016,5 hPa 0,0 mm 4,4 km/h (1 Bft) NW 319 ° 1 min 0,000 mm 3,1 UV-I 329 W/m² 15,3 °C 26,3 °C 6,4 km/h (2 Bft)
15.08.2017 14:46 26,2 °C 26,3 °C 48 % 1016,5 hPa 0,0 mm 1,5 km/h (1 Bft) NW 318 ° 1 min 0,000 mm 3,1 UV-I 316 W/m² 14,3 °C 26,2 °C 3,2 km/h (1 Bft)
15.08.2017 14:47 26,2 °C 26,2 °C 50 % 1016,5 hPa 0,0 mm 2,0 km/h (1 Bft) N 5 ° 1 min 0,000 mm 3,0 UV-I 301 W/m² 14,9 °C 26,2 °C 3,2 km/h (1 Bft)
15.08.2017 14:48 26,2 °C 26,2 °C 52 % 1016,6 hPa 0,0 mm 0,7 km/h (0 Bft) N 5 ° 1 min 0,000 mm 3,0 UV-I 304 W/m² 15,6 °C 26,2 °C 1,6 km/h (1 Bft)
15.08.2017 14:49 26,2 °C 26,2 °C 50 % 1016,5 hPa 0,0 mm 4,0 km/h (1 Bft) W-NW 296 ° 1 min 0,000 mm 3,5 UV-I 369 W/m² 14,9 °C 26,2 °C 6,4 km/h (2 Bft)
15.08.2017 14:50 26,1 °C 26,2 °C 51 % 1016,5 hPa 0,0 mm 1,7 km/h (1 Bft) W-NW 296 ° 1 min 0,000 mm 4,0 UV-I 443 W/m² 15,2 °C 26,1 °C 3,2 km/h (1 Bft)
15.08.2017 14:51 26,1 °C 26,2 °C 51 % 1016,6 hPa 0,0 mm 0,7 km/h (0 Bft) W-NW 296 ° 1 min 0,000 mm 4,6 UV-I 443 W/m² 15,2 °C 26,1 °C 3,2 km/h (1 Bft)
15.08.2017 14:52 26,2 °C 26,2 °C 48 % 1016,5 hPa 0,0 mm 1,1 km/h (1 Bft) W-NW 300 ° 1 min 0,000 mm 4,6 UV-I 538 W/m² 14,3 °C 26,2 °C 3,2 km/h (1 Bft)
15.08.2017 14:53 26,2 °C 26,2 °C 50 % 1016,6 hPa 0,0 mm 0,2 km/h (0 Bft) W-NW 300 ° 1 min 0,000 mm 5,4 UV-I 729 W/m² 14,9 °C 26,2 °C 3,2 km/h (1 Bft)
15.08.2017 14:54 26,3 °C 26,3 °C 55 % 1016,6 hPa 0,0 mm 3,3 km/h (1 Bft) N-NW 336 ° 1 min 0,000 mm 5,6 UV-I 737 W/m² 16,5 °C 26,3 °C 4,8 km/h (1 Bft)
15.08.2017 14:55 26,5 °C 26,5 °C 51 % 1016,6 hPa 0,0 mm 2,7 km/h (1 Bft) NW 310 ° 1 min 0,000 mm 5,9 UV-I 828 W/m² 15,5 °C 26,5 °C 4,8 km/h (1 Bft)
15.08.2017 14:56 26,8 °C 26,8 °C 50 % 1016,6 hPa 0,0 mm 2,0 km/h (1 Bft) NW 320 ° 1 min 0,000 mm 6,1 UV-I 835 W/m² 15,5 °C 26,8 °C 4,8 km/h (1 Bft)
15.08.2017 14:57 26,9 °C 26,9 °C 54 % 1016,6 hPa 0,0 mm 4,2 km/h (1 Bft) NW 326 ° 1 min 0,000 mm 6,1 UV-I 828 W/m² 16,8 °C 26,9 °C 4,8 km/h (1 Bft)
15.08.2017 14:58 27,0 °C 27,0 °C 49 % 1016,6 hPa 0,0 mm 2,5 km/h (1 Bft) N-NW 333 ° 1 min 0,000 mm 6,0 UV-I 810 W/m² 15,4 °C 27,0 °C 3,2 km/h (1 Bft)
15.08.2017 14:59 27,1 °C 27,1 °C 53 % 1016,6 hPa 0,0 mm 3,8 km/h (1 Bft) W-NW 302 ° 1 min 0,000 mm 6,1 UV-I 831 W/m² 16,7 °C 27,1 °C 4,8 km/h (1 Bft)
15.08.2017 15:00 27,0 °C 27,1 °C 52 % 1016,6 hPa 0,0 mm 4,3 km/h (1 Bft) W-NW 294 ° 1 min 0,000 mm 6,1 UV-I 819 W/m² 16,3 °C 27,0 °C 6,4 km/h (2 Bft)
15.08.2017 15:01 27,0 °C 27,1 °C 52 % 1016,6 hPa 0,0 mm 3,1 km/h (1 Bft) W-SW 254 ° 1 min 0,355 mm 6,0 UV-I 821 W/m² 16,3 °C 27,0 °C 6,4 km/h (2 Bft)
15.08.2017 15:02 26,9 °C 27,0 °C 51 % 1016,6 hPa 0,0 mm 5,8 km/h (2 Bft) NW 324 ° 1 min 0,000 mm 6,0 UV-I 807 W/m² 15,9 °C 26,9 °C 8,0 km/h (2 Bft)
15.08.2017 15:03 26,9 °C 26,9 °C 51 % 1016,6 hPa 0,0 mm 3,8 km/h (1 Bft) W 275 ° 1 min 0,000 mm 5,8 UV-I 793 W/m² 15,9 °C 26,9 °C 6,4 km/h (2 Bft)
15.08.2017 15:04 26,9 °C 26,9 °C 47 % 1016,5 hPa 0,0 mm 6,4 km/h (2 Bft) W-NW 285 ° 1 min 0,000 mm 5,9 UV-I 791 W/m² 14,6 °C 26,9 °C 11,3 km/h (2 Bft)
15.08.2017 15:05 26,9 °C 26,9 °C 48 % 1016,5 hPa 0,0 mm 5,0 km/h (1 Bft) N-NW 342 ° 1 min 0,000 mm 5,9 UV-I 789 W/m² 14,9 °C 26,9 °C 6,4 km/h (2 Bft)
15.08.2017 15:06 26,9 °C 26,9 °C 52 % 1016,5 hPa 0,0 mm 3,6 km/h (1 Bft) N-NW 331 ° 1 min 0,000 mm 5,7 UV-I 765 W/m² 16,2 °C 26,9 °C 6,4 km/h (2 Bft)
15.08.2017 15:07 26,9 °C 26,9 °C 50 % 1016,5 hPa 0,0 mm 5,2 km/h (1 Bft) NW 315 ° 1 min 0,000 mm 5,7 UV-I 758 W/m² 15,6 °C 26,9 °C 8,0 km/h (2 Bft)
15.08.2017 15:08 26,9 °C 26,9 °C 48 % 1016,5 hPa 0,0 mm 4,9 km/h (1 Bft) N-NO 18 ° 1 min 0,000 mm 5,7 UV-I 756 W/m² 14,9 °C 26,9 °C 8,0 km/h (2 Bft)
15.08.2017 15:09 26,9 °C 26,9 °C 49 % 1016,5 hPa 0,0 mm 8,2 km/h (2 Bft) NW 319 ° 1 min 0,000 mm 5,7 UV-I 770 W/m² 15,3 °C 26,9 °C 14,5 km/h (3 Bft)
15.08.2017 15:10 26,9 °C 26,9 °C 48 % 1016,5 hPa 0,0 mm 4,8 km/h (1 Bft) W 276 ° 1 min 0,000 mm 5,7 UV-I 770 W/m² 14,9 °C 26,9 °C 6,4 km/h (2 Bft)
15.08.2017 15:11 26,9 °C 26,9 °C 45 % 1016,5 hPa 0,0 mm 2,9 km/h (1 Bft) W 280 ° 1 min 0,000 mm 5,7 UV-I 761 W/m² 13,9 °C 26,9 °C 4,8 km/h (1 Bft)
15.08.2017 15:12 26,9 °C 26,9 °C 46 % 1016,5 hPa 0,0 mm 3,0 km/h (1 Bft) W-NW 300 ° 1 min 0,000 mm 5,6 UV-I 759 W/m² 14,3 °C 26,9 °C 6,4 km/h (2 Bft)
15.08.2017 15:13 27,0 °C 27,0 °C 47 % 1016,5 hPa 0,0 mm 4,7 km/h (1 Bft) W-NW 298 ° 1 min 0,000 mm 5,6 UV-I 756 W/m² 14,7 °C 27,0 °C 6,4 km/h (2 Bft)
15.08.2017 15:14 27,0 °C 27,0 °C 46 % 1016,4 hPa 0,0 mm 3,0 km/h (1 Bft) NW 325 ° 1 min 0,000 mm 5,6 UV-I 752 W/m² 14,4 °C 27,0 °C 4,8 km/h (1 Bft)
15.08.2017 15:15 27,1 °C 27,1 °C 49 % 1016,4 hPa 0,0 mm 0,5 km/h (0 Bft) NW 325 ° 1 min 0,000 mm 5,4 UV-I 733 W/m² 15,4 °C 27,1 °C 1,6 km/h (1 Bft)
15.08.2017 15:16 27,1 °C 27,1 °C 51 % 1016,4 hPa 0,0 mm 3,5 km/h (1 Bft) N-NW 344 ° 1 min 0,000 mm 5,4 UV-I 712 W/m² 16,1 °C 27,1 °C 8,0 km/h (2 Bft)
15.08.2017 15:17 27,1 °C 27,1 °C 49 % 1016,4 hPa 0,0 mm 4,6 km/h (1 Bft) N-NW 327 ° 1 min 0,000 mm 5,4 UV-I 726 W/m² 15,4 °C 27,1 °C 12,9 km/h (3 Bft)
15.08.2017 15:18 27,1 °C 27,1 °C 52 % 1016,4 hPa 0,0 mm 4,2 km/h (1 Bft) N-NW 327 ° 1 min 0,000 mm 5,3 UV-I 687 W/m² 16,4 °C 27,1 °C 6,4 km/h (2 Bft)
15.08.2017 15:19 27,1 °C 27,2 °C 49 % 1016,4 hPa 0,0 mm 3,8 km/h (1 Bft) W-SW 254 ° 1 min 0,000 mm 5,3 UV-I 714 W/m² 15,4 °C 27,1 °C 6,4 km/h (2 Bft)
15.08.2017 15:20 27,2 °C 27,2 °C 47 % 1016,4 hPa 0,0 mm 9,7 km/h (2 Bft) W-SW 255 ° 1 min 0,000 mm 5,3 UV-I 722 W/m² 14,9 °C 27,2 °C 14,5 km/h (3 Bft)
15.08.2017 15:21 27,1 °C 27,2 °C 52 % 1016,3 hPa 0,0 mm 5,3 km/h (1 Bft) W-NW 287 ° 1 min 0,000 mm 5,4 UV-I 735 W/m² 16,4 °C 27,1 °C 11,3 km/h (2 Bft)
15.08.2017 15:22 27,1 °C 27,1 °C 50 % 1016,3 hPa 0,0 mm 1,1 km/h (1 Bft) W-NW 287 ° 1 min 0,000 mm 5,0 UV-I 705 W/m² 15,8 °C 27,1 °C 4,8 km/h (1 Bft)
15.08.2017 15:23 27,1 °C 27,1 °C 49 % 1016,3 hPa 0,0 mm 0,2 km/h (0 Bft) W-NW 287 ° 1 min 0,000 mm 5,2 UV-I 687 W/m² 15,4 °C 27,1 °C 1,6 km/h (1 Bft)
15.08.2017 15:24 27,1 °C 27,1 °C 47 % 1016,3 hPa 0,0 mm 0,3 km/h (0 Bft) W-NW 287 ° 1 min 0,000 mm 5,2 UV-I 694 W/m² 14,8 °C 27,1 °C 1,6 km/h (1 Bft)
15.08.2017 15:25 27,1 °C 27,1 °C 47 % 1016,2 hPa 0,0 mm 0,8 km/h (0 Bft) W-NW 287 ° 1 min 0,000 mm 5,0 UV-I 691 W/m² 14,8 °C 27,1 °C 1,6 km/h (1 Bft)
15.08.2017 15:26 27,1 °C 27,1 °C 44 % 1016,2 hPa 0,0 mm 3,1 km/h (1 Bft) W 263 ° 1 min 0,000 mm 5,0 UV-I 677 W/m² 13,8 °C 27,1 °C 4,8 km/h (1 Bft)
15.08.2017 15:27 27,0 °C 27,1 °C 43 % 1016,2 hPa 0,0 mm 1,9 km/h (1 Bft) W 263 ° 1 min 0,000 mm 4,7 UV-I 636 W/m² 13,3 °C 27,0 °C 3,2 km/h (1 Bft)
15.08.2017 15:28 26,9 °C 27,0 °C 45 % 1016,2 hPa 0,0 mm 2,2 km/h (1 Bft) W 263 ° 1 min 0,000 mm 5,0 UV-I 652 W/m² 13,9 °C 26,9 °C 3,2 km/h (1 Bft)
15.08.2017 15:29 26,9 °C 26,9 °C 46 % 1016,1 hPa 0,0 mm 2,7 km/h (1 Bft) W 259 ° 1 min 0,000 mm 5,1 UV-I 707 W/m² 14,3 °C 26,9 °C 6,4 km/h (2 Bft)
15.08.2017 15:30 26,9 °C 26,9 °C 50 % 1016,1 hPa 0,0 mm 3,7 km/h (1 Bft) S-SW 196 ° 1 min 0,000 mm 5,1 UV-I 707 W/m² 15,6 °C 26,9 °C 6,4 km/h (2 Bft)
15.08.2017 15:31 26,9 °C 26,9 °C 52 % 1016,1 hPa 0,0 mm 4,0 km/h (1 Bft) SW 229 ° 1 min 0,000 mm 5,1 UV-I 708 W/m² 16,2 °C 26,9 °C 6,4 km/h (2 Bft)
15.08.2017 15:32 26,9 °C 26,9 °C 46 % 1016,2 hPa 0,0 mm 2,7 km/h (1 Bft) W-SW 239 ° 1 min 0,000 mm 4,9 UV-I 682 W/m² 14,3 °C 26,9 °C 4,8 km/h (1 Bft)
15.08.2017 15:33 27,0 °C 27,0 °C 49 % 1016,2 hPa 0,0 mm 2,3 km/h (1 Bft) SW 233 ° 1 min 0,000 mm 5,1 UV-I 689 W/m² 15,4 °C 27,0 °C 4,8 km/h (1 Bft)
15.08.2017 15:34 27,1 °C 27,1 °C 46 % 1016,1 hPa 0,0 mm 2,5 km/h (1 Bft) SW 233 ° 1 min 0,000 mm 5,1 UV-I 698 W/m² 14,5 °C 27,1 °C 3,2 km/h (1 Bft)
15.08.2017 15:35 27,1 °C 27,1 °C 47 % 1016,1 hPa 0,0 mm 5,9 km/h (2 Bft) W-NW 297 ° 1 min 0,000 mm 5,1 UV-I 700 W/m² 14,8 °C 27,1 °C 9,7 km/h (2 Bft)
15.08.2017 15:36 27,0 °C 27,1 °C 45 % 1016,0 hPa 0,0 mm 3,6 km/h (1 Bft) NW 305 ° 1 min 0,000 mm 5,0 UV-I 693 W/m² 14,0 °C 27,0 °C 6,4 km/h (2 Bft)
15.08.2017 15:37 27,1 °C 27,1 °C 45 % 1016,1 hPa 0,0 mm 3,1 km/h (1 Bft) NW 315 ° 1 min 0,000 mm 5,0 UV-I 693 W/m² 14,1 °C 27,1 °C 4,8 km/h (1 Bft)
15.08.2017 15:38 27,1 °C 27,1 °C 46 % 1016,1 hPa 0,0 mm 5,5 km/h (1 Bft) N-NW 327 ° 1 min 0,000 mm 5,0 UV-I 687 W/m² 14,5 °C 27,1 °C 8,0 km/h (2 Bft)
15.08.2017 15:39 27,1 °C 27,1 °C 46 % 1016,1 hPa 0,0 mm 6,2 km/h (2 Bft) W-NW 303 ° 1 min 0,000 mm 5,0 UV-I 689 W/m² 14,5 °C 27,1 °C 8,0 km/h (2 Bft)
15.08.2017 15:40 27,1 °C 27,1 °C 48 % 1016,1 hPa 0,0 mm 6,3 km/h (2 Bft) W 259 ° 1 min 0,000 mm 4,9 UV-I 686 W/m² 15,1 °C 27,1 °C 9,7 km/h (2 Bft)
15.08.2017 15:41 26,9 °C 27,1 °C 47 % 1015,9 hPa 0,0 mm 3,2 km/h (1 Bft) W 268 ° 1 min 0,000 mm 4,9 UV-I 684 W/m² 14,6 °C 26,9 °C 4,8 km/h (1 Bft)
15.08.2017 15:42 26,9 °C 26,9 °C 47 % 1016,0 hPa 0,0 mm 3,8 km/h (1 Bft) N-NW 328 ° 1 min 0,000 mm 4,9 UV-I 680 W/m² 14,6 °C 26,9 °C 6,4 km/h (2 Bft)
15.08.2017 15:43 26,9 °C 26,9 °C 44 % 1015,9 hPa 0,0 mm 3,5 km/h (1 Bft) NW 321 ° 1 min 0,000 mm 4,9 UV-I 675 W/m² 13,6 °C 26,9 °C 8,0 km/h (2 Bft)
15.08.2017 15:44 26,9 °C 26,9 °C 47 % 1015,8 hPa 0,0 mm 6,8 km/h (2 Bft) NW 323 ° 1 min 0,000 mm 4,8 UV-I 670 W/m² 14,6 °C 26,9 °C 11,3 km/h (2 Bft)
15.08.2017 15:45 26,9 °C 26,9 °C 45 % 1015,8 hPa 0,0 mm 4,2 km/h (1 Bft) NW 310 ° 1 min 0,000 mm 4,8 UV-I 670 W/m² 13,9 °C 26,9 °C 6,4 km/h (2 Bft)
15.08.2017 15:46 26,9 °C 26,9 °C 46 % 1015,9 hPa 0,0 mm 5,6 km/h (1 Bft) W 259 ° 1 min 0,000 mm 4,8 UV-I 647 W/m² 14,3 °C 26,9 °C 9,7 km/h (2 Bft)
15.08.2017 15:47 26,9 °C 26,9 °C 45 % 1015,9 hPa 0,0 mm 5,4 km/h (1 Bft) W 271 ° 1 min 0,000 mm 4,7 UV-I 650 W/m² 13,9 °C 26,9 °C 9,7 km/h (2 Bft)
15.08.2017 15:48 26,9 °C 26,9 °C 45 % 1015,9 hPa 0,0 mm 2,5 km/h (1 Bft) W 273 ° 1 min 0,000 mm 4,7 UV-I 657 W/m² 13,9 °C 26,9 °C 3,2 km/h (1 Bft)
15.08.2017 15:49 26,9 °C 26,9 °C 44 % 1015,8 hPa 0,0 mm 2,5 km/h (1 Bft) NW 321 ° 1 min 0,000 mm 4,7 UV-I 661 W/m² 13,6 °C 26,9 °C 4,8 km/h (1 Bft)
15.08.2017 15:50 27,1 °C 27,1 °C 45 % 1015,9 hPa 0,0 mm 3,6 km/h (1 Bft) NW 321 ° 1 min 0,000 mm 4,7 UV-I 664 W/m² 14,1 °C 27,1 °C 4,8 km/h (1 Bft)
15.08.2017 15:51 27,1 °C 27,1 °C 46 % 1015,8 hPa 0,0 mm 4,5 km/h (1 Bft) NW 321 ° 1 min 0,000 mm 4,7 UV-I 645 W/m² 14,5 °C 27,1 °C 8,0 km/h (2 Bft)
15.08.2017 15:52 27,2 °C 27,2 °C 49 % 1015,8 hPa 0,0 mm 4,8 km/h (1 Bft) W-NW 303 ° 1 min 0,000 mm 4,6 UV-I 657 W/m² 15,5 °C 27,2 °C 6,4 km/h (2 Bft)
15.08.2017 15:53 27,2 °C 27,3 °C 47 % 1015,8 hPa 0,0 mm 3,8 km/h (1 Bft) NW 316 ° 1 min 0,000 mm 4,6 UV-I 654 W/m² 14,9 °C 27,2 °C 6,4 km/h (2 Bft)
15.08.2017 15:54 27,2 °C 27,3 °C 44 % 1015,8 hPa 0,0 mm 4,7 km/h (1 Bft) NW 308 ° 1 min 0,000 mm 4,6 UV-I 652 W/m² 13,9 °C 27,2 °C 6,4 km/h (2 Bft)
15.08.2017 15:55 27,2 °C 27,2 °C 46 % 1015,8 hPa 0,0 mm 2,3 km/h (1 Bft) NW 304 ° 1 min 0,000 mm 4,5 UV-I 647 W/m² 14,6 °C 27,2 °C 4,8 km/h (1 Bft)
15.08.2017 15:56 27,2 °C 27,2 °C 45 % 1015,8 hPa 0,0 mm 4,0 km/h (1 Bft) NW 313 ° 1 min 0,000 mm 4,5 UV-I 640 W/m² 14,2 °C 27,2 °C 6,4 km/h (2 Bft)
15.08.2017 15:57 27,2 °C 27,2 °C 46 % 1015,7 hPa 0,0 mm 6,0 km/h (2 Bft) NW 323 ° 1 min 0,000 mm 4,5 UV-I 645 W/m² 14,6 °C 27,2 °C 12,9 km/h (3 Bft)
15.08.2017 15:58 27,2 °C 27,2 °C 45 % 1015,8 hPa 0,0 mm 6,9 km/h (2 Bft) NW 319 ° 1 min 0,000 mm 4,5 UV-I 643 W/m² 14,2 °C 27,2 °C 12,9 km/h (3 Bft)
15.08.2017 15:59 27,2 °C 27,2 °C 45 % 1015,8 hPa 0,0 mm 7,3 km/h (2 Bft) NW 316 ° 1 min 0,000 mm 4,5 UV-I 638 W/m² 14,2 °C 27,2 °C 9,7 km/h (2 Bft)
15.08.2017 16:00 27,2 °C 27,2 °C 46 % 1015,8 hPa 0,0 mm 6,8 km/h (2 Bft) W-NW 303 ° 1 min 0,000 mm 4,4 UV-I 640 W/m² 14,6 °C 27,2 °C 12,9 km/h (3 Bft)
15.08.2017 16:01 27,2 °C 27,2 °C 46 % 1015,8 hPa 0,0 mm 8,3 km/h (2 Bft) W 259 ° 1 min 0,483 mm 4,3 UV-I 633 W/m² 14,6 °C 27,2 °C 12,9 km/h (3 Bft)
15.08.2017 16:02 27,0 °C 27,2 °C 46 % 1015,8 hPa 0,0 mm 8,3 km/h (2 Bft) W-SW 256 ° 1 min 0,000 mm 4,3 UV-I 621 W/m² 14,4 °C 27,0 °C 12,9 km/h (3 Bft)
15.08.2017 16:03 26,9 °C 27,0 °C 46 % 1015,8 hPa 0,0 mm 3,1 km/h (1 Bft) W 280 ° 1 min 0,000 mm 4,3 UV-I 628 W/m² 14,3 °C 26,9 °C 4,8 km/h (1 Bft)
15.08.2017 16:04 26,9 °C 26,9 °C 48 % 1015,8 hPa 0,0 mm 7,0 km/h (2 Bft) W 279 ° 1 min 0,000 mm 4,3 UV-I 626 W/m² 14,9 °C 26,9 °C 11,3 km/h (2 Bft)
15.08.2017 16:05 26,9 °C 26,9 °C 44 % 1015,8 hPa 0,0 mm 4,9 km/h (1 Bft) W-NW 298 ° 1 min 0,000 mm 4,2 UV-I 617 W/m² 13,6 °C 26,9 °C 8,0 km/h (2 Bft)
15.08.2017 16:06 26,9 °C 26,9 °C 46 % 1015,8 hPa 0,0 mm 4,4 km/h (1 Bft) W-NW 299 ° 1 min 0,000 mm 4,1 UV-I 619 W/m² 14,3 °C 26,9 °C 6,4 km/h (2 Bft)
15.08.2017 16:07 27,0 °C 27,0 °C 45 % 1015,8 hPa 0,0 mm 3,2 km/h (1 Bft) W-NW 298 ° 1 min 0,000 mm 4,2 UV-I 615 W/m² 14,0 °C 27,0 °C 4,8 km/h (1 Bft)
15.08.2017 16:08 27,0 °C 27,0 °C 44 % 1015,8 hPa 0,0 mm 2,9 km/h (1 Bft) W-NW 296 ° 1 min 0,000 mm 4,2 UV-I 606 W/m² 13,7 °C 27,0 °C 4,8 km/h (1 Bft)
15.08.2017 16:09 27,0 °C 27,0 °C 45 % 1015,7 hPa 0,0 mm 3,7 km/h (1 Bft) W-NW 296 ° 1 min 0,000 mm 4,1 UV-I 612 W/m² 14,0 °C 27,0 °C 6,4 km/h (2 Bft)
15.08.2017 16:10 27,1 °C 27,1 °C 47 % 1015,8 hPa 0,0 mm 5,1 km/h (1 Bft) W-NW 288 ° 1 min 0,000 mm 4,1 UV-I 610 W/m² 14,8 °C 27,1 °C 6,4 km/h (2 Bft)
15.08.2017 16:11 27,1 °C 27,1 °C 47 % 1015,7 hPa 0,0 mm 5,5 km/h (1 Bft) NW 321 ° 1 min 0,000 mm 4,1 UV-I 608 W/m² 14,8 °C 27,1 °C 8,0 km/h (2 Bft)
15.08.2017 16:12 27,1 °C 27,1 °C 49 % 1015,8 hPa 0,0 mm 4,5 km/h (1 Bft) NW 324 ° 1 min 0,000 mm 4,1 UV-I 605 W/m² 15,4 °C 27,1 °C 6,4 km/h (2 Bft)
15.08.2017 16:13 27,1 °C 27,1 °C 45 % 1015,7 hPa 0,0 mm 3,3 km/h (1 Bft) NW 311 ° 1 min 0,000 mm 4,1 UV-I 603 W/m² 14,1 °C 27,1 °C 6,4 km/h (2 Bft)
15.08.2017 16:14 27,1 °C 27,1 °C 48 % 1015,7 hPa 0,0 mm 5,0 km/h (1 Bft) NW 323 ° 1 min 0,000 mm 4,0 UV-I 584 W/m² 15,1 °C 27,1 °C 8,0 km/h (2 Bft)
15.08.2017 16:15 27,0 °C 27,1 °C 48 % 1015,7 hPa 0,0 mm 6,5 km/h (2 Bft) W-NW 302 ° 1 min 0,000 mm 4,0 UV-I 584 W/m² 15,0 °C 27,0 °C 9,7 km/h (2 Bft)
15.08.2017 16:16 27,1 °C 27,1 °C 48 % 1015,7 hPa 0,0 mm 7,2 km/h (2 Bft) W 278 ° 0 min 0,000 mm 2,4 UV-I 76 W/m² 15,1 °C 27,1 °C 12,9 km/h (3 Bft)
15.08.2017 16:17 27,0 °C 27,1 °C 47 % 1015,7 hPa 0,0 mm 5,8 km/h (2 Bft) NW 325 ° 0 min 0,000 mm 2,1 UV-I 74 W/m² 14,7 °C 27,0 °C 8,0 km/h (2 Bft)
15.08.2017 16:18 27,0 °C 27,0 °C 45 % 1015,8 hPa 0,0 mm 6,3 km/h (2 Bft) NW 310 ° 0 min 0,000 mm 2,1 UV-I 76 W/m² 14,0 °C 27,0 °C 8,0 km/h (2 Bft)
15.08.2017 16:19 26,9 °C 27,0 °C 45 % 1015,7 hPa 0,0 mm 3,8 km/h (1 Bft) W-NW 302 ° 0 min 0,000 mm 2,1 UV-I 79 W/m² 13,9 °C 26,9 °C 6,4 km/h (2 Bft)
15.08.2017 16:20 26,9 °C 26,9 °C 45 % 1015,8 hPa 0,0 mm 5,6 km/h (1 Bft) N-NW 341 ° 0 min 0,000 mm 2,0 UV-I 76 W/m² 13,9 °C 26,9 °C 8,0 km/h (2 Bft)
15.08.2017 16:21 27,1 °C 27,1 °C 47 % 1015,7 hPa 0,0 mm 5,1 km/h (1 Bft) NW 309 ° 0 min 0,000 mm 2,0 UV-I 70 W/m² 14,8 °C 27,1 °C 8,0 km/h (2 Bft)
15.08.2017 16:22 27,1 °C 27,1 °C 47 % 1015,7 hPa 0,0 mm 1,4 km/h (1 Bft) NW 309 ° 0 min 0,000 mm 2,0 UV-I 70 W/m² 14,8 °C 27,1 °C 3,2 km/h (1 Bft)
15.08.2017 16:23 27,1 °C 27,1 °C 46 % 1015,7 hPa 0,0 mm 1,7 km/h (1 Bft) NW 324 ° 0 min 0,000 mm 2,0 UV-I 69 W/m² 14,5 °C 27,1 °C 8,0 km/h (2 Bft)
15.08.2017 16:24 27,1 °C 27,1 °C 46 % 1015,7 hPa 0,0 mm 5,2 km/h (1 Bft) N-NW 337 ° 0 min 0,000 mm 2,0 UV-I 69 W/m² 14,5 °C 27,1 °C 8,0 km/h (2 Bft)
15.08.2017 16:25 27,0 °C 27,1 °C 47 % 1015,7 hPa 0,0 mm 4,7 km/h (1 Bft) N-NO 17 ° 0 min 0,000 mm 2,0 UV-I 69 W/m² 14,7 °C 27,0 °C 6,4 km/h (2 Bft)
15.08.2017 16:26 27,1 °C 27,1 °C 45 % 1015,7 hPa 0,0 mm 4,3 km/h (1 Bft) N 360 ° 0 min 0,000 mm 1,9 UV-I 67 W/m² 14,1 °C 27,1 °C 6,4 km/h (2 Bft)
15.08.2017 16:27 27,1 °C 27,1 °C 44 % 1015,8 hPa 0,0 mm 2,1 km/h (1 Bft) N 360 ° 0 min 0,000 mm 1,9 UV-I 67 W/m² 13,8 °C 27,1 °C 4,8 km/h (1 Bft)
15.08.2017 16:28 27,1 °C 27,1 °C 43 % 1015,8 hPa 0,0 mm 0,8 km/h (0 Bft) N 360 ° 0 min 0,000 mm 1,9 UV-I 67 W/m² 13,4 °C 27,1 °C 3,2 km/h (1 Bft)
15.08.2017 16:29 26,9 °C 27,1 °C 44 % 1015,7 hPa 0,0 mm 1,6 km/h (1 Bft) N 360 ° 0 min 0,000 mm 1,9 UV-I 67 W/m² 13,6 °C 26,9 °C 4,8 km/h (1 Bft)
15.08.2017 16:30 26,8 °C 26,9 °C 44 % 1015,7 hPa 0,0 mm 0,1 km/h (0 Bft) N 360 ° 0 min 0,000 mm 1,9 UV-I 65 W/m² 13,5 °C 26,8 °C 1,6 km/h (1 Bft)
15.08.2017 16:31 26,8 °C 26,8 °C 45 % 1015,8 hPa 0,0 mm 0,7 km/h (0 Bft) N 360 ° 0 min 0,000 mm 1,9 UV-I 67 W/m² 13,9 °C 26,8 °C 3,2 km/h (1 Bft)
15.08.2017 16:32 26,8 °C 26,8 °C 47 % 1015,7 hPa 0,0 mm 2,3 km/h (1 Bft) N 355 ° 0 min 0,000 mm 1,9 UV-I 67 W/m² 14,5 °C 26,8 °C 3,2 km/h (1 Bft)
15.08.2017 16:33 26,9 °C 26,9 °C 48 % 1015,8 hPa 0,0 mm 3,8 km/h (1 Bft) W 268 ° 0 min 0,000 mm 1,9 UV-I 69 W/m² 14,9 °C 26,9 °C 6,4 km/h (2 Bft)
15.08.2017 16:34 26,9 °C 26,9 °C 46 % 1015,8 hPa 0,0 mm 3,1 km/h (1 Bft) NW 318 ° 0 min 0,000 mm 1,9 UV-I 67 W/m² 14,3 °C 26,9 °C 4,8 km/h (1 Bft)
15.08.2017 16:35 26,9 °C 26,9 °C 46 % 1015,7 hPa 0,0 mm 4,2 km/h (1 Bft) W 273 ° 0 min 0,000 mm 1,8 UV-I 67 W/m² 14,3 °C 26,9 °C 8,0 km/h (2 Bft)
15.08.2017 16:36 26,9 °C 26,9 °C 45 % 1015,8 hPa 0,0 mm 7,5 km/h (2 Bft) NW 313 ° 0 min 0,000 mm 1,8 UV-I 67 W/m² 13,9 °C 26,9 °C 11,3 km/h (2 Bft)
15.08.2017 16:37 26,9 °C 26,9 °C 46 % 1015,8 hPa 0,0 mm 4,7 km/h (1 Bft) NW 317 ° 0 min 0,000 mm 1,8 UV-I 65 W/m² 14,3 °C 26,9 °C 8,0 km/h (2 Bft)
15.08.2017 16:38 26,9 °C 26,9 °C 46 % 1015,8 hPa 0,0 mm 2,7 km/h (1 Bft) NW 317 ° 0 min 0,000 mm 1,8 UV-I 65 W/m² 14,3 °C 26,9 °C 3,2 km/h (1 Bft)
15.08.2017 16:39 26,8 °C 26,9 °C 44 % 1015,8 hPa 0,0 mm 2,8 km/h (1 Bft) W-NW 290 ° 0 min 0,000 mm 1,8 UV-I 65 W/m² 13,5 °C 26,8 °C 3,2 km/h (1 Bft)
15.08.2017 16:40 26,8 °C 26,8 °C 43 % 1015,7 hPa 0,0 mm 1,5 km/h (1 Bft) W-NW 290 ° 0 min 0,000 mm 1,8 UV-I 65 W/m² 13,2 °C 26,8 °C 4,8 km/h (1 Bft)
15.08.2017 16:41 26,8 °C 26,8 °C 44 % 1015,7 hPa 0,0 mm 1,4 km/h (1 Bft) W 281 ° 0 min 0,000 mm 1,8 UV-I 65 W/m² 13,5 °C 26,8 °C 1,6 km/h (1 Bft)
15.08.2017 16:42 26,8 °C 26,8 °C 43 % 1015,7 hPa 0,0 mm 1,1 km/h (1 Bft) W 259 ° 0 min 0,000 mm 1,8 UV-I 65 W/m² 13,2 °C 26,8 °C 3,2 km/h (1 Bft)
15.08.2017 16:43 26,8 °C 26,8 °C 44 % 1015,6 hPa 0,0 mm 0,4 km/h (0 Bft) W 259 ° 0 min 0,000 mm 1,7 UV-I 65 W/m² 13,5 °C 26,8 °C 1,6 km/h (1 Bft)
15.08.2017 16:44 26,8 °C 26,8 °C 46 % 1015,7 hPa 0,0 mm 0,7 km/h (0 Bft) W 259 ° 0 min 0,000 mm 1,7 UV-I 76 W/m² 14,2 °C 26,8 °C 1,6 km/h (1 Bft)
15.08.2017 16:45 26,8 °C 26,8 °C 46 % 1015,7 hPa 0,0 mm 2,0 km/h (1 Bft) W 271 ° 0 min 0,000 mm 1,8 UV-I 76 W/m² 14,2 °C 26,8 °C 3,2 km/h (1 Bft)
15.08.2017 16:46 26,8 °C 26,8 °C 44 % 1015,6 hPa 0,0 mm 3,0 km/h (1 Bft) W-NW 288 ° 0 min 0,000 mm 1,8 UV-I 76 W/m² 13,5 °C 26,8 °C 4,8 km/h (1 Bft)
15.08.2017 16:47 26,8 °C 26,8 °C 47 % 1015,7 hPa 0,0 mm 3,7 km/h (1 Bft) NW 317 ° 0 min 0,000 mm 2,0 UV-I 197 W/m² 14,5 °C 26,8 °C 4,8 km/h (1 Bft)
15.08.2017 16:48 26,8 °C 26,8 °C 45 % 1015,6 hPa 0,0 mm 3,2 km/h (1 Bft) W-NW 295 ° 0 min 0,000 mm 1,9 UV-I 197 W/m² 13,9 °C 26,8 °C 4,8 km/h (1 Bft)
15.08.2017 16:49 26,7 °C 26,8 °C 45 % 1015,6 hPa 0,0 mm 2,7 km/h (1 Bft) W-NW 298 ° 0 min 0,000 mm 1,7 UV-I 67 W/m² 13,8 °C 26,7 °C 3,2 km/h (1 Bft)
15.08.2017 16:50 26,7 °C 26,7 °C 47 % 1015,7 hPa 0,0 mm 3,4 km/h (1 Bft) N-NW 337 ° 0 min 0,000 mm 1,7 UV-I 63 W/m² 14,4 °C 26,7 °C 6,4 km/h (2 Bft)
15.08.2017 16:51 26,8 °C 26,8 °C 48 % 1015,6 hPa 0,0 mm 2,3 km/h (1 Bft) N-NW 329 ° 0 min 0,000 mm 1,7 UV-I 63 W/m² 14,9 °C 26,8 °C 6,4 km/h (2 Bft)
15.08.2017 16:52 26,8 °C 26,8 °C 47 % 1015,7 hPa 0,0 mm 3,8 km/h (1 Bft) N-NW 329 ° 0 min 0,000 mm 1,7 UV-I 63 W/m² 14,5 °C 26,8 °C 4,8 km/h (1 Bft)
15.08.2017 16:53 26,8 °C 26,8 °C 47 % 1015,7 hPa 0,0 mm 3,3 km/h (1 Bft) NW 312 ° 0 min 0,000 mm 1,7 UV-I 65 W/m² 14,5 °C 26,8 °C 4,8 km/h (1 Bft)
15.08.2017 16:54 26,8 °C 26,8 °C 45 % 1015,7 hPa 0,0 mm 4,4 km/h (1 Bft) W-NW 296 ° 0 min 0,000 mm 1,7 UV-I 65 W/m² 13,9 °C 26,8 °C 4,8 km/h (1 Bft)
15.08.2017 16:55 26,8 °C 26,8 °C 46 % 1015,6 hPa 0,0 mm 3,7 km/h (1 Bft) W-NW 296 ° 0 min 0,000 mm 1,7 UV-I 65 W/m² 14,2 °C 26,8 °C 4,8 km/h (1 Bft)
15.08.2017 16:56 26,8 °C 26,8 °C 49 % 1015,6 hPa 0,0 mm 3,2 km/h (1 Bft) W 267 ° 0 min 0,000 mm 1,7 UV-I 65 W/m² 15,2 °C 26,8 °C 4,8 km/h (1 Bft)
15.08.2017 16:57 26,8 °C 26,8 °C 47 % 1015,6 hPa 0,0 mm 2,6 km/h (1 Bft) W 267 ° 0 min 0,000 mm 1,6 UV-I 63 W/m² 14,5 °C 26,8 °C 3,2 km/h (1 Bft)
15.08.2017 16:58 26,7 °C 26,8 °C 45 % 1015,5 hPa 0,0 mm 3,6 km/h (1 Bft) W-NW 289 ° 0 min 0,000 mm 1,6 UV-I 63 W/m² 13,8 °C 26,7 °C 9,7 km/h (2 Bft)
15.08.2017 16:59 26,7 °C 26,7 °C 48 % 1015,6 hPa 0,0 mm 4,4 km/h (1 Bft) W 262 ° 0 min 0,000 mm 1,6 UV-I 63 W/m² 14,8 °C 26,7 °C 6,4 km/h (2 Bft)
15.08.2017 17:00 26,7 °C 26,7 °C 47 % 1015,6 hPa 0,0 mm 3,5 km/h (1 Bft) W-NW 294 ° 0 min 0,000 mm 1,6 UV-I 63 W/m² 14,4 °C 26,7 °C 4,8 km/h (1 Bft)
15.08.2017 17:01 26,6 °C 26,7 °C 47 % 1015,6 hPa 0,0 mm 2,3 km/h (1 Bft) W-NW 294 ° 0 min 0,178 mm 1,6 UV-I 63 W/m² 14,3 °C 26,6 °C 3,2 km/h (1 Bft)
15.08.2017 17:02 26,6 °C 26,6 °C 50 % 1015,6 hPa 0,0 mm 2,8 km/h (1 Bft) W-SW 246 ° 0 min 0,000 mm 1,6 UV-I 62 W/m² 15,3 °C 26,6 °C 4,8 km/h (1 Bft)
15.08.2017 17:03 26,6 °C 26,6 °C 52 % 1015,6 hPa 0,0 mm 5,5 km/h (1 Bft) W-SW 248 ° 0 min 0,000 mm 1,5 UV-I 62 W/m² 15,9 °C 26,6 °C 8,0 km/h (2 Bft)
15.08.2017 17:04 26,5 °C 26,6 °C 49 % 1015,6 hPa 0,0 mm 7,1 km/h (2 Bft) W-NW 282 ° 0 min 0,000 mm 1,5 UV-I 62 W/m² 14,9 °C 26,5 °C 11,3 km/h (2 Bft)
15.08.2017 17:05 26,5 °C 26,5 °C 53 % 1015,6 hPa 0,0 mm 4,5 km/h (1 Bft) N-NW 331 ° 0 min 0,000 mm 1,5 UV-I 62 W/m² 16,1 °C 26,5 °C 8,0 km/h (2 Bft)
15.08.2017 17:06 26,4 °C 26,5 °C 50 % 1015,5 hPa 0,0 mm 2,8 km/h (1 Bft) W-NW 295 ° 0 min 0,000 mm 1,5 UV-I 62 W/m² 15,1 °C 26,4 °C 4,8 km/h (1 Bft)
15.08.2017 17:07 26,5 °C 26,5 °C 50 % 1015,5 hPa 0,0 mm 4,8 km/h (1 Bft) W-NW 294 ° 0 min 0,000 mm 1,5 UV-I 62 W/m² 15,2 °C 26,5 °C 6,4 km/h (2 Bft)
15.08.2017 17:08 26,4 °C 26,5 °C 54 % 1015,5 hPa 0,0 mm 3,0 km/h (1 Bft) W-NW 294 ° 0 min 0,000 mm 1,4 UV-I 65 W/m² 16,3 °C 26,4 °C 4,8 km/h (1 Bft)
15.08.2017 17:09 26,4 °C 26,4 °C 48 % 1015,5 hPa 0,0 mm 0,3 km/h (0 Bft) W-NW 294 ° 0 min 0,000 mm 1,4 UV-I 70 W/m² 14,5 °C 26,4 °C 1,6 km/h (1 Bft)
15.08.2017 17:10 26,4 °C 26,4 °C 49 % 1015,5 hPa 0,0 mm 0,7 km/h (0 Bft) W-NW 294 ° 0 min 0,000 mm 1,5 UV-I 76 W/m² 14,8 °C 26,4 °C 3,2 km/h (1 Bft)
15.08.2017 17:11 26,4 °C 26,4 °C 49 % 1015,5 hPa 0,0 mm 4,0 km/h (1 Bft) W 281 ° 0 min 0,000 mm 1,5 UV-I 86 W/m² 14,8 °C 26,4 °C 8,0 km/h (2 Bft)
15.08.2017 17:12 26,4 °C 26,5 °C 48 % 1015,5 hPa 0,0 mm 4,5 km/h (1 Bft) NW 309 ° 0 min 0,000 mm 1,5 UV-I 83 W/m² 14,5 °C 26,4 °C 8,0 km/h (2 Bft)
15.08.2017 17:13 26,5 °C 26,5 °C 48 % 1015,5 hPa 0,0 mm 3,5 km/h (1 Bft) NW 306 ° 0 min 0,000 mm 1,5 UV-I 79 W/m² 14,6 °C 26,5 °C 4,8 km/h (1 Bft)
15.08.2017 17:14 26,5 °C 26,5 °C 47 % 1015,5 hPa 0,0 mm 3,8 km/h (1 Bft) W-NW 301 ° 0 min 0,000 mm 1,5 UV-I 79 W/m² 14,3 °C 26,5 °C 4,8 km/h (1 Bft)
15.08.2017 17:15 26,5 °C 26,5 °C 48 % 1015,5 hPa 0,0 mm 5,8 km/h (2 Bft) NW 324 ° 0 min 0,000 mm 1,5 UV-I 93 W/m² 14,6 °C 26,5 °C 6,4 km/h (2 Bft)
15.08.2017 17:16 26,5 °C 26,5 °C 48 % 1015,5 hPa 0,0 mm 2,1 km/h (1 Bft) NW 324 ° 0 min 0,000 mm 1,5 UV-I 118 W/m² 14,6 °C 26,5 °C 3,2 km/h (1 Bft)
15.08.2017 17:17 26,5 °C 26,5 °C 48 % 1015,5 hPa 0,0 mm 2,7 km/h (1 Bft) NW 309 ° 0 min 0,000 mm 1,5 UV-I 120 W/m² 14,6 °C 26,5 °C 4,8 km/h (1 Bft)
15.08.2017 17:18 26,5 °C 26,6 °C 50 % 1015,5 hPa 0,0 mm 3,3 km/h (1 Bft) NW 307 ° 0 min 0,000 mm 1,5 UV-I 102 W/m² 15,2 °C 26,5 °C 6,4 km/h (2 Bft)
15.08.2017 17:19 26,5 °C 26,5 °C 49 % 1015,5 hPa 0,0 mm 2,8 km/h (1 Bft) N-NW 336 ° 0 min 0,000 mm 1,5 UV-I 84 W/m² 14,9 °C 26,5 °C 4,8 km/h (1 Bft)
15.08.2017 17:20 26,4 °C 26,5 °C 52 % 1015,4 hPa 0,0 mm 3,9 km/h (1 Bft) N-NW 335 ° 0 min 0,000 mm 1,5 UV-I 84 W/m² 15,7 °C 26,4 °C 6,4 km/h (2 Bft)
15.08.2017 17:21 26,5 °C 26,5 °C 49 % 1015,4 hPa 0,0 mm 1,5 km/h (1 Bft) N-NW 335 ° 0 min 0,000 mm 1,5 UV-I 83 W/m² 14,9 °C 26,5 °C 3,2 km/h (1 Bft)
15.08.2017 17:22 26,5 °C 26,5 °C 49 % 1015,4 hPa 0,0 mm 0,7 km/h (0 Bft) N-NW 335 ° 0 min 0,000 mm 1,4 UV-I 83 W/m² 14,9 °C 26,5 °C 3,2 km/h (1 Bft)
15.08.2017 17:23 26,4 °C 26,5 °C 55 % 1015,4 hPa 0,0 mm 2,0 km/h (1 Bft) N-NW 335 ° 0 min 0,000 mm 1,4 UV-I 83 W/m² 16,6 °C 26,4 °C 3,2 km/h (1 Bft)
15.08.2017 17:24 26,4 °C 26,4 °C 53 % 1015,4 hPa 0,0 mm 0,2 km/h (0 Bft) N-NW 335 ° 0 min 0,000 mm 1,4 UV-I 76 W/m² 16,0 °C 26,4 °C 1,6 km/h (1 Bft)
15.08.2017 17:25 26,4 °C 26,4 °C 49 % 1015,4 hPa 0,0 mm 0,0 km/h (0 Bft) N-NW 335 ° 0 min 0,000 mm 1,4 UV-I 77 W/m² 14,8 °C 26,4 °C 0,0 km/h (0 Bft)
15.08.2017 17:26 26,4 °C 26,4 °C 50 % 1015,4 hPa 0,0 mm 0,0 km/h (0 Bft) N-NW 335 ° 0 min 0,000 mm 1,4 UV-I 77 W/m² 15,1 °C 26,4 °C 0,0 km/h (0 Bft)
15.08.2017 17:27 26,2 °C 26,4 °C 53 % 1015,3 hPa 0,0 mm 0,9 km/h (0 Bft) N-NW 335 ° 0 min 0,000 mm 1,4 UV-I 77 W/m² 15,8 °C 26,2 °C 1,6 km/h (1 Bft)
15.08.2017 17:28 26,1 °C 26,2 °C 54 % 1015,3 hPa 0,0 mm 0,1 km/h (0 Bft) N-NW 335 ° 0 min 0,000 mm 1,4 UV-I 77 W/m² 16,0 °C 26,1 °C 1,6 km/h (1 Bft)
15.08.2017 17:29 25,9 °C 26,1 °C 53 % 1015,3 hPa 0,0 mm 1,4 km/h (1 Bft) N-NW 335 ° 0 min 0,000 mm 1,4 UV-I 79 W/m² 15,6 °C 25,9 °C 3,2 km/h (1 Bft)
15.08.2017 17:30 25,9 °C 25,9 °C 53 % 1015,3 hPa 0,0 mm 0,4 km/h (0 Bft) N-NW 335 ° 0 min 0,000 mm 1,4 UV-I 79 W/m² 15,6 °C 25,9 °C 1,6 km/h (1 Bft)
15.08.2017 17:31 25,9 °C 25,9 °C 48 % 1015,2 hPa 0,0 mm 0,9 km/h (0 Bft) N-NW 335 ° 0 min 0,000 mm 1,4 UV-I 81 W/m² 14,0 °C 25,9 °C 4,8 km/h (1 Bft)
15.08.2017 17:32 26,0 °C 26,0 °C 50 % 1015,3 hPa 0,0 mm 3,6 km/h (1 Bft) NW 319 ° 0 min 0,000 mm 1,4 UV-I 81 W/m² 14,8 °C 26,0 °C 6,4 km/h (2 Bft)
15.08.2017 17:33 26,2 °C 26,2 °C 48 % 1015,2 hPa 0,0 mm 2,3 km/h (1 Bft) N-NW 337 ° 0 min 0,000 mm 1,4 UV-I 84 W/m² 14,3 °C 26,2 °C 4,8 km/h (1 Bft)
15.08.2017 17:34 26,2 °C 26,2 °C 48 % 1015,2 hPa 0,0 mm 3,5 km/h (1 Bft) N 351 ° 0 min 0,000 mm 1,4 UV-I 84 W/m² 14,3 °C 26,2 °C 4,8 km/h (1 Bft)
15.08.2017 17:35 26,3 °C 26,3 °C 50 % 1015,2 hPa 0,0 mm 3,9 km/h (1 Bft) N-NW 330 ° 0 min 0,000 mm 1,4 UV-I 83 W/m² 15,0 °C 26,3 °C 6,4 km/h (2 Bft)
15.08.2017 17:36 26,4 °C 26,4 °C 49 % 1015,2 hPa 0,0 mm 3,6 km/h (1 Bft) N-NW 332 ° 0 min 0,000 mm 1,4 UV-I 83 W/m² 14,8 °C 26,4 °C 4,8 km/h (1 Bft)
15.08.2017 17:37 26,5 °C 26,5 °C 51 % 1015,2 hPa 0,0 mm 0,3 km/h (0 Bft) N-NW 332 ° 0 min 0,000 mm 1,4 UV-I 84 W/m² 15,5 °C 26,5 °C 1,6 km/h (1 Bft)
15.08.2017 17:38 26,5 °C 26,5 °C 50 % 1015,2 hPa 0,0 mm 3,3 km/h (1 Bft) N-NW 338 ° 0 min 0,000 mm 1,3 UV-I 83 W/m² 15,2 °C 26,5 °C 6,4 km/h (2 Bft)
15.08.2017 17:39 26,6 °C 26,6 °C 49 % 1015,2 hPa 0,0 mm 3,6 km/h (1 Bft) NW 318 ° 0 min 0,000 mm 1,3 UV-I 83 W/m² 15,0 °C 26,6 °C 6,4 km/h (2 Bft)
15.08.2017 17:40 26,6 °C 26,6 °C 48 % 1015,2 hPa 0,0 mm 3,5 km/h (1 Bft) W-NW 289 ° 0 min 0,000 mm 1,3 UV-I 81 W/m² 14,7 °C 26,6 °C 4,8 km/h (1 Bft)
15.08.2017 17:41 26,6 °C 26,6 °C 47 % 1015,2 hPa 0,0 mm 2,5 km/h (1 Bft) W-NW 289 ° 0 min 0,000 mm 1,3 UV-I 81 W/m² 14,3 °C 26,6 °C 4,8 km/h (1 Bft)
15.08.2017 17:42 26,6 °C 26,7 °C 46 % 1015,2 hPa 0,0 mm 2,1 km/h (1 Bft) NW 313 ° 0 min 0,000 mm 1,3 UV-I 79 W/m² 14,0 °C 26,6 °C 3,2 km/h (1 Bft)
15.08.2017 17:43 26,6 °C 26,7 °C 49 % 1015,2 hPa 0,0 mm 2,8 km/h (1 Bft) NW 314 ° 0 min 0,000 mm 1,3 UV-I 77 W/m² 15,0 °C 26,6 °C 4,8 km/h (1 Bft)
15.08.2017 17:44 26,6 °C 26,6 °C 47 % 1015,2 hPa 0,0 mm 3,5 km/h (1 Bft) NW 314 ° 0 min 0,000 mm 1,3 UV-I 77 W/m² 14,3 °C 26,6 °C 4,8 km/h (1 Bft)
15.08.2017 17:45 26,6 °C 26,6 °C 48 % 1015,2 hPa 0,0 mm 3,1 km/h (1 Bft) NW 308 ° 0 min 0,000 mm 1,3 UV-I 77 W/m² 14,7 °C 26,6 °C 6,4 km/h (2 Bft)
15.08.2017 17:46 26,6 °C 26,6 °C 47 % 1015,2 hPa 0,0 mm 3,3 km/h (1 Bft) NW 321 ° 0 min 0,000 mm 1,3 UV-I 76 W/m² 14,3 °C 26,6 °C 4,8 km/h (1 Bft)
15.08.2017 17:47 26,6 °C 26,6 °C 50 % 1015,2 hPa 0,0 mm 1,5 km/h (1 Bft) NW 321 ° 0 min 0,000 mm 1,2 UV-I 72 W/m² 15,3 °C 26,6 °C 4,8 km/h (1 Bft)
15.08.2017 17:48 26,6 °C 26,6 °C 50 % 1015,3 hPa 0,0 mm 3,9 km/h (1 Bft) N-NW 336 ° 0 min 0,000 mm 1,2 UV-I 72 W/m² 15,3 °C 26,6 °C 8,0 km/h (2 Bft)
15.08.2017 17:49 26,6 °C 26,6 °C 49 % 1015,3 hPa 0,0 mm 3,3 km/h (1 Bft) N 5 ° 0 min 0,000 mm 1,2 UV-I 72 W/m² 15,0 °C 26,6 °C 6,4 km/h (2 Bft)
15.08.2017 17:50 26,6 °C 26,6 °C 49 % 1015,3 hPa 0,0 mm 2,4 km/h (1 Bft) N 5 ° 0 min 0,000 mm 1,2 UV-I 72 W/m² 15,0 °C 26,6 °C 3,2 km/h (1 Bft)
15.08.2017 17:51 26,6 °C 26,6 °C 50 % 1015,3 hPa 0,0 mm 4,0 km/h (1 Bft) N-NO 19 ° 0 min 0,000 mm 1,2 UV-I 76 W/m² 15,3 °C 26,6 °C 6,4 km/h (2 Bft)
15.08.2017 17:52 26,7 °C 26,7 °C 46 % 1015,2 hPa 0,0 mm 4,3 km/h (1 Bft) N-NO 18 ° 0 min 0,000 mm 1,2 UV-I 74 W/m² 14,1 °C 26,7 °C 8,0 km/h (2 Bft)
15.08.2017 17:53 26,7 °C 26,7 °C 46 % 1015,3 hPa 0,0 mm 3,4 km/h (1 Bft) N-NO 18 ° 0 min 0,000 mm 1,2 UV-I 76 W/m² 14,1 °C 26,7 °C 6,4 km/h (2 Bft)
15.08.2017 17:54 26,8 °C 26,8 °C 47 % 1015,3 hPa 0,0 mm 4,1 km/h (1 Bft) N-NO 25 ° 0 min 0,000 mm 1,2 UV-I 76 W/m² 14,5 °C 26,8 °C 6,4 km/h (2 Bft)
15.08.2017 17:55 26,8 °C 26,8 °C 45 % 1015,3 hPa 0,0 mm 2,5 km/h (1 Bft) N-NO 25 ° 0 min 0,000 mm 1,2 UV-I 90 W/m² 13,9 °C 26,8 °C 3,2 km/h (1 Bft)
15.08.2017 17:56 26,8 °C 26,8 °C 45 % 1015,3 hPa 0,0 mm 1,2 km/h (1 Bft) N-NO 25 ° 0 min 0,000 mm 1,2 UV-I 81 W/m² 13,9 °C 26,8 °C 3,2 km/h (1 Bft)
15.08.2017 17:57 26,8 °C 26,8 °C 46 % 1015,3 hPa 0,0 mm 0,3 km/h (0 Bft) N-NO 25 ° 0 min 0,000 mm 1,1 UV-I 69 W/m² 14,2 °C 26,8 °C 1,6 km/h (1 Bft)
15.08.2017 17:58 26,7 °C 26,8 °C 50 % 1015,3 hPa 0,0 mm 0,4 km/h (0 Bft) N-NO 25 ° 0 min 0,000 mm 1,1 UV-I 67 W/m² 15,4 °C 26,7 °C 1,6 km/h (1 Bft)
15.08.2017 17:59 26,5 °C 26,7 °C 48 % 1015,3 hPa 0,0 mm 1,5 km/h (1 Bft) N-NO 24 ° 0 min 0,000 mm 1,1 UV-I 69 W/m² 14,6 °C 26,5 °C 3,2 km/h (1 Bft)
15.08.2017 18:00 26,4 °C 26,5 °C 50 % 1015,4 hPa 0,0 mm 2,1 km/h (1 Bft) N-NO 24 ° 0 min 0,000 mm 1,1 UV-I 69 W/m² 15,1 °C 26,4 °C 3,2 km/h (1 Bft)
15.08.2017 18:01 26,2 °C 26,4 °C 52 % 1015,4 hPa 0,0 mm 2,3 km/h (1 Bft) N-NO 24 ° 0 min 0,076 mm 1,1 UV-I 70 W/m² 15,6 °C 26,2 °C 3,2 km/h (1 Bft)
15.08.2017 18:02 26,1 °C 26,2 °C 49 % 1015,4 hPa 0,0 mm 1,8 km/h (1 Bft) N-NW 348 ° 0 min 0,000 mm 1,1 UV-I 70 W/m² 14,5 °C 26,1 °C 3,2 km/h (1 Bft)
15.08.2017 18:03 26,1 °C 26,1 °C 49 % 1015,4 hPa 0,0 mm 3,8 km/h (1 Bft) NW 316 ° 0 min 0,000 mm 1,1 UV-I 70 W/m² 14,5 °C 26,1 °C 8,0 km/h (2 Bft)
15.08.2017 18:04 26,1 °C 26,1 °C 48 % 1015,4 hPa 0,0 mm 4,8 km/h (1 Bft) NW 322 ° 0 min 0,000 mm 1,1 UV-I 70 W/m² 14,2 °C 26,1 °C 6,4 km/h (2 Bft)
15.08.2017 18:05 26,1 °C 26,1 °C 47 % 1015,4 hPa 0,0 mm 1,6 km/h (1 Bft) NW 322 ° 0 min 0,000 mm 1,1 UV-I 70 W/m² 13,9 °C 26,1 °C 3,2 km/h (1 Bft)
15.08.2017 18:06 26,2 °C 26,2 °C 48 % 1015,4 hPa 0,0 mm 2,7 km/h (1 Bft) NW 322 ° 0 min 0,000 mm 1,1 UV-I 70 W/m² 14,3 °C 26,2 °C 3,2 km/h (1 Bft)
15.08.2017 18:07 26,2 °C 26,2 °C 47 % 1015,3 hPa 0,0 mm 0,6 km/h (0 Bft) NW 322 ° 0 min 0,000 mm 1,1 UV-I 69 W/m² 14,0 °C 26,2 °C 3,2 km/h (1 Bft)
15.08.2017 18:08 26,3 °C 26,3 °C 48 % 1015,4 hPa 0,0 mm 1,7 km/h (1 Bft) NW 313 ° 0 min 0,000 mm 1,1 UV-I 72 W/m² 14,4 °C 26,3 °C 4,8 km/h (1 Bft)
15.08.2017 18:09 26,2 °C 26,3 °C 49 % 1015,4 hPa 0,0 mm 3,7 km/h (1 Bft) W-NW 282 ° 0 min 0,000 mm 1,0 UV-I 72 W/m² 14,6 °C 26,2 °C 6,4 km/h (2 Bft)
15.08.2017 18:10 26,3 °C 26,3 °C 50 % 1015,4 hPa 0,0 mm 2,1 km/h (1 Bft) N 9 ° 0 min 0,000 mm 1,0 UV-I 72 W/m² 15,0 °C 26,3 °C 4,8 km/h (1 Bft)
15.08.2017 18:11 26,3 °C 26,3 °C 51 % 1015,4 hPa 0,0 mm 3,9 km/h (1 Bft) N-NO 19 ° 0 min 0,000 mm 1,0 UV-I 69 W/m² 15,3 °C 26,3 °C 6,4 km/h (2 Bft)
15.08.2017 18:12 26,2 °C 26,3 °C 50 % 1015,4 hPa 0,0 mm 1,5 km/h (1 Bft) N-NO 19 ° 0 min 0,000 mm 1,0 UV-I 65 W/m² 14,9 °C 26,2 °C 3,2 km/h (1 Bft)
15.08.2017 18:13 26,1 °C 26,2 °C 51 % 1015,4 hPa 0,0 mm 0,1 km/h (0 Bft) N-NO 19 ° 0 min 0,000 mm 1,0 UV-I 63 W/m² 15,2 °C 26,1 °C 1,6 km/h (1 Bft)
15.08.2017 18:14 25,9 °C 26,1 °C 53 % 1015,4 hPa 0,0 mm 0,4 km/h (0 Bft) N-NO 19 ° 0 min 0,000 mm 1,0 UV-I 63 W/m² 15,6 °C 25,9 °C 1,6 km/h (1 Bft)
15.08.2017 18:15 25,7 °C 25,9 °C 54 % 1015,5 hPa 0,0 mm 0,4 km/h (0 Bft) N-NO 19 ° 0 min 0,000 mm 0,9 UV-I 63 W/m² 15,7 °C 25,7 °C 1,6 km/h (1 Bft)
15.08.2017 18:16 25,6 °C 25,7 °C 55 % 1015,5 hPa 0,0 mm 0,0 km/h (0 Bft) N-NO 19 ° 0 min 0,000 mm 0,9 UV-I 63 W/m² 15,9 °C 25,6 °C 0,0 km/h (0 Bft)
15.08.2017 18:17 25,4 °C 25,6 °C 56 % 1015,5 hPa 0,0 mm 0,0 km/h (0 Bft) N-NO 19 ° 0 min 0,000 mm 0,9 UV-I 63 W/m² 16,0 °C 25,4 °C 0,0 km/h (0 Bft)
15.08.2017 18:18 25,2 °C 25,4 °C 59 % 1015,4 hPa 0,0 mm 0,0 km/h (0 Bft) N-NO 19 ° 0 min 0,000 mm 0,9 UV-I 63 W/m² 16,6 °C 25,2 °C 0,0 km/h (0 Bft)
15.08.2017 18:19 25,0 °C 25,2 °C 63 % 1015,4 hPa 0,0 mm 0,0 km/h (0 Bft) N-NO 19 ° 0 min 0,000 mm 0,9 UV-I 63 W/m² 17,5 °C 25,0 °C 0,0 km/h (0 Bft)
15.08.2017 18:20 24,8 °C 25,0 °C 58 % 1015,5 hPa 0,0 mm 0,0 km/h (0 Bft) N-NO 19 ° 0 min 0,000 mm 0,9 UV-I 63 W/m² 16,0 °C 24,8 °C 0,0 km/h (0 Bft)
15.08.2017 18:21 24,7 °C 24,8 °C 59 % 1015,4 hPa 0,0 mm 0,0 km/h (0 Bft) N-NO 19 ° 0 min 0,000 mm 0,9 UV-I 63 W/m² 16,1 °C 24,7 °C 0,0 km/h (0 Bft)
15.08.2017 18:22 24,7 °C 24,7 °C 64 % 1015,5 hPa 0,0 mm 0,0 km/h (0 Bft) N-NO 19 ° 0 min 0,000 mm 0,9 UV-I 63 W/m² 17,4 °C 24,7 °C 0,0 km/h (0 Bft)
15.08.2017 18:23 24,6 °C 24,7 °C 59 % 1015,5 hPa 0,0 mm 0,6 km/h (0 Bft) N-NO 19 ° 0 min 0,000 mm 0,9 UV-I 69 W/m² 16,0 °C 24,6 °C 3,2 km/h (1 Bft)
15.08.2017 18:24 24,6 °C 24,6 °C 58 % 1015,5 hPa 0,0 mm 2,9 km/h (1 Bft) N-NO 19 ° 0 min 0,000 mm 0,9 UV-I 72 W/m² 15,8 °C 24,6 °C 3,2 km/h (1 Bft)
15.08.2017 18:25 24,7 °C 24,7 °C 54 % 1015,4 hPa 0,0 mm 0,5 km/h (0 Bft) N-NO 19 ° 0 min 0,000 mm 0,9 UV-I 72 W/m² 14,8 °C 24,7 °C 1,6 km/h (1 Bft)
15.08.2017 18:26 24,9 °C 24,9 °C 54 % 1015,4 hPa 0,0 mm 0,9 km/h (0 Bft) N-NO 19 ° 0 min 0,000 mm 0,9 UV-I 72 W/m² 14,9 °C 24,9 °C 3,2 km/h (1 Bft)
15.08.2017 18:27 25,1 °C 25,1 °C 54 % 1015,5 hPa 0,0 mm 0,6 km/h (0 Bft) N-NO 19 ° 0 min 0,000 mm 0,9 UV-I 76 W/m² 15,1 °C 25,1 °C 1,6 km/h (1 Bft)
15.08.2017 18:28 25,3 °C 25,3 °C 53 % 1015,4 hPa 0,0 mm 0,9 km/h (0 Bft) N-NO 19 ° 0 min 0,000 mm 0,9 UV-I 77 W/m² 15,0 °C 25,3 °C 3,2 km/h (1 Bft)
15.08.2017 18:29 25,4 °C 25,4 °C 52 % 1015,4 hPa 0,0 mm 1,5 km/h (1 Bft) N-NO 19 ° 0 min 0,000 mm 0,9 UV-I 77 W/m² 14,8 °C 25,4 °C 3,2 km/h (1 Bft)
15.08.2017 18:30 25,6 °C 25,6 °C 52 % 1015,4 hPa 0,0 mm 2,3 km/h (1 Bft) N-NW 339 ° 0 min 0,000 mm 0,9 UV-I 79 W/m² 15,0 °C 25,6 °C 4,8 km/h (1 Bft)
15.08.2017 18:31 25,6 °C 25,6 °C 52 % 1015,4 hPa 0,0 mm 0,8 km/h (0 Bft) N 349 ° 0 min 0,000 mm 0,9 UV-I 79 W/m² 15,0 °C 25,6 °C 3,2 km/h (1 Bft)
15.08.2017 18:32 25,5 °C 25,6 °C 57 % 1015,4 hPa 0,0 mm 0,1 km/h (0 Bft) N 349 ° 0 min 0,000 mm 0,9 UV-I 79 W/m² 16,3 °C 25,5 °C 1,6 km/h (1 Bft)
15.08.2017 18:33 25,3 °C 25,5 °C 59 % 1015,4 hPa 0,0 mm 0,5 km/h (0 Bft) N-NW 348 ° 0 min 0,000 mm 0,9 UV-I 83 W/m² 16,7 °C 25,3 °C 1,6 km/h (1 Bft)
15.08.2017 18:34 25,1 °C 25,3 °C 56 % 1015,4 hPa 0,0 mm 0,5 km/h (0 Bft) N-NW 348 ° 0 min 0,000 mm 0,9 UV-I 83 W/m² 15,7 °C 25,1 °C 1,6 km/h (1 Bft)
15.08.2017 18:35 25,1 °C 25,1 °C 56 % 1015,4 hPa 0,0 mm 0,0 km/h (0 Bft) N-NW 348 ° 0 min 0,000 mm 0,9 UV-I 83 W/m² 15,7 °C 25,1 °C 0,0 km/h (0 Bft)
15.08.2017 18:36 25,0 °C 25,1 °C 57 % 1015,4 hPa 0,0 mm 0,3 km/h (0 Bft) N-NW 348 ° 0 min 0,000 mm 0,9 UV-I 83 W/m² 15,9 °C 25,0 °C 1,6 km/h (1 Bft)
15.08.2017 18:37 25,0 °C 25,1 °C 55 % 1015,4 hPa 0,0 mm 1,5 km/h (1 Bft) N 355 ° 0 min 0,000 mm 0,8 UV-I 83 W/m² 15,3 °C 25,0 °C 3,2 km/h (1 Bft)
15.08.2017 18:38 25,1 °C 25,1 °C 57 % 1015,4 hPa 0,0 mm 0,5 km/h (0 Bft) N 360 ° 0 min 0,000 mm 0,8 UV-I 83 W/m² 16,0 °C 25,1 °C 3,2 km/h (1 Bft)
15.08.2017 18:39 25,1 °C 25,1 °C 56 % 1015,4 hPa 0,0 mm 0,0 km/h (0 Bft) N 360 ° 0 min 0,000 mm 0,8 UV-I 72 W/m² 15,7 °C 25,1 °C 0,0 km/h (0 Bft)
15.08.2017 18:40 24,9 °C 25,1 °C 55 % 1015,4 hPa 0,0 mm 0,0 km/h (0 Bft) N 360 ° 0 min 0,000 mm 0,8 UV-I 72 W/m² 15,2 °C 24,9 °C 0,0 km/h (0 Bft)
15.08.2017 18:41 24,9 °C 24,9 °C 55 % 1015,4 hPa 0,0 mm 0,0 km/h (0 Bft) N 360 ° 0 min 0,000 mm 0,8 UV-I 72 W/m² 15,2 °C 24,9 °C 0,0 km/h (0 Bft)
15.08.2017 18:42 24,8 °C 24,9 °C 60 % 1015,4 hPa 0,0 mm 0,0 km/h (0 Bft) N 360 ° 0 min 0,000 mm 0,8 UV-I 62 W/m² 16,5 °C 24,8 °C 0,0 km/h (0 Bft)
15.08.2017 18:43 24,7 °C 24,8 °C 59 % 1015,4 hPa 0,0 mm 1,6 km/h (1 Bft) NO 54 ° 0 min 0,000 mm 0,7 UV-I 60 W/m² 16,1 °C 24,7 °C 3,2 km/h (1 Bft)
15.08.2017 18:44 24,3 °C 24,7 °C 64 % 1015,4 hPa 0,0 mm 2,3 km/h (1 Bft) NO 54 ° 0 min 0,000 mm 0,7 UV-I 60 W/m² 17,0 °C 24,3 °C 3,2 km/h (1 Bft)
15.08.2017 18:45 24,1 °C 24,3 °C 59 % 1015,4 hPa 0,0 mm 0,8 km/h (0 Bft) NO 54 ° 0 min 0,000 mm 0,7 UV-I 58 W/m² 15,6 °C 24,1 °C 1,6 km/h (1 Bft)
15.08.2017 18:46 24,1 °C 24,1 °C 58 % 1015,4 hPa 0,0 mm 0,4 km/h (0 Bft) NO 54 ° 0 min 0,000 mm 0,7 UV-I 56 W/m² 15,3 °C 24,1 °C 1,6 km/h (1 Bft)
15.08.2017 18:47 24,1 °C 24,1 °C 58 % 1015,4 hPa 0,0 mm 0,7 km/h (0 Bft) NO 54 ° 0 min 0,000 mm 0,0 UV-I 54 W/m² 15,3 °C 24,1 °C 1,6 km/h (1 Bft)
15.08.2017 18:48 24,2 °C 24,2 °C 57 % 1015,3 hPa 0,0 mm 0,0 km/h (0 Bft) NO 54 ° 0 min 0,000 mm 0,0 UV-I 54 W/m² 15,1 °C 24,2 °C 0,0 km/h (0 Bft)
15.08.2017 18:49 24,1 °C 24,2 °C 57 % 1015,3 hPa 0,0 mm 1,9 km/h (1 Bft) O-NO 61 ° 0 min 0,000 mm 0,0 UV-I 54 W/m² 15,0 °C 24,1 °C 3,2 km/h (1 Bft)
15.08.2017 18:50 23,9 °C 24,1 °C 60 % 1015,4 hPa 0,0 mm 0,0 km/h (0 Bft) O-NO 61 ° 0 min 0,000 mm 0,0 UV-I 54 W/m² 15,7 °C 23,9 °C 0,0 km/h (0 Bft)
15.08.2017 18:51 24,1 °C 24,1 °C 56 % 1015,4 hPa 0,0 mm 0,0 km/h (0 Bft) O-NO 61 ° 0 min 0,000 mm 0,0 UV-I 54 W/m² 14,8 °C 24,1 °C 0,0 km/h (0 Bft)
15.08.2017 18:52 24,1 °C 24,1 °C 55 % 1015,3 hPa 0,0 mm 0,5 km/h (0 Bft) O-NO 61 ° 0 min 0,000 mm 0,0 UV-I 54 W/m² 14,5 °C 24,1 °C 1,6 km/h (1 Bft)
15.08.2017 18:53 24,2 °C 24,2 °C 55 % 1015,4 hPa 0,0 mm 0,1 km/h (0 Bft) O-NO 61 ° 0 min 0,000 mm 0,0 UV-I 54 W/m² 14,6 °C 24,2 °C 1,6 km/h (1 Bft)
15.08.2017 18:54 24,2 °C 24,2 °C 56 % 1015,3 hPa 0,0 mm 0,0 km/h (0 Bft) O-NO 61 ° 0 min 0,000 mm 0,0 UV-I 54 W/m² 14,9 °C 24,2 °C 0,0 km/h (0 Bft)
15.08.2017 18:55 24,2 °C 24,2 °C 56 % 1015,3 hPa 0,0 mm 0,0 km/h (0 Bft) O-NO 61 ° 0 min 0,000 mm 0,6 UV-I 56 W/m² 14,9 °C 24,2 °C 0,0 km/h (0 Bft)
15.08.2017 18:56 24,2 °C 24,2 °C 58 % 1015,3 hPa 0,0 mm 0,0 km/h (0 Bft) O-NO 61 ° 0 min 0,000 mm 0,6 UV-I 56 W/m² 15,4 °C 24,2 °C 0,0 km/h (0 Bft)
15.08.2017 18:57 24,2 °C 24,2 °C 58 % 1015,3 hPa 0,0 mm 0,0 km/h (0 Bft) O-NO 61 ° 0 min 0,000 mm 0,6 UV-I 56 W/m² 15,4 °C 24,2 °C 0,0 km/h (0 Bft)
15.08.2017 18:58 24,2 °C 24,2 °C 58 % 1015,3 hPa 0,0 mm 0,0 km/h (0 Bft) O-NO 61 ° 0 min 0,000 mm 0,6 UV-I 56 W/m² 15,4 °C 24,2 °C 0,0 km/h (0 Bft)
15.08.2017 18:59 24,1 °C 24,2 °C 57 % 1015,3 hPa 0,0 mm 0,0 km/h (0 Bft) O-NO 61 ° 0 min 0,000 mm 0,5 UV-I 67 W/m² 15,0 °C 24,1 °C 0,0 km/h (0 Bft)
15.08.2017 19:00 24,1 °C 24,1 °C 58 % 1015,3 hPa 0,0 mm 0,0 km/h (0 Bft) O-NO 61 ° 0 min 0,000 mm 0,5 UV-I 65 W/m² 15,3 °C 24,1 °C 0,0 km/h (0 Bft)
15.08.2017 19:01 24,1 °C 24,1 °C 59 % 1015,3 hPa 0,0 mm 0,0 km/h (0 Bft) O-NO 61 ° 0 min 0,051 mm 0,5 UV-I 65 W/m² 15,6 °C 24,1 °C 0,0 km/h (0 Bft)
15.08.2017 19:02 24,1 °C 24,1 °C 58 % 1015,3 hPa 0,0 mm 0,0 km/h (0 Bft) O-NO 61 ° 0 min 0,000 mm 0,5 UV-I 65 W/m² 15,3 °C 24,1 °C 0,0 km/h (0 Bft)
15.08.2017 19:03 24,1 °C 24,1 °C 57 % 1015,3 hPa 0,0 mm 0,0 km/h (0 Bft) O-NO 61 ° 0 min 0,000 mm 0,5 UV-I 65 W/m² 15,0 °C 24,1 °C 0,0 km/h (0 Bft)
15.08.2017 19:04 24,2 °C 24,2 °C 59 % 1015,3 hPa 0,0 mm 0,0 km/h (0 Bft) O-NO 61 ° 0 min 0,000 mm 0,5 UV-I 65 W/m² 15,7 °C 24,2 °C 0,0 km/h (0 Bft)
15.08.2017 19:05 24,1 °C 24,2 °C 62 % 1015,3 hPa 0,0 mm 0,0 km/h (0 Bft) O-NO 61 ° 0 min 0,000 mm 0,5 UV-I 65 W/m² 16,4 °C 24,1 °C 0,0 km/h (0 Bft)
15.08.2017 19:06 24,1 °C 24,1 °C 58 % 1015,3 hPa 0,0 mm 0,0 km/h (0 Bft) O-NO 61 ° 0 min 0,000 mm 0,5 UV-I 65 W/m² 15,3 °C 24,1 °C 0,0 km/h (0 Bft)
15.08.2017 19:07 24,0 °C 24,1 °C 61 % 1015,3 hPa 0,0 mm 0,0 km/h (0 Bft) O-NO 61 ° 0 min 0,000 mm 0,5 UV-I 65 W/m² 16,0 °C 24,0 °C 0,0 km/h (0 Bft)
15.08.2017 19:08 23,9 °C 24,0 °C 58 % 1015,4 hPa 0,0 mm 0,0 km/h (0 Bft) O-NO 61 ° 0 min 0,000 mm 0,5 UV-I 65 W/m² 15,1 °C 23,9 °C 0,0 km/h (0 Bft)
15.08.2017 19:09 23,8 °C 23,9 °C 63 % 1015,4 hPa 0,0 mm 0,0 km/h (0 Bft) O-NO 61 ° 0 min 0,000 mm 0,5 UV-I 65 W/m² 16,3 °C 23,8 °C 0,0 km/h (0 Bft)
15.08.2017 19:10 23,7 °C 23,8 °C 63 % 1015,3 hPa 0,0 mm 0,0 km/h (0 Bft) O-NO 61 ° 0 min 0,000 mm 0,5 UV-I 65 W/m² 16,2 °C 23,7 °C 0,0 km/h (0 Bft)
15.08.2017 19:11 23,7 °C 23,7 °C 62 % 1015,4 hPa 0,0 mm 0,0 km/h (0 Bft) O-NO 61 ° 0 min 0,000 mm 0,5 UV-I 65 W/m² 16,0 °C 23,7 °C 0,0 km/h (0 Bft)
15.08.2017 19:12 23,7 °C 23,7 °C 61 % 1015,4 hPa 0,0 mm 0,0 km/h (0 Bft) O-NO 61 ° 0 min 0,000 mm 0,5 UV-I 65 W/m² 15,7 °C 23,7 °C 0,0 km/h (0 Bft)
15.08.2017 19:13 23,8 °C 23,8 °C 60 % 1015,4 hPa 0,0 mm 0,0 km/h (0 Bft) O-NO 61 ° 0 min 0,000 mm 0,5 UV-I 65 W/m² 15,6 °C 23,8 °C 0,0 km/h (0 Bft)
15.08.2017 19:14 23,9 °C 23,9 °C 62 % 1015,4 hPa 0,0 mm 0,0 km/h (0 Bft) O-NO 61 ° 0 min 0,000 mm 0,5 UV-I 65 W/m² 16,2 °C 23,9 °C 0,0 km/h (0 Bft)
15.08.2017 19:15 23,9 °C 23,9 °C 61 % 1015,4 hPa 0,0 mm 0,0 km/h (0 Bft) O-NO 61 ° 0 min 0,000 mm 0,0 UV-I 65 W/m² 15,9 °C 23,9 °C 0,0 km/h (0 Bft)
15.08.2017 19:16 23,9 °C 23,9 °C 61 % 1015,4 hPa 0,0 mm 0,0 km/h (0 Bft) O-NO 61 ° 0 min 0,000 mm 0,0 UV-I 60 W/m² 15,9 °C 23,9 °C 0,0 km/h (0 Bft)
15.08.2017 19:17 23,9 °C 23,9 °C 64 % 1015,4 hPa 0,0 mm 0,0 km/h (0 Bft) O-NO 61 ° 0 min 0,000 mm 0,0 UV-I 56 W/m² 16,7 °C 23,9 °C 0,0 km/h (0 Bft)
15.08.2017 19:18 23,8 °C 23,9 °C 63 % 1015,4 hPa 0,0 mm 0,0 km/h (0 Bft) O-NO 61 ° 0 min 0,000 mm 0,0 UV-I 56 W/m² 16,3 °C 23,8 °C 0,0 km/h (0 Bft)
15.08.2017 19:19 23,8 °C 23,8 °C 64 % 1015,4 hPa 0,0 mm 0,0 km/h (0 Bft) O-NO 61 ° 0 min 0,000 mm 0,0 UV-I 56 W/m² 16,6 °C 23,8 °C 0,0 km/h (0 Bft)
15.08.2017 19:20 23,7 °C 23,8 °C 63 % 1015,4 hPa 0,0 mm 0,3 km/h (0 Bft) O-NO 61 ° 0 min 0,000 mm 0,0 UV-I 51 W/m² 16,2 °C 23,7 °C 1,6 km/h (1 Bft)
15.08.2017 19:21 23,7 °C 23,7 °C 63 % 1015,4 hPa 0,0 mm 0,6 km/h (0 Bft) O-NO 61 ° 0 min 0,000 mm 0,0 UV-I 47 W/m² 16,2 °C 23,7 °C 1,6 km/h (1 Bft)
15.08.2017 19:22 23,6 °C 23,7 °C 63 % 1015,4 hPa 0,0 mm 0,0 km/h (0 Bft) O-NO 61 ° 0 min 0,000 mm 0,0 UV-I 44 W/m² 16,1 °C 23,6 °C 0,0 km/h (0 Bft)
15.08.2017 19:23 23,6 °C 23,6 °C 61 % 1015,4 hPa 0,0 mm 0,0 km/h (0 Bft) O-NO 61 ° 0 min 0,000 mm 0,0 UV-I 44 W/m² 15,6 °C 23,6 °C 0,0 km/h (0 Bft)
15.08.2017 19:24 23,6 °C 23,6 °C 62 % 1015,4 hPa 0,0 mm 1,3 km/h (1 Bft) O-NO 61 ° 0 min 0,000 mm 0,0 UV-I 40 W/m² 15,9 °C 23,6 °C 1,6 km/h (1 Bft)
15.08.2017 19:25 23,6 °C 23,6 °C 60 % 1015,4 hPa 0,0 mm 0,3 km/h (0 Bft) O-NO 61 ° 0 min 0,000 mm 0,0 UV-I 40 W/m² 15,4 °C 23,6 °C 1,6 km/h (1 Bft)
15.08.2017 19:26 23,6 °C 23,6 °C 61 % 1015,3 hPa 0,0 mm 2,0 km/h (1 Bft) O-NO 61 ° 0 min 0,000 mm 0,0 UV-I 40 W/m² 15,6 °C 23,6 °C 3,2 km/h (1 Bft)
15.08.2017 19:27 23,6 °C 23,6 °C 62 % 1015,4 hPa 0,0 mm 3,3 km/h (1 Bft) O-SO 113 ° 0 min 0,000 mm 0,0 UV-I 40 W/m² 15,9 °C 23,6 °C 4,8 km/h (1 Bft)
15.08.2017 19:28 23,5 °C 23,6 °C 62 % 1015,4 hPa 0,0 mm 3,7 km/h (1 Bft) O-SO 113 ° 0 min 0,000 mm 0,0 UV-I 40 W/m² 15,8 °C 23,5 °C 4,8 km/h (1 Bft)
15.08.2017 19:29 23,4 °C 23,5 °C 61 % 1015,3 hPa 0,0 mm 3,7 km/h (1 Bft) SO 134 ° 0 min 0,000 mm 0,0 UV-I 40 W/m² 15,4 °C 23,4 °C 4,8 km/h (1 Bft)
15.08.2017 19:30 23,4 °C 23,4 °C 61 % 1015,3 hPa 0,0 mm 3,2 km/h (1 Bft) SO 134 ° 0 min 0,000 mm 0,0 UV-I 32 W/m² 15,4 °C 23,4 °C 4,8 km/h (1 Bft)
15.08.2017 19:31 23,4 °C 23,4 °C 61 % 1015,4 hPa 0,0 mm 3,1 km/h (1 Bft) SO 134 ° 0 min 0,000 mm 0,0 UV-I 32 W/m² 15,4 °C 23,4 °C 4,8 km/h (1 Bft)
15.08.2017 19:32 23,3 °C 23,4 °C 61 % 1015,3 hPa 0,0 mm 3,0 km/h (1 Bft) SO 134 ° 0 min 0,000 mm 0,0 UV-I 32 W/m² 15,3 °C 23,3 °C 4,8 km/h (1 Bft)
15.08.2017 19:33 23,3 °C 23,3 °C 61 % 1015,3 hPa 0,0 mm 3,7 km/h (1 Bft) SO 135 ° 0 min 0,000 mm 0,0 UV-I 32 W/m² 15,3 °C 23,3 °C 6,4 km/h (2 Bft)
15.08.2017 19:34 23,3 °C 23,3 °C 62 % 1015,3 hPa 0,0 mm 3,4 km/h (1 Bft) SO 135 ° 0 min 0,000 mm 0,0 UV-I 32 W/m² 15,6 °C 23,3 °C 4,8 km/h (1 Bft)
15.08.2017 19:35 23,2 °C 23,3 °C 63 % 1015,4 hPa 0,0 mm 3,1 km/h (1 Bft) SO 135 ° 0 min 0,000 mm 0,0 UV-I 32 W/m² 15,8 °C 23,2 °C 4,8 km/h (1 Bft)
15.08.2017 19:36 23,1 °C 23,2 °C 62 % 1015,3 hPa 0,0 mm 3,6 km/h (1 Bft) SO 135 ° 0 min 0,000 mm 0,0 UV-I 32 W/m² 15,4 °C 23,1 °C 4,8 km/h (1 Bft)
15.08.2017 19:37 23,0 °C 23,1 °C 63 % 1015,3 hPa 0,0 mm 1,3 km/h (1 Bft) SO 135 ° 0 min 0,000 mm 0,0 UV-I 32 W/m² 15,6 °C 23,0 °C 3,2 km/h (1 Bft)
15.08.2017 19:38 22,9 °C 23,0 °C 65 % 1015,3 hPa 0,0 mm 1,1 km/h (1 Bft) SO 135 ° 0 min 0,000 mm 0,0 UV-I 32 W/m² 16,0 °C 22,9 °C 3,2 km/h (1 Bft)
15.08.2017 19:39 22,8 °C 22,9 °C 64 % 1015,3 hPa 0,0 mm 1,7 km/h (1 Bft) SO 135 ° 0 min 0,000 mm 0,0 UV-I 32 W/m² 15,6 °C 22,8 °C 3,2 km/h (1 Bft)
15.08.2017 19:40 22,7 °C 22,8 °C 65 % 1015,3 hPa 0,0 mm 2,2 km/h (1 Bft) SO 135 ° 0 min 0,000 mm 0,0 UV-I 32 W/m² 15,8 °C 22,7 °C 3,2 km/h (1 Bft)
15.08.2017 19:41 22,6 °C 22,7 °C 65 % 1015,3 hPa 0,0 mm 0,7 km/h (0 Bft) SO 135 ° 0 min 0,000 mm 0,0 UV-I 30 W/m² 15,7 °C 22,6 °C 1,6 km/h (1 Bft)
15.08.2017 19:42 22,5 °C 22,6 °C 65 % 1015,3 hPa 0,0 mm 0,1 km/h (0 Bft) SO 135 ° 0 min 0,000 mm 0,0 UV-I 30 W/m² 15,6 °C 22,5 °C 1,6 km/h (1 Bft)
15.08.2017 19:43 22,4 °C 22,5 °C 66 % 1015,3 hPa 0,0 mm 0,3 km/h (0 Bft) SO 135 ° 0 min 0,000 mm 0,0 UV-I 30 W/m² 15,7 °C 22,4 °C 1,6 km/h (1 Bft)
15.08.2017 19:44 22,3 °C 22,4 °C 66 % 1015,3 hPa 0,0 mm 0,1 km/h (0 Bft) SO 135 ° 0 min 0,000 mm 0,0 UV-I 28 W/m² 15,6 °C 22,3 °C 1,6 km/h (1 Bft)
15.08.2017 19:45 22,2 °C 22,3 °C 67 % 1015,3 hPa 0,0 mm 0,0 km/h (0 Bft) SO 135 ° 0 min 0,000 mm 0,0 UV-I 26 W/m² 15,8 °C 22,2 °C 0,0 km/h (0 Bft)
15.08.2017 19:46 21,9 °C 22,2 °C 69 % 1015,3 hPa 0,0 mm 0,0 km/h (0 Bft) SO 135 ° 0 min 0,000 mm 0,0 UV-I 25 W/m² 15,9 °C 21,9 °C 0,0 km/h (0 Bft)
15.08.2017 19:47 21,7 °C 21,9 °C 71 % 1015,3 hPa 0,0 mm 0,0 km/h (0 Bft) SO 135 ° 0 min 0,000 mm 0,0 UV-I 25 W/m² 16,2 °C 21,7 °C 0,0 km/h (0 Bft)
15.08.2017 19:48 21,3 °C 21,7 °C 72 % 1015,3 hPa 0,0 mm 0,0 km/h (0 Bft) SO 135 ° 0 min 0,000 mm 0,0 UV-I 21 W/m² 16,0 °C 21,3 °C 0,0 km/h (0 Bft)
15.08.2017 19:49 21,0 °C 21,3 °C 73 % 1015,3 hPa 0,0 mm 0,0 km/h (0 Bft) SO 135 ° 0 min 0,000 mm 0,0 UV-I 21 W/m² 16,0 °C 21,0 °C 0,0 km/h (0 Bft)
15.08.2017 19:50 20,8 °C 21,0 °C 73 % 1015,3 hPa 0,0 mm 0,0 km/h (0 Bft) SO 135 ° 0 min 0,000 mm 0,0 UV-I 19 W/m² 15,8 °C 20,8 °C 0,0 km/h (0 Bft)
15.08.2017 19:51 20,7 °C 20,8 °C 75 % 1015,3 hPa 0,0 mm 0,0 km/h (0 Bft) SO 135 ° 0 min 0,000 mm 0,0 UV-I 19 W/m² 16,1 °C 20,7 °C 0,0 km/h (0 Bft)
15.08.2017 19:52 20,6 °C 20,7 °C 74 % 1015,2 hPa 0,0 mm 0,0 km/h (0 Bft) SO 135 ° 0 min 0,000 mm 0,0 UV-I 16 W/m² 15,8 °C 20,6 °C 0,0 km/h (0 Bft)
15.08.2017 19:53 20,6 °C 20,6 °C 74 % 1015,2 hPa 0,0 mm 0,0 km/h (0 Bft) SO 135 ° 0 min 0,000 mm 0,0 UV-I 16 W/m² 15,8 °C 20,6 °C 0,0 km/h (0 Bft)
15.08.2017 19:54 20,4 °C 20,6 °C 75 % 1015,3 hPa 0,0 mm 0,0 km/h (0 Bft) SO 135 ° 0 min 0,000 mm 0,0 UV-I 14 W/m² 15,8 °C 20,4 °C 0,0 km/h (0 Bft)
15.08.2017 19:55 20,3 °C 20,4 °C 75 % 1015,3 hPa 0,0 mm 0,0 km/h (0 Bft) SO 135 ° 0 min 0,000 mm 0,0 UV-I 14 W/m² 15,7 °C 20,3 °C 0,0 km/h (0 Bft)
15.08.2017 19:56 20,2 °C 20,3 °C 76 % 1015,3 hPa 0,0 mm 0,0 km/h (0 Bft) SO 135 ° 0 min 0,000 mm 0,0 UV-I 14 W/m² 15,8 °C 20,2 °C 0,0 km/h (0 Bft)
15.08.2017 19:57 20,2 °C 20,3 °C 77 % 1015,2 hPa 0,0 mm 0,0 km/h (0 Bft) SO 135 ° 0 min 0,000 mm 0,0 UV-I 14 W/m² 16,0 °C 20,2 °C 0,0 km/h (0 Bft)
15.08.2017 19:58 20,1 °C 20,2 °C 77 % 1015,3 hPa 0,0 mm 0,0 km/h (0 Bft) SO 135 ° 0 min 0,000 mm 0,0 UV-I 14 W/m² 15,9 °C 20,1 °C 0,0 km/h (0 Bft)
15.08.2017 19:59 20,1 °C 20,1 °C 77 % 1015,3 hPa 0,0 mm 0,0 km/h (0 Bft) SO 135 ° 0 min 0,000 mm 0,0 UV-I 14 W/m² 15,9 °C 20,1 °C 0,0 km/h (0 Bft)
15.08.2017 20:00 20,0 °C 20,1 °C 76 % 1015,2 hPa 0,0 mm 0,0 km/h (0 Bft) SO 135 ° 0 min 0,000 mm 0,0 UV-I 14 W/m² 15,6 °C 20,0 °C 0,0 km/h (0 Bft)
15.08.2017 20:01 20,1 °C 20,1 °C 76 % 1015,3 hPa 0,0 mm 0,0 km/h (0 Bft) SO 135 ° 0 min 0,025 mm 0,0 UV-I 14 W/m² 15,7 °C 20,1 °C 0,0 km/h (0 Bft)
15.08.2017 20:02 20,0 °C 20,1 °C 76 % 1015,3 hPa 0,0 mm 0,0 km/h (0 Bft) SO 135 ° 0 min 0,000 mm 0,0 UV-I 14 W/m² 15,6 °C 20,0 °C 0,0 km/h (0 Bft)
15.08.2017 20:03 20,0 °C 20,0 °C 77 % 1015,3 hPa 0,0 mm 0,0 km/h (0 Bft) SO 135 ° 0 min 0,000 mm 0,0 UV-I 9 W/m² 15,8 °C 20,0 °C 0,0 km/h (0 Bft)
15.08.2017 20:04 19,9 °C 20,0 °C 77 % 1015,2 hPa 0,0 mm 0,0 km/h (0 Bft) SO 135 ° 0 min 0,000 mm 0,0 UV-I 9 W/m² 15,7 °C 19,9 °C 0,0 km/h (0 Bft)
15.08.2017 20:05 20,0 °C 20,0 °C 77 % 1015,2 hPa 0,0 mm 0,0 km/h (0 Bft) SO 135 ° 0 min 0,000 mm 0,0 UV-I 9 W/m² 15,8 °C 20,0 °C 0,0 km/h (0 Bft)
15.08.2017 20:06 20,1 °C 20,1 °C 76 % 1015,2 hPa 0,0 mm 0,0 km/h (0 Bft) SO 135 ° 0 min 0,000 mm 0,0 UV-I 9 W/m² 15,7 °C 20,1 °C 0,0 km/h (0 Bft)
15.08.2017 20:07 20,2 °C 20,2 °C 75 % 1015,3 hPa 0,0 mm 0,0 km/h (0 Bft) SO 135 ° 0 min 0,000 mm 0,0 UV-I 9 W/m² 15,6 °C 20,2 °C 0,0 km/h (0 Bft)
15.08.2017 20:08 20,3 °C 20,3 °C 75 % 1015,2 hPa 0,0 mm 0,0 km/h (0 Bft) SO 135 ° 0 min 0,000 mm 0,0 UV-I 9 W/m² 15,7 °C 20,3 °C 0,0 km/h (0 Bft)
15.08.2017 20:09 20,5 °C 20,5 °C 74 % 1015,2 hPa 0,0 mm 0,5 km/h (0 Bft) SO 135 ° 0 min 0,000 mm 0,0 UV-I 7 W/m² 15,7 °C 20,5 °C 1,6 km/h (1 Bft)
15.08.2017 20:10 20,6 °C 20,6 °C 74 % 1015,2 hPa 0,0 mm 0,0 km/h (0 Bft) SO 135 ° 0 min 0,000 mm 0,0 UV-I 7 W/m² 15,8 °C 20,6 °C 0,0 km/h (0 Bft)
15.08.2017 20:11 20,6 °C 20,6 °C 75 % 1015,2 hPa 0,0 mm 0,0 km/h (0 Bft) SO 135 ° 0 min 0,000 mm 0,0 UV-I 7 W/m² 16,0 °C 20,6 °C 0,0 km/h (0 Bft)
15.08.2017 20:12 20,6 °C 20,6 °C 75 % 1015,2 hPa 0,0 mm 0,0 km/h (0 Bft) SO 135 ° 0 min 0,000 mm 0,0 UV-I 7 W/m² 16,0 °C 20,6 °C 0,0 km/h (0 Bft)
15.08.2017 20:13 20,5 °C 20,6 °C 76 % 1015,2 hPa 0,0 mm 0,0 km/h (0 Bft) SO 135 ° 0 min 0,000 mm 0,0 UV-I 7 W/m² 16,1 °C 20,5 °C 0,0 km/h (0 Bft)
15.08.2017 20:14 20,3 °C 20,5 °C 76 % 1015,2 hPa 0,0 mm 0,0 km/h (0 Bft) SO 135 ° 0 min 0,000 mm 0,0 UV-I 5 W/m² 15,9 °C 20,3 °C 0,0 km/h (0 Bft)
15.08.2017 20:15 20,3 °C 20,3 °C 75 % 1015,2 hPa 0,0 mm 0,3 km/h (0 Bft) SO 135 ° 0 min 0,000 mm 0,0 UV-I 5 W/m² 15,7 °C 20,3 °C 3,2 km/h (1 Bft)
15.08.2017 20:16 20,2 °C 20,3 °C 75 % 1015,2 hPa 0,0 mm 3,3 km/h (1 Bft) SO 142 ° 0 min 0,000 mm 0,0 UV-I 5 W/m² 15,6 °C 20,2 °C 4,8 km/h (1 Bft)
15.08.2017 20:17 20,2 °C 20,3 °C 76 % 1015,1 hPa 0,0 mm 0,7 km/h (0 Bft) SO 142 ° 0 min 0,000 mm 0,0 UV-I 5 W/m² 15,8 °C 20,2 °C 1,6 km/h (1 Bft)
15.08.2017 20:18 20,1 °C 20,2 °C 76 % 1015,2 hPa 0,0 mm 0,0 km/h (0 Bft) SO 142 ° 0 min 0,000 mm 0,0 UV-I 0 W/m² 15,7 °C 20,1 °C 0,0 km/h (0 Bft)
15.08.2017 20:19 20,0 °C 20,1 °C 76 % 1015,2 hPa 0,0 mm 1,1 km/h (1 Bft) SO 142 ° 0 min 0,000 mm 0,0 UV-I 0 W/m² 15,6 °C 20,0 °C 3,2 km/h (1 Bft)
15.08.2017 20:20 20,0 °C 20,0 °C 75 % 1015,2 hPa 0,0 mm 2,6 km/h (1 Bft) S-SO 157 ° 0 min 0,000 mm 0,0 UV-I 0 W/m² 15,4 °C 20,0 °C 4,8 km/h (1 Bft)
15.08.2017 20:21 20,1 °C 20,1 °C 75 % 1015,1 hPa 0,0 mm 1,9 km/h (1 Bft) S-SO 157 ° 0 min 0,000 mm 0,0 UV-I 0 W/m² 15,5 °C 20,1 °C 3,2 km/h (1 Bft)
15.08.2017 20:22 20,1 °C 20,1 °C 75 % 1015,1 hPa 0,0 mm 2,4 km/h (1 Bft) S-SO 157 ° 0 min 0,000 mm 0,0 UV-I 0 W/m² 15,5 °C 20,1 °C 3,2 km/h (1 Bft)
15.08.2017 20:23 20,2 °C 20,2 °C 75 % 1015,2 hPa 0,0 mm 1,4 km/h (1 Bft) S-SO 157 ° 0 min 0,000 mm 0,0 UV-I 0 W/m² 15,6 °C 20,2 °C 3,2 km/h (1 Bft)
15.08.2017 20:24 20,2 °C 20,2 °C 75 % 1015,2 hPa 0,0 mm 0,1 km/h (0 Bft) S-SO 157 ° 0 min 0,000 mm 0,0 UV-I 0 W/m² 15,6 °C 20,2 °C 1,6 km/h (1 Bft)
15.08.2017 20:25 20,1 °C 20,2 °C 75 % 1015,2 hPa 0,0 mm 0,0 km/h (0 Bft) S-SO 157 ° 0 min 0,000 mm 0,0 UV-I 0 W/m² 15,5 °C 20,1 °C 0,0 km/h (0 Bft)
15.08.2017 20:26 20,1 °C 20,1 °C 76 % 1015,2 hPa 0,0 mm 0,0 km/h (0 Bft) S-SO 157 ° 0 min 0,000 mm 0,0 UV-I 0 W/m² 15,7 °C 20,1 °C 0,0 km/h (0 Bft)
15.08.2017 20:27 19,9 °C 20,1 °C 76 % 1015,2 hPa 0,0 mm 0,5 km/h (0 Bft) S-SO 157 ° 0 min 0,000 mm 0,0 UV-I 0 W/m² 15,5 °C 19,9 °C 1,6 km/h (1 Bft)
15.08.2017 20:28 19,8 °C 19,9 °C 76 % 1015,2 hPa 0,0 mm 0,0 km/h (0 Bft) S-SO 157 ° 0 min 0,000 mm 0,0 UV-I 0 W/m² 15,4 °C 19,8 °C 0,0 km/h (0 Bft)
15.08.2017 20:29 19,7 °C 19,8 °C 77 % 1015,2 hPa 0,0 mm 0,0 km/h (0 Bft) S-SO 157 ° 0 min 0,000 mm 0,0 UV-I 0 W/m² 15,5 °C 19,7 °C 0,0 km/h (0 Bft)
15.08.2017 20:30 19,7 °C 19,7 °C 77 % 1015,2 hPa 0,0 mm 0,0 km/h (0 Bft) S-SO 157 ° 0 min 0,000 mm 0,0 UV-I 0 W/m² 15,5 °C 19,7 °C 0,0 km/h (0 Bft)
15.08.2017 20:31 19,7 °C 19,7 °C 77 % 1015,1 hPa 0,0 mm 0,0 km/h (0 Bft) S-SO 157 ° 0 min 0,000 mm 0,0 UV-I 0 W/m² 15,5 °C 19,7 °C 0,0 km/h (0 Bft)
15.08.2017 20:32 19,7 °C 19,7 °C 77 % 1015,2 hPa 0,0 mm 0,0 km/h (0 Bft) S-SO 157 ° 0 min 0,000 mm 0,0 UV-I 0 W/m² 15,5 °C 19,7 °C 0,0 km/h (0 Bft)
15.08.2017 20:33 19,7 °C 19,7 °C 77 % 1015,2 hPa 0,0 mm 0,0 km/h (0 Bft) S-SO 157 ° 0 min 0,000 mm 0,0 UV-I 0 W/m² 15,5 °C 19,7 °C 0,0 km/h (0 Bft)
15.08.2017 20:34 19,7 °C 19,7 °C 77 % 1015,1 hPa 0,0 mm 0,0 km/h (0 Bft) S-SO 157 ° 0 min 0,000 mm 0,0 UV-I 0 W/m² 15,5 °C 19,7 °C 0,0 km/h (0 Bft)
15.08.2017 20:35 19,7 °C 19,7 °C 77 % 1015,1 hPa 0,0 mm 0,0 km/h (0 Bft) S-SO 157 ° 0 min 0,000 mm 0,0 UV-I 0 W/m² 15,5 °C 19,7 °C 0,0 km/h (0 Bft)
15.08.2017 20:36 19,7 °C 19,7 °C 77 % 1015,1 hPa 0,0 mm 0,0 km/h (0 Bft) S-SO 157 ° 0 min 0,000 mm 0,0 UV-I 0 W/m² 15,5 °C 19,7 °C 0,0 km/h (0 Bft)
15.08.2017 20:37 19,5 °C 19,7 °C 78 % 1015,1 hPa 0,0 mm 0,0 km/h (0 Bft) S-SO 157 ° 0 min 0,000 mm 0,0 UV-I 0 W/m² 15,6 °C 19,5 °C 0,0 km/h (0 Bft)
15.08.2017 20:38 19,3 °C 19,5 °C 79 % 1015,1 hPa 0,0 mm 0,0 km/h (0 Bft) S-SO 157 ° 0 min 0,000 mm 0,0 UV-I 0 W/m² 15,6 °C 19,3 °C 0,0 km/h (0 Bft)
15.08.2017 20:39 19,1 °C 19,3 °C 78 % 1015,2 hPa 0,0 mm 0,0 km/h (0 Bft) S-SO 157 ° 0 min 0,000 mm 0,0 UV-I 0 W/m² 15,2 °C 19,1 °C 0,0 km/h (0 Bft)
15.08.2017 20:40 18,9 °C 19,1 °C 79 % 1015,2 hPa 0,0 mm 0,0 km/h (0 Bft) S-SO 157 ° 0 min 0,000 mm 0,0 UV-I 0 W/m² 15,2 °C 18,9 °C 0,0 km/h (0 Bft)
15.08.2017 20:41 18,8 °C 18,9 °C 80 % 1015,2 hPa 0,0 mm 0,0 km/h (0 Bft) S-SO 157 ° 0 min 0,000 mm 0,0 UV-I 0 W/m² 15,3 °C 18,8 °C 0,0 km/h (0 Bft)
15.08.2017 20:42 18,7 °C 18,8 °C 80 % 1015,2 hPa 0,0 mm 1,0 km/h (0 Bft) S-SO 157 ° 0 min 0,000 mm 0,0 UV-I 0 W/m² 15,2 °C 18,7 °C 3,2 km/h (1 Bft)
15.08.2017 20:43 18,8 °C 18,8 °C 80 % 1015,3 hPa 0,0 mm 3,3 km/h (1 Bft) S-SO 157 ° 0 min 0,000 mm 0,0 UV-I 0 W/m² 15,3 °C 18,8 °C 4,8 km/h (1 Bft)
15.08.2017 20:44 18,9 °C 18,9 °C 79 % 1015,3 hPa 0,0 mm 3,3 km/h (1 Bft) S-SO 157 ° 0 min 0,000 mm 0,0 UV-I 0 W/m² 15,2 °C 18,9 °C 4,8 km/h (1 Bft)
15.08.2017 20:45 19,1 °C 19,1 °C 79 % 1015,3 hPa 0,0 mm 2,4 km/h (1 Bft) S-SO 157 ° 0 min 0,000 mm 0,0 UV-I 0 W/m² 15,4 °C 19,1 °C 3,2 km/h (1 Bft)
15.08.2017 20:46 19,1 °C 19,1 °C 79 % 1015,4 hPa 0,0 mm 2,7 km/h (1 Bft) S-SO 157 ° 0 min 0,000 mm 0,0 UV-I 0 W/m² 15,4 °C 19,1 °C 4,8 km/h (1 Bft)
15.08.2017 20:47 19,2 °C 19,2 °C 79 % 1015,4 hPa 0,0 mm 1,0 km/h (0 Bft) S-SO 157 ° 0 min 0,000 mm 0,0 UV-I 0 W/m² 15,5 °C 19,2 °C 3,2 km/h (1 Bft)
15.08.2017 20:48 19,3 °C 19,3 °C 79 % 1015,4 hPa 0,0 mm 0,0 km/h (0 Bft) S-SO 157 ° 0 min 0,000 mm 0,0 UV-I 0 W/m² 15,6 °C 19,3 °C 0,0 km/h (0 Bft)
15.08.2017 20:49 19,3 °C 19,3 °C 79 % 1015,4 hPa 0,0 mm 1,6 km/h (1 Bft) S-SO 157 ° 0 min 0,000 mm 0,0 UV-I 0 W/m² 15,6 °C 19,3 °C 3,2 km/h (1 Bft)
15.08.2017 20:50 19,3 °C 19,3 °C 79 % 1015,5 hPa 0,0 mm 1,8 km/h (1 Bft) S-SO 157 ° 0 min 0,000 mm 0,0 UV-I 0 W/m² 15,6 °C 19,3 °C 3,2 km/h (1 Bft)
15.08.2017 20:51 19,1 °C 19,3 °C 79 % 1015,5 hPa 0,0 mm 2,7 km/h (1 Bft) S-SO 157 ° 0 min 0,000 mm 0,0 UV-I 0 W/m² 15,4 °C 19,1 °C 4,8 km/h (1 Bft)
15.08.2017 20:52 18,9 °C 19,1 °C 79 % 1015,5 hPa 0,0 mm 2,3 km/h (1 Bft) S-SO 157 ° 0 min 0,000 mm 0,0 UV-I 0 W/m² 15,2 °C 18,9 °C 3,2 km/h (1 Bft)
15.08.2017 20:53 18,8 °C 18,9 °C 80 % 1015,5 hPa 0,0 mm 3,0 km/h (1 Bft) S-SO 157 ° 0 min 0,000 mm 0,0 UV-I 0 W/m² 15,3 °C 18,8 °C 4,8 km/h (1 Bft)
15.08.2017 20:54 18,7 °C 18,8 °C 80 % 1015,5 hPa 0,0 mm 2,1 km/h (1 Bft) S-SO 157 ° 0 min 0,000 mm 0,0 UV-I 0 W/m² 15,2 °C 18,7 °C 3,2 km/h (1 Bft)
15.08.2017 20:55 18,7 °C 18,7 °C 81 % 1015,5 hPa 0,0 mm 0,1 km/h (0 Bft) S-SO 157 ° 0 min 0,000 mm 0,0 UV-I 0 W/m² 15,4 °C 18,7 °C 1,6 km/h (1 Bft)
15.08.2017 20:56 18,7 °C 18,7 °C 81 % 1015,6 hPa 0,0 mm 0,0 km/h (0 Bft) S-SO 157 ° 0 min 0,000 mm 0,0 UV-I 0 W/m² 15,4 °C 18,7 °C 0,0 km/h (0 Bft)
15.08.2017 20:57 18,8 °C 18,8 °C 81 % 1015,6 hPa 0,0 mm 0,0 km/h (0 Bft) S-SO 157 ° 0 min 0,000 mm 0,0 UV-I 0 W/m² 15,5 °C 18,8 °C 0,0 km/h (0 Bft)
15.08.2017 20:58 18,9 °C 18,9 °C 80 % 1015,7 hPa 0,0 mm 0,0 km/h (0 Bft) S-SO 157 ° 0 min 0,000 mm 0,0 UV-I 0 W/m² 15,4 °C 18,9 °C 0,0 km/h (0 Bft)
15.08.2017 20:59 19,0 °C 19,0 °C 80 % 1015,7 hPa 0,0 mm 1,3 km/h (1 Bft) S-SW 194 ° 0 min 0,000 mm 0,0 UV-I 0 W/m² 15,5 °C 19,0 °C 4,8 km/h (1 Bft)
15.08.2017 21:00 18,9 °C 19,0 °C 80 % 1015,7 hPa 0,0 mm 4,1 km/h (1 Bft) S-SW 194 ° 0 min 0,000 mm 0,0 UV-I 0 W/m² 15,4 °C 18,9 °C 6,4 km/h (2 Bft)
15.08.2017 21:01 18,8 °C 18,9 °C 80 % 1015,7 hPa 0,0 mm 3,4 km/h (1 Bft) S-SW 194 ° 0 min 0,000 mm 0,0 UV-I 0 W/m² 15,3 °C 18,8 °C 4,8 km/h (1 Bft)
15.08.2017 21:02 18,8 °C 18,8 °C 80 % 1015,8 hPa 0,0 mm 3,9 km/h (1 Bft) S-SW 198 ° 0 min 0,000 mm 0,0 UV-I 0 W/m² 15,3 °C 18,8 °C 4,8 km/h (1 Bft)
15.08.2017 21:03 18,8 °C 18,8 °C 80 % 1015,8 hPa 0,0 mm 2,2 km/h (1 Bft) S-SW 198 ° 0 min 0,000 mm 0,0 UV-I 0 W/m² 15,3 °C 18,8 °C 4,8 km/h (1 Bft)
15.08.2017 21:04 18,7 °C 18,8 °C 81 % 1015,8 hPa 0,0 mm 2,5 km/h (1 Bft) S-SW 194 ° 0 min 0,000 mm 0,0 UV-I 0 W/m² 15,4 °C 18,7 °C 4,8 km/h (1 Bft)
15.08.2017 21:05 18,7 °C 18,7 °C 81 % 1015,8 hPa 0,0 mm 2,9 km/h (1 Bft) S-SW 200 ° 0 min 0,000 mm 0,0 UV-I 0 W/m² 15,4 °C 18,7 °C 4,8 km/h (1 Bft)
15.08.2017 21:06 18,7 °C 18,7 °C 81 % 1015,9 hPa 0,0 mm 2,6 km/h (1 Bft) S-SW 200 ° 0 min 0,000 mm 0,0 UV-I 0 W/m² 15,4 °C 18,7 °C 4,8 km/h (1 Bft)
15.08.2017 21:07 18,7 °C 18,7 °C 81 % 1015,9 hPa 0,0 mm 1,2 km/h (1 Bft) S-SW 200 ° 0 min 0,000 mm 0,0 UV-I 0 W/m² 15,4 °C 18,7 °C 1,6 km/h (1 Bft)
15.08.2017 21:08 18,8 °C 18,8 °C 80 % 1015,9 hPa 0,0 mm 0,0 km/h (0 Bft) S-SW 200 ° 0 min 0,000 mm 0,0 UV-I 0 W/m² 15,3 °C 18,8 °C 0,0 km/h (0 Bft)
15.08.2017 21:09 18,8 °C 18,8 °C 80 % 1015,9 hPa 0,0 mm 0,0 km/h (0 Bft) S-SW 200 ° 0 min 0,000 mm 0,0 UV-I 0 W/m² 15,3 °C 18,8 °C 0,0 km/h (0 Bft)
15.08.2017 21:10 18,8 °C 18,8 °C 80 % 1016,0 hPa 0,0 mm 0,0 km/h (0 Bft) S-SW 200 ° 0 min 0,000 mm 0,0 UV-I 0 W/m² 15,3 °C 18,8 °C 0,0 km/h (0 Bft)
15.08.2017 21:11 18,9 °C 18,9 °C 80 % 1016,0 hPa 0,0 mm 0,0 km/h (0 Bft) S-SW 200 ° 0 min 0,000 mm 0,0 UV-I 0 W/m² 15,4 °C 18,9 °C 0,0 km/h (0 Bft)
15.08.2017 21:12 18,9 °C 18,9 °C 79 % 1016,0 hPa 0,0 mm 0,0 km/h (0 Bft) S-SW 200 ° 0 min 0,000 mm 0,0 UV-I 0 W/m² 15,2 °C 18,9 °C 0,0 km/h (0 Bft)
15.08.2017 21:13 18,9 °C 18,9 °C 79 % 1016,1 hPa 0,0 mm 0,0 km/h (0 Bft) S-SW 200 ° 0 min 0,000 mm 0,0 UV-I 0 W/m² 15,2 °C 18,9 °C 0,0 km/h (0 Bft)
15.08.2017 21:14 18,9 °C 18,9 °C 79 % 1016,0 hPa 0,0 mm 0,0 km/h (0 Bft) S-SW 200 ° 0 min 0,000 mm 0,0 UV-I 0 W/m² 15,2 °C 18,9 °C 0,0 km/h (0 Bft)
15.08.2017 21:15 18,8 °C 18,9 °C 79 % 1016,1 hPa 0,0 mm 2,7 km/h (1 Bft) S-SW 200 ° 0 min 0,000 mm 0,0 UV-I 0 W/m² 15,1 °C 18,8 °C 6,4 km/h (2 Bft)
15.08.2017 21:16 18,8 °C 18,8 °C 80 % 1016,1 hPa 0,0 mm 2,9 km/h (1 Bft) S-SW 200 ° 0 min 0,000 mm 0,0 UV-I 0 W/m² 15,3 °C 18,8 °C 6,4 km/h (2 Bft)
15.08.2017 21:17 18,8 °C 18,8 °C 80 % 1016,1 hPa 0,0 mm 2,8 km/h (1 Bft) S-SW 200 ° 0 min 0,000 mm 0,0 UV-I 0 W/m² 15,3 °C 18,8 °C 4,8 km/h (1 Bft)
15.08.2017 21:18 18,8 °C 18,8 °C 80 % 1016,2 hPa 0,0 mm 1,5 km/h (1 Bft) S-SW 200 ° 0 min 0,000 mm 0,0 UV-I 0 W/m² 15,3 °C 18,8 °C 3,2 km/h (1 Bft)
15.08.2017 21:19 18,8 °C 18,8 °C 80 % 1016,2 hPa 0,0 mm 0,9 km/h (0 Bft) S-SW 200 ° 0 min 0,000 mm 0,0 UV-I 0 W/m² 15,3 °C 18,8 °C 3,2 km/h (1 Bft)
15.08.2017 21:20 18,8 °C 18,8 °C 80 % 1016,2 hPa 0,0 mm 0,8 km/h (0 Bft) S-SW 200 ° 0 min 0,000 mm 0,0 UV-I 0 W/m² 15,3 °C 18,8 °C 3,2 km/h (1 Bft)
15.08.2017 21:21 18,9 °C 18,9 °C 79 % 1016,3 hPa 0,0 mm 1,1 km/h (1 Bft) S-SW 200 ° 0 min 0,000 mm 0,0 UV-I 0 W/m² 15,2 °C 18,9 °C 3,2 km/h (1 Bft)
15.08.2017 21:22 18,9 °C 18,9 °C 79 % 1016,4 hPa 0,0 mm 2,9 km/h (1 Bft) S 180 ° 0 min 0,000 mm 0,0 UV-I 0 W/m² 15,2 °C 18,9 °C 6,4 km/h (2 Bft)
15.08.2017 21:23 19,1 °C 19,1 °C 78 % 1016,3 hPa 0,0 mm 1,7 km/h (1 Bft) S 180 ° 0 min 0,000 mm 0,0 UV-I 0 W/m² 15,2 °C 19,1 °C 3,2 km/h (1 Bft)
15.08.2017 21:24 19,1 °C 19,2 °C 78 % 1016,3 hPa 0,0 mm 0,4 km/h (0 Bft) S 180 ° 0 min 0,000 mm 0,0 UV-I 0 W/m² 15,2 °C 19,1 °C 3,2 km/h (1 Bft)
15.08.2017 21:25 19,1 °C 19,2 °C 77 % 1016,4 hPa 0,0 mm 1,1 km/h (1 Bft) S 180 ° 0 min 0,000 mm 0,0 UV-I 0 W/m² 15,0 °C 19,1 °C 4,8 km/h (1 Bft)
15.08.2017 21:26 19,1 °C 19,2 °C 78 % 1016,4 hPa 0,0 mm 0,2 km/h (0 Bft) S 180 ° 0 min 0,000 mm 0,0 UV-I 0 W/m² 15,2 °C 19,1 °C 1,6 km/h (1 Bft)
15.08.2017 21:27 19,1 °C 19,1 °C 78 % 1016,4 hPa 0,0 mm 0,0 km/h (0 Bft) S 180 ° 0 min 0,000 mm 0,0 UV-I 0 W/m² 15,2 °C 19,1 °C 0,0 km/h (0 Bft)
15.08.2017 21:28 18,9 °C 19,1 °C 78 % 1016,4 hPa 0,0 mm 0,0 km/h (0 Bft) S 180 ° 0 min 0,000 mm 0,0 UV-I 0 W/m² 15,0 °C 18,9 °C 0,0 km/h (0 Bft)
15.08.2017 21:29 18,8 °C 18,9 °C 79 % 1016,4 hPa 0,0 mm 0,0 km/h (0 Bft) S 180 ° 0 min 0,000 mm 0,0 UV-I 0 W/m² 15,1 °C 18,8 °C 0,0 km/h (0 Bft)
15.08.2017 21:30 18,7 °C 18,8 °C 79 % 1016,4 hPa 0,0 mm 0,0 km/h (0 Bft) S 180 ° 0 min 0,000 mm 0,0 UV-I 0 W/m² 15,0 °C 18,7 °C 0,0 km/h (0 Bft)
15.08.2017 21:31 18,6 °C 18,7 °C 80 % 1016,4 hPa 0,0 mm 0,0 km/h (0 Bft) S 180 ° 0 min 0,000 mm 0,0 UV-I 0 W/m² 15,1 °C 18,6 °C 0,0 km/h (0 Bft)
15.08.2017 21:32 18,6 °C 18,6 °C 80 % 1016,4 hPa 0,0 mm 0,0 km/h (0 Bft) S 180 ° 0 min 0,000 mm 0,0 UV-I 0 W/m² 15,1 °C 18,6 °C 0,0 km/h (0 Bft)
15.08.2017 21:33 18,4 °C 18,6 °C 80 % 1016,4 hPa 0,0 mm 0,0 km/h (0 Bft) S 180 ° 0 min 0,000 mm 0,0 UV-I 0 W/m² 14,9 °C 18,4 °C 0,0 km/h (0 Bft)
15.08.2017 21:34 18,4 °C 18,5 °C 80 % 1016,4 hPa 0,0 mm 0,0 km/h (0 Bft) S 180 ° 0 min 0,000 mm 0,0 UV-I 0 W/m² 14,9 °C 18,4 °C 0,0 km/h (0 Bft)
15.08.2017 21:35 18,4 °C 18,4 °C 80 % 1016,5 hPa 0,0 mm 0,0 km/h (0 Bft) S 180 ° 0 min 0,000 mm 0,0 UV-I 0 W/m² 14,9 °C 18,4 °C 0,0 km/h (0 Bft)
15.08.2017 21:36 18,4 °C 18,4 °C 80 % 1016,5 hPa 0,0 mm 0,0 km/h (0 Bft) S 180 ° 0 min 0,000 mm 0,0 UV-I 0 W/m² 14,9 °C 18,4 °C 0,0 km/h (0 Bft)
15.08.2017 21:37 18,4 °C 18,4 °C 80 % 1016,5 hPa 0,0 mm 0,0 km/h (0 Bft) S 180 ° 0 min 0,000 mm 0,0 UV-I 0 W/m² 14,9 °C 18,4 °C 0,0 km/h (0 Bft)
15.08.2017 21:38 18,4 °C 18,4 °C 81 % 1016,5 hPa 0,0 mm 0,0 km/h (0 Bft) S 180 ° 0 min 0,000 mm 0,0 UV-I 0 W/m² 15,1 °C 18,4 °C 0,0 km/h (0 Bft)
15.08.2017 21:39 18,3 °C 18,4 °C 81 % 1016,5 hPa 0,0 mm 1,0 km/h (0 Bft) S 180 ° 0 min 0,000 mm 0,0 UV-I 0 W/m² 15,0 °C 18,3 °C 3,2 km/h (1 Bft)
15.08.2017 21:40 18,3 °C 18,3 °C 81 % 1016,5 hPa 0,0 mm 0,0 km/h (0 Bft) S 180 ° 0 min 0,000 mm 0,0 UV-I 0 W/m² 15,0 °C 18,3 °C 0,0 km/h (0 Bft)
15.08.2017 21:41 18,3 °C 18,3 °C 81 % 1016,5 hPa 0,0 mm 0,0 km/h (0 Bft) S 180 ° 0 min 0,000 mm 0,0 UV-I 0 W/m² 15,0 °C 18,3 °C 0,0 km/h (0 Bft)
15.08.2017 21:42 18,3 °C 18,3 °C 80 % 1016,5 hPa 0,0 mm 0,0 km/h (0 Bft) S 180 ° 0 min 0,000 mm 0,0 UV-I 0 W/m² 14,8 °C 18,3 °C 0,0 km/h (0 Bft)
15.08.2017 21:43 18,3 °C 18,3 °C 80 % 1016,5 hPa 0,0 mm 0,0 km/h (0 Bft) S 180 ° 0 min 0,000 mm 0,0 UV-I 0 W/m² 14,8 °C 18,3 °C 0,0 km/h (0 Bft)
15.08.2017 21:44 18,4 °C 18,4 °C 80 % 1016,5 hPa 0,0 mm 0,0 km/h (0 Bft) S 180 ° 0 min 0,000 mm 0,0 UV-I 0 W/m² 14,9 °C 18,4 °C 0,0 km/h (0 Bft)
15.08.2017 21:45 18,4 °C 18,4 °C 80 % 1016,5 hPa 0,0 mm 0,0 km/h (0 Bft) S 180 ° 0 min 0,000 mm 0,0 UV-I 0 W/m² 14,9 °C 18,4 °C 0,0 km/h (0 Bft)
15.08.2017 21:46 18,5 °C 18,5 °C 79 % 1016,4 hPa 0,0 mm 0,0 km/h (0 Bft) S 180 ° 0 min 0,000 mm 0,0 UV-I 0 W/m² 14,8 °C 18,5 °C 0,0 km/h (0 Bft)
15.08.2017 21:47 18,8 °C 18,8 °C 77 % 1016,4 hPa 0,0 mm 1,1 km/h (1 Bft) S 188 ° 0 min 0,000 mm 0,0 UV-I 0 W/m² 14,7 °C 18,8 °C 4,8 km/h (1 Bft)
15.08.2017 21:48 19,1 °C 19,1 °C 75 % 1016,4 hPa 0,0 mm 4,2 km/h (1 Bft) S 190 ° 0 min 0,000 mm 0,0 UV-I 0 W/m² 14,6 °C 19,1 °C 4,8 km/h (1 Bft)
15.08.2017 21:49 19,4 °C 19,4 °C 74 % 1016,4 hPa 0,0 mm 5,0 km/h (1 Bft) S-SW 198 ° 0 min 0,000 mm 0,0 UV-I 0 W/m² 14,6 °C 19,4 °C 9,7 km/h (2 Bft)
15.08.2017 21:50 19,6 °C 19,6 °C 74 % 1016,3 hPa 0,0 mm 2,1 km/h (1 Bft) S-SW 198 ° 0 min 0,000 mm 0,0 UV-I 0 W/m² 14,8 °C 19,6 °C 6,4 km/h (2 Bft)
15.08.2017 21:51 19,7 °C 19,7 °C 73 % 1016,3 hPa 0,0 mm 2,4 km/h (1 Bft) W-NW 296 ° 0 min 0,000 mm 0,0 UV-I 0 W/m² 14,7 °C 19,7 °C 4,8 km/h (1 Bft)
15.08.2017 21:52 19,6 °C 19,7 °C 76 % 1016,3 hPa 0,0 mm 0,2 km/h (0 Bft) W-NW 296 ° 0 min 0,000 mm 0,0 UV-I 0 W/m² 15,2 °C 19,6 °C 1,6 km/h (1 Bft)
15.08.2017 21:53 19,3 °C 19,6 °C 76 % 1016,3 hPa 0,0 mm 0,0 km/h (0 Bft) W-NW 296 ° 0 min 0,000 mm 0,0 UV-I 0 W/m² 15,0 °C 19,3 °C 0,0 km/h (0 Bft)
15.08.2017 21:54 19,1 °C 19,3 °C 77 % 1016,3 hPa 0,0 mm 2,6 km/h (1 Bft) S-SO 155 ° 0 min 0,000 mm 0,0 UV-I 0 W/m² 15,0 °C 19,1 °C 4,8 km/h (1 Bft)
15.08.2017 21:55 19,1 °C 19,1 °C 75 % 1016,3 hPa 0,0 mm 1,5 km/h (1 Bft) S-SO 155 ° 0 min 0,000 mm 0,0 UV-I 0 W/m² 14,6 °C 19,1 °C 3,2 km/h (1 Bft)
15.08.2017 21:56 19,2 °C 19,2 °C 75 % 1016,3 hPa 0,0 mm 2,7 km/h (1 Bft) S 174 ° 0 min 0,000 mm 0,0 UV-I 0 W/m² 14,7 °C 19,2 °C 6,4 km/h (2 Bft)
15.08.2017 21:57 19,3 °C 19,3 °C 74 % 1016,3 hPa 0,0 mm 3,7 km/h (1 Bft) S 178 ° 0 min 0,000 mm 0,0 UV-I 0 W/m² 14,5 °C 19,3 °C 6,4 km/h (2 Bft)
15.08.2017 21:58 19,4 °C 19,4 °C 74 % 1016,3 hPa 0,0 mm 3,5 km/h (1 Bft) S 178 ° 0 min 0,000 mm 0,0 UV-I 0 W/m² 14,6 °C 19,4 °C 4,8 km/h (1 Bft)
15.08.2017 21:59 19,5 °C 19,5 °C 75 % 1016,3 hPa 0,0 mm 1,5 km/h (1 Bft) S 178 ° 0 min 0,000 mm 0,0 UV-I 0 W/m² 14,9 °C 19,5 °C 3,2 km/h (1 Bft)
15.08.2017 22:00 19,5 °C 19,5 °C 74 % 1016,3 hPa 0,0 mm 0,8 km/h (0 Bft) S 178 ° 0 min 0,000 mm 0,0 UV-I 0 W/m² 14,7 °C 19,5 °C 1,6 km/h (1 Bft)
15.08.2017 22:01 19,4 °C 19,5 °C 75 % 1016,3 hPa 0,0 mm 0,0 km/h (0 Bft) S 178 ° 0 min 0,026 mm 0,0 UV-I 0 W/m² 14,8 °C 19,4 °C 0,0 km/h (0 Bft)
15.08.2017 22:02 19,3 °C 19,4 °C 76 % 1016,4 hPa 0,0 mm 0,0 km/h (0 Bft) S 178 ° 0 min 0,000 mm 0,0 UV-I 0 W/m² 15,0 °C 19,3 °C 0,0 km/h (0 Bft)
15.08.2017 22:03 19,2 °C 19,3 °C 77 % 1016,4 hPa 0,0 mm 0,0 km/h (0 Bft) S 178 ° 0 min 0,000 mm 0,0 UV-I 0 W/m² 15,1 °C 19,2 °C 0,0 km/h (0 Bft)
15.08.2017 22:04 19,1 °C 19,2 °C 78 % 1016,4 hPa 0,0 mm 0,0 km/h (0 Bft) S 178 ° 0 min 0,000 mm 0,0 UV-I 0 W/m² 15,2 °C 19,1 °C 0,0 km/h (0 Bft)
15.08.2017 22:05 18,9 °C 19,1 °C 79 % 1016,5 hPa 0,0 mm 0,0 km/h (0 Bft) S 178 ° 0 min 0,000 mm 0,0 UV-I 0 W/m² 15,2 °C 18,9 °C 0,0 km/h (0 Bft)
15.08.2017 22:06 18,8 °C 18,9 °C 80 % 1016,5 hPa 0,0 mm 0,0 km/h (0 Bft) S 178 ° 0 min 0,000 mm 0,0 UV-I 0 W/m² 15,3 °C 18,8 °C 0,0 km/h (0 Bft)
15.08.2017 22:07 18,7 °C 18,8 °C 80 % 1016,5 hPa 0,0 mm 0,0 km/h (0 Bft) S 178 ° 0 min 0,000 mm 0,0 UV-I 0 W/m² 15,2 °C 18,7 °C 0,0 km/h (0 Bft)
15.08.2017 22:08 18,6 °C 18,7 °C 80 % 1016,5 hPa 0,0 mm 0,0 km/h (0 Bft) S 178 ° 0 min 0,000 mm 0,0 UV-I 0 W/m² 15,1 °C 18,6 °C 0,0 km/h (0 Bft)
15.08.2017 22:09 18,6 °C 18,6 °C 80 % 1016,6 hPa 0,0 mm 1,4 km/h (1 Bft) S 178 ° 0 min 0,000 mm 0,0 UV-I 0 W/m² 15,1 °C 18,6 °C 1,6 km/h (1 Bft)
15.08.2017 22:10 18,6 °C 18,6 °C 80 % 1016,5 hPa 0,0 mm 3,7 km/h (1 Bft) S 178 ° 0 min 0,000 mm 0,0 UV-I 0 W/m² 15,1 °C 18,6 °C 4,8 km/h (1 Bft)
15.08.2017 22:11 18,6 °C 18,6 °C 80 % 1016,5 hPa 0,0 mm 3,4 km/h (1 Bft) S 178 ° 0 min 0,000 mm 0,0 UV-I 0 W/m² 15,1 °C 18,6 °C 4,8 km/h (1 Bft)
15.08.2017 22:12 18,6 °C 18,7 °C 80 % 1016,5 hPa 0,0 mm 0,0 km/h (0 Bft) S 178 ° 0 min 0,000 mm 0,0 UV-I 0 W/m² 15,1 °C 18,6 °C 0,0 km/h (0 Bft)
15.08.2017 22:13 18,7 °C 18,7 °C 80 % 1016,5 hPa 0,0 mm 2,0 km/h (1 Bft) W-SW 250 ° 0 min 0,000 mm 0,0 UV-I 0 W/m² 15,2 °C 18,7 °C 3,2 km/h (1 Bft)
15.08.2017 22:14 18,7 °C 18,7 °C 80 % 1016,6 hPa 0,0 mm 0,2 km/h (0 Bft) W-SW 250 ° 0 min 0,000 mm 0,0 UV-I 0 W/m² 15,2 °C 18,7 °C 1,6 km/h (1 Bft)
15.08.2017 22:15 18,7 °C 18,7 °C 80 % 1016,6 hPa 0,0 mm 0,0 km/h (0 Bft) W-SW 250 ° 0 min 0,000 mm 0,0 UV-I 0 W/m² 15,2 °C 18,7 °C 0,0 km/h (0 Bft)
15.08.2017 22:16 18,6 °C 18,7 °C 81 % 1016,6 hPa 0,0 mm 0,0 km/h (0 Bft) W-SW 246 ° 0 min 0,000 mm 0,0 UV-I 0 W/m² 15,3 °C 18,6 °C 0,0 km/h (0 Bft)
15.08.2017 22:17 18,6 °C 18,6 °C 80 % 1016,6 hPa 0,0 mm 0,8 km/h (0 Bft) W-SW 246 ° 0 min 0,000 mm 0,0 UV-I 0 W/m² 15,1 °C 18,6 °C 1,6 km/h (1 Bft)
15.08.2017 22:18 18,6 °C 18,6 °C 81 % 1016,7 hPa 0,0 mm 0,3 km/h (0 Bft) W-SW 258 ° 0 min 0,000 mm 0,0 UV-I 0 W/m² 15,3 °C 18,6 °C 3,2 km/h (1 Bft)
15.08.2017 22:19 18,6 °C 18,6 °C 81 % 1016,8 hPa 0,0 mm 3,1 km/h (1 Bft) W 267 ° 0 min 0,000 mm 0,0 UV-I 0 W/m² 15,3 °C 18,6 °C 4,8 km/h (1 Bft)
15.08.2017 22:20 18,5 °C 18,6 °C 80 % 1016,8 hPa 0,0 mm 1,7 km/h (1 Bft) W 267 ° 0 min 0,000 mm 0,0 UV-I 0 W/m² 15,0 °C 18,5 °C 3,2 km/h (1 Bft)
15.08.2017 22:21 18,5 °C 18,5 °C 81 % 1016,8 hPa 0,0 mm 0,3 km/h (0 Bft) W 267 ° 0 min 0,000 mm 0,0 UV-I 0 W/m² 15,2 °C 18,5 °C 1,6 km/h (1 Bft)
15.08.2017 22:22 18,4 °C 18,5 °C 80 % 1016,8 hPa 0,0 mm 0,5 km/h (0 Bft) W 267 ° 0 min 0,000 mm 0,0 UV-I 0 W/m² 14,9 °C 18,4 °C 1,6 km/h (1 Bft)
15.08.2017 22:23 18,5 °C 18,5 °C 80 % 1016,8 hPa 0,0 mm 0,0 km/h (0 Bft) W 267 ° 0 min 0,000 mm 0,0 UV-I 0 W/m² 15,0 °C 18,5 °C 0,0 km/h (0 Bft)
15.08.2017 22:24 18,4 °C 18,5 °C 80 % 1016,8 hPa 0,0 mm 0,1 km/h (0 Bft) W 267 ° 0 min 0,000 mm 0,0 UV-I 0 W/m² 14,9 °C 18,4 °C 1,6 km/h (1 Bft)
15.08.2017 22:25 18,5 °C 18,5 °C 80 % 1016,8 hPa 0,0 mm 0,1 km/h (0 Bft) W 267 ° 0 min 0,000 mm 0,0 UV-I 0 W/m² 15,0 °C 18,5 °C 1,6 km/h (1 Bft)
15.08.2017 22:26 18,5 °C 18,5 °C 80 % 1016,8 hPa 0,0 mm 0,0 km/h (0 Bft) W 267 ° 0 min 0,000 mm 0,0 UV-I 0 W/m² 15,0 °C 18,5 °C 0,0 km/h (0 Bft)
15.08.2017 22:27 18,5 °C 18,5 °C 80 % 1016,9 hPa 0,0 mm 0,0 km/h (0 Bft) W 267 ° 0 min 0,000 mm 0,0 UV-I 0 W/m² 15,0 °C 18,5 °C 0,0 km/h (0 Bft)
15.08.2017 22:28 18,5 °C 18,5 °C 79 % 1016,9 hPa 0,0 mm 0,8 km/h (0 Bft) W 267 ° 0 min 0,000 mm 0,0 UV-I 0 W/m² 14,8 °C 18,5 °C 1,6 km/h (1 Bft)
15.08.2017 22:29 18,5 °C 18,5 °C 78 % 1016,9 hPa 0,0 mm 0,1 km/h (0 Bft) W 267 ° 0 min 0,000 mm 0,0 UV-I 0 W/m² 14,6 °C 18,5 °C 1,6 km/h (1 Bft)
15.08.2017 22:30 18,6 °C 18,6 °C 78 % 1016,9 hPa 0,0 mm 1,3 km/h (1 Bft) W 267 ° 0 min 0,000 mm 0,0 UV-I 0 W/m² 14,7 °C 18,6 °C 3,2 km/h (1 Bft)
15.08.2017 22:31 18,7 °C 18,7 °C 77 % 1016,9 hPa 0,0 mm 2,4 km/h (1 Bft) W-SW 240 ° 0 min 0,000 mm 0,0 UV-I 0 W/m² 14,6 °C 18,7 °C 4,8 km/h (1 Bft)
15.08.2017 22:32 18,9 °C 18,9 °C 77 % 1016,8 hPa 0,0 mm 2,2 km/h (1 Bft) W-SW 240 ° 0 min 0,000 mm 0,0 UV-I 0 W/m² 14,8 °C 18,9 °C 3,2 km/h (1 Bft)
15.08.2017 22:33 19,1 °C 19,1 °C 76 % 1016,8 hPa 0,0 mm 2,6 km/h (1 Bft) W-SW 240 ° 0 min 0,000 mm 0,0 UV-I 0 W/m² 14,8 °C 19,1 °C 3,2 km/h (1 Bft)
15.08.2017 22:34 19,2 °C 19,2 °C 75 % 1016,8 hPa 0,0 mm 2,4 km/h (1 Bft) SW 236 ° 0 min 0,000 mm 0,0 UV-I 0 W/m² 14,7 °C 19,2 °C 4,8 km/h (1 Bft)
15.08.2017 22:35 19,3 °C 19,3 °C 74 % 1016,9 hPa 0,0 mm 3,1 km/h (1 Bft) SW 220 ° 0 min 0,000 mm 0,0 UV-I 0 W/m² 14,5 °C 19,3 °C 4,8 km/h (1 Bft)
15.08.2017 22:36 19,5 °C 19,5 °C 74 % 1016,8 hPa 0,0 mm 3,0 km/h (1 Bft) SW 220 ° 0 min 0,000 mm 0,0 UV-I 0 W/m² 14,7 °C 19,5 °C 4,8 km/h (1 Bft)
15.08.2017 22:37 19,6 °C 19,6 °C 74 % 1016,9 hPa 0,0 mm 0,6 km/h (0 Bft) SW 220 ° 0 min 0,000 mm 0,0 UV-I 0 W/m² 14,8 °C 19,6 °C 1,6 km/h (1 Bft)
15.08.2017 22:38 19,6 °C 19,6 °C 74 % 1016,9 hPa 0,0 mm 0,0 km/h (0 Bft) SW 220 ° 0 min 0,000 mm 0,0 UV-I 0 W/m² 14,8 °C 19,6 °C 0,0 km/h (0 Bft)
15.08.2017 22:39 19,7 °C 19,7 °C 73 % 1016,9 hPa 0,0 mm 0,0 km/h (0 Bft) SW 220 ° 0 min 0,000 mm 0,0 UV-I 0 W/m² 14,7 °C 19,7 °C 0,0 km/h (0 Bft)
15.08.2017 22:40 19,7 °C 19,7 °C 73 % 1017,0 hPa 0,0 mm 0,5 km/h (0 Bft) SW 220 ° 0 min 0,000 mm 0,0 UV-I 0 W/m² 14,7 °C 19,7 °C 1,6 km/h (1 Bft)
15.08.2017 22:41 19,7 °C 19,7 °C 73 % 1017,0 hPa 0,0 mm 0,1 km/h (0 Bft) SW 220 ° 0 min 0,000 mm 0,0 UV-I 0 W/m² 14,7 °C 19,7 °C 1,6 km/h (1 Bft)
15.08.2017 22:42 19,8 °C 19,8 °C 73 % 1017,0 hPa 0,0 mm 4,1 km/h (1 Bft) W 267 ° 0 min 0,000 mm 0,0 UV-I 0 W/m² 14,8 °C 19,8 °C 4,8 km/h (1 Bft)
15.08.2017 22:43 19,8 °C 19,8 °C 73 % 1017,0 hPa 0,0 mm 0,6 km/h (0 Bft) W 266 ° 0 min 0,000 mm 0,0 UV-I 0 W/m² 14,8 °C 19,8 °C 1,6 km/h (1 Bft)
15.08.2017 22:44 19,8 °C 19,8 °C 73 % 1017,0 hPa 0,0 mm 0,0 km/h (0 Bft) W 266 ° 0 min 0,000 mm 0,0 UV-I 0 W/m² 14,8 °C 19,8 °C 0,0 km/h (0 Bft)
15.08.2017 22:45 19,9 °C 19,9 °C 72 % 1017,0 hPa 0,0 mm 0,0 km/h (0 Bft) W 266 ° 0 min 0,000 mm 0,0 UV-I 0 W/m² 14,7 °C 19,9 °C 0,0 km/h (0 Bft)
15.08.2017 22:46 19,9 °C 19,9 °C 72 % 1016,9 hPa 0,0 mm 0,0 km/h (0 Bft) W 266 ° 0 min 0,000 mm 0,0 UV-I 0 W/m² 14,7 °C 19,9 °C 0,0 km/h (0 Bft)
15.08.2017 22:47 19,9 °C 19,9 °C 72 % 1016,8 hPa 0,0 mm 0,7 km/h (0 Bft) SW 227 ° 0 min 0,000 mm 0,0 UV-I 0 W/m² 14,7 °C 19,9 °C 1,6 km/h (1 Bft)
15.08.2017 22:48 19,9 °C 19,9 °C 72 % 1016,8 hPa 0,0 mm 1,6 km/h (1 Bft) SW 226 ° 0 min 0,000 mm 0,0 UV-I 0 W/m² 14,7 °C 19,9 °C 3,2 km/h (1 Bft)
15.08.2017 22:49 19,9 °C 19,9 °C 72 % 1016,8 hPa 0,0 mm 2,0 km/h (1 Bft) SW 227 ° 0 min 0,000 mm 0,0 UV-I 0 W/m² 14,7 °C 19,9 °C 3,2 km/h (1 Bft)
15.08.2017 22:50 19,9 °C 20,0 °C 72 % 1016,8 hPa 0,0 mm 0,4 km/h (0 Bft) SW 227 ° 0 min 0,000 mm 0,0 UV-I 0 W/m² 14,7 °C 19,9 °C 1,6 km/h (1 Bft)
15.08.2017 22:51 20,0 °C 20,0 °C 72 % 1016,7 hPa 0,0 mm 0,0 km/h (0 Bft) SW 227 ° 0 min 0,000 mm 0,0 UV-I 0 W/m² 14,8 °C 20,0 °C 0,0 km/h (0 Bft)
15.08.2017 22:52 20,0 °C 20,0 °C 72 % 1016,7 hPa 0,0 mm 0,5 km/h (0 Bft) SW 227 ° 0 min 0,000 mm 0,0 UV-I 0 W/m² 14,8 °C 20,0 °C 1,6 km/h (1 Bft)
15.08.2017 22:53 19,9 °C 20,0 °C 72 % 1016,7 hPa 0,0 mm 1,5 km/h (1 Bft) SW 227 ° 0 min 0,000 mm 0,0 UV-I 0 W/m² 14,7 °C 19,9 °C 3,2 km/h (1 Bft)
15.08.2017 22:54 19,8 °C 19,9 °C 73 % 1016,7 hPa 0,0 mm 1,3 km/h (1 Bft) SW 226 ° 0 min 0,000 mm 0,0 UV-I 0 W/m² 14,8 °C 19,8 °C 1,6 km/h (1 Bft)
15.08.2017 22:55 19,8 °C 19,8 °C 73 % 1016,7 hPa 0,0 mm 1,6 km/h (1 Bft) SW 226 ° 0 min 0,000 mm 0,0 UV-I 0 W/m² 14,8 °C 19,8 °C 3,2 km/h (1 Bft)
15.08.2017 22:56 19,7 °C 19,8 °C 73 % 1016,7 hPa 0,0 mm 1,7 km/h (1 Bft) SW 226 ° 0 min 0,000 mm 0,0 UV-I 0 W/m² 14,7 °C 19,7 °C 3,2 km/h (1 Bft)
15.08.2017 22:57 19,6 °C 19,7 °C 74 % 1016,7 hPa 0,0 mm 0,1 km/h (0 Bft) SW 226 ° 0 min 0,000 mm 0,0 UV-I 0 W/m² 14,8 °C 19,6 °C 1,6 km/h (1 Bft)
15.08.2017 22:58 19,4 °C 19,6 °C 75 % 1016,7 hPa 0,0 mm 0,0 km/h (0 Bft) SW 226 ° 0 min 0,000 mm 0,0 UV-I 0 W/m² 14,8 °C 19,4 °C 0,0 km/h (0 Bft)
15.08.2017 22:59 19,3 °C 19,4 °C 75 % 1016,7 hPa 0,0 mm 0,0 km/h (0 Bft) SW 226 ° 0 min 0,000 mm 0,0 UV-I 0 W/m² 14,8 °C 19,3 °C 0,0 km/h (0 Bft)
15.08.2017 23:00 19,2 °C 19,3 °C 77 % 1016,8 hPa 0,0 mm 0,0 km/h (0 Bft) SW 226 ° 0 min 0,000 mm 0,0 UV-I 0 W/m² 15,1 °C 19,2 °C 0,0 km/h (0 Bft)
15.08.2017 23:01 18,9 °C 19,2 °C 77 % 1016,8 hPa 0,0 mm 0,0 km/h (0 Bft) SW 226 ° 0 min 0,025 mm 0,0 UV-I 0 W/m² 14,8 °C 18,9 °C 0,0 km/h (0 Bft)
15.08.2017 23:02 18,8 °C 18,9 °C 77 % 1016,8 hPa 0,0 mm 0,7 km/h (0 Bft) SW 226 ° 0 min 0,000 mm 0,0 UV-I 0 W/m² 14,7 °C 18,8 °C 3,2 km/h (1 Bft)
15.08.2017 23:03 18,6 °C 18,8 °C 78 % 1016,8 hPa 0,0 mm 1,7 km/h (1 Bft) SW 226 ° 0 min 0,000 mm 0,0 UV-I 0 W/m² 14,7 °C 18,6 °C 3,2 km/h (1 Bft)
15.08.2017 23:04 18,6 °C 18,6 °C 79 % 1016,8 hPa 0,0 mm 0,2 km/h (0 Bft) SW 226 ° 0 min 0,000 mm 0,0 UV-I 0 W/m² 14,9 °C 18,6 °C 1,6 km/h (1 Bft)
15.08.2017 23:05 18,4 °C 18,6 °C 79 % 1016,8 hPa 0,0 mm 0,0 km/h (0 Bft) SW 226 ° 0 min 0,000 mm 0,0 UV-I 0 W/m² 14,7 °C 18,4 °C 0,0 km/h (0 Bft)
15.08.2017 23:06 18,3 °C 18,4 °C 80 % 1016,8 hPa 0,0 mm 0,0 km/h (0 Bft) SW 226 ° 0 min 0,000 mm 0,0 UV-I 0 W/m² 14,8 °C 18,3 °C 0,0 km/h (0 Bft)
15.08.2017 23:07 18,2 °C 18,3 °C 80 % 1016,8 hPa 0,0 mm 0,0 km/h (0 Bft) SW 226 ° 0 min 0,000 mm 0,0 UV-I 0 W/m² 14,7 °C 18,2 °C 0,0 km/h (0 Bft)
15.08.2017 23:08 18,1 °C 18,2 °C 82 % 1016,7 hPa 0,0 mm 0,0 km/h (0 Bft) SW 226 ° 0 min 0,000 mm 0,0 UV-I 0 W/m² 15,0 °C 18,1 °C 0,0 km/h (0 Bft)
15.08.2017 23:09 17,9 °C 18,1 °C 82 % 1016,8 hPa 0,0 mm 0,0 km/h (0 Bft) SW 226 ° 0 min 0,000 mm 0,0 UV-I 0 W/m² 14,8 °C 17,9 °C 0,0 km/h (0 Bft)
15.08.2017 23:10 17,8 °C 17,9 °C 82 % 1016,8 hPa 0,0 mm 0,0 km/h (0 Bft) SW 226 ° 0 min 0,000 mm 0,0 UV-I 0 W/m² 14,7 °C 17,8 °C 0,0 km/h (0 Bft)
15.08.2017 23:11 17,8 °C 17,8 °C 82 % 1016,8 hPa 0,0 mm 0,0 km/h (0 Bft) SW 227 ° 0 min 0,000 mm 0,0 UV-I 0 W/m² 14,7 °C 17,8 °C 0,0 km/h (0 Bft)
15.08.2017 23:12 17,8 °C 17,8 °C 82 % 1016,8 hPa 0,0 mm 0,0 km/h (0 Bft) SW 227 ° 0 min 0,000 mm 0,0 UV-I 0 W/m² 14,7 °C 17,8 °C 0,0 km/h (0 Bft)
15.08.2017 23:13 17,8 °C 17,9 °C 81 % 1016,8 hPa 0,0 mm 0,0 km/h (0 Bft) SW 226 ° 0 min 0,000 mm 0,0 UV-I 0 W/m² 14,5 °C 17,8 °C 0,0 km/h (0 Bft)
15.08.2017 23:14 17,8 °C 17,8 °C 82 % 1016,8 hPa 0,0 mm 0,0 km/h (0 Bft) SW 226 ° 0 min 0,000 mm 0,0 UV-I 0 W/m² 14,7 °C 17,8 °C 0,0 km/h (0 Bft)
15.08.2017 23:15 17,8 °C 17,8 °C 83 % 1016,9 hPa 0,0 mm 0,0 km/h (0 Bft) SW 226 ° 0 min 0,000 mm 0,0 UV-I 0 W/m² 14,9 °C 17,8 °C 0,0 km/h (0 Bft)
15.08.2017 23:16 17,7 °C 17,8 °C 84 % 1016,8 hPa 0,0 mm 0,0 km/h (0 Bft) SW 227 ° 0 min 0,000 mm 0,0 UV-I 0 W/m² 15,0 °C 17,7 °C 0,0 km/h (0 Bft)
15.08.2017 23:17 17,7 °C 17,7 °C 84 % 1016,9 hPa 0,0 mm 1,9 km/h (1 Bft) SW 229 ° 0 min 0,000 mm 0,0 UV-I 0 W/m² 15,0 °C 17,7 °C 3,2 km/h (1 Bft)
15.08.2017 23:18 17,6 °C 17,7 °C 84 % 1016,9 hPa 0,0 mm 2,0 km/h (1 Bft) SW 229 ° 0 min 0,000 mm 0,0 UV-I 0 W/m² 14,9 °C 17,6 °C 3,2 km/h (1 Bft)
15.08.2017 23:19 17,5 °C 17,6 °C 84 % 1017,0 hPa 0,0 mm 2,5 km/h (1 Bft) SW 229 ° 0 min 0,000 mm 0,0 UV-I 0 W/m² 14,8 °C 17,5 °C 3,2 km/h (1 Bft)
15.08.2017 23:20 17,4 °C 17,5 °C 84 % 1017,0 hPa 0,0 mm 3,2 km/h (1 Bft) S-SW 199 ° 0 min 0,000 mm 0,0 UV-I 0 W/m² 14,7 °C 17,4 °C 4,8 km/h (1 Bft)
15.08.2017 23:21 17,4 °C 17,4 °C 83 % 1017,1 hPa 0,0 mm 1,8 km/h (1 Bft) S-SW 199 ° 0 min 0,000 mm 0,0 UV-I 0 W/m² 14,5 °C 17,4 °C 3,2 km/h (1 Bft)
15.08.2017 23:22 17,4 °C 17,4 °C 84 % 1017,1 hPa 0,0 mm 1,5 km/h (1 Bft) S-SW 200 ° 0 min 0,000 mm 0,0 UV-I 0 W/m² 14,7 °C 17,4 °C 3,2 km/h (1 Bft)
15.08.2017 23:23 17,5 °C 17,5 °C 83 % 1017,1 hPa 0,0 mm 0,9 km/h (0 Bft) S-SW 200 ° 0 min 0,000 mm 0,0 UV-I 0 W/m² 14,6 °C 17,5 °C 1,6 km/h (1 Bft)
15.08.2017 23:24 17,6 °C 17,6 °C 83 % 1017,1 hPa 0,0 mm 0,1 km/h (0 Bft) S-SW 200 ° 0 min 0,000 mm 0,0 UV-I 0 W/m² 14,7 °C 17,6 °C 1,6 km/h (1 Bft)
15.08.2017 23:25 17,6 °C 17,6 °C 83 % 1017,2 hPa 0,0 mm 0,7 km/h (0 Bft) SW 221 ° 0 min 0,000 mm 0,0 UV-I 0 W/m² 14,7 °C 17,6 °C 3,2 km/h (1 Bft)
15.08.2017 23:26 17,7 °C 17,7 °C 83 % 1017,3 hPa 0,0 mm 3,0 km/h (1 Bft) W-SW 249 ° 0 min 0,000 mm 0,0 UV-I 0 W/m² 14,8 °C 17,7 °C 4,8 km/h (1 Bft)
15.08.2017 23:27 17,7 °C 17,7 °C 82 % 1017,3 hPa 0,0 mm 1,7 km/h (1 Bft) W-SW 249 ° 0 min 0,000 mm 0,0 UV-I 0 W/m² 14,6 °C 17,7 °C 3,2 km/h (1 Bft)
15.08.2017 23:28 17,8 °C 17,8 °C 82 % 1017,3 hPa 0,0 mm 2,2 km/h (1 Bft) W-SW 250 ° 0 min 0,000 mm 0,0 UV-I 0 W/m² 14,7 °C 17,8 °C 4,8 km/h (1 Bft)
15.08.2017 23:29 18,0 °C 18,0 °C 81 % 1017,3 hPa 0,0 mm 0,9 km/h (0 Bft) W-SW 250 ° 0 min 0,000 mm 0,0 UV-I 0 W/m² 14,7 °C 18,0 °C 3,2 km/h (1 Bft)
15.08.2017 23:30 18,2 °C 18,2 °C 81 % 1017,4 hPa 0,0 mm 4,4 km/h (1 Bft) W-SW 256 ° 0 min 0,000 mm 0,0 UV-I 0 W/m² 14,9 °C 18,2 °C 6,4 km/h (2 Bft)
15.08.2017 23:31 18,2 °C 18,2 °C 81 % 1017,5 hPa 0,0 mm 6,2 km/h (2 Bft) W-NW 288 ° 0 min 0,000 mm 0,0 UV-I 0 W/m² 14,9 °C 18,2 °C 9,7 km/h (2 Bft)
15.08.2017 23:32 18,3 °C 18,3 °C 81 % 1017,5 hPa 0,0 mm 6,8 km/h (2 Bft) W 268 ° 0 min 0,000 mm 0,0 UV-I 0 W/m² 15,0 °C 18,3 °C 11,3 km/h (2 Bft)
15.08.2017 23:33 18,3 °C 18,3 °C 81 % 1017,7 hPa 0,0 mm 11,6 km/h (2 Bft) W-SW 252 ° 0 min 0,000 mm 0,0 UV-I 0 W/m² 15,0 °C 18,3 °C 16,1 km/h (3 Bft)
15.08.2017 23:34 18,4 °C 18,4 °C 81 % 1017,8 hPa 0,0 mm 7,9 km/h (2 Bft) W-SW 258 ° 0 min 0,000 mm 0,0 UV-I 0 W/m² 15,1 °C 18,4 °C 12,9 km/h (3 Bft)
15.08.2017 23:35 18,4 °C 18,4 °C 81 % 1017,8 hPa 0,0 mm 7,3 km/h (2 Bft) W-SW 257 ° 0 min 0,000 mm 0,0 UV-I 0 W/m² 15,1 °C 18,4 °C 12,9 km/h (3 Bft)
15.08.2017 23:36 18,5 °C 18,5 °C 80 % 1017,8 hPa 0,0 mm 11,7 km/h (2 Bft) W-SW 256 ° 0 min 0,000 mm 0,0 UV-I 0 W/m² 15,0 °C 18,5 °C 20,9 km/h (4 Bft)
15.08.2017 23:37 18,6 °C 18,6 °C 80 % 1017,8 hPa 0,0 mm 13,9 km/h (3 Bft) W 273 ° 0 min 0,000 mm 0,0 UV-I 0 W/m² 15,1 °C 18,6 °C 19,3 km/h (3 Bft)
15.08.2017 23:38 18,7 °C 18,7 °C 79 % 1017,9 hPa 0,0 mm 17,2 km/h (3 Bft) W-NW 296 ° 0 min 0,000 mm 0,0 UV-I 0 W/m² 15,0 °C 18,7 °C 25,7 km/h (4 Bft)
15.08.2017 23:39 18,8 °C 18,8 °C 79 % 1017,9 hPa 0,0 mm 16,4 km/h (3 Bft) W 264 ° 0 min 0,000 mm 0,0 UV-I 0 W/m² 15,1 °C 18,8 °C 29,0 km/h (5 Bft)
15.08.2017 23:40 18,8 °C 18,8 °C 79 % 1017,8 hPa 0,0 mm 14,1 km/h (3 Bft) NW 315 ° 0 min 0,000 mm 0,0 UV-I 0 W/m² 15,1 °C 18,8 °C 20,9 km/h (4 Bft)
15.08.2017 23:41 18,9 °C 18,9 °C 79 % 1018,0 hPa 0,0 mm 19,4 km/h (3 Bft) W-SW 255 ° 0 min 0,000 mm 0,0 UV-I 0 W/m² 15,2 °C 18,9 °C 25,7 km/h (4 Bft)
15.08.2017 23:42 18,9 °C 18,9 °C 79 % 1018,2 hPa 0,0 mm 18,3 km/h (3 Bft) W-SW 251 ° 0 min 0,000 mm 0,0 UV-I 0 W/m² 15,2 °C 18,9 °C 32,2 km/h (5 Bft)
15.08.2017 23:43 19,0 °C 19,0 °C 80 % 1018,0 hPa 0,0 mm 21,1 km/h (4 Bft) W-SW 242 ° 0 min 0,000 mm 0,0 UV-I 0 W/m² 15,5 °C 19,0 °C 32,2 km/h (5 Bft)
15.08.2017 23:44 19,1 °C 19,1 °C 80 % 1018,1 hPa 0,0 mm 20,2 km/h (4 Bft) W-SW 237 ° 0 min 0,000 mm 0,0 UV-I 0 W/m² 15,6 °C 19,1 °C 29,0 km/h (5 Bft)
15.08.2017 23:45 19,1 °C 19,1 °C 81 % 1018,2 hPa 0,0 mm 18,1 km/h (3 Bft) W-NW 284 ° 0 min 0,000 mm 0,0 UV-I 0 W/m² 15,8 °C 19,1 °C 29,0 km/h (5 Bft)
15.08.2017 23:46 18,9 °C 19,1 °C 81 % 1018,1 hPa 0,0 mm 25,8 km/h (4 Bft) W 267 ° 0 min 0,000 mm 0,0 UV-I 0 W/m² 15,6 °C 18,9 °C 32,2 km/h (5 Bft)
15.08.2017 23:47 18,8 °C 18,9 °C 82 % 1018,2 hPa 0,2 mm 22,7 km/h (4 Bft) W-NW 302 ° 0 min 0,000 mm 0,0 UV-I 0 W/m² 15,7 °C 18,8 °C 30,6 km/h (5 Bft)
15.08.2017 23:48 18,6 °C 18,8 °C 83 % 1018,2 hPa 0,0 mm 19,8 km/h (3 Bft) W 261 ° 0 min 0,000 mm 0,0 UV-I 0 W/m² 15,7 °C 18,6 °C 32,2 km/h (5 Bft)
15.08.2017 23:49 18,4 °C 18,6 °C 84 % 1018,2 hPa 0,0 mm 19,0 km/h (3 Bft) W 279 ° 0 min 0,000 mm 0,0 UV-I 0 W/m² 15,6 °C 18,4 °C 29,0 km/h (5 Bft)
15.08.2017 23:50 18,2 °C 18,4 °C 84 % 1018,3 hPa 0,0 mm 19,4 km/h (3 Bft) W-SW 246 ° 0 min 0,000 mm 0,0 UV-I 0 W/m² 15,4 °C 18,2 °C 27,4 km/h (4 Bft)
15.08.2017 23:51 18,1 °C 18,2 °C 84 % 1018,3 hPa 0,0 mm 20,6 km/h (4 Bft) W 261 ° 0 min 0,000 mm 0,0 UV-I 0 W/m² 15,4 °C 18,1 °C 25,7 km/h (4 Bft)
15.08.2017 23:52 17,8 °C 18,1 °C 84 % 1018,4 hPa 0,0 mm 13,7 km/h (3 Bft) W-SW 255 ° 0 min 0,000 mm 0,0 UV-I 0 W/m² 15,1 °C 17,8 °C 20,9 km/h (4 Bft)
15.08.2017 23:53 17,7 °C 17,8 °C 85 % 1018,4 hPa 0,0 mm 10,8 km/h (2 Bft) SW 224 ° 0 min 0,000 mm 0,0 UV-I 0 W/m² 15,1 °C 17,7 °C 20,9 km/h (4 Bft)
15.08.2017 23:54 17,6 °C 17,7 °C 85 % 1018,3 hPa 0,0 mm 8,3 km/h (2 Bft) S 188 ° 0 min 0,000 mm 0,0 UV-I 0 W/m² 15,0 °C 17,6 °C 14,5 km/h (3 Bft)
15.08.2017 23:55 17,4 °C 17,6 °C 84 % 1018,5 hPa 0,0 mm 7,8 km/h (2 Bft) W-NW 290 ° 0 min 0,000 mm 0,0 UV-I 0 W/m² 14,7 °C 17,4 °C 14,5 km/h (3 Bft)
15.08.2017 23:56 17,3 °C 17,4 °C 85 % 1018,5 hPa 0,0 mm 9,5 km/h (2 Bft) W 277 ° 0 min 0,000 mm 0,0 UV-I 0 W/m² 14,8 °C 17,3 °C 14,5 km/h (3 Bft)
15.08.2017 23:57 17,2 °C 17,3 °C 86 % 1018,4 hPa 0,0 mm 13,9 km/h (3 Bft) W-NW 286 ° 0 min 0,000 mm 0,0 UV-I 0 W/m² 14,8 °C 17,2 °C 17,7 km/h (3 Bft)
15.08.2017 23:58 17,1 °C 17,2 °C 86 % 1018,4 hPa 0,0 mm 9,1 km/h (2 Bft) W-NW 283 ° 0 min 0,000 mm 0,0 UV-I 0 W/m² 14,7 °C 17,1 °C 16,1 km/h (3 Bft)
15.08.2017 23:59 17,0 °C 17,1 °C 87 % 1018,4 hPa 0,0 mm 13,5 km/h (3 Bft) SW 225 ° 0 min 0,000 mm 0,0 UV-I 0 W/m² 14,8 °C 17,0 °C 25,7 km/h (4 Bft)
_ Min-Zeit 04:05 06:10 12:32 20:38 - 23:16 - - - - - - 06:40 04:05 23:16
Minimum _ 13,1 °C 13,2 °C 42 % 1015,1 hPa - 0,0 km/h (0 Bft) - - - - - - 11,6 °C 13,1 °C 0,0 km/h (0 Bft)
_ Max-Zeit 14:10 14:10 05:20 23:56 23:47 23:46 - - 16:15 14:00 13:37 13:36 10:50 14:10 23:48
Maximum _ 27,4 °C 27,4 °C 92 % 1018,5 hPa 0,2 mm 25,8 km/h
W (4 Bft)
- - 1 min 0,559 mm 7,2 UV-I 914 W/m² 18,1 °C 27,3 °C 32,2 km/h
W (5 Bft)
Durchschnitt _ 20,3 °C 20,3 °C 71 % 1016,7 hPa #0,2 mm 1,9 km/h (1 Bft) NW - #7:48 h #3,683 mm 3,6 UV-I 222 W/m² 14,3 °C 20,3 °C 3,3 km/h (1 Bft)